<?xml version="1.0" encoding="UTF-8" standalone="no" ?>
<gpx xmlns="http://www.topografix.com/GPX/1/1" xmlns:xsi="http://www.w3.org/2001/XMLSchema-instance" xsi:schemaLocation="http://www.topografix.com/GPX/1/1 http://www.topografix.com/GPX/1/1/gpx.xsd" version="1.1" creator="VisuGPX - https://www.visugpx.com">
  <metadata>
    <name>Tour du Salagou par Moureze</name>
    <desc><![CDATA[Belle virée autour du Salagou avec passage par Moureze. De super monotrace salagouesque !]]></desc>
  </metadata>
  <trk>
    <name><![CDATA[2011-03-06-01]]></name>
    <trkseg>
      <trkpt lat="43.64358" lon="3.39031">
        <ele>145.8</ele>
        <time>2011-03-06T07:31:03Z</time>
      </trkpt>
      <trkpt lat="43.64358" lon="3.39031">
        <ele>145.8</ele>
        <time>2011-03-06T07:31:04Z</time>
      </trkpt>
      <trkpt lat="43.64363" lon="3.39042">
        <ele>146.4</ele>
        <time>2011-03-06T07:42:26Z</time>
      </trkpt>
      <trkpt lat="43.64376" lon="3.39049">
        <ele>147.1</ele>
        <time>2011-03-06T07:42:33Z</time>
      </trkpt>
      <trkpt lat="43.64383" lon="3.39052">
        <ele>147.4</ele>
        <time>2011-03-06T07:42:38Z</time>
      </trkpt>
      <trkpt lat="43.6439" lon="3.39055">
        <ele>147.8</ele>
        <time>2011-03-06T07:42:41Z</time>
      </trkpt>
      <trkpt lat="43.64398" lon="3.39059">
        <ele>148.2</ele>
        <time>2011-03-06T07:42:45Z</time>
      </trkpt>
      <trkpt lat="43.64406" lon="3.39063">
        <ele>148.7</ele>
        <time>2011-03-06T07:42:49Z</time>
      </trkpt>
      <trkpt lat="43.64409" lon="3.39071">
        <ele>149.2</ele>
        <time>2011-03-06T07:42:52Z</time>
      </trkpt>
      <trkpt lat="43.64413" lon="3.3908">
        <ele>149.7</ele>
        <time>2011-03-06T07:42:55Z</time>
      </trkpt>
      <trkpt lat="43.64415" lon="3.39089">
        <ele>150</ele>
        <time>2011-03-06T07:42:58Z</time>
      </trkpt>
      <trkpt lat="43.6442" lon="3.39099">
        <ele>150</ele>
        <time>2011-03-06T07:43:02Z</time>
      </trkpt>
      <trkpt lat="43.64428" lon="3.39096">
        <ele>149.9</ele>
        <time>2011-03-06T07:43:07Z</time>
      </trkpt>
      <trkpt lat="43.64433" lon="3.39087">
        <ele>149.8</ele>
        <time>2011-03-06T07:43:11Z</time>
      </trkpt>
      <trkpt lat="43.64438" lon="3.39078">
        <ele>149.6</ele>
        <time>2011-03-06T07:43:14Z</time>
      </trkpt>
      <trkpt lat="43.64442" lon="3.39071">
        <ele>149.3</ele>
        <time>2011-03-06T07:43:16Z</time>
      </trkpt>
      <trkpt lat="43.64446" lon="3.39065">
        <ele>149.1</ele>
        <time>2011-03-06T07:43:18Z</time>
      </trkpt>
      <trkpt lat="43.64451" lon="3.39058">
        <ele>148.9</ele>
        <time>2011-03-06T07:43:20Z</time>
      </trkpt>
      <trkpt lat="43.64457" lon="3.39052">
        <ele>148.7</ele>
        <time>2011-03-06T07:43:22Z</time>
      </trkpt>
      <trkpt lat="43.64464" lon="3.39046">
        <ele>148.7</ele>
        <time>2011-03-06T07:43:24Z</time>
      </trkpt>
      <trkpt lat="43.64471" lon="3.39039">
        <ele>148.6</ele>
        <time>2011-03-06T07:43:26Z</time>
      </trkpt>
      <trkpt lat="43.64474" lon="3.39034">
        <ele>148.6</ele>
        <time>2011-03-06T07:43:27Z</time>
      </trkpt>
      <trkpt lat="43.64478" lon="3.3903">
        <ele>148.6</ele>
        <time>2011-03-06T07:43:28Z</time>
      </trkpt>
      <trkpt lat="43.64482" lon="3.39026">
        <ele>148.6</ele>
        <time>2011-03-06T07:43:29Z</time>
      </trkpt>
      <trkpt lat="43.64487" lon="3.39022">
        <ele>148.7</ele>
        <time>2011-03-06T07:43:30Z</time>
      </trkpt>
      <trkpt lat="43.64491" lon="3.39018">
        <ele>148.8</ele>
        <time>2011-03-06T07:43:31Z</time>
      </trkpt>
      <trkpt lat="43.64496" lon="3.39014">
        <ele>148.9</ele>
        <time>2011-03-06T07:43:32Z</time>
      </trkpt>
      <trkpt lat="43.64501" lon="3.39009">
        <ele>149</ele>
        <time>2011-03-06T07:43:33Z</time>
      </trkpt>
      <trkpt lat="43.64506" lon="3.39005">
        <ele>148.7</ele>
        <time>2011-03-06T07:43:34Z</time>
      </trkpt>
      <trkpt lat="43.64512" lon="3.39">
        <ele>148.4</ele>
        <time>2011-03-06T07:43:35Z</time>
      </trkpt>
      <trkpt lat="43.64517" lon="3.38996">
        <ele>148.1</ele>
        <time>2011-03-06T07:43:36Z</time>
      </trkpt>
      <trkpt lat="43.64523" lon="3.38991">
        <ele>147.7</ele>
        <time>2011-03-06T07:43:37Z</time>
      </trkpt>
      <trkpt lat="43.64528" lon="3.38986">
        <ele>147.3</ele>
        <time>2011-03-06T07:43:38Z</time>
      </trkpt>
      <trkpt lat="43.64534" lon="3.38981">
        <ele>147</ele>
        <time>2011-03-06T07:43:39Z</time>
      </trkpt>
      <trkpt lat="43.64539" lon="3.38977">
        <ele>146.7</ele>
        <time>2011-03-06T07:43:40Z</time>
      </trkpt>
      <trkpt lat="43.64544" lon="3.38972">
        <ele>146.4</ele>
        <time>2011-03-06T07:43:41Z</time>
      </trkpt>
      <trkpt lat="43.64549" lon="3.38967">
        <ele>146.2</ele>
        <time>2011-03-06T07:43:42Z</time>
      </trkpt>
      <trkpt lat="43.64554" lon="3.38962">
        <ele>145.9</ele>
        <time>2011-03-06T07:43:43Z</time>
      </trkpt>
      <trkpt lat="43.64558" lon="3.38958">
        <ele>145.8</ele>
        <time>2011-03-06T07:43:44Z</time>
      </trkpt>
      <trkpt lat="43.64562" lon="3.38954">
        <ele>145.6</ele>
        <time>2011-03-06T07:43:45Z</time>
      </trkpt>
      <trkpt lat="43.64566" lon="3.38951">
        <ele>145.5</ele>
        <time>2011-03-06T07:43:46Z</time>
      </trkpt>
      <trkpt lat="43.64573" lon="3.38944">
        <ele>145.2</ele>
        <time>2011-03-06T07:43:48Z</time>
      </trkpt>
      <trkpt lat="43.64579" lon="3.38937">
        <ele>145.1</ele>
        <time>2011-03-06T07:43:50Z</time>
      </trkpt>
      <trkpt lat="43.64585" lon="3.3893">
        <ele>145</ele>
        <time>2011-03-06T07:43:52Z</time>
      </trkpt>
      <trkpt lat="43.64592" lon="3.38924">
        <ele>145</ele>
        <time>2011-03-06T07:43:55Z</time>
      </trkpt>
      <trkpt lat="43.64599" lon="3.38921">
        <ele>145</ele>
        <time>2011-03-06T07:43:57Z</time>
      </trkpt>
      <trkpt lat="43.64607" lon="3.3892">
        <ele>145</ele>
        <time>2011-03-06T07:43:59Z</time>
      </trkpt>
      <trkpt lat="43.64614" lon="3.38923">
        <ele>145</ele>
        <time>2011-03-06T07:44:01Z</time>
      </trkpt>
      <trkpt lat="43.64622" lon="3.38925">
        <ele>145</ele>
        <time>2011-03-06T07:44:03Z</time>
      </trkpt>
      <trkpt lat="43.6463" lon="3.38924">
        <ele>145</ele>
        <time>2011-03-06T07:44:05Z</time>
      </trkpt>
      <trkpt lat="43.64637" lon="3.38926">
        <ele>145</ele>
        <time>2011-03-06T07:44:07Z</time>
      </trkpt>
      <trkpt lat="43.64644" lon="3.38928">
        <ele>145</ele>
        <time>2011-03-06T07:44:09Z</time>
      </trkpt>
      <trkpt lat="43.6465" lon="3.38931">
        <ele>145</ele>
        <time>2011-03-06T07:44:11Z</time>
      </trkpt>
      <trkpt lat="43.64659" lon="3.38929">
        <ele>145</ele>
        <time>2011-03-06T07:44:17Z</time>
      </trkpt>
      <trkpt lat="43.64651" lon="3.38932">
        <ele>145</ele>
        <time>2011-03-06T07:46:13Z</time>
      </trkpt>
      <trkpt lat="43.6465" lon="3.38933">
        <ele>145</ele>
        <time>2011-03-06T07:46:14Z</time>
      </trkpt>
      <trkpt lat="43.64636" lon="3.38926">
        <ele>145</ele>
        <time>2011-03-06T07:46:23Z</time>
      </trkpt>
      <trkpt lat="43.64631" lon="3.38917">
        <ele>145</ele>
        <time>2011-03-06T07:46:26Z</time>
      </trkpt>
      <trkpt lat="43.64629" lon="3.38906">
        <ele>144.7</ele>
        <time>2011-03-06T07:46:30Z</time>
      </trkpt>
      <trkpt lat="43.64628" lon="3.38895">
        <ele>144.5</ele>
        <time>2011-03-06T07:46:36Z</time>
      </trkpt>
      <trkpt lat="43.64625" lon="3.38885">
        <ele>144.2</ele>
        <time>2011-03-06T07:46:41Z</time>
      </trkpt>
      <trkpt lat="43.64622" lon="3.38875">
        <ele>144</ele>
        <time>2011-03-06T07:47:09Z</time>
      </trkpt>
      <trkpt lat="43.64622" lon="3.38863">
        <ele>143.7</ele>
        <time>2011-03-06T07:47:14Z</time>
      </trkpt>
      <trkpt lat="43.64621" lon="3.38861">
        <ele>143.7</ele>
        <time>2011-03-06T07:47:15Z</time>
      </trkpt>
      <trkpt lat="43.6461" lon="3.38851">
        <ele>143.4</ele>
        <time>2011-03-06T07:47:23Z</time>
      </trkpt>
      <trkpt lat="43.64602" lon="3.38845">
        <ele>143.3</ele>
        <time>2011-03-06T07:47:27Z</time>
      </trkpt>
      <trkpt lat="43.64596" lon="3.3884">
        <ele>143.2</ele>
        <time>2011-03-06T07:47:30Z</time>
      </trkpt>
      <trkpt lat="43.64588" lon="3.38835">
        <ele>143</ele>
        <time>2011-03-06T07:47:33Z</time>
      </trkpt>
      <trkpt lat="43.64583" lon="3.3883">
        <ele>143</ele>
        <time>2011-03-06T07:47:35Z</time>
      </trkpt>
      <trkpt lat="43.64577" lon="3.38826">
        <ele>143.1</ele>
        <time>2011-03-06T07:47:37Z</time>
      </trkpt>
      <trkpt lat="43.64571" lon="3.38823">
        <ele>143.1</ele>
        <time>2011-03-06T07:47:39Z</time>
      </trkpt>
      <trkpt lat="43.64564" lon="3.3882">
        <ele>143.2</ele>
        <time>2011-03-06T07:47:41Z</time>
      </trkpt>
      <trkpt lat="43.64558" lon="3.38817">
        <ele>143.2</ele>
        <time>2011-03-06T07:47:43Z</time>
      </trkpt>
      <trkpt lat="43.64551" lon="3.38813">
        <ele>143.2</ele>
        <time>2011-03-06T07:47:46Z</time>
      </trkpt>
      <trkpt lat="43.64545" lon="3.38807">
        <ele>143.3</ele>
        <time>2011-03-06T07:47:49Z</time>
      </trkpt>
      <trkpt lat="43.64541" lon="3.388">
        <ele>143.4</ele>
        <time>2011-03-06T07:47:51Z</time>
      </trkpt>
      <trkpt lat="43.64541" lon="3.38788">
        <ele>143.5</ele>
        <time>2011-03-06T07:47:53Z</time>
      </trkpt>
      <trkpt lat="43.64542" lon="3.38781">
        <ele>143.6</ele>
        <time>2011-03-06T07:47:54Z</time>
      </trkpt>
      <trkpt lat="43.64542" lon="3.38775">
        <ele>143.7</ele>
        <time>2011-03-06T07:47:55Z</time>
      </trkpt>
      <trkpt lat="43.64542" lon="3.38768">
        <ele>143.8</ele>
        <time>2011-03-06T07:47:56Z</time>
      </trkpt>
      <trkpt lat="43.64543" lon="3.38761">
        <ele>143.9</ele>
        <time>2011-03-06T07:47:57Z</time>
      </trkpt>
      <trkpt lat="43.64544" lon="3.38755">
        <ele>143.9</ele>
        <time>2011-03-06T07:47:58Z</time>
      </trkpt>
      <trkpt lat="43.64545" lon="3.38748">
        <ele>143.9</ele>
        <time>2011-03-06T07:47:59Z</time>
      </trkpt>
      <trkpt lat="43.64546" lon="3.38742">
        <ele>143.7</ele>
        <time>2011-03-06T07:48:00Z</time>
      </trkpt>
      <trkpt lat="43.64546" lon="3.38735">
        <ele>143.5</ele>
        <time>2011-03-06T07:48:01Z</time>
      </trkpt>
      <trkpt lat="43.64546" lon="3.38729">
        <ele>143.2</ele>
        <time>2011-03-06T07:48:02Z</time>
      </trkpt>
      <trkpt lat="43.64546" lon="3.38722">
        <ele>143</ele>
        <time>2011-03-06T07:48:03Z</time>
      </trkpt>
      <trkpt lat="43.64545" lon="3.38716">
        <ele>142.7</ele>
        <time>2011-03-06T07:48:04Z</time>
      </trkpt>
      <trkpt lat="43.64543" lon="3.3871">
        <ele>142.5</ele>
        <time>2011-03-06T07:48:05Z</time>
      </trkpt>
      <trkpt lat="43.6454" lon="3.38705">
        <ele>142.4</ele>
        <time>2011-03-06T07:48:06Z</time>
      </trkpt>
      <trkpt lat="43.64537" lon="3.387">
        <ele>142.3</ele>
        <time>2011-03-06T07:48:07Z</time>
      </trkpt>
      <trkpt lat="43.64535" lon="3.38688">
        <ele>141.9</ele>
        <time>2011-03-06T07:48:09Z</time>
      </trkpt>
      <trkpt lat="43.64536" lon="3.38676">
        <ele>141.5</ele>
        <time>2011-03-06T07:48:11Z</time>
      </trkpt>
      <trkpt lat="43.64533" lon="3.38665">
        <ele>141.2</ele>
        <time>2011-03-06T07:48:13Z</time>
      </trkpt>
      <trkpt lat="43.64529" lon="3.38661">
        <ele>141.1</ele>
        <time>2011-03-06T07:48:14Z</time>
      </trkpt>
      <trkpt lat="43.64524" lon="3.38659">
        <ele>141.1</ele>
        <time>2011-03-06T07:48:15Z</time>
      </trkpt>
      <trkpt lat="43.6452" lon="3.38656">
        <ele>141.1</ele>
        <time>2011-03-06T07:48:16Z</time>
      </trkpt>
      <trkpt lat="43.64515" lon="3.38653">
        <ele>141.2</ele>
        <time>2011-03-06T07:48:17Z</time>
      </trkpt>
      <trkpt lat="43.64511" lon="3.38652">
        <ele>141.2</ele>
        <time>2011-03-06T07:48:18Z</time>
      </trkpt>
      <trkpt lat="43.64502" lon="3.38654">
        <ele>141.5</ele>
        <time>2011-03-06T07:48:20Z</time>
      </trkpt>
      <trkpt lat="43.64494" lon="3.3865">
        <ele>141.3</ele>
        <time>2011-03-06T07:48:22Z</time>
      </trkpt>
      <trkpt lat="43.64489" lon="3.38642">
        <ele>140.9</ele>
        <time>2011-03-06T07:48:24Z</time>
      </trkpt>
      <trkpt lat="43.64485" lon="3.38634">
        <ele>140.6</ele>
        <time>2011-03-06T07:48:26Z</time>
      </trkpt>
      <trkpt lat="43.64479" lon="3.38626">
        <ele>140.3</ele>
        <time>2011-03-06T07:48:28Z</time>
      </trkpt>
      <trkpt lat="43.64472" lon="3.38621">
        <ele>140</ele>
        <time>2011-03-06T07:48:30Z</time>
      </trkpt>
      <trkpt lat="43.64465" lon="3.38614">
        <ele>139.8</ele>
        <time>2011-03-06T07:48:33Z</time>
      </trkpt>
      <trkpt lat="43.6447" lon="3.38606">
        <ele>139.6</ele>
        <time>2011-03-06T07:48:37Z</time>
      </trkpt>
      <trkpt lat="43.6447" lon="3.38593">
        <ele>139.3</ele>
        <time>2011-03-06T07:48:41Z</time>
      </trkpt>
      <trkpt lat="43.64466" lon="3.38585">
        <ele>139.1</ele>
        <time>2011-03-06T07:48:43Z</time>
      </trkpt>
      <trkpt lat="43.64463" lon="3.38576">
        <ele>138.8</ele>
        <time>2011-03-06T07:48:45Z</time>
      </trkpt>
      <trkpt lat="43.64459" lon="3.38568">
        <ele>138.6</ele>
        <time>2011-03-06T07:48:47Z</time>
      </trkpt>
      <trkpt lat="43.64455" lon="3.3856">
        <ele>138.5</ele>
        <time>2011-03-06T07:48:49Z</time>
      </trkpt>
      <trkpt lat="43.64452" lon="3.38552">
        <ele>138.3</ele>
        <time>2011-03-06T07:48:51Z</time>
      </trkpt>
      <trkpt lat="43.64451" lon="3.38542">
        <ele>138.1</ele>
        <time>2011-03-06T07:48:53Z</time>
      </trkpt>
      <trkpt lat="43.64448" lon="3.38533">
        <ele>137.9</ele>
        <time>2011-03-06T07:48:55Z</time>
      </trkpt>
      <trkpt lat="43.64445" lon="3.38526">
        <ele>137.8</ele>
        <time>2011-03-06T07:48:57Z</time>
      </trkpt>
      <trkpt lat="43.6444" lon="3.3852">
        <ele>137.8</ele>
        <time>2011-03-06T07:48:59Z</time>
      </trkpt>
      <trkpt lat="43.64431" lon="3.38515">
        <ele>137.9</ele>
        <time>2011-03-06T07:49:02Z</time>
      </trkpt>
      <trkpt lat="43.64423" lon="3.38512">
        <ele>138</ele>
        <time>2011-03-06T07:49:05Z</time>
      </trkpt>
      <trkpt lat="43.64414" lon="3.3851">
        <ele>138.2</ele>
        <time>2011-03-06T07:49:09Z</time>
      </trkpt>
      <trkpt lat="43.64411" lon="3.38503">
        <ele>138.2</ele>
        <time>2011-03-06T07:49:11Z</time>
      </trkpt>
      <trkpt lat="43.64407" lon="3.38496">
        <ele>138.2</ele>
        <time>2011-03-06T07:49:13Z</time>
      </trkpt>
      <trkpt lat="43.64402" lon="3.38489">
        <ele>138.4</ele>
        <time>2011-03-06T07:49:15Z</time>
      </trkpt>
      <trkpt lat="43.64399" lon="3.38481">
        <ele>138.5</ele>
        <time>2011-03-06T07:49:17Z</time>
      </trkpt>
      <trkpt lat="43.64397" lon="3.38477">
        <ele>138.5</ele>
        <time>2011-03-06T07:49:18Z</time>
      </trkpt>
      <trkpt lat="43.64392" lon="3.38465">
        <ele>138.7</ele>
        <time>2011-03-06T07:49:21Z</time>
      </trkpt>
      <trkpt lat="43.64389" lon="3.38456">
        <ele>138.8</ele>
        <time>2011-03-06T07:49:23Z</time>
      </trkpt>
      <trkpt lat="43.64387" lon="3.38448">
        <ele>138.9</ele>
        <time>2011-03-06T07:49:25Z</time>
      </trkpt>
      <trkpt lat="43.64386" lon="3.38439">
        <ele>139</ele>
        <time>2011-03-06T07:49:27Z</time>
      </trkpt>
      <trkpt lat="43.64386" lon="3.3843">
        <ele>139</ele>
        <time>2011-03-06T07:49:29Z</time>
      </trkpt>
      <trkpt lat="43.64388" lon="3.3842">
        <ele>139</ele>
        <time>2011-03-06T07:49:31Z</time>
      </trkpt>
      <trkpt lat="43.6439" lon="3.3841">
        <ele>139</ele>
        <time>2011-03-06T07:49:33Z</time>
      </trkpt>
      <trkpt lat="43.64388" lon="3.38401">
        <ele>139</ele>
        <time>2011-03-06T07:49:35Z</time>
      </trkpt>
      <trkpt lat="43.64382" lon="3.38394">
        <ele>139.2</ele>
        <time>2011-03-06T07:49:37Z</time>
      </trkpt>
      <trkpt lat="43.64377" lon="3.38387">
        <ele>139.3</ele>
        <time>2011-03-06T07:49:39Z</time>
      </trkpt>
      <trkpt lat="43.64376" lon="3.38378">
        <ele>139.2</ele>
        <time>2011-03-06T07:49:41Z</time>
      </trkpt>
      <trkpt lat="43.6438" lon="3.38369">
        <ele>139.1</ele>
        <time>2011-03-06T07:49:43Z</time>
      </trkpt>
      <trkpt lat="43.64384" lon="3.3836">
        <ele>139.1</ele>
        <time>2011-03-06T07:49:45Z</time>
      </trkpt>
      <trkpt lat="43.64389" lon="3.38351">
        <ele>139</ele>
        <time>2011-03-06T07:49:47Z</time>
      </trkpt>
      <trkpt lat="43.64393" lon="3.3834">
        <ele>139</ele>
        <time>2011-03-06T07:49:49Z</time>
      </trkpt>
      <trkpt lat="43.64396" lon="3.38329">
        <ele>139</ele>
        <time>2011-03-06T07:49:51Z</time>
      </trkpt>
      <trkpt lat="43.64397" lon="3.38318">
        <ele>139.2</ele>
        <time>2011-03-06T07:49:53Z</time>
      </trkpt>
      <trkpt lat="43.64398" lon="3.38306">
        <ele>139.3</ele>
        <time>2011-03-06T07:49:55Z</time>
      </trkpt>
      <trkpt lat="43.64398" lon="3.38296">
        <ele>139.5</ele>
        <time>2011-03-06T07:49:57Z</time>
      </trkpt>
      <trkpt lat="43.64397" lon="3.38285">
        <ele>139.6</ele>
        <time>2011-03-06T07:49:59Z</time>
      </trkpt>
      <trkpt lat="43.64396" lon="3.38275">
        <ele>139.7</ele>
        <time>2011-03-06T07:50:01Z</time>
      </trkpt>
      <trkpt lat="43.64396" lon="3.38264">
        <ele>139.8</ele>
        <time>2011-03-06T07:50:03Z</time>
      </trkpt>
      <trkpt lat="43.64395" lon="3.38254">
        <ele>140</ele>
        <time>2011-03-06T07:50:05Z</time>
      </trkpt>
      <trkpt lat="43.64394" lon="3.38243">
        <ele>140</ele>
        <time>2011-03-06T07:50:07Z</time>
      </trkpt>
      <trkpt lat="43.64393" lon="3.38233">
        <ele>140.1</ele>
        <time>2011-03-06T07:50:09Z</time>
      </trkpt>
      <trkpt lat="43.64392" lon="3.38222">
        <ele>140.1</ele>
        <time>2011-03-06T07:50:11Z</time>
      </trkpt>
      <trkpt lat="43.64391" lon="3.38212">
        <ele>140.1</ele>
        <time>2011-03-06T07:50:13Z</time>
      </trkpt>
      <trkpt lat="43.6439" lon="3.38202">
        <ele>140.2</ele>
        <time>2011-03-06T07:50:15Z</time>
      </trkpt>
      <trkpt lat="43.64389" lon="3.38193">
        <ele>140.2</ele>
        <time>2011-03-06T07:50:17Z</time>
      </trkpt>
      <trkpt lat="43.64388" lon="3.38185">
        <ele>140.3</ele>
        <time>2011-03-06T07:50:19Z</time>
      </trkpt>
      <trkpt lat="43.64387" lon="3.38181">
        <ele>140.3</ele>
        <time>2011-03-06T07:50:20Z</time>
      </trkpt>
      <trkpt lat="43.64385" lon="3.38169">
        <ele>140.4</ele>
        <time>2011-03-06T07:50:23Z</time>
      </trkpt>
      <trkpt lat="43.64383" lon="3.38159">
        <ele>140.3</ele>
        <time>2011-03-06T07:50:25Z</time>
      </trkpt>
      <trkpt lat="43.64383" lon="3.38149">
        <ele>140.1</ele>
        <time>2011-03-06T07:50:27Z</time>
      </trkpt>
      <trkpt lat="43.64384" lon="3.38138">
        <ele>139.8</ele>
        <time>2011-03-06T07:50:29Z</time>
      </trkpt>
      <trkpt lat="43.64388" lon="3.38131">
        <ele>139.6</ele>
        <time>2011-03-06T07:50:31Z</time>
      </trkpt>
      <trkpt lat="43.6439" lon="3.3812">
        <ele>139.4</ele>
        <time>2011-03-06T07:50:33Z</time>
      </trkpt>
      <trkpt lat="43.64389" lon="3.38108">
        <ele>139.2</ele>
        <time>2011-03-06T07:50:35Z</time>
      </trkpt>
      <trkpt lat="43.6439" lon="3.38098">
        <ele>138.9</ele>
        <time>2011-03-06T07:50:37Z</time>
      </trkpt>
      <trkpt lat="43.64396" lon="3.38093">
        <ele>138.7</ele>
        <time>2011-03-06T07:50:39Z</time>
      </trkpt>
      <trkpt lat="43.64404" lon="3.38093">
        <ele>138.5</ele>
        <time>2011-03-06T07:50:41Z</time>
      </trkpt>
      <trkpt lat="43.64409" lon="3.38094">
        <ele>138.4</ele>
        <time>2011-03-06T07:50:42Z</time>
      </trkpt>
      <trkpt lat="43.64413" lon="3.38096">
        <ele>138.4</ele>
        <time>2011-03-06T07:50:43Z</time>
      </trkpt>
      <trkpt lat="43.64418" lon="3.38096">
        <ele>138.3</ele>
        <time>2011-03-06T07:50:44Z</time>
      </trkpt>
      <trkpt lat="43.64426" lon="3.38092">
        <ele>138</ele>
        <time>2011-03-06T07:50:46Z</time>
      </trkpt>
      <trkpt lat="43.64432" lon="3.38084">
        <ele>137.6</ele>
        <time>2011-03-06T07:50:48Z</time>
      </trkpt>
      <trkpt lat="43.64437" lon="3.38076">
        <ele>137.5</ele>
        <time>2011-03-06T07:50:50Z</time>
      </trkpt>
      <trkpt lat="43.64439" lon="3.38066">
        <ele>137.5</ele>
        <time>2011-03-06T07:50:52Z</time>
      </trkpt>
      <trkpt lat="43.64439" lon="3.38054">
        <ele>137.6</ele>
        <time>2011-03-06T07:50:54Z</time>
      </trkpt>
      <trkpt lat="43.64439" lon="3.38048">
        <ele>137.6</ele>
        <time>2011-03-06T07:50:55Z</time>
      </trkpt>
      <trkpt lat="43.6444" lon="3.38042">
        <ele>137.6</ele>
        <time>2011-03-06T07:50:56Z</time>
      </trkpt>
      <trkpt lat="43.64444" lon="3.3803">
        <ele>137.6</ele>
        <time>2011-03-06T07:50:58Z</time>
      </trkpt>
      <trkpt lat="43.64448" lon="3.3802">
        <ele>137.5</ele>
        <time>2011-03-06T07:51:00Z</time>
      </trkpt>
      <trkpt lat="43.64451" lon="3.38009">
        <ele>137.5</ele>
        <time>2011-03-06T07:51:02Z</time>
      </trkpt>
      <trkpt lat="43.64453" lon="3.37998">
        <ele>137.5</ele>
        <time>2011-03-06T07:51:04Z</time>
      </trkpt>
      <trkpt lat="43.64454" lon="3.37987">
        <ele>137.4</ele>
        <time>2011-03-06T07:51:06Z</time>
      </trkpt>
      <trkpt lat="43.6445" lon="3.37978">
        <ele>137.3</ele>
        <time>2011-03-06T07:51:08Z</time>
      </trkpt>
      <trkpt lat="43.64442" lon="3.37975">
        <ele>137.4</ele>
        <time>2011-03-06T07:51:10Z</time>
      </trkpt>
      <trkpt lat="43.64434" lon="3.37974">
        <ele>137.5</ele>
        <time>2011-03-06T07:51:12Z</time>
      </trkpt>
      <trkpt lat="43.64427" lon="3.37977">
        <ele>137.6</ele>
        <time>2011-03-06T07:51:14Z</time>
      </trkpt>
      <trkpt lat="43.64421" lon="3.37982">
        <ele>137.7</ele>
        <time>2011-03-06T07:51:16Z</time>
      </trkpt>
      <trkpt lat="43.64414" lon="3.37985">
        <ele>137.9</ele>
        <time>2011-03-06T07:51:18Z</time>
      </trkpt>
      <trkpt lat="43.64408" lon="3.37991">
        <ele>138.1</ele>
        <time>2011-03-06T07:51:21Z</time>
      </trkpt>
      <trkpt lat="43.64405" lon="3.3799">
        <ele>138.2</ele>
        <time>2011-03-06T07:51:22Z</time>
      </trkpt>
      <trkpt lat="43.64394" lon="3.37987">
        <ele>138.4</ele>
        <time>2011-03-06T07:51:25Z</time>
      </trkpt>
      <trkpt lat="43.64386" lon="3.37987">
        <ele>138.6</ele>
        <time>2011-03-06T07:51:28Z</time>
      </trkpt>
      <trkpt lat="43.64379" lon="3.3798">
        <ele>138.8</ele>
        <time>2011-03-06T07:51:30Z</time>
      </trkpt>
      <trkpt lat="43.64371" lon="3.37977">
        <ele>139</ele>
        <time>2011-03-06T07:51:32Z</time>
      </trkpt>
      <trkpt lat="43.64366" lon="3.37967">
        <ele>139.1</ele>
        <time>2011-03-06T07:51:34Z</time>
      </trkpt>
      <trkpt lat="43.64368" lon="3.37956">
        <ele>138.9</ele>
        <time>2011-03-06T07:51:36Z</time>
      </trkpt>
      <trkpt lat="43.64373" lon="3.37946">
        <ele>138.7</ele>
        <time>2011-03-06T07:51:38Z</time>
      </trkpt>
      <trkpt lat="43.64378" lon="3.37937">
        <ele>138.5</ele>
        <time>2011-03-06T07:51:40Z</time>
      </trkpt>
      <trkpt lat="43.64382" lon="3.37927">
        <ele>138.3</ele>
        <time>2011-03-06T07:51:43Z</time>
      </trkpt>
      <trkpt lat="43.64384" lon="3.37916">
        <ele>138.2</ele>
        <time>2011-03-06T07:51:47Z</time>
      </trkpt>
      <trkpt lat="43.64386" lon="3.37907">
        <ele>138.4</ele>
        <time>2011-03-06T07:51:49Z</time>
      </trkpt>
      <trkpt lat="43.64386" lon="3.37896">
        <ele>138.6</ele>
        <time>2011-03-06T07:51:51Z</time>
      </trkpt>
      <trkpt lat="43.64388" lon="3.37886">
        <ele>138.8</ele>
        <time>2011-03-06T07:51:54Z</time>
      </trkpt>
      <trkpt lat="43.64391" lon="3.37879">
        <ele>138.8</ele>
        <time>2011-03-06T07:51:56Z</time>
      </trkpt>
      <trkpt lat="43.64396" lon="3.3787">
        <ele>138.9</ele>
        <time>2011-03-06T07:51:58Z</time>
      </trkpt>
      <trkpt lat="43.64399" lon="3.37859">
        <ele>139</ele>
        <time>2011-03-06T07:52:00Z</time>
      </trkpt>
      <trkpt lat="43.64399" lon="3.37848">
        <ele>139.3</ele>
        <time>2011-03-06T07:52:02Z</time>
      </trkpt>
      <trkpt lat="43.644" lon="3.37841">
        <ele>139.4</ele>
        <time>2011-03-06T07:52:03Z</time>
      </trkpt>
      <trkpt lat="43.64401" lon="3.37835">
        <ele>139.5</ele>
        <time>2011-03-06T07:52:04Z</time>
      </trkpt>
      <trkpt lat="43.64404" lon="3.37828">
        <ele>139.4</ele>
        <time>2011-03-06T07:52:05Z</time>
      </trkpt>
      <trkpt lat="43.64406" lon="3.37821">
        <ele>139.3</ele>
        <time>2011-03-06T07:52:06Z</time>
      </trkpt>
      <trkpt lat="43.6441" lon="3.37815">
        <ele>139.1</ele>
        <time>2011-03-06T07:52:07Z</time>
      </trkpt>
      <trkpt lat="43.64412" lon="3.37807">
        <ele>138.9</ele>
        <time>2011-03-06T07:52:08Z</time>
      </trkpt>
      <trkpt lat="43.64414" lon="3.378">
        <ele>138.7</ele>
        <time>2011-03-06T07:52:09Z</time>
      </trkpt>
      <trkpt lat="43.64416" lon="3.37792">
        <ele>138.6</ele>
        <time>2011-03-06T07:52:10Z</time>
      </trkpt>
      <trkpt lat="43.64417" lon="3.37785">
        <ele>138.4</ele>
        <time>2011-03-06T07:52:11Z</time>
      </trkpt>
      <trkpt lat="43.64419" lon="3.37778">
        <ele>138.3</ele>
        <time>2011-03-06T07:52:12Z</time>
      </trkpt>
      <trkpt lat="43.64421" lon="3.3777">
        <ele>138.1</ele>
        <time>2011-03-06T07:52:13Z</time>
      </trkpt>
      <trkpt lat="43.64422" lon="3.37763">
        <ele>138</ele>
        <time>2011-03-06T07:52:14Z</time>
      </trkpt>
      <trkpt lat="43.64421" lon="3.37755">
        <ele>137.9</ele>
        <time>2011-03-06T07:52:15Z</time>
      </trkpt>
      <trkpt lat="43.64421" lon="3.37747">
        <ele>138</ele>
        <time>2011-03-06T07:52:16Z</time>
      </trkpt>
      <trkpt lat="43.6442" lon="3.3774">
        <ele>138.2</ele>
        <time>2011-03-06T07:52:17Z</time>
      </trkpt>
      <trkpt lat="43.6442" lon="3.37732">
        <ele>138.3</ele>
        <time>2011-03-06T07:52:18Z</time>
      </trkpt>
      <trkpt lat="43.64421" lon="3.37724">
        <ele>138.5</ele>
        <time>2011-03-06T07:52:19Z</time>
      </trkpt>
      <trkpt lat="43.64422" lon="3.37717">
        <ele>138.7</ele>
        <time>2011-03-06T07:52:20Z</time>
      </trkpt>
      <trkpt lat="43.64421" lon="3.37709">
        <ele>138.9</ele>
        <time>2011-03-06T07:52:21Z</time>
      </trkpt>
      <trkpt lat="43.64422" lon="3.37701">
        <ele>139</ele>
        <time>2011-03-06T07:52:22Z</time>
      </trkpt>
      <trkpt lat="43.64424" lon="3.37694">
        <ele>139.1</ele>
        <time>2011-03-06T07:52:23Z</time>
      </trkpt>
      <trkpt lat="43.64425" lon="3.37686">
        <ele>139.3</ele>
        <time>2011-03-06T07:52:24Z</time>
      </trkpt>
      <trkpt lat="43.64426" lon="3.37679">
        <ele>139.4</ele>
        <time>2011-03-06T07:52:25Z</time>
      </trkpt>
      <trkpt lat="43.64424" lon="3.37668">
        <ele>139.7</ele>
        <time>2011-03-06T07:52:27Z</time>
      </trkpt>
      <trkpt lat="43.64417" lon="3.3766">
        <ele>139.8</ele>
        <time>2011-03-06T07:52:31Z</time>
      </trkpt>
      <trkpt lat="43.64416" lon="3.3765">
        <ele>139.6</ele>
        <time>2011-03-06T07:52:36Z</time>
      </trkpt>
      <trkpt lat="43.64419" lon="3.37639">
        <ele>139.3</ele>
        <time>2011-03-06T07:52:39Z</time>
      </trkpt>
      <trkpt lat="43.64425" lon="3.37633">
        <ele>138.9</ele>
        <time>2011-03-06T07:52:42Z</time>
      </trkpt>
      <trkpt lat="43.6443" lon="3.37625">
        <ele>138.6</ele>
        <time>2011-03-06T07:52:45Z</time>
      </trkpt>
      <trkpt lat="43.64432" lon="3.37615">
        <ele>138.3</ele>
        <time>2011-03-06T07:52:47Z</time>
      </trkpt>
      <trkpt lat="43.64435" lon="3.37605">
        <ele>138</ele>
        <time>2011-03-06T07:52:49Z</time>
      </trkpt>
      <trkpt lat="43.64439" lon="3.37595">
        <ele>137.7</ele>
        <time>2011-03-06T07:52:51Z</time>
      </trkpt>
      <trkpt lat="43.64441" lon="3.37589">
        <ele>137.5</ele>
        <time>2011-03-06T07:52:52Z</time>
      </trkpt>
      <trkpt lat="43.64443" lon="3.37582">
        <ele>137.4</ele>
        <time>2011-03-06T07:52:53Z</time>
      </trkpt>
      <trkpt lat="43.64446" lon="3.37576">
        <ele>137.3</ele>
        <time>2011-03-06T07:52:54Z</time>
      </trkpt>
      <trkpt lat="43.64447" lon="3.3757">
        <ele>137.3</ele>
        <time>2011-03-06T07:52:55Z</time>
      </trkpt>
      <trkpt lat="43.64449" lon="3.37564">
        <ele>137.2</ele>
        <time>2011-03-06T07:52:56Z</time>
      </trkpt>
      <trkpt lat="43.6445" lon="3.37558">
        <ele>137.2</ele>
        <time>2011-03-06T07:52:57Z</time>
      </trkpt>
      <trkpt lat="43.64451" lon="3.37552">
        <ele>137.2</ele>
        <time>2011-03-06T07:52:58Z</time>
      </trkpt>
      <trkpt lat="43.64452" lon="3.37546">
        <ele>137.2</ele>
        <time>2011-03-06T07:52:59Z</time>
      </trkpt>
      <trkpt lat="43.64454" lon="3.37534">
        <ele>137.1</ele>
        <time>2011-03-06T07:53:01Z</time>
      </trkpt>
      <trkpt lat="43.64456" lon="3.37528">
        <ele>137.1</ele>
        <time>2011-03-06T07:53:02Z</time>
      </trkpt>
      <trkpt lat="43.64457" lon="3.37522">
        <ele>137</ele>
        <time>2011-03-06T07:53:03Z</time>
      </trkpt>
      <trkpt lat="43.64459" lon="3.37516">
        <ele>137</ele>
        <time>2011-03-06T07:53:04Z</time>
      </trkpt>
      <trkpt lat="43.6446" lon="3.3751">
        <ele>137</ele>
        <time>2011-03-06T07:53:05Z</time>
      </trkpt>
      <trkpt lat="43.64462" lon="3.37504">
        <ele>136.9</ele>
        <time>2011-03-06T07:53:06Z</time>
      </trkpt>
      <trkpt lat="43.64463" lon="3.37499">
        <ele>136.9</ele>
        <time>2011-03-06T07:53:07Z</time>
      </trkpt>
      <trkpt lat="43.64465" lon="3.37493">
        <ele>136.9</ele>
        <time>2011-03-06T07:53:08Z</time>
      </trkpt>
      <trkpt lat="43.64467" lon="3.37487">
        <ele>136.9</ele>
        <time>2011-03-06T07:53:09Z</time>
      </trkpt>
      <trkpt lat="43.64468" lon="3.37481">
        <ele>136.9</ele>
        <time>2011-03-06T07:53:10Z</time>
      </trkpt>
      <trkpt lat="43.64471" lon="3.37469">
        <ele>136.8</ele>
        <time>2011-03-06T07:53:12Z</time>
      </trkpt>
      <trkpt lat="43.64473" lon="3.37457">
        <ele>136.8</ele>
        <time>2011-03-06T07:53:14Z</time>
      </trkpt>
      <trkpt lat="43.64474" lon="3.37451">
        <ele>136.8</ele>
        <time>2011-03-06T07:53:15Z</time>
      </trkpt>
      <trkpt lat="43.64474" lon="3.37445">
        <ele>136.8</ele>
        <time>2011-03-06T07:53:16Z</time>
      </trkpt>
      <trkpt lat="43.64474" lon="3.37438">
        <ele>136.9</ele>
        <time>2011-03-06T07:53:17Z</time>
      </trkpt>
      <trkpt lat="43.64473" lon="3.37432">
        <ele>136.9</ele>
        <time>2011-03-06T07:53:18Z</time>
      </trkpt>
      <trkpt lat="43.64473" lon="3.37425">
        <ele>136.9</ele>
        <time>2011-03-06T07:53:19Z</time>
      </trkpt>
      <trkpt lat="43.64472" lon="3.37419">
        <ele>137</ele>
        <time>2011-03-06T07:53:20Z</time>
      </trkpt>
      <trkpt lat="43.64472" lon="3.37412">
        <ele>137</ele>
        <time>2011-03-06T07:53:21Z</time>
      </trkpt>
      <trkpt lat="43.64472" lon="3.37406">
        <ele>137</ele>
        <time>2011-03-06T07:53:22Z</time>
      </trkpt>
      <trkpt lat="43.64471" lon="3.37393">
        <ele>137.2</ele>
        <time>2011-03-06T07:53:24Z</time>
      </trkpt>
      <trkpt lat="43.6447" lon="3.37388">
        <ele>137.2</ele>
        <time>2011-03-06T07:53:25Z</time>
      </trkpt>
      <trkpt lat="43.64465" lon="3.37373">
        <ele>137.5</ele>
        <time>2011-03-06T07:53:28Z</time>
      </trkpt>
      <trkpt lat="43.6446" lon="3.37363">
        <ele>137.7</ele>
        <time>2011-03-06T07:53:30Z</time>
      </trkpt>
      <trkpt lat="43.64455" lon="3.37354">
        <ele>138</ele>
        <time>2011-03-06T07:53:32Z</time>
      </trkpt>
      <trkpt lat="43.64452" lon="3.37349">
        <ele>138.2</ele>
        <time>2011-03-06T07:53:33Z</time>
      </trkpt>
      <trkpt lat="43.64449" lon="3.37344">
        <ele>138.4</ele>
        <time>2011-03-06T07:53:34Z</time>
      </trkpt>
      <trkpt lat="43.64446" lon="3.37339">
        <ele>138.5</ele>
        <time>2011-03-06T07:53:35Z</time>
      </trkpt>
      <trkpt lat="43.64444" lon="3.37334">
        <ele>138.7</ele>
        <time>2011-03-06T07:53:36Z</time>
      </trkpt>
      <trkpt lat="43.6444" lon="3.37329">
        <ele>138.8</ele>
        <time>2011-03-06T07:53:37Z</time>
      </trkpt>
      <trkpt lat="43.64437" lon="3.37324">
        <ele>138.9</ele>
        <time>2011-03-06T07:53:38Z</time>
      </trkpt>
      <trkpt lat="43.64434" lon="3.37319">
        <ele>139</ele>
        <time>2011-03-06T07:53:39Z</time>
      </trkpt>
      <trkpt lat="43.64431" lon="3.37313">
        <ele>139.1</ele>
        <time>2011-03-06T07:53:40Z</time>
      </trkpt>
      <trkpt lat="43.64429" lon="3.37307">
        <ele>139.1</ele>
        <time>2011-03-06T07:53:41Z</time>
      </trkpt>
      <trkpt lat="43.64428" lon="3.37301">
        <ele>139.1</ele>
        <time>2011-03-06T07:53:42Z</time>
      </trkpt>
      <trkpt lat="43.64426" lon="3.37295">
        <ele>139.2</ele>
        <time>2011-03-06T07:53:43Z</time>
      </trkpt>
      <trkpt lat="43.64421" lon="3.37284">
        <ele>139.2</ele>
        <time>2011-03-06T07:53:45Z</time>
      </trkpt>
      <trkpt lat="43.6442" lon="3.37273">
        <ele>139.1</ele>
        <time>2011-03-06T07:53:47Z</time>
      </trkpt>
      <trkpt lat="43.64421" lon="3.37262">
        <ele>139</ele>
        <time>2011-03-06T07:53:49Z</time>
      </trkpt>
      <trkpt lat="43.64419" lon="3.3725">
        <ele>138.9</ele>
        <time>2011-03-06T07:53:51Z</time>
      </trkpt>
      <trkpt lat="43.64415" lon="3.37239">
        <ele>139.2</ele>
        <time>2011-03-06T07:53:53Z</time>
      </trkpt>
      <trkpt lat="43.6441" lon="3.37229">
        <ele>139.5</ele>
        <time>2011-03-06T07:53:55Z</time>
      </trkpt>
      <trkpt lat="43.64404" lon="3.37221">
        <ele>139.9</ele>
        <time>2011-03-06T07:53:57Z</time>
      </trkpt>
      <trkpt lat="43.64397" lon="3.37214">
        <ele>140.2</ele>
        <time>2011-03-06T07:53:59Z</time>
      </trkpt>
      <trkpt lat="43.64391" lon="3.37206">
        <ele>140.6</ele>
        <time>2011-03-06T07:54:01Z</time>
      </trkpt>
      <trkpt lat="43.64384" lon="3.37199">
        <ele>141</ele>
        <time>2011-03-06T07:54:03Z</time>
      </trkpt>
      <trkpt lat="43.64379" lon="3.37193">
        <ele>141.4</ele>
        <time>2011-03-06T07:54:05Z</time>
      </trkpt>
      <trkpt lat="43.64374" lon="3.37187">
        <ele>141.7</ele>
        <time>2011-03-06T07:54:07Z</time>
      </trkpt>
      <trkpt lat="43.64369" lon="3.37178">
        <ele>142.1</ele>
        <time>2011-03-06T07:54:09Z</time>
      </trkpt>
      <trkpt lat="43.64366" lon="3.37167">
        <ele>142.4</ele>
        <time>2011-03-06T07:54:11Z</time>
      </trkpt>
      <trkpt lat="43.64361" lon="3.37157">
        <ele>142.3</ele>
        <time>2011-03-06T07:54:14Z</time>
      </trkpt>
      <trkpt lat="43.64355" lon="3.37151">
        <ele>142.5</ele>
        <time>2011-03-06T07:54:17Z</time>
      </trkpt>
      <trkpt lat="43.64347" lon="3.37146">
        <ele>142.7</ele>
        <time>2011-03-06T07:54:21Z</time>
      </trkpt>
      <trkpt lat="43.6434" lon="3.37144">
        <ele>142.9</ele>
        <time>2011-03-06T07:54:24Z</time>
      </trkpt>
      <trkpt lat="43.64334" lon="3.37141">
        <ele>143</ele>
        <time>2011-03-06T07:54:26Z</time>
      </trkpt>
      <trkpt lat="43.64332" lon="3.37138">
        <ele>143</ele>
        <time>2011-03-06T07:54:27Z</time>
      </trkpt>
      <trkpt lat="43.64324" lon="3.37128">
        <ele>142.8</ele>
        <time>2011-03-06T07:54:30Z</time>
      </trkpt>
      <trkpt lat="43.64319" lon="3.37121">
        <ele>142.7</ele>
        <time>2011-03-06T07:54:32Z</time>
      </trkpt>
      <trkpt lat="43.64314" lon="3.37114">
        <ele>142.6</ele>
        <time>2011-03-06T07:54:34Z</time>
      </trkpt>
      <trkpt lat="43.6431" lon="3.37107">
        <ele>142.5</ele>
        <time>2011-03-06T07:54:36Z</time>
      </trkpt>
      <trkpt lat="43.64307" lon="3.37098">
        <ele>142.4</ele>
        <time>2011-03-06T07:54:38Z</time>
      </trkpt>
      <trkpt lat="43.64306" lon="3.37089">
        <ele>142.2</ele>
        <time>2011-03-06T07:54:40Z</time>
      </trkpt>
      <trkpt lat="43.64304" lon="3.37078">
        <ele>142</ele>
        <time>2011-03-06T07:54:42Z</time>
      </trkpt>
      <trkpt lat="43.64303" lon="3.37072">
        <ele>141.9</ele>
        <time>2011-03-06T07:54:43Z</time>
      </trkpt>
      <trkpt lat="43.64303" lon="3.37065">
        <ele>141.8</ele>
        <time>2011-03-06T07:54:44Z</time>
      </trkpt>
      <trkpt lat="43.64303" lon="3.37054">
        <ele>141.6</ele>
        <time>2011-03-06T07:54:46Z</time>
      </trkpt>
      <trkpt lat="43.64305" lon="3.37043">
        <ele>141.4</ele>
        <time>2011-03-06T07:54:48Z</time>
      </trkpt>
      <trkpt lat="43.64307" lon="3.37036">
        <ele>141.2</ele>
        <time>2011-03-06T07:54:49Z</time>
      </trkpt>
      <trkpt lat="43.64308" lon="3.37029">
        <ele>141</ele>
        <time>2011-03-06T07:54:50Z</time>
      </trkpt>
      <trkpt lat="43.64308" lon="3.37022">
        <ele>140.9</ele>
        <time>2011-03-06T07:54:51Z</time>
      </trkpt>
      <trkpt lat="43.64306" lon="3.3701">
        <ele>140.8</ele>
        <time>2011-03-06T07:54:53Z</time>
      </trkpt>
      <trkpt lat="43.64303" lon="3.37">
        <ele>140.8</ele>
        <time>2011-03-06T07:54:55Z</time>
      </trkpt>
      <trkpt lat="43.64302" lon="3.36988">
        <ele>141.1</ele>
        <time>2011-03-06T07:54:57Z</time>
      </trkpt>
      <trkpt lat="43.64303" lon="3.36982">
        <ele>141.2</ele>
        <time>2011-03-06T07:54:58Z</time>
      </trkpt>
      <trkpt lat="43.64304" lon="3.36976">
        <ele>141.3</ele>
        <time>2011-03-06T07:54:59Z</time>
      </trkpt>
      <trkpt lat="43.64304" lon="3.36969">
        <ele>141.4</ele>
        <time>2011-03-06T07:55:00Z</time>
      </trkpt>
      <trkpt lat="43.64304" lon="3.36962">
        <ele>141.5</ele>
        <time>2011-03-06T07:55:01Z</time>
      </trkpt>
      <trkpt lat="43.64305" lon="3.36956">
        <ele>141.6</ele>
        <time>2011-03-06T07:55:02Z</time>
      </trkpt>
      <trkpt lat="43.64305" lon="3.36949">
        <ele>141.8</ele>
        <time>2011-03-06T07:55:03Z</time>
      </trkpt>
      <trkpt lat="43.64305" lon="3.36943">
        <ele>141.9</ele>
        <time>2011-03-06T07:55:04Z</time>
      </trkpt>
      <trkpt lat="43.64305" lon="3.36936">
        <ele>142</ele>
        <time>2011-03-06T07:55:05Z</time>
      </trkpt>
      <trkpt lat="43.64305" lon="3.36929">
        <ele>142.2</ele>
        <time>2011-03-06T07:55:06Z</time>
      </trkpt>
      <trkpt lat="43.64305" lon="3.36923">
        <ele>142.3</ele>
        <time>2011-03-06T07:55:07Z</time>
      </trkpt>
      <trkpt lat="43.64305" lon="3.36911">
        <ele>142.4</ele>
        <time>2011-03-06T07:55:09Z</time>
      </trkpt>
      <trkpt lat="43.64305" lon="3.36904">
        <ele>142.4</ele>
        <time>2011-03-06T07:55:10Z</time>
      </trkpt>
      <trkpt lat="43.64305" lon="3.36898">
        <ele>142.4</ele>
        <time>2011-03-06T07:55:11Z</time>
      </trkpt>
      <trkpt lat="43.64305" lon="3.36891">
        <ele>142.4</ele>
        <time>2011-03-06T07:55:12Z</time>
      </trkpt>
      <trkpt lat="43.64305" lon="3.3688">
        <ele>142.4</ele>
        <time>2011-03-06T07:55:14Z</time>
      </trkpt>
      <trkpt lat="43.64306" lon="3.36868">
        <ele>142.3</ele>
        <time>2011-03-06T07:55:16Z</time>
      </trkpt>
      <trkpt lat="43.64307" lon="3.36861">
        <ele>142.2</ele>
        <time>2011-03-06T07:55:17Z</time>
      </trkpt>
      <trkpt lat="43.64308" lon="3.3685">
        <ele>141.9</ele>
        <time>2011-03-06T07:55:19Z</time>
      </trkpt>
      <trkpt lat="43.64309" lon="3.3684">
        <ele>141.8</ele>
        <time>2011-03-06T07:55:21Z</time>
      </trkpt>
      <trkpt lat="43.64308" lon="3.36829">
        <ele>141.8</ele>
        <time>2011-03-06T07:55:23Z</time>
      </trkpt>
      <trkpt lat="43.64305" lon="3.36818">
        <ele>141.8</ele>
        <time>2011-03-06T07:55:25Z</time>
      </trkpt>
      <trkpt lat="43.64304" lon="3.36811">
        <ele>141.7</ele>
        <time>2011-03-06T07:55:26Z</time>
      </trkpt>
      <trkpt lat="43.64302" lon="3.36804">
        <ele>141.7</ele>
        <time>2011-03-06T07:55:27Z</time>
      </trkpt>
      <trkpt lat="43.64299" lon="3.36797">
        <ele>141.6</ele>
        <time>2011-03-06T07:55:28Z</time>
      </trkpt>
      <trkpt lat="43.64297" lon="3.36791">
        <ele>141.6</ele>
        <time>2011-03-06T07:55:29Z</time>
      </trkpt>
      <trkpt lat="43.64295" lon="3.36784">
        <ele>141.5</ele>
        <time>2011-03-06T07:55:30Z</time>
      </trkpt>
      <trkpt lat="43.64292" lon="3.36778">
        <ele>141.5</ele>
        <time>2011-03-06T07:55:31Z</time>
      </trkpt>
      <trkpt lat="43.6429" lon="3.36771">
        <ele>141.3</ele>
        <time>2011-03-06T07:55:32Z</time>
      </trkpt>
      <trkpt lat="43.6429" lon="3.36764">
        <ele>140.9</ele>
        <time>2011-03-06T07:55:33Z</time>
      </trkpt>
      <trkpt lat="43.6429" lon="3.36758">
        <ele>140.5</ele>
        <time>2011-03-06T07:55:34Z</time>
      </trkpt>
      <trkpt lat="43.64292" lon="3.36751">
        <ele>140.1</ele>
        <time>2011-03-06T07:55:35Z</time>
      </trkpt>
      <trkpt lat="43.64294" lon="3.3674">
        <ele>139.6</ele>
        <time>2011-03-06T07:55:37Z</time>
      </trkpt>
      <trkpt lat="43.64296" lon="3.36734">
        <ele>139.3</ele>
        <time>2011-03-06T07:55:38Z</time>
      </trkpt>
      <trkpt lat="43.64298" lon="3.36728">
        <ele>139.1</ele>
        <time>2011-03-06T07:55:39Z</time>
      </trkpt>
      <trkpt lat="43.643" lon="3.36722">
        <ele>138.9</ele>
        <time>2011-03-06T07:55:40Z</time>
      </trkpt>
      <trkpt lat="43.64303" lon="3.36716">
        <ele>138.6</ele>
        <time>2011-03-06T07:55:41Z</time>
      </trkpt>
      <trkpt lat="43.64305" lon="3.3671">
        <ele>138.4</ele>
        <time>2011-03-06T07:55:42Z</time>
      </trkpt>
      <trkpt lat="43.64306" lon="3.36704">
        <ele>138.2</ele>
        <time>2011-03-06T07:55:43Z</time>
      </trkpt>
      <trkpt lat="43.64308" lon="3.36696">
        <ele>138</ele>
        <time>2011-03-06T07:55:44Z</time>
      </trkpt>
      <trkpt lat="43.64309" lon="3.36689">
        <ele>137.9</ele>
        <time>2011-03-06T07:55:45Z</time>
      </trkpt>
      <trkpt lat="43.6431" lon="3.36683">
        <ele>137.8</ele>
        <time>2011-03-06T07:55:46Z</time>
      </trkpt>
      <trkpt lat="43.64307" lon="3.36671">
        <ele>137.7</ele>
        <time>2011-03-06T07:55:48Z</time>
      </trkpt>
      <trkpt lat="43.64304" lon="3.36666">
        <ele>137.7</ele>
        <time>2011-03-06T07:55:49Z</time>
      </trkpt>
      <trkpt lat="43.643" lon="3.36663">
        <ele>137.8</ele>
        <time>2011-03-06T07:55:50Z</time>
      </trkpt>
      <trkpt lat="43.64296" lon="3.3666">
        <ele>137.9</ele>
        <time>2011-03-06T07:55:51Z</time>
      </trkpt>
      <trkpt lat="43.64292" lon="3.36656">
        <ele>138</ele>
        <time>2011-03-06T07:55:52Z</time>
      </trkpt>
      <trkpt lat="43.64288" lon="3.36652">
        <ele>138.1</ele>
        <time>2011-03-06T07:55:53Z</time>
      </trkpt>
      <trkpt lat="43.64286" lon="3.36646">
        <ele>138.2</ele>
        <time>2011-03-06T07:55:54Z</time>
      </trkpt>
      <trkpt lat="43.64286" lon="3.36639">
        <ele>138.2</ele>
        <time>2011-03-06T07:55:55Z</time>
      </trkpt>
      <trkpt lat="43.64287" lon="3.36632">
        <ele>138.2</ele>
        <time>2011-03-06T07:55:56Z</time>
      </trkpt>
      <trkpt lat="43.64287" lon="3.36625">
        <ele>138.2</ele>
        <time>2011-03-06T07:55:57Z</time>
      </trkpt>
      <trkpt lat="43.64287" lon="3.36618">
        <ele>138.2</ele>
        <time>2011-03-06T07:55:58Z</time>
      </trkpt>
      <trkpt lat="43.64286" lon="3.36612">
        <ele>138.2</ele>
        <time>2011-03-06T07:55:59Z</time>
      </trkpt>
      <trkpt lat="43.64284" lon="3.366">
        <ele>138.3</ele>
        <time>2011-03-06T07:56:01Z</time>
      </trkpt>
      <trkpt lat="43.64283" lon="3.3659">
        <ele>138.4</ele>
        <time>2011-03-06T07:56:03Z</time>
      </trkpt>
      <trkpt lat="43.64282" lon="3.3658">
        <ele>138.6</ele>
        <time>2011-03-06T07:56:05Z</time>
      </trkpt>
      <trkpt lat="43.64282" lon="3.36569">
        <ele>138.9</ele>
        <time>2011-03-06T07:56:07Z</time>
      </trkpt>
      <trkpt lat="43.64281" lon="3.36559">
        <ele>139.2</ele>
        <time>2011-03-06T07:56:09Z</time>
      </trkpt>
      <trkpt lat="43.64281" lon="3.3655">
        <ele>139.4</ele>
        <time>2011-03-06T07:56:11Z</time>
      </trkpt>
      <trkpt lat="43.64281" lon="3.36541">
        <ele>139.7</ele>
        <time>2011-03-06T07:56:13Z</time>
      </trkpt>
      <trkpt lat="43.6428" lon="3.36529">
        <ele>140</ele>
        <time>2011-03-06T07:56:15Z</time>
      </trkpt>
      <trkpt lat="43.64281" lon="3.36523">
        <ele>140.2</ele>
        <time>2011-03-06T07:56:16Z</time>
      </trkpt>
      <trkpt lat="43.64282" lon="3.36511">
        <ele>140.4</ele>
        <time>2011-03-06T07:56:18Z</time>
      </trkpt>
      <trkpt lat="43.64282" lon="3.365">
        <ele>140.7</ele>
        <time>2011-03-06T07:56:20Z</time>
      </trkpt>
      <trkpt lat="43.64284" lon="3.3649">
        <ele>141.3</ele>
        <time>2011-03-06T07:56:22Z</time>
      </trkpt>
      <trkpt lat="43.64286" lon="3.3648">
        <ele>141.9</ele>
        <time>2011-03-06T07:56:24Z</time>
      </trkpt>
      <trkpt lat="43.64287" lon="3.36469">
        <ele>142.5</ele>
        <time>2011-03-06T07:56:26Z</time>
      </trkpt>
      <trkpt lat="43.64289" lon="3.36458">
        <ele>143</ele>
        <time>2011-03-06T07:56:28Z</time>
      </trkpt>
      <trkpt lat="43.6429" lon="3.36453">
        <ele>143.3</ele>
        <time>2011-03-06T07:56:29Z</time>
      </trkpt>
      <trkpt lat="43.64292" lon="3.36439">
        <ele>144</ele>
        <time>2011-03-06T07:56:32Z</time>
      </trkpt>
      <trkpt lat="43.64294" lon="3.3643">
        <ele>144.3</ele>
        <time>2011-03-06T07:56:34Z</time>
      </trkpt>
      <trkpt lat="43.64297" lon="3.36422">
        <ele>144.4</ele>
        <time>2011-03-06T07:56:36Z</time>
      </trkpt>
      <trkpt lat="43.64299" lon="3.36414">
        <ele>144.7</ele>
        <time>2011-03-06T07:56:38Z</time>
      </trkpt>
      <trkpt lat="43.643" lon="3.36402">
        <ele>145</ele>
        <time>2011-03-06T07:56:42Z</time>
      </trkpt>
      <trkpt lat="43.64301" lon="3.36391">
        <ele>145.3</ele>
        <time>2011-03-06T07:56:47Z</time>
      </trkpt>
      <trkpt lat="43.64304" lon="3.36383">
        <ele>145.2</ele>
        <time>2011-03-06T07:56:49Z</time>
      </trkpt>
      <trkpt lat="43.64309" lon="3.36373">
        <ele>144.9</ele>
        <time>2011-03-06T07:56:53Z</time>
      </trkpt>
      <trkpt lat="43.64306" lon="3.36365">
        <ele>145.6</ele>
        <time>2011-03-06T07:56:56Z</time>
      </trkpt>
      <trkpt lat="43.64304" lon="3.36355">
        <ele>146.4</ele>
        <time>2011-03-06T07:56:59Z</time>
      </trkpt>
      <trkpt lat="43.643" lon="3.36346">
        <ele>147.3</ele>
        <time>2011-03-06T07:57:02Z</time>
      </trkpt>
      <trkpt lat="43.64296" lon="3.36337">
        <ele>148.3</ele>
        <time>2011-03-06T07:57:05Z</time>
      </trkpt>
      <trkpt lat="43.64295" lon="3.36325">
        <ele>148.7</ele>
        <time>2011-03-06T07:57:08Z</time>
      </trkpt>
      <trkpt lat="43.64294" lon="3.36314">
        <ele>149</ele>
        <time>2011-03-06T07:57:11Z</time>
      </trkpt>
      <trkpt lat="43.64294" lon="3.36305">
        <ele>149.2</ele>
        <time>2011-03-06T07:57:13Z</time>
      </trkpt>
      <trkpt lat="43.64295" lon="3.36295">
        <ele>149.3</ele>
        <time>2011-03-06T07:57:15Z</time>
      </trkpt>
      <trkpt lat="43.64295" lon="3.36286">
        <ele>149.4</ele>
        <time>2011-03-06T07:57:17Z</time>
      </trkpt>
      <trkpt lat="43.64294" lon="3.36277">
        <ele>149.7</ele>
        <time>2011-03-06T07:57:19Z</time>
      </trkpt>
      <trkpt lat="43.64294" lon="3.36267">
        <ele>149.9</ele>
        <time>2011-03-06T07:57:21Z</time>
      </trkpt>
      <trkpt lat="43.64294" lon="3.36259">
        <ele>150.1</ele>
        <time>2011-03-06T07:57:23Z</time>
      </trkpt>
      <trkpt lat="43.64294" lon="3.3625">
        <ele>150.2</ele>
        <time>2011-03-06T07:57:25Z</time>
      </trkpt>
      <trkpt lat="43.64296" lon="3.36241">
        <ele>150.7</ele>
        <time>2011-03-06T07:57:27Z</time>
      </trkpt>
      <trkpt lat="43.64296" lon="3.36232">
        <ele>151.1</ele>
        <time>2011-03-06T07:57:29Z</time>
      </trkpt>
      <trkpt lat="43.64296" lon="3.36227">
        <ele>151.4</ele>
        <time>2011-03-06T07:57:30Z</time>
      </trkpt>
      <trkpt lat="43.64294" lon="3.3621">
        <ele>152.7</ele>
        <time>2011-03-06T07:57:34Z</time>
      </trkpt>
      <trkpt lat="43.64294" lon="3.36201">
        <ele>153.3</ele>
        <time>2011-03-06T07:57:37Z</time>
      </trkpt>
      <trkpt lat="43.64299" lon="3.36192">
        <ele>153.3</ele>
        <time>2011-03-06T07:57:40Z</time>
      </trkpt>
      <trkpt lat="43.64306" lon="3.36185">
        <ele>153.1</ele>
        <time>2011-03-06T07:57:43Z</time>
      </trkpt>
      <trkpt lat="43.64313" lon="3.36178">
        <ele>153</ele>
        <time>2011-03-06T07:57:46Z</time>
      </trkpt>
      <trkpt lat="43.64316" lon="3.36169">
        <ele>153.3</ele>
        <time>2011-03-06T07:57:49Z</time>
      </trkpt>
      <trkpt lat="43.64323" lon="3.36162">
        <ele>153.2</ele>
        <time>2011-03-06T07:57:57Z</time>
      </trkpt>
      <trkpt lat="43.64331" lon="3.3616">
        <ele>152.6</ele>
        <time>2011-03-06T07:58:03Z</time>
      </trkpt>
      <trkpt lat="43.6434" lon="3.3616">
        <ele>151.8</ele>
        <time>2011-03-06T07:58:06Z</time>
      </trkpt>
      <trkpt lat="43.64346" lon="3.36158">
        <ele>151.2</ele>
        <time>2011-03-06T07:58:08Z</time>
      </trkpt>
      <trkpt lat="43.64353" lon="3.36154">
        <ele>150.8</ele>
        <time>2011-03-06T07:58:10Z</time>
      </trkpt>
      <trkpt lat="43.64359" lon="3.36148">
        <ele>150.6</ele>
        <time>2011-03-06T07:58:12Z</time>
      </trkpt>
      <trkpt lat="43.64366" lon="3.36142">
        <ele>150.3</ele>
        <time>2011-03-06T07:58:14Z</time>
      </trkpt>
      <trkpt lat="43.6437" lon="3.36139">
        <ele>150.2</ele>
        <time>2011-03-06T07:58:15Z</time>
      </trkpt>
      <trkpt lat="43.64375" lon="3.36136">
        <ele>149.9</ele>
        <time>2011-03-06T07:58:16Z</time>
      </trkpt>
      <trkpt lat="43.64379" lon="3.36133">
        <ele>149.8</ele>
        <time>2011-03-06T07:58:17Z</time>
      </trkpt>
      <trkpt lat="43.64384" lon="3.36129">
        <ele>149.6</ele>
        <time>2011-03-06T07:58:18Z</time>
      </trkpt>
      <trkpt lat="43.64388" lon="3.36126">
        <ele>149.5</ele>
        <time>2011-03-06T07:58:19Z</time>
      </trkpt>
      <trkpt lat="43.64393" lon="3.36125">
        <ele>149.2</ele>
        <time>2011-03-06T07:58:20Z</time>
      </trkpt>
      <trkpt lat="43.64398" lon="3.36123">
        <ele>148.9</ele>
        <time>2011-03-06T07:58:21Z</time>
      </trkpt>
      <trkpt lat="43.64404" lon="3.36119">
        <ele>148.7</ele>
        <time>2011-03-06T07:58:22Z</time>
      </trkpt>
      <trkpt lat="43.64409" lon="3.36115">
        <ele>148.6</ele>
        <time>2011-03-06T07:58:23Z</time>
      </trkpt>
      <trkpt lat="43.64413" lon="3.3611">
        <ele>148.7</ele>
        <time>2011-03-06T07:58:24Z</time>
      </trkpt>
      <trkpt lat="43.64417" lon="3.36104">
        <ele>149</ele>
        <time>2011-03-06T07:58:25Z</time>
      </trkpt>
      <trkpt lat="43.64421" lon="3.36098">
        <ele>149.3</ele>
        <time>2011-03-06T07:58:26Z</time>
      </trkpt>
      <trkpt lat="43.64425" lon="3.36093">
        <ele>149.6</ele>
        <time>2011-03-06T07:58:27Z</time>
      </trkpt>
      <trkpt lat="43.64429" lon="3.36088">
        <ele>149.9</ele>
        <time>2011-03-06T07:58:28Z</time>
      </trkpt>
      <trkpt lat="43.64434" lon="3.36083">
        <ele>150</ele>
        <time>2011-03-06T07:58:29Z</time>
      </trkpt>
      <trkpt lat="43.64439" lon="3.3608">
        <ele>149.7</ele>
        <time>2011-03-06T07:58:30Z</time>
      </trkpt>
      <trkpt lat="43.64444" lon="3.36078">
        <ele>149.5</ele>
        <time>2011-03-06T07:58:31Z</time>
      </trkpt>
      <trkpt lat="43.64449" lon="3.36076">
        <ele>149.2</ele>
        <time>2011-03-06T07:58:32Z</time>
      </trkpt>
      <trkpt lat="43.64454" lon="3.36075">
        <ele>148.9</ele>
        <time>2011-03-06T07:58:33Z</time>
      </trkpt>
      <trkpt lat="43.64463" lon="3.36076">
        <ele>148.4</ele>
        <time>2011-03-06T07:58:35Z</time>
      </trkpt>
      <trkpt lat="43.6447" lon="3.36081">
        <ele>147.8</ele>
        <time>2011-03-06T07:58:38Z</time>
      </trkpt>
      <trkpt lat="43.64476" lon="3.36085">
        <ele>147.4</ele>
        <time>2011-03-06T07:58:40Z</time>
      </trkpt>
      <trkpt lat="43.64484" lon="3.36083">
        <ele>147</ele>
        <time>2011-03-06T07:58:42Z</time>
      </trkpt>
      <trkpt lat="43.64493" lon="3.36081">
        <ele>146.5</ele>
        <time>2011-03-06T07:58:45Z</time>
      </trkpt>
      <trkpt lat="43.64499" lon="3.36075">
        <ele>146.4</ele>
        <time>2011-03-06T07:58:47Z</time>
      </trkpt>
      <trkpt lat="43.64507" lon="3.36072">
        <ele>145.9</ele>
        <time>2011-03-06T07:58:49Z</time>
      </trkpt>
      <trkpt lat="43.64512" lon="3.36071">
        <ele>145.6</ele>
        <time>2011-03-06T07:58:50Z</time>
      </trkpt>
      <trkpt lat="43.64516" lon="3.36068">
        <ele>145.4</ele>
        <time>2011-03-06T07:58:51Z</time>
      </trkpt>
      <trkpt lat="43.64521" lon="3.36065">
        <ele>145.1</ele>
        <time>2011-03-06T07:58:52Z</time>
      </trkpt>
      <trkpt lat="43.64526" lon="3.36063">
        <ele>144.8</ele>
        <time>2011-03-06T07:58:53Z</time>
      </trkpt>
      <trkpt lat="43.64532" lon="3.36061">
        <ele>144.4</ele>
        <time>2011-03-06T07:58:54Z</time>
      </trkpt>
      <trkpt lat="43.64538" lon="3.3606">
        <ele>144</ele>
        <time>2011-03-06T07:58:55Z</time>
      </trkpt>
      <trkpt lat="43.64544" lon="3.36057">
        <ele>143.6</ele>
        <time>2011-03-06T07:58:56Z</time>
      </trkpt>
      <trkpt lat="43.6455" lon="3.36055">
        <ele>143.2</ele>
        <time>2011-03-06T07:58:57Z</time>
      </trkpt>
      <trkpt lat="43.64555" lon="3.36052">
        <ele>143</ele>
        <time>2011-03-06T07:58:58Z</time>
      </trkpt>
      <trkpt lat="43.64559" lon="3.36051">
        <ele>142.6</ele>
        <time>2011-03-06T07:58:59Z</time>
      </trkpt>
      <trkpt lat="43.64564" lon="3.36051">
        <ele>142.3</ele>
        <time>2011-03-06T07:59:00Z</time>
      </trkpt>
      <trkpt lat="43.64569" lon="3.36051">
        <ele>141.9</ele>
        <time>2011-03-06T07:59:01Z</time>
      </trkpt>
      <trkpt lat="43.64577" lon="3.36051">
        <ele>141.3</ele>
        <time>2011-03-06T07:59:03Z</time>
      </trkpt>
      <trkpt lat="43.64576" lon="3.36062">
        <ele>141.1</ele>
        <time>2011-03-06T07:59:08Z</time>
      </trkpt>
      <trkpt lat="43.64575" lon="3.36074">
        <ele>140.9</ele>
        <time>2011-03-06T07:59:11Z</time>
      </trkpt>
      <trkpt lat="43.64574" lon="3.36084">
        <ele>140.7</ele>
        <time>2011-03-06T07:59:13Z</time>
      </trkpt>
      <trkpt lat="43.64572" lon="3.3609">
        <ele>140.6</ele>
        <time>2011-03-06T07:59:14Z</time>
      </trkpt>
      <trkpt lat="43.64571" lon="3.36096">
        <ele>140.5</ele>
        <time>2011-03-06T07:59:15Z</time>
      </trkpt>
      <trkpt lat="43.6457" lon="3.36103">
        <ele>140.4</ele>
        <time>2011-03-06T07:59:16Z</time>
      </trkpt>
      <trkpt lat="43.64568" lon="3.36115">
        <ele>140.1</ele>
        <time>2011-03-06T07:59:18Z</time>
      </trkpt>
      <trkpt lat="43.64571" lon="3.36127">
        <ele>139.6</ele>
        <time>2011-03-06T07:59:20Z</time>
      </trkpt>
      <trkpt lat="43.64578" lon="3.36134">
        <ele>139.1</ele>
        <time>2011-03-06T07:59:22Z</time>
      </trkpt>
      <trkpt lat="43.64586" lon="3.36134">
        <ele>138.7</ele>
        <time>2011-03-06T07:59:24Z</time>
      </trkpt>
      <trkpt lat="43.64594" lon="3.36132">
        <ele>138.5</ele>
        <time>2011-03-06T07:59:26Z</time>
      </trkpt>
      <trkpt lat="43.64599" lon="3.36132">
        <ele>138.3</ele>
        <time>2011-03-06T07:59:27Z</time>
      </trkpt>
      <trkpt lat="43.64604" lon="3.36131">
        <ele>138.2</ele>
        <time>2011-03-06T07:59:28Z</time>
      </trkpt>
      <trkpt lat="43.64608" lon="3.36129">
        <ele>138</ele>
        <time>2011-03-06T07:59:29Z</time>
      </trkpt>
      <trkpt lat="43.64613" lon="3.36129">
        <ele>137.9</ele>
        <time>2011-03-06T07:59:30Z</time>
      </trkpt>
      <trkpt lat="43.64621" lon="3.36128">
        <ele>137.6</ele>
        <time>2011-03-06T07:59:32Z</time>
      </trkpt>
      <trkpt lat="43.64626" lon="3.36128">
        <ele>137.4</ele>
        <time>2011-03-06T07:59:33Z</time>
      </trkpt>
      <trkpt lat="43.64638" lon="3.36126">
        <ele>137</ele>
        <time>2011-03-06T07:59:56Z</time>
      </trkpt>
      <trkpt lat="43.64644" lon="3.36134">
        <ele>136.8</ele>
        <time>2011-03-06T08:00:09Z</time>
      </trkpt>
      <trkpt lat="43.64644" lon="3.36124">
        <ele>136.8</ele>
        <time>2011-03-06T08:00:30Z</time>
      </trkpt>
      <trkpt lat="43.64645" lon="3.36115">
        <ele>136.8</ele>
        <time>2011-03-06T08:00:33Z</time>
      </trkpt>
      <trkpt lat="43.64646" lon="3.36112">
        <ele>136.8</ele>
        <time>2011-03-06T08:00:34Z</time>
      </trkpt>
      <trkpt lat="43.64654" lon="3.36101">
        <ele>136.5</ele>
        <time>2011-03-06T08:00:38Z</time>
      </trkpt>
      <trkpt lat="43.64658" lon="3.36091">
        <ele>136.4</ele>
        <time>2011-03-06T08:00:41Z</time>
      </trkpt>
      <trkpt lat="43.64663" lon="3.36083">
        <ele>136.2</ele>
        <time>2011-03-06T08:00:44Z</time>
      </trkpt>
      <trkpt lat="43.64667" lon="3.36072">
        <ele>136.8</ele>
        <time>2011-03-06T08:00:47Z</time>
      </trkpt>
      <trkpt lat="43.64671" lon="3.36067">
        <ele>137.2</ele>
        <time>2011-03-06T08:00:49Z</time>
      </trkpt>
      <trkpt lat="43.64677" lon="3.36063">
        <ele>137.5</ele>
        <time>2011-03-06T08:00:51Z</time>
      </trkpt>
      <trkpt lat="43.64685" lon="3.36059">
        <ele>137.8</ele>
        <time>2011-03-06T08:00:54Z</time>
      </trkpt>
      <trkpt lat="43.64691" lon="3.36062">
        <ele>137.6</ele>
        <time>2011-03-06T08:00:56Z</time>
      </trkpt>
      <trkpt lat="43.64697" lon="3.36067">
        <ele>137.3</ele>
        <time>2011-03-06T08:00:58Z</time>
      </trkpt>
      <trkpt lat="43.64704" lon="3.36074">
        <ele>137</ele>
        <time>2011-03-06T08:01:00Z</time>
      </trkpt>
      <trkpt lat="43.6471" lon="3.36082">
        <ele>136.6</ele>
        <time>2011-03-06T08:01:02Z</time>
      </trkpt>
      <trkpt lat="43.64716" lon="3.36089">
        <ele>136.6</ele>
        <time>2011-03-06T08:01:04Z</time>
      </trkpt>
      <trkpt lat="43.64723" lon="3.36096">
        <ele>136.6</ele>
        <time>2011-03-06T08:01:06Z</time>
      </trkpt>
      <trkpt lat="43.64729" lon="3.361">
        <ele>136.6</ele>
        <time>2011-03-06T08:01:08Z</time>
      </trkpt>
      <trkpt lat="43.64735" lon="3.36097">
        <ele>136.7</ele>
        <time>2011-03-06T08:01:10Z</time>
      </trkpt>
      <trkpt lat="43.6474" lon="3.36088">
        <ele>136.8</ele>
        <time>2011-03-06T08:01:12Z</time>
      </trkpt>
      <trkpt lat="43.64744" lon="3.36079">
        <ele>137.1</ele>
        <time>2011-03-06T08:01:14Z</time>
      </trkpt>
      <trkpt lat="43.64747" lon="3.36075">
        <ele>137.3</ele>
        <time>2011-03-06T08:01:15Z</time>
      </trkpt>
      <trkpt lat="43.64751" lon="3.36071">
        <ele>137.4</ele>
        <time>2011-03-06T08:01:16Z</time>
      </trkpt>
      <trkpt lat="43.64755" lon="3.36066">
        <ele>137.6</ele>
        <time>2011-03-06T08:01:17Z</time>
      </trkpt>
      <trkpt lat="43.64759" lon="3.36062">
        <ele>137.6</ele>
        <time>2011-03-06T08:01:18Z</time>
      </trkpt>
      <trkpt lat="43.64764" lon="3.36058">
        <ele>137.7</ele>
        <time>2011-03-06T08:01:19Z</time>
      </trkpt>
      <trkpt lat="43.64768" lon="3.36053">
        <ele>137.8</ele>
        <time>2011-03-06T08:01:20Z</time>
      </trkpt>
      <trkpt lat="43.64771" lon="3.36048">
        <ele>137.9</ele>
        <time>2011-03-06T08:01:21Z</time>
      </trkpt>
      <trkpt lat="43.64773" lon="3.36041">
        <ele>138.1</ele>
        <time>2011-03-06T08:01:22Z</time>
      </trkpt>
      <trkpt lat="43.64775" lon="3.36034">
        <ele>138.3</ele>
        <time>2011-03-06T08:01:23Z</time>
      </trkpt>
      <trkpt lat="43.64777" lon="3.36028">
        <ele>138.5</ele>
        <time>2011-03-06T08:01:24Z</time>
      </trkpt>
      <trkpt lat="43.6478" lon="3.36022">
        <ele>138.6</ele>
        <time>2011-03-06T08:01:25Z</time>
      </trkpt>
      <trkpt lat="43.64782" lon="3.36016">
        <ele>138.7</ele>
        <time>2011-03-06T08:01:26Z</time>
      </trkpt>
      <trkpt lat="43.64784" lon="3.3601">
        <ele>138.9</ele>
        <time>2011-03-06T08:01:27Z</time>
      </trkpt>
      <trkpt lat="43.64787" lon="3.36004">
        <ele>139</ele>
        <time>2011-03-06T08:01:28Z</time>
      </trkpt>
      <trkpt lat="43.64789" lon="3.35998">
        <ele>139.2</ele>
        <time>2011-03-06T08:01:29Z</time>
      </trkpt>
      <trkpt lat="43.64792" lon="3.35992">
        <ele>139.4</ele>
        <time>2011-03-06T08:01:30Z</time>
      </trkpt>
      <trkpt lat="43.64794" lon="3.35986">
        <ele>139.6</ele>
        <time>2011-03-06T08:01:31Z</time>
      </trkpt>
      <trkpt lat="43.64796" lon="3.3598">
        <ele>139.8</ele>
        <time>2011-03-06T08:01:32Z</time>
      </trkpt>
      <trkpt lat="43.64799" lon="3.35974">
        <ele>140</ele>
        <time>2011-03-06T08:01:33Z</time>
      </trkpt>
      <trkpt lat="43.64801" lon="3.35968">
        <ele>140.2</ele>
        <time>2011-03-06T08:01:34Z</time>
      </trkpt>
      <trkpt lat="43.64804" lon="3.35963">
        <ele>140.4</ele>
        <time>2011-03-06T08:01:35Z</time>
      </trkpt>
      <trkpt lat="43.64806" lon="3.35957">
        <ele>140.6</ele>
        <time>2011-03-06T08:01:36Z</time>
      </trkpt>
      <trkpt lat="43.64808" lon="3.35951">
        <ele>140.7</ele>
        <time>2011-03-06T08:01:37Z</time>
      </trkpt>
      <trkpt lat="43.64811" lon="3.35945">
        <ele>140.9</ele>
        <time>2011-03-06T08:01:38Z</time>
      </trkpt>
      <trkpt lat="43.64814" lon="3.3594">
        <ele>141</ele>
        <time>2011-03-06T08:01:39Z</time>
      </trkpt>
      <trkpt lat="43.64817" lon="3.35935">
        <ele>141</ele>
        <time>2011-03-06T08:01:40Z</time>
      </trkpt>
      <trkpt lat="43.6482" lon="3.3593">
        <ele>141.1</ele>
        <time>2011-03-06T08:01:41Z</time>
      </trkpt>
      <trkpt lat="43.64822" lon="3.35924">
        <ele>141.3</ele>
        <time>2011-03-06T08:01:42Z</time>
      </trkpt>
      <trkpt lat="43.64825" lon="3.35917">
        <ele>141.4</ele>
        <time>2011-03-06T08:01:43Z</time>
      </trkpt>
      <trkpt lat="43.64828" lon="3.35911">
        <ele>141.1</ele>
        <time>2011-03-06T08:01:44Z</time>
      </trkpt>
      <trkpt lat="43.6483" lon="3.35903">
        <ele>140.8</ele>
        <time>2011-03-06T08:01:45Z</time>
      </trkpt>
      <trkpt lat="43.64832" lon="3.35895">
        <ele>140.6</ele>
        <time>2011-03-06T08:01:46Z</time>
      </trkpt>
      <trkpt lat="43.64834" lon="3.35887">
        <ele>140.3</ele>
        <time>2011-03-06T08:01:47Z</time>
      </trkpt>
      <trkpt lat="43.64836" lon="3.35878">
        <ele>140</ele>
        <time>2011-03-06T08:01:48Z</time>
      </trkpt>
      <trkpt lat="43.64838" lon="3.3587">
        <ele>139.7</ele>
        <time>2011-03-06T08:01:49Z</time>
      </trkpt>
      <trkpt lat="43.6484" lon="3.35861">
        <ele>139.4</ele>
        <time>2011-03-06T08:01:50Z</time>
      </trkpt>
      <trkpt lat="43.64843" lon="3.35852">
        <ele>139.2</ele>
        <time>2011-03-06T08:01:51Z</time>
      </trkpt>
      <trkpt lat="43.64845" lon="3.35843">
        <ele>138.9</ele>
        <time>2011-03-06T08:01:52Z</time>
      </trkpt>
      <trkpt lat="43.64847" lon="3.35834">
        <ele>138.7</ele>
        <time>2011-03-06T08:01:53Z</time>
      </trkpt>
      <trkpt lat="43.6485" lon="3.35825">
        <ele>138.7</ele>
        <time>2011-03-06T08:01:54Z</time>
      </trkpt>
      <trkpt lat="43.64852" lon="3.35816">
        <ele>138.7</ele>
        <time>2011-03-06T08:01:55Z</time>
      </trkpt>
      <trkpt lat="43.64854" lon="3.35808">
        <ele>138.7</ele>
        <time>2011-03-06T08:01:56Z</time>
      </trkpt>
      <trkpt lat="43.64856" lon="3.35801">
        <ele>138.7</ele>
        <time>2011-03-06T08:01:57Z</time>
      </trkpt>
      <trkpt lat="43.6486" lon="3.35791">
        <ele>138.7</ele>
        <time>2011-03-06T08:01:59Z</time>
      </trkpt>
      <trkpt lat="43.64861" lon="3.35779">
        <ele>138.8</ele>
        <time>2011-03-06T08:02:02Z</time>
      </trkpt>
      <trkpt lat="43.64865" lon="3.35768">
        <ele>138.7</ele>
        <time>2011-03-06T08:02:06Z</time>
      </trkpt>
      <trkpt lat="43.64868" lon="3.35762">
        <ele>138.7</ele>
        <time>2011-03-06T08:02:08Z</time>
      </trkpt>
      <trkpt lat="43.64875" lon="3.35754">
        <ele>138.5</ele>
        <time>2011-03-06T08:02:10Z</time>
      </trkpt>
      <trkpt lat="43.64881" lon="3.35746">
        <ele>138.3</ele>
        <time>2011-03-06T08:02:12Z</time>
      </trkpt>
      <trkpt lat="43.64888" lon="3.35738">
        <ele>138.2</ele>
        <time>2011-03-06T08:02:14Z</time>
      </trkpt>
      <trkpt lat="43.64895" lon="3.3573">
        <ele>138</ele>
        <time>2011-03-06T08:02:16Z</time>
      </trkpt>
      <trkpt lat="43.64902" lon="3.35722">
        <ele>137.9</ele>
        <time>2011-03-06T08:02:18Z</time>
      </trkpt>
      <trkpt lat="43.64907" lon="3.35713">
        <ele>137.8</ele>
        <time>2011-03-06T08:02:20Z</time>
      </trkpt>
      <trkpt lat="43.64912" lon="3.35706">
        <ele>137.7</ele>
        <time>2011-03-06T08:02:22Z</time>
      </trkpt>
      <trkpt lat="43.64917" lon="3.35698">
        <ele>137.6</ele>
        <time>2011-03-06T08:02:24Z</time>
      </trkpt>
      <trkpt lat="43.64923" lon="3.35692">
        <ele>137.7</ele>
        <time>2011-03-06T08:02:26Z</time>
      </trkpt>
      <trkpt lat="43.6493" lon="3.35686">
        <ele>137.8</ele>
        <time>2011-03-06T08:02:28Z</time>
      </trkpt>
      <trkpt lat="43.64937" lon="3.35682">
        <ele>137.8</ele>
        <time>2011-03-06T08:02:30Z</time>
      </trkpt>
      <trkpt lat="43.64944" lon="3.35679">
        <ele>137.9</ele>
        <time>2011-03-06T08:02:32Z</time>
      </trkpt>
      <trkpt lat="43.64952" lon="3.35677">
        <ele>137.9</ele>
        <time>2011-03-06T08:02:34Z</time>
      </trkpt>
      <trkpt lat="43.6496" lon="3.35674">
        <ele>137.9</ele>
        <time>2011-03-06T08:02:36Z</time>
      </trkpt>
      <trkpt lat="43.64964" lon="3.35674">
        <ele>137.9</ele>
        <time>2011-03-06T08:02:37Z</time>
      </trkpt>
      <trkpt lat="43.64973" lon="3.35674">
        <ele>137.9</ele>
        <time>2011-03-06T08:02:39Z</time>
      </trkpt>
      <trkpt lat="43.64978" lon="3.35675">
        <ele>137.9</ele>
        <time>2011-03-06T08:02:40Z</time>
      </trkpt>
      <trkpt lat="43.64982" lon="3.35677">
        <ele>137.9</ele>
        <time>2011-03-06T08:02:41Z</time>
      </trkpt>
      <trkpt lat="43.64987" lon="3.35679">
        <ele>137.9</ele>
        <time>2011-03-06T08:02:42Z</time>
      </trkpt>
      <trkpt lat="43.64991" lon="3.35682">
        <ele>137.8</ele>
        <time>2011-03-06T08:02:43Z</time>
      </trkpt>
      <trkpt lat="43.64995" lon="3.35686">
        <ele>137.8</ele>
        <time>2011-03-06T08:02:44Z</time>
      </trkpt>
      <trkpt lat="43.65" lon="3.35696">
        <ele>137.6</ele>
        <time>2011-03-06T08:02:46Z</time>
      </trkpt>
      <trkpt lat="43.65003" lon="3.35707">
        <ele>137.7</ele>
        <time>2011-03-06T08:02:48Z</time>
      </trkpt>
      <trkpt lat="43.65007" lon="3.35718">
        <ele>137.8</ele>
        <time>2011-03-06T08:02:50Z</time>
      </trkpt>
      <trkpt lat="43.65012" lon="3.35728">
        <ele>138.1</ele>
        <time>2011-03-06T08:02:52Z</time>
      </trkpt>
      <trkpt lat="43.65018" lon="3.35736">
        <ele>138.4</ele>
        <time>2011-03-06T08:02:54Z</time>
      </trkpt>
      <trkpt lat="43.65023" lon="3.35744">
        <ele>138.7</ele>
        <time>2011-03-06T08:02:56Z</time>
      </trkpt>
      <trkpt lat="43.65029" lon="3.35752">
        <ele>139.1</ele>
        <time>2011-03-06T08:02:58Z</time>
      </trkpt>
      <trkpt lat="43.65035" lon="3.35759">
        <ele>139.7</ele>
        <time>2011-03-06T08:03:00Z</time>
      </trkpt>
      <trkpt lat="43.65042" lon="3.35767">
        <ele>140.2</ele>
        <time>2011-03-06T08:03:02Z</time>
      </trkpt>
      <trkpt lat="43.65045" lon="3.35771">
        <ele>140.5</ele>
        <time>2011-03-06T08:03:03Z</time>
      </trkpt>
      <trkpt lat="43.65048" lon="3.35776">
        <ele>140.7</ele>
        <time>2011-03-06T08:03:04Z</time>
      </trkpt>
      <trkpt lat="43.6505" lon="3.35782">
        <ele>140.9</ele>
        <time>2011-03-06T08:03:05Z</time>
      </trkpt>
      <trkpt lat="43.65052" lon="3.35787">
        <ele>141.1</ele>
        <time>2011-03-06T08:03:06Z</time>
      </trkpt>
      <trkpt lat="43.65054" lon="3.35793">
        <ele>141.2</ele>
        <time>2011-03-06T08:03:07Z</time>
      </trkpt>
      <trkpt lat="43.65055" lon="3.35806">
        <ele>141.4</ele>
        <time>2011-03-06T08:03:09Z</time>
      </trkpt>
      <trkpt lat="43.65057" lon="3.35817">
        <ele>141.6</ele>
        <time>2011-03-06T08:03:11Z</time>
      </trkpt>
      <trkpt lat="43.65059" lon="3.35826">
        <ele>141.8</ele>
        <time>2011-03-06T08:03:13Z</time>
      </trkpt>
      <trkpt lat="43.65061" lon="3.35835">
        <ele>141.9</ele>
        <time>2011-03-06T08:03:15Z</time>
      </trkpt>
      <trkpt lat="43.65063" lon="3.35846">
        <ele>142.1</ele>
        <time>2011-03-06T08:03:18Z</time>
      </trkpt>
      <trkpt lat="43.65064" lon="3.35857">
        <ele>142.1</ele>
        <time>2011-03-06T08:03:21Z</time>
      </trkpt>
      <trkpt lat="43.65064" lon="3.35868">
        <ele>142.2</ele>
        <time>2011-03-06T08:03:24Z</time>
      </trkpt>
      <trkpt lat="43.65062" lon="3.35878">
        <ele>142.1</ele>
        <time>2011-03-06T08:03:27Z</time>
      </trkpt>
      <trkpt lat="43.6506" lon="3.35889">
        <ele>142</ele>
        <time>2011-03-06T08:03:30Z</time>
      </trkpt>
      <trkpt lat="43.65055" lon="3.35896">
        <ele>141.6</ele>
        <time>2011-03-06T08:03:32Z</time>
      </trkpt>
      <trkpt lat="43.65051" lon="3.35904">
        <ele>141.3</ele>
        <time>2011-03-06T08:03:34Z</time>
      </trkpt>
      <trkpt lat="43.65049" lon="3.35913">
        <ele>141.1</ele>
        <time>2011-03-06T08:03:36Z</time>
      </trkpt>
      <trkpt lat="43.65049" lon="3.35924">
        <ele>140.7</ele>
        <time>2011-03-06T08:03:38Z</time>
      </trkpt>
      <trkpt lat="43.65049" lon="3.3593">
        <ele>140.5</ele>
        <time>2011-03-06T08:03:39Z</time>
      </trkpt>
      <trkpt lat="43.65052" lon="3.35943">
        <ele>140</ele>
        <time>2011-03-06T08:03:42Z</time>
      </trkpt>
      <trkpt lat="43.65055" lon="3.3595">
        <ele>139.9</ele>
        <time>2011-03-06T08:03:44Z</time>
      </trkpt>
      <trkpt lat="43.65059" lon="3.35957">
        <ele>139.8</ele>
        <time>2011-03-06T08:03:46Z</time>
      </trkpt>
      <trkpt lat="43.65063" lon="3.35964">
        <ele>139.6</ele>
        <time>2011-03-06T08:03:48Z</time>
      </trkpt>
      <trkpt lat="43.65068" lon="3.35973">
        <ele>139.3</ele>
        <time>2011-03-06T08:03:51Z</time>
      </trkpt>
      <trkpt lat="43.65072" lon="3.35983">
        <ele>138.8</ele>
        <time>2011-03-06T08:03:56Z</time>
      </trkpt>
      <trkpt lat="43.65075" lon="3.35994">
        <ele>138.2</ele>
        <time>2011-03-06T08:04:00Z</time>
      </trkpt>
      <trkpt lat="43.65078" lon="3.36003">
        <ele>137.8</ele>
        <time>2011-03-06T08:04:03Z</time>
      </trkpt>
      <trkpt lat="43.65083" lon="3.36013">
        <ele>137.8</ele>
        <time>2011-03-06T08:04:07Z</time>
      </trkpt>
      <trkpt lat="43.65089" lon="3.36021">
        <ele>139.3</ele>
        <time>2011-03-06T08:04:11Z</time>
      </trkpt>
      <trkpt lat="43.65093" lon="3.36029">
        <ele>140.4</ele>
        <time>2011-03-06T08:04:13Z</time>
      </trkpt>
      <trkpt lat="43.65098" lon="3.36039">
        <ele>141.4</ele>
        <time>2011-03-06T08:04:16Z</time>
      </trkpt>
      <trkpt lat="43.65099" lon="3.36048">
        <ele>141.8</ele>
        <time>2011-03-06T08:04:18Z</time>
      </trkpt>
      <trkpt lat="43.65102" lon="3.36059">
        <ele>142.3</ele>
        <time>2011-03-06T08:04:21Z</time>
      </trkpt>
      <trkpt lat="43.65103" lon="3.36071">
        <ele>142.4</ele>
        <time>2011-03-06T08:04:25Z</time>
      </trkpt>
      <trkpt lat="43.65102" lon="3.36083">
        <ele>141.9</ele>
        <time>2011-03-06T08:04:27Z</time>
      </trkpt>
      <trkpt lat="43.65102" lon="3.36089">
        <ele>141.9</ele>
        <time>2011-03-06T08:04:28Z</time>
      </trkpt>
      <trkpt lat="43.65103" lon="3.36095">
        <ele>141.9</ele>
        <time>2011-03-06T08:04:29Z</time>
      </trkpt>
      <trkpt lat="43.65104" lon="3.36102">
        <ele>141.9</ele>
        <time>2011-03-06T08:04:30Z</time>
      </trkpt>
      <trkpt lat="43.65105" lon="3.36108">
        <ele>142</ele>
        <time>2011-03-06T08:04:31Z</time>
      </trkpt>
      <trkpt lat="43.65106" lon="3.36114">
        <ele>142</ele>
        <time>2011-03-06T08:04:32Z</time>
      </trkpt>
      <trkpt lat="43.65107" lon="3.36121">
        <ele>142</ele>
        <time>2011-03-06T08:04:33Z</time>
      </trkpt>
      <trkpt lat="43.65111" lon="3.36132">
        <ele>142.5</ele>
        <time>2011-03-06T08:04:35Z</time>
      </trkpt>
      <trkpt lat="43.65114" lon="3.3614">
        <ele>142.9</ele>
        <time>2011-03-06T08:04:37Z</time>
      </trkpt>
      <trkpt lat="43.65118" lon="3.36147">
        <ele>143.2</ele>
        <time>2011-03-06T08:04:39Z</time>
      </trkpt>
      <trkpt lat="43.6512" lon="3.36151">
        <ele>143.4</ele>
        <time>2011-03-06T08:04:40Z</time>
      </trkpt>
      <trkpt lat="43.65126" lon="3.36166">
        <ele>143.7</ele>
        <time>2011-03-06T08:04:43Z</time>
      </trkpt>
      <trkpt lat="43.65129" lon="3.36171">
        <ele>143.8</ele>
        <time>2011-03-06T08:04:44Z</time>
      </trkpt>
      <trkpt lat="43.65132" lon="3.36176">
        <ele>144</ele>
        <time>2011-03-06T08:04:45Z</time>
      </trkpt>
      <trkpt lat="43.65135" lon="3.36182">
        <ele>144</ele>
        <time>2011-03-06T08:04:46Z</time>
      </trkpt>
      <trkpt lat="43.65138" lon="3.36192">
        <ele>143.7</ele>
        <time>2011-03-06T08:04:48Z</time>
      </trkpt>
      <trkpt lat="43.65141" lon="3.362">
        <ele>143.5</ele>
        <time>2011-03-06T08:04:50Z</time>
      </trkpt>
      <trkpt lat="43.65144" lon="3.36207">
        <ele>143.3</ele>
        <time>2011-03-06T08:04:52Z</time>
      </trkpt>
      <trkpt lat="43.65149" lon="3.36218">
        <ele>142.9</ele>
        <time>2011-03-06T08:04:55Z</time>
      </trkpt>
      <trkpt lat="43.65153" lon="3.36226">
        <ele>142.5</ele>
        <time>2011-03-06T08:04:58Z</time>
      </trkpt>
      <trkpt lat="43.65156" lon="3.36236">
        <ele>141.8</ele>
        <time>2011-03-06T08:05:02Z</time>
      </trkpt>
      <trkpt lat="43.65162" lon="3.36242">
        <ele>141.7</ele>
        <time>2011-03-06T08:05:05Z</time>
      </trkpt>
      <trkpt lat="43.65168" lon="3.3625">
        <ele>141.2</ele>
        <time>2011-03-06T08:05:08Z</time>
      </trkpt>
      <trkpt lat="43.65172" lon="3.36257">
        <ele>141.8</ele>
        <time>2011-03-06T08:05:11Z</time>
      </trkpt>
      <trkpt lat="43.65173" lon="3.36269">
        <ele>141.5</ele>
        <time>2011-03-06T08:05:16Z</time>
      </trkpt>
      <trkpt lat="43.65181" lon="3.36275">
        <ele>142.5</ele>
        <time>2011-03-06T08:05:30Z</time>
      </trkpt>
      <trkpt lat="43.65189" lon="3.36274">
        <ele>143.7</ele>
        <time>2011-03-06T08:07:12Z</time>
      </trkpt>
      <trkpt lat="43.6519" lon="3.36272">
        <ele>144.1</ele>
        <time>2011-03-06T08:07:13Z</time>
      </trkpt>
      <trkpt lat="43.65201" lon="3.36265">
        <ele>146.4</ele>
        <time>2011-03-06T08:07:18Z</time>
      </trkpt>
      <trkpt lat="43.65209" lon="3.3626">
        <ele>148.1</ele>
        <time>2011-03-06T08:07:22Z</time>
      </trkpt>
      <trkpt lat="43.65216" lon="3.36267">
        <ele>148.6</ele>
        <time>2011-03-06T08:07:29Z</time>
      </trkpt>
      <trkpt lat="43.65223" lon="3.36265">
        <ele>150</ele>
        <time>2011-03-06T08:07:34Z</time>
      </trkpt>
      <trkpt lat="43.65232" lon="3.3626">
        <ele>152.1</ele>
        <time>2011-03-06T08:07:38Z</time>
      </trkpt>
      <trkpt lat="43.6524" lon="3.36261">
        <ele>153.5</ele>
        <time>2011-03-06T08:07:42Z</time>
      </trkpt>
      <trkpt lat="43.65248" lon="3.36261">
        <ele>154.8</ele>
        <time>2011-03-06T08:07:46Z</time>
      </trkpt>
      <trkpt lat="43.65257" lon="3.36258">
        <ele>157.1</ele>
        <time>2011-03-06T08:07:50Z</time>
      </trkpt>
      <trkpt lat="43.65265" lon="3.3626">
        <ele>158.4</ele>
        <time>2011-03-06T08:07:59Z</time>
      </trkpt>
      <trkpt lat="43.65271" lon="3.36268">
        <ele>158.3</ele>
        <time>2011-03-06T08:08:05Z</time>
      </trkpt>
      <trkpt lat="43.65276" lon="3.36276">
        <ele>157.7</ele>
        <time>2011-03-06T08:08:13Z</time>
      </trkpt>
      <trkpt lat="43.65281" lon="3.36281">
        <ele>157.4</ele>
        <time>2011-03-06T08:08:16Z</time>
      </trkpt>
      <trkpt lat="43.65283" lon="3.36285">
        <ele>157.1</ele>
        <time>2011-03-06T08:08:17Z</time>
      </trkpt>
      <trkpt lat="43.65293" lon="3.36295">
        <ele>156.9</ele>
        <time>2011-03-06T08:08:20Z</time>
      </trkpt>
      <trkpt lat="43.65299" lon="3.363">
        <ele>156.6</ele>
        <time>2011-03-06T08:08:22Z</time>
      </trkpt>
      <trkpt lat="43.65308" lon="3.363">
        <ele>158.2</ele>
        <time>2011-03-06T08:08:27Z</time>
      </trkpt>
      <trkpt lat="43.65316" lon="3.36304">
        <ele>158.6</ele>
        <time>2011-03-06T08:08:37Z</time>
      </trkpt>
      <trkpt lat="43.65325" lon="3.36308">
        <ele>159</ele>
        <time>2011-03-06T08:08:44Z</time>
      </trkpt>
      <trkpt lat="43.65333" lon="3.36309">
        <ele>160</ele>
        <time>2011-03-06T08:08:54Z</time>
      </trkpt>
      <trkpt lat="43.65342" lon="3.36309">
        <ele>160.7</ele>
        <time>2011-03-06T08:09:13Z</time>
      </trkpt>
      <trkpt lat="43.65348" lon="3.36313">
        <ele>160.1</ele>
        <time>2011-03-06T08:11:22Z</time>
      </trkpt>
      <trkpt lat="43.6535" lon="3.36314">
        <ele>159.9</ele>
        <time>2011-03-06T08:11:23Z</time>
      </trkpt>
      <trkpt lat="43.65363" lon="3.36323">
        <ele>158.2</ele>
        <time>2011-03-06T08:11:29Z</time>
      </trkpt>
      <trkpt lat="43.65368" lon="3.36325">
        <ele>158</ele>
        <time>2011-03-06T08:11:31Z</time>
      </trkpt>
      <trkpt lat="43.65375" lon="3.36327">
        <ele>157.7</ele>
        <time>2011-03-06T08:11:33Z</time>
      </trkpt>
      <trkpt lat="43.65379" lon="3.36329">
        <ele>157.4</ele>
        <time>2011-03-06T08:11:34Z</time>
      </trkpt>
      <trkpt lat="43.65384" lon="3.36332">
        <ele>156.9</ele>
        <time>2011-03-06T08:11:35Z</time>
      </trkpt>
      <trkpt lat="43.65392" lon="3.36331">
        <ele>157.5</ele>
        <time>2011-03-06T08:11:37Z</time>
      </trkpt>
      <trkpt lat="43.654" lon="3.36327">
        <ele>159</ele>
        <time>2011-03-06T08:11:39Z</time>
      </trkpt>
      <trkpt lat="43.65407" lon="3.36322">
        <ele>160.8</ele>
        <time>2011-03-06T08:11:41Z</time>
      </trkpt>
      <trkpt lat="43.65415" lon="3.36316">
        <ele>162.9</ele>
        <time>2011-03-06T08:11:43Z</time>
      </trkpt>
      <trkpt lat="43.65423" lon="3.36314">
        <ele>163.6</ele>
        <time>2011-03-06T08:11:45Z</time>
      </trkpt>
      <trkpt lat="43.65432" lon="3.36314">
        <ele>164</ele>
        <time>2011-03-06T08:11:47Z</time>
      </trkpt>
      <trkpt lat="43.6544" lon="3.36313">
        <ele>164.4</ele>
        <time>2011-03-06T08:11:49Z</time>
      </trkpt>
      <trkpt lat="43.65448" lon="3.36309">
        <ele>165.6</ele>
        <time>2011-03-06T08:11:51Z</time>
      </trkpt>
      <trkpt lat="43.65455" lon="3.36302">
        <ele>167.5</ele>
        <time>2011-03-06T08:11:53Z</time>
      </trkpt>
      <trkpt lat="43.65463" lon="3.36298">
        <ele>168.7</ele>
        <time>2011-03-06T08:11:55Z</time>
      </trkpt>
      <trkpt lat="43.6547" lon="3.36298">
        <ele>168.7</ele>
        <time>2011-03-06T08:11:57Z</time>
      </trkpt>
      <trkpt lat="43.65476" lon="3.36302">
        <ele>167.7</ele>
        <time>2011-03-06T08:11:59Z</time>
      </trkpt>
      <trkpt lat="43.65481" lon="3.36312">
        <ele>165.4</ele>
        <time>2011-03-06T08:12:01Z</time>
      </trkpt>
      <trkpt lat="43.65484" lon="3.36318">
        <ele>164.1</ele>
        <time>2011-03-06T08:12:02Z</time>
      </trkpt>
      <trkpt lat="43.65488" lon="3.36322">
        <ele>163.4</ele>
        <time>2011-03-06T08:12:03Z</time>
      </trkpt>
      <trkpt lat="43.65492" lon="3.36325">
        <ele>162.6</ele>
        <time>2011-03-06T08:12:04Z</time>
      </trkpt>
      <trkpt lat="43.65496" lon="3.3633">
        <ele>161.6</ele>
        <time>2011-03-06T08:12:05Z</time>
      </trkpt>
      <trkpt lat="43.65501" lon="3.36336">
        <ele>160.6</ele>
        <time>2011-03-06T08:12:06Z</time>
      </trkpt>
      <trkpt lat="43.65506" lon="3.36341">
        <ele>159.7</ele>
        <time>2011-03-06T08:12:07Z</time>
      </trkpt>
      <trkpt lat="43.65509" lon="3.36348">
        <ele>158.5</ele>
        <time>2011-03-06T08:12:08Z</time>
      </trkpt>
      <trkpt lat="43.65511" lon="3.36355">
        <ele>157.2</ele>
        <time>2011-03-06T08:12:09Z</time>
      </trkpt>
      <trkpt lat="43.65514" lon="3.36362">
        <ele>155.9</ele>
        <time>2011-03-06T08:12:10Z</time>
      </trkpt>
      <trkpt lat="43.65517" lon="3.36368">
        <ele>154.7</ele>
        <time>2011-03-06T08:12:11Z</time>
      </trkpt>
      <trkpt lat="43.65524" lon="3.36374">
        <ele>153.8</ele>
        <time>2011-03-06T08:12:13Z</time>
      </trkpt>
      <trkpt lat="43.65531" lon="3.36381">
        <ele>152.6</ele>
        <time>2011-03-06T08:12:15Z</time>
      </trkpt>
      <trkpt lat="43.65535" lon="3.36384">
        <ele>152</ele>
        <time>2011-03-06T08:12:16Z</time>
      </trkpt>
      <trkpt lat="43.65539" lon="3.36388">
        <ele>151.3</ele>
        <time>2011-03-06T08:12:17Z</time>
      </trkpt>
      <trkpt lat="43.65544" lon="3.36392">
        <ele>150.6</ele>
        <time>2011-03-06T08:12:18Z</time>
      </trkpt>
      <trkpt lat="43.65549" lon="3.36396">
        <ele>149.8</ele>
        <time>2011-03-06T08:12:19Z</time>
      </trkpt>
      <trkpt lat="43.65554" lon="3.36401">
        <ele>148.9</ele>
        <time>2011-03-06T08:12:20Z</time>
      </trkpt>
      <trkpt lat="43.65559" lon="3.36406">
        <ele>147.9</ele>
        <time>2011-03-06T08:12:21Z</time>
      </trkpt>
      <trkpt lat="43.65565" lon="3.3641">
        <ele>147.2</ele>
        <time>2011-03-06T08:12:22Z</time>
      </trkpt>
      <trkpt lat="43.65571" lon="3.36412">
        <ele>146.9</ele>
        <time>2011-03-06T08:12:23Z</time>
      </trkpt>
      <trkpt lat="43.65578" lon="3.36411">
        <ele>147.1</ele>
        <time>2011-03-06T08:12:24Z</time>
      </trkpt>
      <trkpt lat="43.65584" lon="3.36411">
        <ele>147.3</ele>
        <time>2011-03-06T08:12:25Z</time>
      </trkpt>
      <trkpt lat="43.65589" lon="3.36409">
        <ele>146.9</ele>
        <time>2011-03-06T08:12:26Z</time>
      </trkpt>
      <trkpt lat="43.65593" lon="3.36406">
        <ele>146.8</ele>
        <time>2011-03-06T08:12:27Z</time>
      </trkpt>
      <trkpt lat="43.65598" lon="3.36404">
        <ele>146.8</ele>
        <time>2011-03-06T08:12:28Z</time>
      </trkpt>
      <trkpt lat="43.65602" lon="3.36401">
        <ele>146.7</ele>
        <time>2011-03-06T08:12:29Z</time>
      </trkpt>
      <trkpt lat="43.65609" lon="3.36394">
        <ele>146.8</ele>
        <time>2011-03-06T08:12:31Z</time>
      </trkpt>
      <trkpt lat="43.65616" lon="3.36386">
        <ele>146.9</ele>
        <time>2011-03-06T08:12:33Z</time>
      </trkpt>
      <trkpt lat="43.65619" lon="3.36381">
        <ele>147</ele>
        <time>2011-03-06T08:12:34Z</time>
      </trkpt>
      <trkpt lat="43.65623" lon="3.36376">
        <ele>147</ele>
        <time>2011-03-06T08:12:35Z</time>
      </trkpt>
      <trkpt lat="43.65626" lon="3.36371">
        <ele>147.1</ele>
        <time>2011-03-06T08:12:36Z</time>
      </trkpt>
      <trkpt lat="43.65629" lon="3.36364">
        <ele>147.4</ele>
        <time>2011-03-06T08:12:37Z</time>
      </trkpt>
      <trkpt lat="43.65631" lon="3.36358">
        <ele>147.6</ele>
        <time>2011-03-06T08:12:38Z</time>
      </trkpt>
      <trkpt lat="43.65636" lon="3.36349">
        <ele>147.6</ele>
        <time>2011-03-06T08:12:40Z</time>
      </trkpt>
      <trkpt lat="43.65637" lon="3.36337">
        <ele>148.8</ele>
        <time>2011-03-06T08:12:43Z</time>
      </trkpt>
      <trkpt lat="43.65641" lon="3.36327">
        <ele>148.4</ele>
        <time>2011-03-06T08:12:46Z</time>
      </trkpt>
      <trkpt lat="43.65641" lon="3.36316">
        <ele>148.5</ele>
        <time>2011-03-06T08:12:49Z</time>
      </trkpt>
      <trkpt lat="43.65638" lon="3.36308">
        <ele>149.5</ele>
        <time>2011-03-06T08:12:52Z</time>
      </trkpt>
      <trkpt lat="43.65636" lon="3.36299">
        <ele>150.5</ele>
        <time>2011-03-06T08:12:54Z</time>
      </trkpt>
      <trkpt lat="43.65634" lon="3.36288">
        <ele>151.6</ele>
        <time>2011-03-06T08:12:56Z</time>
      </trkpt>
      <trkpt lat="43.65633" lon="3.36276">
        <ele>152.2</ele>
        <time>2011-03-06T08:12:59Z</time>
      </trkpt>
      <trkpt lat="43.65633" lon="3.36266">
        <ele>152.5</ele>
        <time>2011-03-06T08:13:02Z</time>
      </trkpt>
      <trkpt lat="43.65636" lon="3.36256">
        <ele>151.9</ele>
        <time>2011-03-06T08:13:06Z</time>
      </trkpt>
      <trkpt lat="43.65637" lon="3.36247">
        <ele>151.6</ele>
        <time>2011-03-06T08:13:09Z</time>
      </trkpt>
      <trkpt lat="43.65638" lon="3.36236">
        <ele>151</ele>
        <time>2011-03-06T08:13:12Z</time>
      </trkpt>
      <trkpt lat="43.6564" lon="3.36228">
        <ele>150.1</ele>
        <time>2011-03-06T08:13:14Z</time>
      </trkpt>
      <trkpt lat="43.65642" lon="3.36218">
        <ele>149</ele>
        <time>2011-03-06T08:13:16Z</time>
      </trkpt>
      <trkpt lat="43.65642" lon="3.36212">
        <ele>148.7</ele>
        <time>2011-03-06T08:13:17Z</time>
      </trkpt>
      <trkpt lat="43.65643" lon="3.36205">
        <ele>148.4</ele>
        <time>2011-03-06T08:13:18Z</time>
      </trkpt>
      <trkpt lat="43.65643" lon="3.36198">
        <ele>148.2</ele>
        <time>2011-03-06T08:13:19Z</time>
      </trkpt>
      <trkpt lat="43.65642" lon="3.36187">
        <ele>148.1</ele>
        <time>2011-03-06T08:13:21Z</time>
      </trkpt>
      <trkpt lat="43.65641" lon="3.36175">
        <ele>148</ele>
        <time>2011-03-06T08:13:25Z</time>
      </trkpt>
      <trkpt lat="43.6564" lon="3.36173">
        <ele>148.1</ele>
        <time>2011-03-06T08:13:26Z</time>
      </trkpt>
      <trkpt lat="43.65637" lon="3.36149">
        <ele>149.3</ele>
        <time>2011-03-06T08:13:36Z</time>
      </trkpt>
      <trkpt lat="43.65635" lon="3.36137">
        <ele>150.1</ele>
        <time>2011-03-06T08:14:00Z</time>
      </trkpt>
      <trkpt lat="43.65638" lon="3.36127">
        <ele>149.5</ele>
        <time>2011-03-06T08:14:08Z</time>
      </trkpt>
      <trkpt lat="43.65641" lon="3.36116">
        <ele>148.6</ele>
        <time>2011-03-06T08:14:16Z</time>
      </trkpt>
      <trkpt lat="43.65646" lon="3.36107">
        <ele>147.6</ele>
        <time>2011-03-06T08:14:25Z</time>
      </trkpt>
      <trkpt lat="43.65651" lon="3.36097">
        <ele>146.3</ele>
        <time>2011-03-06T08:14:36Z</time>
      </trkpt>
      <trkpt lat="43.65652" lon="3.36093">
        <ele>145.9</ele>
        <time>2011-03-06T08:14:37Z</time>
      </trkpt>
      <trkpt lat="43.65658" lon="3.3608">
        <ele>144.6</ele>
        <time>2011-03-06T08:14:40Z</time>
      </trkpt>
      <trkpt lat="43.65662" lon="3.36071">
        <ele>143.6</ele>
        <time>2011-03-06T08:14:42Z</time>
      </trkpt>
      <trkpt lat="43.65667" lon="3.36063">
        <ele>142.5</ele>
        <time>2011-03-06T08:14:44Z</time>
      </trkpt>
      <trkpt lat="43.65671" lon="3.36053">
        <ele>142.4</ele>
        <time>2011-03-06T08:14:47Z</time>
      </trkpt>
      <trkpt lat="43.65675" lon="3.36044">
        <ele>142.3</ele>
        <time>2011-03-06T08:14:51Z</time>
      </trkpt>
      <trkpt lat="43.65677" lon="3.36035">
        <ele>142.3</ele>
        <time>2011-03-06T08:14:54Z</time>
      </trkpt>
      <trkpt lat="43.65676" lon="3.36026">
        <ele>142.7</ele>
        <time>2011-03-06T08:14:57Z</time>
      </trkpt>
      <trkpt lat="43.65672" lon="3.36017">
        <ele>143.2</ele>
        <time>2011-03-06T08:15:01Z</time>
      </trkpt>
      <trkpt lat="43.65666" lon="3.36011">
        <ele>144</ele>
        <time>2011-03-06T08:15:04Z</time>
      </trkpt>
      <trkpt lat="43.65658" lon="3.36007">
        <ele>146.5</ele>
        <time>2011-03-06T08:15:08Z</time>
      </trkpt>
      <trkpt lat="43.65649" lon="3.36006">
        <ele>149.1</ele>
        <time>2011-03-06T08:15:20Z</time>
      </trkpt>
      <trkpt lat="43.65641" lon="3.36009">
        <ele>151.4</ele>
        <time>2011-03-06T08:15:30Z</time>
      </trkpt>
      <trkpt lat="43.65632" lon="3.3601">
        <ele>154</ele>
        <time>2011-03-06T08:15:40Z</time>
      </trkpt>
      <trkpt lat="43.65632" lon="3.3601">
        <ele>154.2</ele>
        <time>2011-03-06T08:15:41Z</time>
      </trkpt>
      <trkpt lat="43.65634" lon="3.35989">
        <ele>154.1</ele>
        <time>2011-03-06T08:16:26Z</time>
      </trkpt>
      <trkpt lat="43.65637" lon="3.35978">
        <ele>153.4</ele>
        <time>2011-03-06T08:16:38Z</time>
      </trkpt>
      <trkpt lat="43.65637" lon="3.35965">
        <ele>153.3</ele>
        <time>2011-03-06T08:16:47Z</time>
      </trkpt>
      <trkpt lat="43.65638" lon="3.35964">
        <ele>153.3</ele>
        <time>2011-03-06T08:16:48Z</time>
      </trkpt>
      <trkpt lat="43.65649" lon="3.35953">
        <ele>150.1</ele>
        <time>2011-03-06T08:16:58Z</time>
      </trkpt>
      <trkpt lat="43.65655" lon="3.35944">
        <ele>148.6</ele>
        <time>2011-03-06T08:17:01Z</time>
      </trkpt>
      <trkpt lat="43.65663" lon="3.35938">
        <ele>146.5</ele>
        <time>2011-03-06T08:17:06Z</time>
      </trkpt>
      <trkpt lat="43.65672" lon="3.35937">
        <ele>145</ele>
        <time>2011-03-06T08:17:16Z</time>
      </trkpt>
      <trkpt lat="43.65675" lon="3.35927">
        <ele>145</ele>
        <time>2011-03-06T08:17:19Z</time>
      </trkpt>
      <trkpt lat="43.65674" lon="3.35917">
        <ele>145.3</ele>
        <time>2011-03-06T08:17:21Z</time>
      </trkpt>
      <trkpt lat="43.65675" lon="3.35907">
        <ele>145.1</ele>
        <time>2011-03-06T08:17:23Z</time>
      </trkpt>
      <trkpt lat="43.65676" lon="3.35897">
        <ele>144.9</ele>
        <time>2011-03-06T08:17:25Z</time>
      </trkpt>
      <trkpt lat="43.65675" lon="3.35888">
        <ele>144.9</ele>
        <time>2011-03-06T08:17:27Z</time>
      </trkpt>
      <trkpt lat="43.65675" lon="3.35878">
        <ele>144.8</ele>
        <time>2011-03-06T08:17:29Z</time>
      </trkpt>
      <trkpt lat="43.65676" lon="3.35868">
        <ele>144.5</ele>
        <time>2011-03-06T08:17:32Z</time>
      </trkpt>
      <trkpt lat="43.65678" lon="3.35859">
        <ele>144.2</ele>
        <time>2011-03-06T08:17:35Z</time>
      </trkpt>
      <trkpt lat="43.65679" lon="3.35851">
        <ele>144</ele>
        <time>2011-03-06T08:17:37Z</time>
      </trkpt>
      <trkpt lat="43.65681" lon="3.35841">
        <ele>143.7</ele>
        <time>2011-03-06T08:17:39Z</time>
      </trkpt>
      <trkpt lat="43.65683" lon="3.35831">
        <ele>143.4</ele>
        <time>2011-03-06T08:17:41Z</time>
      </trkpt>
      <trkpt lat="43.65686" lon="3.35822">
        <ele>143.4</ele>
        <time>2011-03-06T08:17:43Z</time>
      </trkpt>
      <trkpt lat="43.6569" lon="3.35814">
        <ele>143.1</ele>
        <time>2011-03-06T08:17:45Z</time>
      </trkpt>
      <trkpt lat="43.65694" lon="3.35806">
        <ele>142.8</ele>
        <time>2011-03-06T08:17:47Z</time>
      </trkpt>
      <trkpt lat="43.65699" lon="3.35798">
        <ele>142.4</ele>
        <time>2011-03-06T08:17:50Z</time>
      </trkpt>
      <trkpt lat="43.65701" lon="3.35795">
        <ele>142.3</ele>
        <time>2011-03-06T08:17:51Z</time>
      </trkpt>
      <trkpt lat="43.65705" lon="3.35779">
        <ele>142</ele>
        <time>2011-03-06T08:17:55Z</time>
      </trkpt>
      <trkpt lat="43.65706" lon="3.35768">
        <ele>142.1</ele>
        <time>2011-03-06T08:17:58Z</time>
      </trkpt>
      <trkpt lat="43.657" lon="3.3576">
        <ele>142.9</ele>
        <time>2011-03-06T08:18:01Z</time>
      </trkpt>
      <trkpt lat="43.65697" lon="3.3575">
        <ele>143.4</ele>
        <time>2011-03-06T08:18:05Z</time>
      </trkpt>
      <trkpt lat="43.65695" lon="3.35739">
        <ele>143.1</ele>
        <time>2011-03-06T08:18:08Z</time>
      </trkpt>
      <trkpt lat="43.65693" lon="3.35727">
        <ele>142.7</ele>
        <time>2011-03-06T08:18:14Z</time>
      </trkpt>
      <trkpt lat="43.65694" lon="3.35718">
        <ele>142.1</ele>
        <time>2011-03-06T08:18:18Z</time>
      </trkpt>
      <trkpt lat="43.65691" lon="3.3571">
        <ele>141.9</ele>
        <time>2011-03-06T08:18:20Z</time>
      </trkpt>
      <trkpt lat="43.65692" lon="3.357">
        <ele>141.3</ele>
        <time>2011-03-06T08:18:22Z</time>
      </trkpt>
      <trkpt lat="43.65696" lon="3.3569">
        <ele>140.5</ele>
        <time>2011-03-06T08:18:24Z</time>
      </trkpt>
      <trkpt lat="43.657" lon="3.3568">
        <ele>139.6</ele>
        <time>2011-03-06T08:18:26Z</time>
      </trkpt>
      <trkpt lat="43.65699" lon="3.35671">
        <ele>139.3</ele>
        <time>2011-03-06T08:18:28Z</time>
      </trkpt>
      <trkpt lat="43.65693" lon="3.35663">
        <ele>139.3</ele>
        <time>2011-03-06T08:18:31Z</time>
      </trkpt>
      <trkpt lat="43.65685" lon="3.35659">
        <ele>139.6</ele>
        <time>2011-03-06T08:18:35Z</time>
      </trkpt>
      <trkpt lat="43.65677" lon="3.35657">
        <ele>140</ele>
        <time>2011-03-06T08:18:38Z</time>
      </trkpt>
      <trkpt lat="43.65669" lon="3.35652">
        <ele>140.1</ele>
        <time>2011-03-06T08:18:42Z</time>
      </trkpt>
      <trkpt lat="43.65661" lon="3.35648">
        <ele>140.7</ele>
        <time>2011-03-06T08:18:45Z</time>
      </trkpt>
      <trkpt lat="43.65656" lon="3.35644">
        <ele>141.2</ele>
        <time>2011-03-06T08:18:47Z</time>
      </trkpt>
      <trkpt lat="43.65649" lon="3.35638">
        <ele>141.6</ele>
        <time>2011-03-06T08:18:50Z</time>
      </trkpt>
      <trkpt lat="43.65642" lon="3.35632">
        <ele>141.9</ele>
        <time>2011-03-06T08:18:53Z</time>
      </trkpt>
      <trkpt lat="43.6564" lon="3.35628">
        <ele>141.8</ele>
        <time>2011-03-06T08:18:54Z</time>
      </trkpt>
      <trkpt lat="43.65635" lon="3.35614">
        <ele>141.1</ele>
        <time>2011-03-06T08:18:58Z</time>
      </trkpt>
      <trkpt lat="43.6563" lon="3.35604">
        <ele>140.6</ele>
        <time>2011-03-06T08:19:02Z</time>
      </trkpt>
      <trkpt lat="43.65622" lon="3.35604">
        <ele>141.2</ele>
        <time>2011-03-06T08:19:48Z</time>
      </trkpt>
      <trkpt lat="43.65613" lon="3.35604">
        <ele>141.8</ele>
        <time>2011-03-06T08:19:53Z</time>
      </trkpt>
      <trkpt lat="43.65605" lon="3.35604">
        <ele>142.5</ele>
        <time>2011-03-06T08:19:56Z</time>
      </trkpt>
      <trkpt lat="43.65602" lon="3.35602">
        <ele>142.4</ele>
        <time>2011-03-06T08:19:57Z</time>
      </trkpt>
      <trkpt lat="43.65592" lon="3.35591">
        <ele>141.6</ele>
        <time>2011-03-06T08:20:10Z</time>
      </trkpt>
      <trkpt lat="43.65593" lon="3.3558">
        <ele>140.4</ele>
        <time>2011-03-06T08:20:21Z</time>
      </trkpt>
      <trkpt lat="43.65589" lon="3.35573">
        <ele>140.4</ele>
        <time>2011-03-06T08:20:24Z</time>
      </trkpt>
      <trkpt lat="43.65585" lon="3.35564">
        <ele>140.2</ele>
        <time>2011-03-06T08:20:27Z</time>
      </trkpt>
      <trkpt lat="43.65583" lon="3.35556">
        <ele>140</ele>
        <time>2011-03-06T08:20:30Z</time>
      </trkpt>
      <trkpt lat="43.65579" lon="3.35546">
        <ele>139.8</ele>
        <time>2011-03-06T08:20:33Z</time>
      </trkpt>
      <trkpt lat="43.65576" lon="3.35539">
        <ele>139.6</ele>
        <time>2011-03-06T08:20:36Z</time>
      </trkpt>
      <trkpt lat="43.65573" lon="3.35529">
        <ele>139.3</ele>
        <time>2011-03-06T08:20:38Z</time>
      </trkpt>
      <trkpt lat="43.65568" lon="3.3552">
        <ele>139</ele>
        <time>2011-03-06T08:20:47Z</time>
      </trkpt>
      <trkpt lat="43.6556" lon="3.35526">
        <ele>139.4</ele>
        <time>2011-03-06T08:21:01Z</time>
      </trkpt>
      <trkpt lat="43.65559" lon="3.35529">
        <ele>139.5</ele>
        <time>2011-03-06T08:21:02Z</time>
      </trkpt>
      <trkpt lat="43.65548" lon="3.35536">
        <ele>140.1</ele>
        <time>2011-03-06T08:22:24Z</time>
      </trkpt>
      <trkpt lat="43.65546" lon="3.35536">
        <ele>140.1</ele>
        <time>2011-03-06T08:22:25Z</time>
      </trkpt>
      <trkpt lat="43.65531" lon="3.35533">
        <ele>140.3</ele>
        <time>2011-03-06T08:22:37Z</time>
      </trkpt>
      <trkpt lat="43.65529" lon="3.35521">
        <ele>139.7</ele>
        <time>2011-03-06T08:25:12Z</time>
      </trkpt>
      <trkpt lat="43.65529" lon="3.3552">
        <ele>139.7</ele>
        <time>2011-03-06T08:25:13Z</time>
      </trkpt>
      <trkpt lat="43.65519" lon="3.35525">
        <ele>140.1</ele>
        <time>2011-03-06T08:26:16Z</time>
      </trkpt>
      <trkpt lat="43.65506" lon="3.3552">
        <ele>140.1</ele>
        <time>2011-03-06T08:26:22Z</time>
      </trkpt>
      <trkpt lat="43.65498" lon="3.35519">
        <ele>140.2</ele>
        <time>2011-03-06T08:26:25Z</time>
      </trkpt>
      <trkpt lat="43.65491" lon="3.35525">
        <ele>140.6</ele>
        <time>2011-03-06T08:26:29Z</time>
      </trkpt>
      <trkpt lat="43.65485" lon="3.3553">
        <ele>140.9</ele>
        <time>2011-03-06T08:26:33Z</time>
      </trkpt>
      <trkpt lat="43.65476" lon="3.35533">
        <ele>141.2</ele>
        <time>2011-03-06T08:26:37Z</time>
      </trkpt>
      <trkpt lat="43.65467" lon="3.35531">
        <ele>141.2</ele>
        <time>2011-03-06T08:26:41Z</time>
      </trkpt>
      <trkpt lat="43.6546" lon="3.35527">
        <ele>140.9</ele>
        <time>2011-03-06T08:26:46Z</time>
      </trkpt>
      <trkpt lat="43.65456" lon="3.35519">
        <ele>140.4</ele>
        <time>2011-03-06T08:26:49Z</time>
      </trkpt>
      <trkpt lat="43.65456" lon="3.35507">
        <ele>139.5</ele>
        <time>2011-03-06T08:26:53Z</time>
      </trkpt>
      <trkpt lat="43.65451" lon="3.35498">
        <ele>138.9</ele>
        <time>2011-03-06T08:26:58Z</time>
      </trkpt>
      <trkpt lat="43.65445" lon="3.35498">
        <ele>138.9</ele>
        <time>2011-03-06T08:27:02Z</time>
      </trkpt>
      <trkpt lat="43.65437" lon="3.35501">
        <ele>139.1</ele>
        <time>2011-03-06T08:27:05Z</time>
      </trkpt>
      <trkpt lat="43.65431" lon="3.35504">
        <ele>139.3</ele>
        <time>2011-03-06T08:27:08Z</time>
      </trkpt>
      <trkpt lat="43.65422" lon="3.35506">
        <ele>139.5</ele>
        <time>2011-03-06T08:27:11Z</time>
      </trkpt>
      <trkpt lat="43.65416" lon="3.35513">
        <ele>140.1</ele>
        <time>2011-03-06T08:27:16Z</time>
      </trkpt>
      <trkpt lat="43.65416" lon="3.35516">
        <ele>140.3</ele>
        <time>2011-03-06T08:27:17Z</time>
      </trkpt>
      <trkpt lat="43.65406" lon="3.35525">
        <ele>141.2</ele>
        <time>2011-03-06T08:27:23Z</time>
      </trkpt>
      <trkpt lat="43.65398" lon="3.3553">
        <ele>141.7</ele>
        <time>2011-03-06T08:27:27Z</time>
      </trkpt>
      <trkpt lat="43.65392" lon="3.35534">
        <ele>142.1</ele>
        <time>2011-03-06T08:27:30Z</time>
      </trkpt>
      <trkpt lat="43.65383" lon="3.35535">
        <ele>142.3</ele>
        <time>2011-03-06T08:27:32Z</time>
      </trkpt>
      <trkpt lat="43.65378" lon="3.35535">
        <ele>142.3</ele>
        <time>2011-03-06T08:27:33Z</time>
      </trkpt>
      <trkpt lat="43.65373" lon="3.35534">
        <ele>142.3</ele>
        <time>2011-03-06T08:27:34Z</time>
      </trkpt>
      <trkpt lat="43.65365" lon="3.35535">
        <ele>142.5</ele>
        <time>2011-03-06T08:27:36Z</time>
      </trkpt>
      <trkpt lat="43.65358" lon="3.35538">
        <ele>142.8</ele>
        <time>2011-03-06T08:27:39Z</time>
      </trkpt>
      <trkpt lat="43.65349" lon="3.35542">
        <ele>143.3</ele>
        <time>2011-03-06T08:27:55Z</time>
      </trkpt>
      <trkpt lat="43.65343" lon="3.35548">
        <ele>144.1</ele>
        <time>2011-03-06T08:28:21Z</time>
      </trkpt>
      <trkpt lat="43.65342" lon="3.35549">
        <ele>144.1</ele>
        <time>2011-03-06T08:28:22Z</time>
      </trkpt>
      <trkpt lat="43.65333" lon="3.3554">
        <ele>143.3</ele>
        <time>2011-03-06T08:28:32Z</time>
      </trkpt>
      <trkpt lat="43.65329" lon="3.35529">
        <ele>142.1</ele>
        <time>2011-03-06T08:28:36Z</time>
      </trkpt>
      <trkpt lat="43.65325" lon="3.35518">
        <ele>140.9</ele>
        <time>2011-03-06T08:28:40Z</time>
      </trkpt>
      <trkpt lat="43.65323" lon="3.3551">
        <ele>140.1</ele>
        <time>2011-03-06T08:28:42Z</time>
      </trkpt>
      <trkpt lat="43.65316" lon="3.35504">
        <ele>139.6</ele>
        <time>2011-03-06T08:28:45Z</time>
      </trkpt>
      <trkpt lat="43.6531" lon="3.35507">
        <ele>139.9</ele>
        <time>2011-03-06T08:28:47Z</time>
      </trkpt>
      <trkpt lat="43.65305" lon="3.3551">
        <ele>140.2</ele>
        <time>2011-03-06T08:28:49Z</time>
      </trkpt>
      <trkpt lat="43.65298" lon="3.35517">
        <ele>140.9</ele>
        <time>2011-03-06T08:28:53Z</time>
      </trkpt>
      <trkpt lat="43.65293" lon="3.35524">
        <ele>141.4</ele>
        <time>2011-03-06T08:28:56Z</time>
      </trkpt>
      <trkpt lat="43.65286" lon="3.35522">
        <ele>141.2</ele>
        <time>2011-03-06T08:28:58Z</time>
      </trkpt>
      <trkpt lat="43.65279" lon="3.35517">
        <ele>140.8</ele>
        <time>2011-03-06T08:29:00Z</time>
      </trkpt>
      <trkpt lat="43.65272" lon="3.35513">
        <ele>140.5</ele>
        <time>2011-03-06T08:29:03Z</time>
      </trkpt>
      <trkpt lat="43.65264" lon="3.35514">
        <ele>140.7</ele>
        <time>2011-03-06T08:29:06Z</time>
      </trkpt>
      <trkpt lat="43.65256" lon="3.3552">
        <ele>140.9</ele>
        <time>2011-03-06T08:29:10Z</time>
      </trkpt>
      <trkpt lat="43.65251" lon="3.35528">
        <ele>141.4</ele>
        <time>2011-03-06T08:29:13Z</time>
      </trkpt>
      <trkpt lat="43.65245" lon="3.35536">
        <ele>141.7</ele>
        <time>2011-03-06T08:29:16Z</time>
      </trkpt>
      <trkpt lat="43.65239" lon="3.35537">
        <ele>141.8</ele>
        <time>2011-03-06T08:29:19Z</time>
      </trkpt>
      <trkpt lat="43.6523" lon="3.35536">
        <ele>141.8</ele>
        <time>2011-03-06T08:29:21Z</time>
      </trkpt>
      <trkpt lat="43.65225" lon="3.35535">
        <ele>141.8</ele>
        <time>2011-03-06T08:29:22Z</time>
      </trkpt>
      <trkpt lat="43.65219" lon="3.35535">
        <ele>141.8</ele>
        <time>2011-03-06T08:29:23Z</time>
      </trkpt>
      <trkpt lat="43.65214" lon="3.35535">
        <ele>141.9</ele>
        <time>2011-03-06T08:29:24Z</time>
      </trkpt>
      <trkpt lat="43.65206" lon="3.35532">
        <ele>141.7</ele>
        <time>2011-03-06T08:29:26Z</time>
      </trkpt>
      <trkpt lat="43.65197" lon="3.35532">
        <ele>141.8</ele>
        <time>2011-03-06T08:29:28Z</time>
      </trkpt>
      <trkpt lat="43.65189" lon="3.35532">
        <ele>141.8</ele>
        <time>2011-03-06T08:29:35Z</time>
      </trkpt>
      <trkpt lat="43.65181" lon="3.35536">
        <ele>142.1</ele>
        <time>2011-03-06T08:29:39Z</time>
      </trkpt>
      <trkpt lat="43.65175" lon="3.35541">
        <ele>142.4</ele>
        <time>2011-03-06T08:29:43Z</time>
      </trkpt>
      <trkpt lat="43.6517" lon="3.3555">
        <ele>143</ele>
        <time>2011-03-06T08:29:46Z</time>
      </trkpt>
      <trkpt lat="43.65166" lon="3.35555">
        <ele>143.3</ele>
        <time>2011-03-06T08:29:47Z</time>
      </trkpt>
      <trkpt lat="43.6516" lon="3.35561">
        <ele>143.4</ele>
        <time>2011-03-06T08:29:49Z</time>
      </trkpt>
      <trkpt lat="43.65155" lon="3.35564">
        <ele>143.4</ele>
        <time>2011-03-06T08:29:51Z</time>
      </trkpt>
      <trkpt lat="43.65148" lon="3.3557">
        <ele>143.5</ele>
        <time>2011-03-06T08:29:53Z</time>
      </trkpt>
      <trkpt lat="43.65144" lon="3.35577">
        <ele>143.8</ele>
        <time>2011-03-06T08:29:55Z</time>
      </trkpt>
      <trkpt lat="43.65137" lon="3.35584">
        <ele>144</ele>
        <time>2011-03-06T08:29:58Z</time>
      </trkpt>
      <trkpt lat="43.65131" lon="3.3558">
        <ele>143.5</ele>
        <time>2011-03-06T08:30:01Z</time>
      </trkpt>
      <trkpt lat="43.65122" lon="3.35577">
        <ele>143</ele>
        <time>2011-03-06T08:30:05Z</time>
      </trkpt>
      <trkpt lat="43.65115" lon="3.35581">
        <ele>143</ele>
        <time>2011-03-06T08:30:10Z</time>
      </trkpt>
      <trkpt lat="43.65117" lon="3.3559">
        <ele>143.4</ele>
        <time>2011-03-06T08:31:45Z</time>
      </trkpt>
      <trkpt lat="43.65118" lon="3.35594">
        <ele>143.5</ele>
        <time>2011-03-06T08:31:46Z</time>
      </trkpt>
      <trkpt lat="43.65124" lon="3.35611">
        <ele>144.3</ele>
        <time>2011-03-06T08:31:51Z</time>
      </trkpt>
      <trkpt lat="43.65126" lon="3.35622">
        <ele>144.7</ele>
        <time>2011-03-06T08:31:54Z</time>
      </trkpt>
      <trkpt lat="43.65128" lon="3.35633">
        <ele>145.2</ele>
        <time>2011-03-06T08:31:57Z</time>
      </trkpt>
      <trkpt lat="43.65131" lon="3.35643">
        <ele>145.6</ele>
        <time>2011-03-06T08:32:00Z</time>
      </trkpt>
      <trkpt lat="43.65133" lon="3.35654">
        <ele>146.1</ele>
        <time>2011-03-06T08:32:03Z</time>
      </trkpt>
      <trkpt lat="43.65134" lon="3.35666">
        <ele>146.6</ele>
        <time>2011-03-06T08:32:06Z</time>
      </trkpt>
      <trkpt lat="43.65136" lon="3.35677">
        <ele>147.2</ele>
        <time>2011-03-06T08:32:09Z</time>
      </trkpt>
      <trkpt lat="43.65137" lon="3.35688">
        <ele>147.7</ele>
        <time>2011-03-06T08:32:12Z</time>
      </trkpt>
      <trkpt lat="43.65138" lon="3.35699">
        <ele>148.2</ele>
        <time>2011-03-06T08:32:15Z</time>
      </trkpt>
      <trkpt lat="43.65139" lon="3.35711">
        <ele>148.8</ele>
        <time>2011-03-06T08:32:18Z</time>
      </trkpt>
      <trkpt lat="43.65139" lon="3.35721">
        <ele>149.2</ele>
        <time>2011-03-06T08:32:20Z</time>
      </trkpt>
      <trkpt lat="43.65139" lon="3.35731">
        <ele>149.6</ele>
        <time>2011-03-06T08:32:22Z</time>
      </trkpt>
      <trkpt lat="43.65138" lon="3.35742">
        <ele>149.9</ele>
        <time>2011-03-06T08:32:24Z</time>
      </trkpt>
      <trkpt lat="43.65137" lon="3.35748">
        <ele>150.1</ele>
        <time>2011-03-06T08:32:25Z</time>
      </trkpt>
      <trkpt lat="43.65136" lon="3.35755">
        <ele>150.2</ele>
        <time>2011-03-06T08:32:26Z</time>
      </trkpt>
      <trkpt lat="43.65135" lon="3.35761">
        <ele>150.3</ele>
        <time>2011-03-06T08:32:27Z</time>
      </trkpt>
      <trkpt lat="43.65133" lon="3.35767">
        <ele>150.2</ele>
        <time>2011-03-06T08:32:28Z</time>
      </trkpt>
      <trkpt lat="43.65129" lon="3.35772">
        <ele>149.9</ele>
        <time>2011-03-06T08:32:29Z</time>
      </trkpt>
      <trkpt lat="43.65125" lon="3.35777">
        <ele>149.5</ele>
        <time>2011-03-06T08:32:30Z</time>
      </trkpt>
      <trkpt lat="43.65121" lon="3.35783">
        <ele>149</ele>
        <time>2011-03-06T08:32:31Z</time>
      </trkpt>
      <trkpt lat="43.65117" lon="3.3579">
        <ele>148.5</ele>
        <time>2011-03-06T08:32:32Z</time>
      </trkpt>
      <trkpt lat="43.65113" lon="3.35797">
        <ele>148.1</ele>
        <time>2011-03-06T08:32:33Z</time>
      </trkpt>
      <trkpt lat="43.65109" lon="3.35804">
        <ele>147.6</ele>
        <time>2011-03-06T08:32:34Z</time>
      </trkpt>
      <trkpt lat="43.65105" lon="3.35811">
        <ele>147</ele>
        <time>2011-03-06T08:32:35Z</time>
      </trkpt>
      <trkpt lat="43.651" lon="3.35817">
        <ele>146.2</ele>
        <time>2011-03-06T08:32:36Z</time>
      </trkpt>
      <trkpt lat="43.65095" lon="3.35822">
        <ele>145.2</ele>
        <time>2011-03-06T08:32:37Z</time>
      </trkpt>
      <trkpt lat="43.65089" lon="3.35827">
        <ele>144.1</ele>
        <time>2011-03-06T08:32:38Z</time>
      </trkpt>
      <trkpt lat="43.65083" lon="3.35832">
        <ele>143</ele>
        <time>2011-03-06T08:32:39Z</time>
      </trkpt>
      <trkpt lat="43.65077" lon="3.35834">
        <ele>142.7</ele>
        <time>2011-03-06T08:32:40Z</time>
      </trkpt>
      <trkpt lat="43.65071" lon="3.35833">
        <ele>142.4</ele>
        <time>2011-03-06T08:32:41Z</time>
      </trkpt>
      <trkpt lat="43.65065" lon="3.3583">
        <ele>142.1</ele>
        <time>2011-03-06T08:32:42Z</time>
      </trkpt>
      <trkpt lat="43.6506" lon="3.35826">
        <ele>141.8</ele>
        <time>2011-03-06T08:32:43Z</time>
      </trkpt>
      <trkpt lat="43.65056" lon="3.3582">
        <ele>141.6</ele>
        <time>2011-03-06T08:32:44Z</time>
      </trkpt>
      <trkpt lat="43.65054" lon="3.35814">
        <ele>141.4</ele>
        <time>2011-03-06T08:32:45Z</time>
      </trkpt>
      <trkpt lat="43.65052" lon="3.35807">
        <ele>141.2</ele>
        <time>2011-03-06T08:32:46Z</time>
      </trkpt>
      <trkpt lat="43.65049" lon="3.358">
        <ele>141</ele>
        <time>2011-03-06T08:32:47Z</time>
      </trkpt>
      <trkpt lat="43.65048" lon="3.35794">
        <ele>140.9</ele>
        <time>2011-03-06T08:32:48Z</time>
      </trkpt>
      <trkpt lat="43.65047" lon="3.35787">
        <ele>140.8</ele>
        <time>2011-03-06T08:32:49Z</time>
      </trkpt>
      <trkpt lat="43.65045" lon="3.35781">
        <ele>140.6</ele>
        <time>2011-03-06T08:32:50Z</time>
      </trkpt>
      <trkpt lat="43.65043" lon="3.35776">
        <ele>140.4</ele>
        <time>2011-03-06T08:32:51Z</time>
      </trkpt>
      <trkpt lat="43.65036" lon="3.35768">
        <ele>139.8</ele>
        <time>2011-03-06T08:32:53Z</time>
      </trkpt>
      <trkpt lat="43.65029" lon="3.35761">
        <ele>139.3</ele>
        <time>2011-03-06T08:32:55Z</time>
      </trkpt>
      <trkpt lat="43.65023" lon="3.35752">
        <ele>138.7</ele>
        <time>2011-03-06T08:32:57Z</time>
      </trkpt>
      <trkpt lat="43.6502" lon="3.35747">
        <ele>138.5</ele>
        <time>2011-03-06T08:32:58Z</time>
      </trkpt>
      <trkpt lat="43.65017" lon="3.35742">
        <ele>138.3</ele>
        <time>2011-03-06T08:32:59Z</time>
      </trkpt>
      <trkpt lat="43.65014" lon="3.35737">
        <ele>138.1</ele>
        <time>2011-03-06T08:33:00Z</time>
      </trkpt>
      <trkpt lat="43.65011" lon="3.35732">
        <ele>138</ele>
        <time>2011-03-06T08:33:01Z</time>
      </trkpt>
      <trkpt lat="43.65008" lon="3.35727">
        <ele>137.9</ele>
        <time>2011-03-06T08:33:02Z</time>
      </trkpt>
      <trkpt lat="43.65004" lon="3.35716">
        <ele>137.7</ele>
        <time>2011-03-06T08:33:04Z</time>
      </trkpt>
      <trkpt lat="43.65001" lon="3.35705">
        <ele>137.6</ele>
        <time>2011-03-06T08:33:06Z</time>
      </trkpt>
      <trkpt lat="43.64997" lon="3.35694">
        <ele>137.7</ele>
        <time>2011-03-06T08:33:08Z</time>
      </trkpt>
      <trkpt lat="43.6499" lon="3.35685">
        <ele>137.8</ele>
        <time>2011-03-06T08:33:10Z</time>
      </trkpt>
      <trkpt lat="43.64982" lon="3.3568">
        <ele>137.8</ele>
        <time>2011-03-06T08:33:12Z</time>
      </trkpt>
      <trkpt lat="43.64974" lon="3.35677">
        <ele>137.9</ele>
        <time>2011-03-06T08:33:14Z</time>
      </trkpt>
      <trkpt lat="43.64966" lon="3.35675">
        <ele>137.9</ele>
        <time>2011-03-06T08:33:16Z</time>
      </trkpt>
      <trkpt lat="43.64964" lon="3.35665">
        <ele>138</ele>
        <time>2011-03-06T08:33:22Z</time>
      </trkpt>
      <trkpt lat="43.64968" lon="3.35655">
        <ele>137.9</ele>
        <time>2011-03-06T08:33:25Z</time>
      </trkpt>
      <trkpt lat="43.6497" lon="3.35645">
        <ele>137.8</ele>
        <time>2011-03-06T08:33:28Z</time>
      </trkpt>
      <trkpt lat="43.64972" lon="3.35635">
        <ele>137.6</ele>
        <time>2011-03-06T08:33:33Z</time>
      </trkpt>
      <trkpt lat="43.64974" lon="3.35624">
        <ele>137.5</ele>
        <time>2011-03-06T08:33:37Z</time>
      </trkpt>
      <trkpt lat="43.64975" lon="3.35614">
        <ele>137.3</ele>
        <time>2011-03-06T08:33:40Z</time>
      </trkpt>
      <trkpt lat="43.64977" lon="3.35604">
        <ele>137.1</ele>
        <time>2011-03-06T08:33:43Z</time>
      </trkpt>
      <trkpt lat="43.64979" lon="3.35593">
        <ele>136.9</ele>
        <time>2011-03-06T08:33:46Z</time>
      </trkpt>
      <trkpt lat="43.64981" lon="3.35583">
        <ele>136.7</ele>
        <time>2011-03-06T08:33:49Z</time>
      </trkpt>
      <trkpt lat="43.64982" lon="3.35579">
        <ele>136.6</ele>
        <time>2011-03-06T08:33:50Z</time>
      </trkpt>
      <trkpt lat="43.64985" lon="3.35566">
        <ele>136.4</ele>
        <time>2011-03-06T08:33:53Z</time>
      </trkpt>
      <trkpt lat="43.64987" lon="3.35558">
        <ele>136.2</ele>
        <time>2011-03-06T08:33:55Z</time>
      </trkpt>
      <trkpt lat="43.64989" lon="3.35548">
        <ele>136</ele>
        <time>2011-03-06T08:33:57Z</time>
      </trkpt>
      <trkpt lat="43.64991" lon="3.35538">
        <ele>135.8</ele>
        <time>2011-03-06T08:33:59Z</time>
      </trkpt>
      <trkpt lat="43.64993" lon="3.35528">
        <ele>135.7</ele>
        <time>2011-03-06T08:34:01Z</time>
      </trkpt>
      <trkpt lat="43.64992" lon="3.35519">
        <ele>135.6</ele>
        <time>2011-03-06T08:34:03Z</time>
      </trkpt>
      <trkpt lat="43.64988" lon="3.35512">
        <ele>135.7</ele>
        <time>2011-03-06T08:34:05Z</time>
      </trkpt>
      <trkpt lat="43.64983" lon="3.35507">
        <ele>135.9</ele>
        <time>2011-03-06T08:34:07Z</time>
      </trkpt>
      <trkpt lat="43.64978" lon="3.35502">
        <ele>136.1</ele>
        <time>2011-03-06T08:34:09Z</time>
      </trkpt>
      <trkpt lat="43.64972" lon="3.35498">
        <ele>136.4</ele>
        <time>2011-03-06T08:34:11Z</time>
      </trkpt>
      <trkpt lat="43.64964" lon="3.35495">
        <ele>136.8</ele>
        <time>2011-03-06T08:34:13Z</time>
      </trkpt>
      <trkpt lat="43.64957" lon="3.35492">
        <ele>137.1</ele>
        <time>2011-03-06T08:34:15Z</time>
      </trkpt>
      <trkpt lat="43.6495" lon="3.35489">
        <ele>137.5</ele>
        <time>2011-03-06T08:34:17Z</time>
      </trkpt>
      <trkpt lat="43.64943" lon="3.35486">
        <ele>137.8</ele>
        <time>2011-03-06T08:34:19Z</time>
      </trkpt>
      <trkpt lat="43.64936" lon="3.35482">
        <ele>138.1</ele>
        <time>2011-03-06T08:34:21Z</time>
      </trkpt>
      <trkpt lat="43.64929" lon="3.35475">
        <ele>138.4</ele>
        <time>2011-03-06T08:34:23Z</time>
      </trkpt>
      <trkpt lat="43.64924" lon="3.35468">
        <ele>138.7</ele>
        <time>2011-03-06T08:34:25Z</time>
      </trkpt>
      <trkpt lat="43.64919" lon="3.35459">
        <ele>138.9</ele>
        <time>2011-03-06T08:34:27Z</time>
      </trkpt>
      <trkpt lat="43.64915" lon="3.3545">
        <ele>139</ele>
        <time>2011-03-06T08:34:29Z</time>
      </trkpt>
      <trkpt lat="43.6491" lon="3.35441">
        <ele>139.1</ele>
        <time>2011-03-06T08:34:31Z</time>
      </trkpt>
      <trkpt lat="43.64908" lon="3.35429">
        <ele>139.1</ele>
        <time>2011-03-06T08:34:33Z</time>
      </trkpt>
      <trkpt lat="43.64909" lon="3.35423">
        <ele>139.1</ele>
        <time>2011-03-06T08:34:34Z</time>
      </trkpt>
      <trkpt lat="43.64911" lon="3.35417">
        <ele>139.1</ele>
        <time>2011-03-06T08:34:35Z</time>
      </trkpt>
      <trkpt lat="43.64914" lon="3.35413">
        <ele>139</ele>
        <time>2011-03-06T08:34:36Z</time>
      </trkpt>
      <trkpt lat="43.64918" lon="3.35409">
        <ele>139</ele>
        <time>2011-03-06T08:34:37Z</time>
      </trkpt>
      <trkpt lat="43.64922" lon="3.35405">
        <ele>138.8</ele>
        <time>2011-03-06T08:34:38Z</time>
      </trkpt>
      <trkpt lat="43.64926" lon="3.35401">
        <ele>138.7</ele>
        <time>2011-03-06T08:34:39Z</time>
      </trkpt>
      <trkpt lat="43.64932" lon="3.35392">
        <ele>138.5</ele>
        <time>2011-03-06T08:34:41Z</time>
      </trkpt>
      <trkpt lat="43.64935" lon="3.35381">
        <ele>138.3</ele>
        <time>2011-03-06T08:34:43Z</time>
      </trkpt>
      <trkpt lat="43.64938" lon="3.3537">
        <ele>138.2</ele>
        <time>2011-03-06T08:34:45Z</time>
      </trkpt>
      <trkpt lat="43.64939" lon="3.35358">
        <ele>138.2</ele>
        <time>2011-03-06T08:34:47Z</time>
      </trkpt>
      <trkpt lat="43.64939" lon="3.35346">
        <ele>138.2</ele>
        <time>2011-03-06T08:34:49Z</time>
      </trkpt>
      <trkpt lat="43.64936" lon="3.35335">
        <ele>138.3</ele>
        <time>2011-03-06T08:34:51Z</time>
      </trkpt>
      <trkpt lat="43.64934" lon="3.3533">
        <ele>138.3</ele>
        <time>2011-03-06T08:34:52Z</time>
      </trkpt>
      <trkpt lat="43.64925" lon="3.35317">
        <ele>138.3</ele>
        <time>2011-03-06T08:34:55Z</time>
      </trkpt>
      <trkpt lat="43.6492" lon="3.35309">
        <ele>138.3</ele>
        <time>2011-03-06T08:34:57Z</time>
      </trkpt>
      <trkpt lat="43.64915" lon="3.35298">
        <ele>138.2</ele>
        <time>2011-03-06T08:34:59Z</time>
      </trkpt>
      <trkpt lat="43.64913" lon="3.35286">
        <ele>138</ele>
        <time>2011-03-06T08:35:01Z</time>
      </trkpt>
      <trkpt lat="43.64912" lon="3.35275">
        <ele>137.8</ele>
        <time>2011-03-06T08:35:03Z</time>
      </trkpt>
      <trkpt lat="43.64913" lon="3.35263">
        <ele>137.5</ele>
        <time>2011-03-06T08:35:05Z</time>
      </trkpt>
      <trkpt lat="43.64915" lon="3.35252">
        <ele>137.1</ele>
        <time>2011-03-06T08:35:07Z</time>
      </trkpt>
      <trkpt lat="43.64918" lon="3.35242">
        <ele>137.3</ele>
        <time>2011-03-06T08:35:09Z</time>
      </trkpt>
      <trkpt lat="43.6492" lon="3.35231">
        <ele>137.6</ele>
        <time>2011-03-06T08:35:11Z</time>
      </trkpt>
      <trkpt lat="43.64921" lon="3.35219">
        <ele>138</ele>
        <time>2011-03-06T08:35:13Z</time>
      </trkpt>
      <trkpt lat="43.64921" lon="3.35208">
        <ele>138.4</ele>
        <time>2011-03-06T08:35:15Z</time>
      </trkpt>
      <trkpt lat="43.64918" lon="3.35197">
        <ele>138.9</ele>
        <time>2011-03-06T08:35:17Z</time>
      </trkpt>
      <trkpt lat="43.64912" lon="3.3519">
        <ele>139.2</ele>
        <time>2011-03-06T08:35:19Z</time>
      </trkpt>
      <trkpt lat="43.64905" lon="3.35185">
        <ele>139.5</ele>
        <time>2011-03-06T08:35:21Z</time>
      </trkpt>
      <trkpt lat="43.64897" lon="3.35182">
        <ele>139.6</ele>
        <time>2011-03-06T08:35:23Z</time>
      </trkpt>
      <trkpt lat="43.64889" lon="3.35178">
        <ele>139.8</ele>
        <time>2011-03-06T08:35:25Z</time>
      </trkpt>
      <trkpt lat="43.64882" lon="3.35173">
        <ele>139.9</ele>
        <time>2011-03-06T08:35:27Z</time>
      </trkpt>
      <trkpt lat="43.64876" lon="3.35167">
        <ele>140</ele>
        <time>2011-03-06T08:35:29Z</time>
      </trkpt>
      <trkpt lat="43.64871" lon="3.35159">
        <ele>139.8</ele>
        <time>2011-03-06T08:35:31Z</time>
      </trkpt>
      <trkpt lat="43.64868" lon="3.3515">
        <ele>139.6</ele>
        <time>2011-03-06T08:35:33Z</time>
      </trkpt>
      <trkpt lat="43.64865" lon="3.3514">
        <ele>139.4</ele>
        <time>2011-03-06T08:35:35Z</time>
      </trkpt>
      <trkpt lat="43.64863" lon="3.3513">
        <ele>139.1</ele>
        <time>2011-03-06T08:35:37Z</time>
      </trkpt>
      <trkpt lat="43.64861" lon="3.3512">
        <ele>138.9</ele>
        <time>2011-03-06T08:35:39Z</time>
      </trkpt>
      <trkpt lat="43.64861" lon="3.35109">
        <ele>138.6</ele>
        <time>2011-03-06T08:35:41Z</time>
      </trkpt>
      <trkpt lat="43.64863" lon="3.35098">
        <ele>138.4</ele>
        <time>2011-03-06T08:35:43Z</time>
      </trkpt>
      <trkpt lat="43.64865" lon="3.35087">
        <ele>138.1</ele>
        <time>2011-03-06T08:35:45Z</time>
      </trkpt>
      <trkpt lat="43.64867" lon="3.35077">
        <ele>138.1</ele>
        <time>2011-03-06T08:35:47Z</time>
      </trkpt>
      <trkpt lat="43.64868" lon="3.35067">
        <ele>138.4</ele>
        <time>2011-03-06T08:35:49Z</time>
      </trkpt>
      <trkpt lat="43.64865" lon="3.35058">
        <ele>138.5</ele>
        <time>2011-03-06T08:35:51Z</time>
      </trkpt>
      <trkpt lat="43.6486" lon="3.3505">
        <ele>138.7</ele>
        <time>2011-03-06T08:35:53Z</time>
      </trkpt>
      <trkpt lat="43.64859" lon="3.35045">
        <ele>138.7</ele>
        <time>2011-03-06T08:35:54Z</time>
      </trkpt>
      <trkpt lat="43.64858" lon="3.3503">
        <ele>139</ele>
        <time>2011-03-06T08:35:57Z</time>
      </trkpt>
      <trkpt lat="43.64856" lon="3.35021">
        <ele>139.2</ele>
        <time>2011-03-06T08:35:59Z</time>
      </trkpt>
      <trkpt lat="43.64854" lon="3.35011">
        <ele>139.3</ele>
        <time>2011-03-06T08:36:01Z</time>
      </trkpt>
      <trkpt lat="43.64852" lon="3.35001">
        <ele>139.4</ele>
        <time>2011-03-06T08:36:03Z</time>
      </trkpt>
      <trkpt lat="43.64851" lon="3.34992">
        <ele>139.4</ele>
        <time>2011-03-06T08:36:05Z</time>
      </trkpt>
      <trkpt lat="43.64853" lon="3.34981">
        <ele>139.5</ele>
        <time>2011-03-06T08:36:07Z</time>
      </trkpt>
      <trkpt lat="43.64854" lon="3.34969">
        <ele>139.6</ele>
        <time>2011-03-06T08:36:09Z</time>
      </trkpt>
      <trkpt lat="43.64854" lon="3.34958">
        <ele>139.6</ele>
        <time>2011-03-06T08:36:11Z</time>
      </trkpt>
      <trkpt lat="43.64848" lon="3.34949">
        <ele>139.3</ele>
        <time>2011-03-06T08:36:16Z</time>
      </trkpt>
      <trkpt lat="43.64845" lon="3.34941">
        <ele>139</ele>
        <time>2011-03-06T08:36:19Z</time>
      </trkpt>
      <trkpt lat="43.64841" lon="3.3493">
        <ele>138.7</ele>
        <time>2011-03-06T08:36:22Z</time>
      </trkpt>
      <trkpt lat="43.6484" lon="3.34922">
        <ele>138.6</ele>
        <time>2011-03-06T08:36:24Z</time>
      </trkpt>
      <trkpt lat="43.64837" lon="3.34911">
        <ele>138.5</ele>
        <time>2011-03-06T08:36:26Z</time>
      </trkpt>
      <trkpt lat="43.64836" lon="3.34904">
        <ele>138.7</ele>
        <time>2011-03-06T08:36:27Z</time>
      </trkpt>
      <trkpt lat="43.64837" lon="3.34894">
        <ele>139.1</ele>
        <time>2011-03-06T08:36:29Z</time>
      </trkpt>
      <trkpt lat="43.64842" lon="3.34887">
        <ele>139.8</ele>
        <time>2011-03-06T08:36:32Z</time>
      </trkpt>
      <trkpt lat="43.64847" lon="3.34881">
        <ele>140.4</ele>
        <time>2011-03-06T08:36:35Z</time>
      </trkpt>
      <trkpt lat="43.64853" lon="3.34873">
        <ele>141.2</ele>
        <time>2011-03-06T08:36:38Z</time>
      </trkpt>
      <trkpt lat="43.64859" lon="3.34865">
        <ele>142</ele>
        <time>2011-03-06T08:36:41Z</time>
      </trkpt>
      <trkpt lat="43.64865" lon="3.34856">
        <ele>142.8</ele>
        <time>2011-03-06T08:36:44Z</time>
      </trkpt>
      <trkpt lat="43.64868" lon="3.34848">
        <ele>143.4</ele>
        <time>2011-03-06T08:36:47Z</time>
      </trkpt>
      <trkpt lat="43.64873" lon="3.34838">
        <ele>144.1</ele>
        <time>2011-03-06T08:36:51Z</time>
      </trkpt>
      <trkpt lat="43.64877" lon="3.34828">
        <ele>145.1</ele>
        <time>2011-03-06T08:36:55Z</time>
      </trkpt>
      <trkpt lat="43.64878" lon="3.34825">
        <ele>145.3</ele>
        <time>2011-03-06T08:36:56Z</time>
      </trkpt>
      <trkpt lat="43.64884" lon="3.34811">
        <ele>146.8</ele>
        <time>2011-03-06T08:37:01Z</time>
      </trkpt>
      <trkpt lat="43.64889" lon="3.34802">
        <ele>147.9</ele>
        <time>2011-03-06T08:37:05Z</time>
      </trkpt>
      <trkpt lat="43.64897" lon="3.34796">
        <ele>148.9</ele>
        <time>2011-03-06T08:37:09Z</time>
      </trkpt>
      <trkpt lat="43.64903" lon="3.34789">
        <ele>150</ele>
        <time>2011-03-06T08:37:13Z</time>
      </trkpt>
      <trkpt lat="43.6491" lon="3.34783">
        <ele>151</ele>
        <time>2011-03-06T08:37:17Z</time>
      </trkpt>
      <trkpt lat="43.64916" lon="3.34776">
        <ele>152</ele>
        <time>2011-03-06T08:37:21Z</time>
      </trkpt>
      <trkpt lat="43.64921" lon="3.34768">
        <ele>152.9</ele>
        <time>2011-03-06T08:37:25Z</time>
      </trkpt>
      <trkpt lat="43.64927" lon="3.34762">
        <ele>153.6</ele>
        <time>2011-03-06T08:37:28Z</time>
      </trkpt>
      <trkpt lat="43.64932" lon="3.34756">
        <ele>154.3</ele>
        <time>2011-03-06T08:37:31Z</time>
      </trkpt>
      <trkpt lat="43.64938" lon="3.3475">
        <ele>155</ele>
        <time>2011-03-06T08:37:34Z</time>
      </trkpt>
      <trkpt lat="43.64943" lon="3.34743">
        <ele>155.4</ele>
        <time>2011-03-06T08:37:37Z</time>
      </trkpt>
      <trkpt lat="43.64948" lon="3.34733">
        <ele>155.8</ele>
        <time>2011-03-06T08:37:41Z</time>
      </trkpt>
      <trkpt lat="43.64953" lon="3.34725">
        <ele>156.2</ele>
        <time>2011-03-06T08:37:44Z</time>
      </trkpt>
      <trkpt lat="43.64957" lon="3.34717">
        <ele>156.5</ele>
        <time>2011-03-06T08:37:47Z</time>
      </trkpt>
      <trkpt lat="43.64961" lon="3.34709">
        <ele>156.8</ele>
        <time>2011-03-06T08:37:50Z</time>
      </trkpt>
      <trkpt lat="43.64965" lon="3.34702">
        <ele>157.2</ele>
        <time>2011-03-06T08:37:53Z</time>
      </trkpt>
      <trkpt lat="43.6497" lon="3.34694">
        <ele>157.5</ele>
        <time>2011-03-06T08:37:56Z</time>
      </trkpt>
      <trkpt lat="43.64975" lon="3.34686">
        <ele>157.8</ele>
        <time>2011-03-06T08:37:59Z</time>
      </trkpt>
      <trkpt lat="43.64976" lon="3.34683">
        <ele>157.9</ele>
        <time>2011-03-06T08:38:00Z</time>
      </trkpt>
      <trkpt lat="43.64983" lon="3.34669">
        <ele>158.3</ele>
        <time>2011-03-06T08:38:05Z</time>
      </trkpt>
      <trkpt lat="43.64986" lon="3.34659">
        <ele>159</ele>
        <time>2011-03-06T08:38:08Z</time>
      </trkpt>
      <trkpt lat="43.6499" lon="3.3465">
        <ele>159.7</ele>
        <time>2011-03-06T08:38:11Z</time>
      </trkpt>
      <trkpt lat="43.64994" lon="3.34643">
        <ele>160.5</ele>
        <time>2011-03-06T08:38:14Z</time>
      </trkpt>
      <trkpt lat="43.64999" lon="3.34634">
        <ele>161.3</ele>
        <time>2011-03-06T08:38:17Z</time>
      </trkpt>
      <trkpt lat="43.65005" lon="3.34624">
        <ele>162.6</ele>
        <time>2011-03-06T08:38:20Z</time>
      </trkpt>
      <trkpt lat="43.65008" lon="3.34617">
        <ele>163.6</ele>
        <time>2011-03-06T08:38:22Z</time>
      </trkpt>
      <trkpt lat="43.65013" lon="3.34607">
        <ele>165.1</ele>
        <time>2011-03-06T08:38:25Z</time>
      </trkpt>
      <trkpt lat="43.65016" lon="3.346">
        <ele>166</ele>
        <time>2011-03-06T08:38:27Z</time>
      </trkpt>
      <trkpt lat="43.65017" lon="3.34591">
        <ele>166.8</ele>
        <time>2011-03-06T08:38:29Z</time>
      </trkpt>
      <trkpt lat="43.65016" lon="3.34582">
        <ele>167.4</ele>
        <time>2011-03-06T08:38:31Z</time>
      </trkpt>
      <trkpt lat="43.65018" lon="3.34572">
        <ele>168.5</ele>
        <time>2011-03-06T08:38:34Z</time>
      </trkpt>
      <trkpt lat="43.65021" lon="3.34563">
        <ele>169.7</ele>
        <time>2011-03-06T08:38:37Z</time>
      </trkpt>
      <trkpt lat="43.65024" lon="3.34553">
        <ele>170.9</ele>
        <time>2011-03-06T08:38:41Z</time>
      </trkpt>
      <trkpt lat="43.65027" lon="3.34544">
        <ele>172.1</ele>
        <time>2011-03-06T08:38:45Z</time>
      </trkpt>
      <trkpt lat="43.65031" lon="3.34533">
        <ele>173.5</ele>
        <time>2011-03-06T08:38:50Z</time>
      </trkpt>
      <trkpt lat="43.65035" lon="3.34523">
        <ele>174.8</ele>
        <time>2011-03-06T08:38:54Z</time>
      </trkpt>
      <trkpt lat="43.65039" lon="3.34514">
        <ele>176.1</ele>
        <time>2011-03-06T08:38:58Z</time>
      </trkpt>
      <trkpt lat="43.65045" lon="3.34507">
        <ele>177.4</ele>
        <time>2011-03-06T08:39:02Z</time>
      </trkpt>
      <trkpt lat="43.65046" lon="3.34506">
        <ele>177.7</ele>
        <time>2011-03-06T08:39:03Z</time>
      </trkpt>
      <trkpt lat="43.65052" lon="3.34486">
        <ele>180.3</ele>
        <time>2011-03-06T08:39:13Z</time>
      </trkpt>
      <trkpt lat="43.65048" lon="3.34476">
        <ele>180.7</ele>
        <time>2011-03-06T08:43:09Z</time>
      </trkpt>
      <trkpt lat="43.65047" lon="3.34475">
        <ele>180.7</ele>
        <time>2011-03-06T08:43:10Z</time>
      </trkpt>
      <trkpt lat="43.65036" lon="3.34463">
        <ele>180.2</ele>
        <time>2011-03-06T08:43:17Z</time>
      </trkpt>
      <trkpt lat="43.6503" lon="3.34459">
        <ele>179.7</ele>
        <time>2011-03-06T08:43:19Z</time>
      </trkpt>
      <trkpt lat="43.65025" lon="3.34453">
        <ele>179.3</ele>
        <time>2011-03-06T08:43:21Z</time>
      </trkpt>
      <trkpt lat="43.65019" lon="3.34447">
        <ele>178.9</ele>
        <time>2011-03-06T08:43:23Z</time>
      </trkpt>
      <trkpt lat="43.65014" lon="3.3444">
        <ele>178.7</ele>
        <time>2011-03-06T08:43:25Z</time>
      </trkpt>
      <trkpt lat="43.65009" lon="3.34432">
        <ele>178.5</ele>
        <time>2011-03-06T08:43:27Z</time>
      </trkpt>
      <trkpt lat="43.65004" lon="3.34422">
        <ele>178.4</ele>
        <time>2011-03-06T08:43:29Z</time>
      </trkpt>
      <trkpt lat="43.64999" lon="3.34414">
        <ele>177.9</ele>
        <time>2011-03-06T08:43:31Z</time>
      </trkpt>
      <trkpt lat="43.64991" lon="3.3441">
        <ele>177</ele>
        <time>2011-03-06T08:43:33Z</time>
      </trkpt>
      <trkpt lat="43.64984" lon="3.34403">
        <ele>176.3</ele>
        <time>2011-03-06T08:43:35Z</time>
      </trkpt>
      <trkpt lat="43.64983" lon="3.34392">
        <ele>176.4</ele>
        <time>2011-03-06T08:43:37Z</time>
      </trkpt>
      <trkpt lat="43.64986" lon="3.34381">
        <ele>177</ele>
        <time>2011-03-06T08:43:39Z</time>
      </trkpt>
      <trkpt lat="43.6499" lon="3.34371">
        <ele>177.7</ele>
        <time>2011-03-06T08:43:41Z</time>
      </trkpt>
      <trkpt lat="43.64991" lon="3.34363">
        <ele>178.1</ele>
        <time>2011-03-06T08:43:42Z</time>
      </trkpt>
      <trkpt lat="43.64993" lon="3.34354">
        <ele>178.6</ele>
        <time>2011-03-06T08:43:43Z</time>
      </trkpt>
      <trkpt lat="43.64995" lon="3.34346">
        <ele>179.1</ele>
        <time>2011-03-06T08:43:44Z</time>
      </trkpt>
      <trkpt lat="43.64997" lon="3.34337">
        <ele>179.5</ele>
        <time>2011-03-06T08:43:45Z</time>
      </trkpt>
      <trkpt lat="43.64999" lon="3.34329">
        <ele>180.3</ele>
        <time>2011-03-06T08:43:46Z</time>
      </trkpt>
      <trkpt lat="43.64998" lon="3.34317">
        <ele>181.2</ele>
        <time>2011-03-06T08:43:49Z</time>
      </trkpt>
      <trkpt lat="43.64994" lon="3.34307">
        <ele>181.8</ele>
        <time>2011-03-06T08:43:52Z</time>
      </trkpt>
      <trkpt lat="43.64993" lon="3.34297">
        <ele>182.4</ele>
        <time>2011-03-06T08:43:54Z</time>
      </trkpt>
      <trkpt lat="43.6499" lon="3.34287">
        <ele>182.9</ele>
        <time>2011-03-06T08:43:56Z</time>
      </trkpt>
      <trkpt lat="43.64985" lon="3.34281">
        <ele>182.6</ele>
        <time>2011-03-06T08:43:58Z</time>
      </trkpt>
      <trkpt lat="43.64979" lon="3.34273">
        <ele>182.5</ele>
        <time>2011-03-06T08:44:01Z</time>
      </trkpt>
      <trkpt lat="43.64975" lon="3.34263">
        <ele>182.7</ele>
        <time>2011-03-06T08:44:04Z</time>
      </trkpt>
      <trkpt lat="43.64972" lon="3.34256">
        <ele>182.7</ele>
        <time>2011-03-06T08:44:06Z</time>
      </trkpt>
      <trkpt lat="43.64967" lon="3.34246">
        <ele>182.6</ele>
        <time>2011-03-06T08:44:08Z</time>
      </trkpt>
      <trkpt lat="43.64963" lon="3.34236">
        <ele>182.4</ele>
        <time>2011-03-06T08:44:10Z</time>
      </trkpt>
      <trkpt lat="43.64962" lon="3.34231">
        <ele>182.4</ele>
        <time>2011-03-06T08:44:11Z</time>
      </trkpt>
      <trkpt lat="43.64956" lon="3.34219">
        <ele>181.8</ele>
        <time>2011-03-06T08:44:14Z</time>
      </trkpt>
      <trkpt lat="43.6495" lon="3.3421">
        <ele>181.3</ele>
        <time>2011-03-06T08:44:16Z</time>
      </trkpt>
      <trkpt lat="43.64947" lon="3.34198">
        <ele>181.4</ele>
        <time>2011-03-06T08:44:18Z</time>
      </trkpt>
      <trkpt lat="43.64945" lon="3.34193">
        <ele>181.3</ele>
        <time>2011-03-06T08:44:19Z</time>
      </trkpt>
      <trkpt lat="43.64943" lon="3.34187">
        <ele>181.2</ele>
        <time>2011-03-06T08:44:20Z</time>
      </trkpt>
      <trkpt lat="43.64941" lon="3.34181">
        <ele>181.2</ele>
        <time>2011-03-06T08:44:21Z</time>
      </trkpt>
      <trkpt lat="43.6494" lon="3.34175">
        <ele>181.2</ele>
        <time>2011-03-06T08:44:22Z</time>
      </trkpt>
      <trkpt lat="43.64939" lon="3.34168">
        <ele>181.4</ele>
        <time>2011-03-06T08:44:23Z</time>
      </trkpt>
      <trkpt lat="43.64938" lon="3.34162">
        <ele>181.2</ele>
        <time>2011-03-06T08:44:24Z</time>
      </trkpt>
      <trkpt lat="43.64938" lon="3.34156">
        <ele>180.9</ele>
        <time>2011-03-06T08:44:25Z</time>
      </trkpt>
      <trkpt lat="43.64938" lon="3.34149">
        <ele>180.6</ele>
        <time>2011-03-06T08:44:26Z</time>
      </trkpt>
      <trkpt lat="43.64938" lon="3.34143">
        <ele>180.4</ele>
        <time>2011-03-06T08:44:27Z</time>
      </trkpt>
      <trkpt lat="43.64939" lon="3.34136">
        <ele>180.3</ele>
        <time>2011-03-06T08:44:28Z</time>
      </trkpt>
      <trkpt lat="43.6494" lon="3.3413">
        <ele>180.2</ele>
        <time>2011-03-06T08:44:29Z</time>
      </trkpt>
      <trkpt lat="43.64939" lon="3.34123">
        <ele>179.9</ele>
        <time>2011-03-06T08:44:30Z</time>
      </trkpt>
      <trkpt lat="43.64935" lon="3.34113">
        <ele>178.7</ele>
        <time>2011-03-06T08:44:32Z</time>
      </trkpt>
      <trkpt lat="43.64932" lon="3.34103">
        <ele>177.7</ele>
        <time>2011-03-06T08:44:34Z</time>
      </trkpt>
      <trkpt lat="43.6493" lon="3.34091">
        <ele>176.9</ele>
        <time>2011-03-06T08:44:36Z</time>
      </trkpt>
      <trkpt lat="43.64929" lon="3.34084">
        <ele>176.4</ele>
        <time>2011-03-06T08:44:37Z</time>
      </trkpt>
      <trkpt lat="43.64929" lon="3.34077">
        <ele>175.8</ele>
        <time>2011-03-06T08:44:38Z</time>
      </trkpt>
      <trkpt lat="43.64929" lon="3.34069">
        <ele>175.3</ele>
        <time>2011-03-06T08:44:39Z</time>
      </trkpt>
      <trkpt lat="43.64929" lon="3.34061">
        <ele>174.8</ele>
        <time>2011-03-06T08:44:40Z</time>
      </trkpt>
      <trkpt lat="43.64929" lon="3.34054">
        <ele>174.4</ele>
        <time>2011-03-06T08:44:41Z</time>
      </trkpt>
      <trkpt lat="43.64929" lon="3.34046">
        <ele>173.9</ele>
        <time>2011-03-06T08:44:42Z</time>
      </trkpt>
      <trkpt lat="43.64929" lon="3.34039">
        <ele>173.4</ele>
        <time>2011-03-06T08:44:43Z</time>
      </trkpt>
      <trkpt lat="43.6493" lon="3.34032">
        <ele>173.1</ele>
        <time>2011-03-06T08:44:44Z</time>
      </trkpt>
      <trkpt lat="43.64932" lon="3.34025">
        <ele>172.9</ele>
        <time>2011-03-06T08:44:45Z</time>
      </trkpt>
      <trkpt lat="43.64934" lon="3.34019">
        <ele>172.8</ele>
        <time>2011-03-06T08:44:46Z</time>
      </trkpt>
      <trkpt lat="43.64936" lon="3.34013">
        <ele>172.7</ele>
        <time>2011-03-06T08:44:47Z</time>
      </trkpt>
      <trkpt lat="43.64936" lon="3.34007">
        <ele>172.3</ele>
        <time>2011-03-06T08:44:48Z</time>
      </trkpt>
      <trkpt lat="43.64937" lon="3.34001">
        <ele>172</ele>
        <time>2011-03-06T08:44:49Z</time>
      </trkpt>
      <trkpt lat="43.64937" lon="3.33993">
        <ele>171.3</ele>
        <time>2011-03-06T08:44:50Z</time>
      </trkpt>
      <trkpt lat="43.64937" lon="3.33986">
        <ele>170.7</ele>
        <time>2011-03-06T08:44:51Z</time>
      </trkpt>
      <trkpt lat="43.64939" lon="3.33978">
        <ele>170.2</ele>
        <time>2011-03-06T08:44:52Z</time>
      </trkpt>
      <trkpt lat="43.64941" lon="3.33971">
        <ele>169.7</ele>
        <time>2011-03-06T08:44:53Z</time>
      </trkpt>
      <trkpt lat="43.64943" lon="3.33964">
        <ele>169.4</ele>
        <time>2011-03-06T08:44:54Z</time>
      </trkpt>
      <trkpt lat="43.64944" lon="3.33956">
        <ele>168.7</ele>
        <time>2011-03-06T08:44:55Z</time>
      </trkpt>
      <trkpt lat="43.64943" lon="3.33949">
        <ele>168</ele>
        <time>2011-03-06T08:44:56Z</time>
      </trkpt>
      <trkpt lat="43.6494" lon="3.33943">
        <ele>167.2</ele>
        <time>2011-03-06T08:44:57Z</time>
      </trkpt>
      <trkpt lat="43.64936" lon="3.33939">
        <ele>166.4</ele>
        <time>2011-03-06T08:44:58Z</time>
      </trkpt>
      <trkpt lat="43.64932" lon="3.33933">
        <ele>165.5</ele>
        <time>2011-03-06T08:44:59Z</time>
      </trkpt>
      <trkpt lat="43.64929" lon="3.33926">
        <ele>164.6</ele>
        <time>2011-03-06T08:45:00Z</time>
      </trkpt>
      <trkpt lat="43.64927" lon="3.33919">
        <ele>163.9</ele>
        <time>2011-03-06T08:45:01Z</time>
      </trkpt>
      <trkpt lat="43.64926" lon="3.33913">
        <ele>163.4</ele>
        <time>2011-03-06T08:45:02Z</time>
      </trkpt>
      <trkpt lat="43.64925" lon="3.33906">
        <ele>162.9</ele>
        <time>2011-03-06T08:45:03Z</time>
      </trkpt>
      <trkpt lat="43.64922" lon="3.33899">
        <ele>162.3</ele>
        <time>2011-03-06T08:45:04Z</time>
      </trkpt>
      <trkpt lat="43.64919" lon="3.33891">
        <ele>161.7</ele>
        <time>2011-03-06T08:45:05Z</time>
      </trkpt>
      <trkpt lat="43.64916" lon="3.33884">
        <ele>161</ele>
        <time>2011-03-06T08:45:06Z</time>
      </trkpt>
      <trkpt lat="43.64914" lon="3.33878">
        <ele>160.5</ele>
        <time>2011-03-06T08:45:07Z</time>
      </trkpt>
      <trkpt lat="43.64915" lon="3.33866">
        <ele>159.8</ele>
        <time>2011-03-06T08:45:09Z</time>
      </trkpt>
      <trkpt lat="43.64917" lon="3.33858">
        <ele>159.5</ele>
        <time>2011-03-06T08:45:10Z</time>
      </trkpt>
      <trkpt lat="43.6492" lon="3.33851">
        <ele>159.3</ele>
        <time>2011-03-06T08:45:11Z</time>
      </trkpt>
      <trkpt lat="43.64924" lon="3.33845">
        <ele>159.2</ele>
        <time>2011-03-06T08:45:12Z</time>
      </trkpt>
      <trkpt lat="43.64927" lon="3.3384">
        <ele>159.1</ele>
        <time>2011-03-06T08:45:13Z</time>
      </trkpt>
      <trkpt lat="43.64935" lon="3.33833">
        <ele>159.3</ele>
        <time>2011-03-06T08:45:15Z</time>
      </trkpt>
      <trkpt lat="43.64942" lon="3.33827">
        <ele>159.4</ele>
        <time>2011-03-06T08:45:17Z</time>
      </trkpt>
      <trkpt lat="43.64948" lon="3.33821">
        <ele>159.5</ele>
        <time>2011-03-06T08:45:19Z</time>
      </trkpt>
      <trkpt lat="43.64955" lon="3.33815">
        <ele>159.5</ele>
        <time>2011-03-06T08:45:21Z</time>
      </trkpt>
      <trkpt lat="43.64959" lon="3.33812">
        <ele>159.6</ele>
        <time>2011-03-06T08:45:22Z</time>
      </trkpt>
      <trkpt lat="43.64963" lon="3.3381">
        <ele>159.8</ele>
        <time>2011-03-06T08:45:23Z</time>
      </trkpt>
      <trkpt lat="43.6497" lon="3.33801">
        <ele>159.7</ele>
        <time>2011-03-06T08:45:25Z</time>
      </trkpt>
      <trkpt lat="43.64974" lon="3.33794">
        <ele>159.4</ele>
        <time>2011-03-06T08:45:27Z</time>
      </trkpt>
      <trkpt lat="43.64978" lon="3.33785">
        <ele>159</ele>
        <time>2011-03-06T08:45:29Z</time>
      </trkpt>
      <trkpt lat="43.64983" lon="3.33775">
        <ele>158.7</ele>
        <time>2011-03-06T08:45:31Z</time>
      </trkpt>
      <trkpt lat="43.64986" lon="3.3377">
        <ele>158.6</ele>
        <time>2011-03-06T08:45:32Z</time>
      </trkpt>
      <trkpt lat="43.64989" lon="3.33765">
        <ele>158.4</ele>
        <time>2011-03-06T08:45:33Z</time>
      </trkpt>
      <trkpt lat="43.64993" lon="3.3376">
        <ele>158.3</ele>
        <time>2011-03-06T08:45:34Z</time>
      </trkpt>
      <trkpt lat="43.64997" lon="3.33755">
        <ele>158.2</ele>
        <time>2011-03-06T08:45:35Z</time>
      </trkpt>
      <trkpt lat="43.65" lon="3.3375">
        <ele>158</ele>
        <time>2011-03-06T08:45:36Z</time>
      </trkpt>
      <trkpt lat="43.65004" lon="3.33745">
        <ele>157.9</ele>
        <time>2011-03-06T08:45:37Z</time>
      </trkpt>
      <trkpt lat="43.65008" lon="3.3374">
        <ele>157.8</ele>
        <time>2011-03-06T08:45:38Z</time>
      </trkpt>
      <trkpt lat="43.65011" lon="3.33734">
        <ele>157.5</ele>
        <time>2011-03-06T08:45:39Z</time>
      </trkpt>
      <trkpt lat="43.65012" lon="3.33727">
        <ele>157</ele>
        <time>2011-03-06T08:45:40Z</time>
      </trkpt>
      <trkpt lat="43.65012" lon="3.3372">
        <ele>156.2</ele>
        <time>2011-03-06T08:45:41Z</time>
      </trkpt>
      <trkpt lat="43.65012" lon="3.33712">
        <ele>155.5</ele>
        <time>2011-03-06T08:45:42Z</time>
      </trkpt>
      <trkpt lat="43.65011" lon="3.33704">
        <ele>154.8</ele>
        <time>2011-03-06T08:45:43Z</time>
      </trkpt>
      <trkpt lat="43.65013" lon="3.33697">
        <ele>154.3</ele>
        <time>2011-03-06T08:45:44Z</time>
      </trkpt>
      <trkpt lat="43.65016" lon="3.33692">
        <ele>154</ele>
        <time>2011-03-06T08:45:45Z</time>
      </trkpt>
      <trkpt lat="43.6502" lon="3.33689">
        <ele>153.8</ele>
        <time>2011-03-06T08:45:46Z</time>
      </trkpt>
      <trkpt lat="43.65024" lon="3.33679">
        <ele>153</ele>
        <time>2011-03-06T08:45:48Z</time>
      </trkpt>
      <trkpt lat="43.65025" lon="3.33672">
        <ele>152.4</ele>
        <time>2011-03-06T08:45:49Z</time>
      </trkpt>
      <trkpt lat="43.65025" lon="3.33665">
        <ele>151.8</ele>
        <time>2011-03-06T08:45:50Z</time>
      </trkpt>
      <trkpt lat="43.65026" lon="3.33657">
        <ele>151.4</ele>
        <time>2011-03-06T08:45:51Z</time>
      </trkpt>
      <trkpt lat="43.65027" lon="3.33649">
        <ele>151</ele>
        <time>2011-03-06T08:45:52Z</time>
      </trkpt>
      <trkpt lat="43.65028" lon="3.3364">
        <ele>150.6</ele>
        <time>2011-03-06T08:45:53Z</time>
      </trkpt>
      <trkpt lat="43.65029" lon="3.33631">
        <ele>150.2</ele>
        <time>2011-03-06T08:45:54Z</time>
      </trkpt>
      <trkpt lat="43.65031" lon="3.33622">
        <ele>149.7</ele>
        <time>2011-03-06T08:45:55Z</time>
      </trkpt>
      <trkpt lat="43.65033" lon="3.33613">
        <ele>149.2</ele>
        <time>2011-03-06T08:45:56Z</time>
      </trkpt>
      <trkpt lat="43.65034" lon="3.33603">
        <ele>148.7</ele>
        <time>2011-03-06T08:45:57Z</time>
      </trkpt>
      <trkpt lat="43.65036" lon="3.33593">
        <ele>148.1</ele>
        <time>2011-03-06T08:45:58Z</time>
      </trkpt>
      <trkpt lat="43.65037" lon="3.33583">
        <ele>147.5</ele>
        <time>2011-03-06T08:45:59Z</time>
      </trkpt>
      <trkpt lat="43.65038" lon="3.33573">
        <ele>147</ele>
        <time>2011-03-06T08:46:00Z</time>
      </trkpt>
      <trkpt lat="43.65041" lon="3.33563">
        <ele>146.5</ele>
        <time>2011-03-06T08:46:01Z</time>
      </trkpt>
      <trkpt lat="43.65044" lon="3.33554">
        <ele>146.1</ele>
        <time>2011-03-06T08:46:02Z</time>
      </trkpt>
      <trkpt lat="43.65047" lon="3.33545">
        <ele>145.6</ele>
        <time>2011-03-06T08:46:03Z</time>
      </trkpt>
      <trkpt lat="43.6505" lon="3.33535">
        <ele>145.1</ele>
        <time>2011-03-06T08:46:04Z</time>
      </trkpt>
      <trkpt lat="43.65053" lon="3.33526">
        <ele>144.6</ele>
        <time>2011-03-06T08:46:05Z</time>
      </trkpt>
      <trkpt lat="43.65054" lon="3.33517">
        <ele>144.2</ele>
        <time>2011-03-06T08:46:06Z</time>
      </trkpt>
      <trkpt lat="43.65054" lon="3.33508">
        <ele>143.7</ele>
        <time>2011-03-06T08:46:07Z</time>
      </trkpt>
      <trkpt lat="43.65053" lon="3.33499">
        <ele>143.3</ele>
        <time>2011-03-06T08:46:08Z</time>
      </trkpt>
      <trkpt lat="43.65052" lon="3.33491">
        <ele>143</ele>
        <time>2011-03-06T08:46:09Z</time>
      </trkpt>
      <trkpt lat="43.65052" lon="3.33482">
        <ele>142.7</ele>
        <time>2011-03-06T08:46:10Z</time>
      </trkpt>
      <trkpt lat="43.65052" lon="3.33473">
        <ele>142.3</ele>
        <time>2011-03-06T08:46:11Z</time>
      </trkpt>
      <trkpt lat="43.65054" lon="3.33464">
        <ele>142</ele>
        <time>2011-03-06T08:46:12Z</time>
      </trkpt>
      <trkpt lat="43.65056" lon="3.33456">
        <ele>141.6</ele>
        <time>2011-03-06T08:46:13Z</time>
      </trkpt>
      <trkpt lat="43.65058" lon="3.33447">
        <ele>141.2</ele>
        <time>2011-03-06T08:46:14Z</time>
      </trkpt>
      <trkpt lat="43.6506" lon="3.33438">
        <ele>140.7</ele>
        <time>2011-03-06T08:46:15Z</time>
      </trkpt>
      <trkpt lat="43.65062" lon="3.33429">
        <ele>140.3</ele>
        <time>2011-03-06T08:46:16Z</time>
      </trkpt>
      <trkpt lat="43.65065" lon="3.33421">
        <ele>139.8</ele>
        <time>2011-03-06T08:46:17Z</time>
      </trkpt>
      <trkpt lat="43.65069" lon="3.33414">
        <ele>139.6</ele>
        <time>2011-03-06T08:46:18Z</time>
      </trkpt>
      <trkpt lat="43.65073" lon="3.33406">
        <ele>139.6</ele>
        <time>2011-03-06T08:46:19Z</time>
      </trkpt>
      <trkpt lat="43.65076" lon="3.33398">
        <ele>139.7</ele>
        <time>2011-03-06T08:46:20Z</time>
      </trkpt>
      <trkpt lat="43.65077" lon="3.33389">
        <ele>139.8</ele>
        <time>2011-03-06T08:46:21Z</time>
      </trkpt>
      <trkpt lat="43.65076" lon="3.33381">
        <ele>140</ele>
        <time>2011-03-06T08:46:22Z</time>
      </trkpt>
      <trkpt lat="43.65074" lon="3.33374">
        <ele>140.2</ele>
        <time>2011-03-06T08:46:23Z</time>
      </trkpt>
      <trkpt lat="43.65068" lon="3.33368">
        <ele>140.4</ele>
        <time>2011-03-06T08:46:25Z</time>
      </trkpt>
      <trkpt lat="43.65062" lon="3.33363">
        <ele>140.6</ele>
        <time>2011-03-06T08:46:27Z</time>
      </trkpt>
      <trkpt lat="43.65056" lon="3.3336">
        <ele>140.7</ele>
        <time>2011-03-06T08:46:29Z</time>
      </trkpt>
      <trkpt lat="43.65048" lon="3.33361">
        <ele>140.8</ele>
        <time>2011-03-06T08:46:33Z</time>
      </trkpt>
      <trkpt lat="43.6504" lon="3.33361">
        <ele>140.9</ele>
        <time>2011-03-06T08:46:41Z</time>
      </trkpt>
      <trkpt lat="43.65032" lon="3.33361">
        <ele>141</ele>
        <time>2011-03-06T08:46:47Z</time>
      </trkpt>
      <trkpt lat="43.65023" lon="3.33361">
        <ele>141.1</ele>
        <time>2011-03-06T08:46:53Z</time>
      </trkpt>
      <trkpt lat="43.65015" lon="3.33361">
        <ele>141.2</ele>
        <time>2011-03-06T08:46:57Z</time>
      </trkpt>
      <trkpt lat="43.65007" lon="3.3336">
        <ele>141.2</ele>
        <time>2011-03-06T08:47:01Z</time>
      </trkpt>
      <trkpt lat="43.64998" lon="3.33361">
        <ele>141.3</ele>
        <time>2011-03-06T08:47:24Z</time>
      </trkpt>
      <trkpt lat="43.64998" lon="3.33361">
        <ele>141.3</ele>
        <time>2011-03-06T08:47:25Z</time>
      </trkpt>
      <trkpt lat="43.65" lon="3.33363">
        <ele>141.3</ele>
        <time>2011-03-06T08:48:12Z</time>
      </trkpt>
      <trkpt lat="43.64992" lon="3.33361">
        <ele>141.1</ele>
        <time>2011-03-06T08:48:14Z</time>
      </trkpt>
      <trkpt lat="43.64984" lon="3.33358">
        <ele>140.8</ele>
        <time>2011-03-06T08:48:16Z</time>
      </trkpt>
      <trkpt lat="43.64976" lon="3.33355">
        <ele>140.5</ele>
        <time>2011-03-06T08:48:18Z</time>
      </trkpt>
      <trkpt lat="43.64967" lon="3.33351">
        <ele>140.1</ele>
        <time>2011-03-06T08:48:20Z</time>
      </trkpt>
      <trkpt lat="43.64963" lon="3.33349">
        <ele>139.9</ele>
        <time>2011-03-06T08:48:21Z</time>
      </trkpt>
      <trkpt lat="43.64958" lon="3.33347">
        <ele>139.7</ele>
        <time>2011-03-06T08:48:22Z</time>
      </trkpt>
      <trkpt lat="43.64953" lon="3.33345">
        <ele>139.5</ele>
        <time>2011-03-06T08:48:23Z</time>
      </trkpt>
      <trkpt lat="43.64948" lon="3.33343">
        <ele>139.3</ele>
        <time>2011-03-06T08:48:24Z</time>
      </trkpt>
      <trkpt lat="43.64943" lon="3.33341">
        <ele>139.1</ele>
        <time>2011-03-06T08:48:25Z</time>
      </trkpt>
      <trkpt lat="43.64938" lon="3.33338">
        <ele>138.9</ele>
        <time>2011-03-06T08:48:26Z</time>
      </trkpt>
      <trkpt lat="43.64933" lon="3.33336">
        <ele>138.7</ele>
        <time>2011-03-06T08:48:27Z</time>
      </trkpt>
      <trkpt lat="43.64928" lon="3.33334">
        <ele>138.4</ele>
        <time>2011-03-06T08:48:28Z</time>
      </trkpt>
      <trkpt lat="43.64924" lon="3.33332">
        <ele>138.2</ele>
        <time>2011-03-06T08:48:29Z</time>
      </trkpt>
      <trkpt lat="43.64919" lon="3.3333">
        <ele>138</ele>
        <time>2011-03-06T08:48:30Z</time>
      </trkpt>
      <trkpt lat="43.64911" lon="3.33326">
        <ele>138</ele>
        <time>2011-03-06T08:48:32Z</time>
      </trkpt>
      <trkpt lat="43.64904" lon="3.33322">
        <ele>138.2</ele>
        <time>2011-03-06T08:48:34Z</time>
      </trkpt>
      <trkpt lat="43.64896" lon="3.33321">
        <ele>138.4</ele>
        <time>2011-03-06T08:48:37Z</time>
      </trkpt>
      <trkpt lat="43.64888" lon="3.33317">
        <ele>138.6</ele>
        <time>2011-03-06T08:48:41Z</time>
      </trkpt>
      <trkpt lat="43.64881" lon="3.33314">
        <ele>138.8</ele>
        <time>2011-03-06T08:48:44Z</time>
      </trkpt>
      <trkpt lat="43.64873" lon="3.33309">
        <ele>139</ele>
        <time>2011-03-06T08:48:47Z</time>
      </trkpt>
      <trkpt lat="43.64865" lon="3.33305">
        <ele>139.2</ele>
        <time>2011-03-06T08:48:50Z</time>
      </trkpt>
      <trkpt lat="43.6486" lon="3.33302">
        <ele>139.3</ele>
        <time>2011-03-06T08:48:52Z</time>
      </trkpt>
      <trkpt lat="43.64854" lon="3.33299">
        <ele>139.4</ele>
        <time>2011-03-06T08:48:54Z</time>
      </trkpt>
      <trkpt lat="43.64848" lon="3.33296">
        <ele>139.6</ele>
        <time>2011-03-06T08:48:56Z</time>
      </trkpt>
      <trkpt lat="43.6484" lon="3.33293">
        <ele>139.8</ele>
        <time>2011-03-06T08:48:59Z</time>
      </trkpt>
      <trkpt lat="43.64834" lon="3.33299">
        <ele>140.1</ele>
        <time>2011-03-06T08:49:02Z</time>
      </trkpt>
      <trkpt lat="43.64834" lon="3.33308">
        <ele>140.3</ele>
        <time>2011-03-06T08:49:04Z</time>
      </trkpt>
      <trkpt lat="43.64835" lon="3.33317">
        <ele>140.6</ele>
        <time>2011-03-06T08:49:06Z</time>
      </trkpt>
      <trkpt lat="43.64836" lon="3.33326">
        <ele>140.8</ele>
        <time>2011-03-06T08:49:08Z</time>
      </trkpt>
      <trkpt lat="43.64836" lon="3.33336">
        <ele>141</ele>
        <time>2011-03-06T08:49:10Z</time>
      </trkpt>
      <trkpt lat="43.64836" lon="3.33345">
        <ele>141.2</ele>
        <time>2011-03-06T08:49:12Z</time>
      </trkpt>
      <trkpt lat="43.64836" lon="3.33355">
        <ele>141.4</ele>
        <time>2011-03-06T08:49:14Z</time>
      </trkpt>
      <trkpt lat="43.64834" lon="3.33363">
        <ele>141.7</ele>
        <time>2011-03-06T08:49:16Z</time>
      </trkpt>
      <trkpt lat="43.64831" lon="3.33372">
        <ele>142</ele>
        <time>2011-03-06T08:49:18Z</time>
      </trkpt>
      <trkpt lat="43.64829" lon="3.33382">
        <ele>142.4</ele>
        <time>2011-03-06T08:49:20Z</time>
      </trkpt>
      <trkpt lat="43.64827" lon="3.33392">
        <ele>142.7</ele>
        <time>2011-03-06T08:49:22Z</time>
      </trkpt>
      <trkpt lat="43.64827" lon="3.33403">
        <ele>142.9</ele>
        <time>2011-03-06T08:49:24Z</time>
      </trkpt>
      <trkpt lat="43.64827" lon="3.33414">
        <ele>143.2</ele>
        <time>2011-03-06T08:49:26Z</time>
      </trkpt>
      <trkpt lat="43.64826" lon="3.33419">
        <ele>143.4</ele>
        <time>2011-03-06T08:49:27Z</time>
      </trkpt>
      <trkpt lat="43.64824" lon="3.33437">
        <ele>144</ele>
        <time>2011-03-06T08:49:30Z</time>
      </trkpt>
      <trkpt lat="43.64824" lon="3.33449">
        <ele>144.4</ele>
        <time>2011-03-06T08:49:32Z</time>
      </trkpt>
      <trkpt lat="43.64824" lon="3.3346">
        <ele>144.7</ele>
        <time>2011-03-06T08:49:34Z</time>
      </trkpt>
      <trkpt lat="43.64823" lon="3.33471">
        <ele>145.1</ele>
        <time>2011-03-06T08:49:36Z</time>
      </trkpt>
      <trkpt lat="43.64822" lon="3.33482">
        <ele>145.4</ele>
        <time>2011-03-06T08:49:38Z</time>
      </trkpt>
      <trkpt lat="43.64822" lon="3.33492">
        <ele>145.8</ele>
        <time>2011-03-06T08:49:40Z</time>
      </trkpt>
      <trkpt lat="43.64822" lon="3.33503">
        <ele>146</ele>
        <time>2011-03-06T08:49:42Z</time>
      </trkpt>
      <trkpt lat="43.64822" lon="3.33514">
        <ele>145.9</ele>
        <time>2011-03-06T08:49:44Z</time>
      </trkpt>
      <trkpt lat="43.64822" lon="3.33525">
        <ele>145.8</ele>
        <time>2011-03-06T08:49:46Z</time>
      </trkpt>
      <trkpt lat="43.64821" lon="3.33537">
        <ele>145.8</ele>
        <time>2011-03-06T08:49:48Z</time>
      </trkpt>
      <trkpt lat="43.6482" lon="3.33549">
        <ele>145.7</ele>
        <time>2011-03-06T08:49:50Z</time>
      </trkpt>
      <trkpt lat="43.6482" lon="3.33556">
        <ele>145.7</ele>
        <time>2011-03-06T08:49:51Z</time>
      </trkpt>
      <trkpt lat="43.6482" lon="3.33562">
        <ele>145.6</ele>
        <time>2011-03-06T08:49:52Z</time>
      </trkpt>
      <trkpt lat="43.64819" lon="3.33568">
        <ele>145.6</ele>
        <time>2011-03-06T08:49:53Z</time>
      </trkpt>
      <trkpt lat="43.64819" lon="3.33581">
        <ele>145.5</ele>
        <time>2011-03-06T08:49:55Z</time>
      </trkpt>
      <trkpt lat="43.64818" lon="3.33593">
        <ele>145.7</ele>
        <time>2011-03-06T08:49:57Z</time>
      </trkpt>
      <trkpt lat="43.64817" lon="3.33605">
        <ele>145.9</ele>
        <time>2011-03-06T08:49:59Z</time>
      </trkpt>
      <trkpt lat="43.64817" lon="3.33611">
        <ele>146.1</ele>
        <time>2011-03-06T08:50:00Z</time>
      </trkpt>
      <trkpt lat="43.64817" lon="3.33618">
        <ele>146.2</ele>
        <time>2011-03-06T08:50:01Z</time>
      </trkpt>
      <trkpt lat="43.64816" lon="3.3363">
        <ele>146.4</ele>
        <time>2011-03-06T08:50:03Z</time>
      </trkpt>
      <trkpt lat="43.64816" lon="3.33636">
        <ele>146.5</ele>
        <time>2011-03-06T08:50:04Z</time>
      </trkpt>
      <trkpt lat="43.64816" lon="3.33643">
        <ele>146.7</ele>
        <time>2011-03-06T08:50:05Z</time>
      </trkpt>
      <trkpt lat="43.64815" lon="3.33649">
        <ele>146.8</ele>
        <time>2011-03-06T08:50:06Z</time>
      </trkpt>
      <trkpt lat="43.64815" lon="3.33655">
        <ele>146.9</ele>
        <time>2011-03-06T08:50:07Z</time>
      </trkpt>
      <trkpt lat="43.64814" lon="3.33662">
        <ele>147.1</ele>
        <time>2011-03-06T08:50:08Z</time>
      </trkpt>
      <trkpt lat="43.64814" lon="3.33668">
        <ele>147.2</ele>
        <time>2011-03-06T08:50:09Z</time>
      </trkpt>
      <trkpt lat="43.64813" lon="3.33674">
        <ele>147.6</ele>
        <time>2011-03-06T08:50:10Z</time>
      </trkpt>
      <trkpt lat="43.64812" lon="3.33681">
        <ele>148</ele>
        <time>2011-03-06T08:50:11Z</time>
      </trkpt>
      <trkpt lat="43.64812" lon="3.33687">
        <ele>148.3</ele>
        <time>2011-03-06T08:50:12Z</time>
      </trkpt>
      <trkpt lat="43.64811" lon="3.33694">
        <ele>148.7</ele>
        <time>2011-03-06T08:50:13Z</time>
      </trkpt>
      <trkpt lat="43.6481" lon="3.337">
        <ele>149</ele>
        <time>2011-03-06T08:50:14Z</time>
      </trkpt>
      <trkpt lat="43.6481" lon="3.33706">
        <ele>149.4</ele>
        <time>2011-03-06T08:50:15Z</time>
      </trkpt>
      <trkpt lat="43.64808" lon="3.33713">
        <ele>149.8</ele>
        <time>2011-03-06T08:50:16Z</time>
      </trkpt>
      <trkpt lat="43.64807" lon="3.33719">
        <ele>150.1</ele>
        <time>2011-03-06T08:50:17Z</time>
      </trkpt>
      <trkpt lat="43.64806" lon="3.33725">
        <ele>150.4</ele>
        <time>2011-03-06T08:50:18Z</time>
      </trkpt>
      <trkpt lat="43.64805" lon="3.33731">
        <ele>150.8</ele>
        <time>2011-03-06T08:50:19Z</time>
      </trkpt>
      <trkpt lat="43.64802" lon="3.33743">
        <ele>151.4</ele>
        <time>2011-03-06T08:50:21Z</time>
      </trkpt>
      <trkpt lat="43.648" lon="3.33754">
        <ele>152</ele>
        <time>2011-03-06T08:50:23Z</time>
      </trkpt>
      <trkpt lat="43.64797" lon="3.33766">
        <ele>152.4</ele>
        <time>2011-03-06T08:50:25Z</time>
      </trkpt>
      <trkpt lat="43.64795" lon="3.33777">
        <ele>152.9</ele>
        <time>2011-03-06T08:50:27Z</time>
      </trkpt>
      <trkpt lat="43.64793" lon="3.33783">
        <ele>153.2</ele>
        <time>2011-03-06T08:50:28Z</time>
      </trkpt>
      <trkpt lat="43.64789" lon="3.338">
        <ele>153.9</ele>
        <time>2011-03-06T08:50:31Z</time>
      </trkpt>
      <trkpt lat="43.64786" lon="3.33812">
        <ele>154.4</ele>
        <time>2011-03-06T08:50:33Z</time>
      </trkpt>
      <trkpt lat="43.64783" lon="3.33823">
        <ele>154.8</ele>
        <time>2011-03-06T08:50:35Z</time>
      </trkpt>
      <trkpt lat="43.64781" lon="3.33834">
        <ele>155.3</ele>
        <time>2011-03-06T08:50:37Z</time>
      </trkpt>
      <trkpt lat="43.64778" lon="3.33845">
        <ele>155.5</ele>
        <time>2011-03-06T08:50:39Z</time>
      </trkpt>
      <trkpt lat="43.64775" lon="3.33857">
        <ele>155.7</ele>
        <time>2011-03-06T08:50:41Z</time>
      </trkpt>
      <trkpt lat="43.64772" lon="3.33868">
        <ele>155.9</ele>
        <time>2011-03-06T08:50:43Z</time>
      </trkpt>
      <trkpt lat="43.64769" lon="3.33879">
        <ele>156</ele>
        <time>2011-03-06T08:50:45Z</time>
      </trkpt>
      <trkpt lat="43.64766" lon="3.3389">
        <ele>156.1</ele>
        <time>2011-03-06T08:50:47Z</time>
      </trkpt>
      <trkpt lat="43.64762" lon="3.33902">
        <ele>156.2</ele>
        <time>2011-03-06T08:50:49Z</time>
      </trkpt>
      <trkpt lat="43.64759" lon="3.33913">
        <ele>156.2</ele>
        <time>2011-03-06T08:50:51Z</time>
      </trkpt>
      <trkpt lat="43.64755" lon="3.33924">
        <ele>156.2</ele>
        <time>2011-03-06T08:50:53Z</time>
      </trkpt>
      <trkpt lat="43.64752" lon="3.33935">
        <ele>156.3</ele>
        <time>2011-03-06T08:50:55Z</time>
      </trkpt>
      <trkpt lat="43.64748" lon="3.33947">
        <ele>156.6</ele>
        <time>2011-03-06T08:50:57Z</time>
      </trkpt>
      <trkpt lat="43.64746" lon="3.33952">
        <ele>156.8</ele>
        <time>2011-03-06T08:50:58Z</time>
      </trkpt>
      <trkpt lat="43.64743" lon="3.33964">
        <ele>157.2</ele>
        <time>2011-03-06T08:51:00Z</time>
      </trkpt>
      <trkpt lat="43.64742" lon="3.3397">
        <ele>157.5</ele>
        <time>2011-03-06T08:51:01Z</time>
      </trkpt>
      <trkpt lat="43.6474" lon="3.33976">
        <ele>157.7</ele>
        <time>2011-03-06T08:51:02Z</time>
      </trkpt>
      <trkpt lat="43.64739" lon="3.33982">
        <ele>157.9</ele>
        <time>2011-03-06T08:51:03Z</time>
      </trkpt>
      <trkpt lat="43.64736" lon="3.33993">
        <ele>158.3</ele>
        <time>2011-03-06T08:51:05Z</time>
      </trkpt>
      <trkpt lat="43.64732" lon="3.34005">
        <ele>158.8</ele>
        <time>2011-03-06T08:51:07Z</time>
      </trkpt>
      <trkpt lat="43.64731" lon="3.34011">
        <ele>159.2</ele>
        <time>2011-03-06T08:51:08Z</time>
      </trkpt>
      <trkpt lat="43.64729" lon="3.34017">
        <ele>159.5</ele>
        <time>2011-03-06T08:51:09Z</time>
      </trkpt>
      <trkpt lat="43.64728" lon="3.34023">
        <ele>159.8</ele>
        <time>2011-03-06T08:51:10Z</time>
      </trkpt>
      <trkpt lat="43.64726" lon="3.3403">
        <ele>160</ele>
        <time>2011-03-06T08:51:11Z</time>
      </trkpt>
      <trkpt lat="43.64725" lon="3.34036">
        <ele>160.3</ele>
        <time>2011-03-06T08:51:12Z</time>
      </trkpt>
      <trkpt lat="43.64724" lon="3.34043">
        <ele>160.5</ele>
        <time>2011-03-06T08:51:13Z</time>
      </trkpt>
      <trkpt lat="43.64723" lon="3.34049">
        <ele>160.8</ele>
        <time>2011-03-06T08:51:14Z</time>
      </trkpt>
      <trkpt lat="43.64722" lon="3.34055">
        <ele>161</ele>
        <time>2011-03-06T08:51:15Z</time>
      </trkpt>
      <trkpt lat="43.64721" lon="3.34062">
        <ele>161.2</ele>
        <time>2011-03-06T08:51:16Z</time>
      </trkpt>
      <trkpt lat="43.6472" lon="3.34068">
        <ele>161.5</ele>
        <time>2011-03-06T08:51:17Z</time>
      </trkpt>
      <trkpt lat="43.64719" lon="3.34075">
        <ele>161.7</ele>
        <time>2011-03-06T08:51:18Z</time>
      </trkpt>
      <trkpt lat="43.64719" lon="3.34081">
        <ele>161.8</ele>
        <time>2011-03-06T08:51:19Z</time>
      </trkpt>
      <trkpt lat="43.64718" lon="3.34087">
        <ele>161.9</ele>
        <time>2011-03-06T08:51:20Z</time>
      </trkpt>
      <trkpt lat="43.64717" lon="3.34094">
        <ele>161.8</ele>
        <time>2011-03-06T08:51:21Z</time>
      </trkpt>
      <trkpt lat="43.64717" lon="3.341">
        <ele>161.7</ele>
        <time>2011-03-06T08:51:22Z</time>
      </trkpt>
      <trkpt lat="43.64716" lon="3.34107">
        <ele>161.6</ele>
        <time>2011-03-06T08:51:23Z</time>
      </trkpt>
      <trkpt lat="43.64715" lon="3.34113">
        <ele>161.5</ele>
        <time>2011-03-06T08:51:24Z</time>
      </trkpt>
      <trkpt lat="43.64715" lon="3.3412">
        <ele>161.4</ele>
        <time>2011-03-06T08:51:25Z</time>
      </trkpt>
      <trkpt lat="43.64714" lon="3.34126">
        <ele>161.3</ele>
        <time>2011-03-06T08:51:26Z</time>
      </trkpt>
      <trkpt lat="43.64714" lon="3.34132">
        <ele>161.2</ele>
        <time>2011-03-06T08:51:27Z</time>
      </trkpt>
      <trkpt lat="43.64713" lon="3.34139">
        <ele>161</ele>
        <time>2011-03-06T08:51:28Z</time>
      </trkpt>
      <trkpt lat="43.64713" lon="3.34145">
        <ele>160.9</ele>
        <time>2011-03-06T08:51:29Z</time>
      </trkpt>
      <trkpt lat="43.64713" lon="3.34152">
        <ele>160.8</ele>
        <time>2011-03-06T08:51:30Z</time>
      </trkpt>
      <trkpt lat="43.64712" lon="3.34158">
        <ele>160.6</ele>
        <time>2011-03-06T08:51:31Z</time>
      </trkpt>
      <trkpt lat="43.64711" lon="3.34165">
        <ele>160.5</ele>
        <time>2011-03-06T08:51:32Z</time>
      </trkpt>
      <trkpt lat="43.64711" lon="3.34172">
        <ele>160.3</ele>
        <time>2011-03-06T08:51:33Z</time>
      </trkpt>
      <trkpt lat="43.64711" lon="3.34179">
        <ele>160.1</ele>
        <time>2011-03-06T08:51:34Z</time>
      </trkpt>
      <trkpt lat="43.6471" lon="3.34185">
        <ele>159.9</ele>
        <time>2011-03-06T08:51:35Z</time>
      </trkpt>
      <trkpt lat="43.6471" lon="3.34192">
        <ele>159.7</ele>
        <time>2011-03-06T08:51:36Z</time>
      </trkpt>
      <trkpt lat="43.64709" lon="3.34198">
        <ele>159.5</ele>
        <time>2011-03-06T08:51:37Z</time>
      </trkpt>
      <trkpt lat="43.64709" lon="3.34206">
        <ele>159.3</ele>
        <time>2011-03-06T08:51:38Z</time>
      </trkpt>
      <trkpt lat="43.64709" lon="3.34213">
        <ele>159.1</ele>
        <time>2011-03-06T08:51:39Z</time>
      </trkpt>
      <trkpt lat="43.64709" lon="3.3422">
        <ele>158.9</ele>
        <time>2011-03-06T08:51:40Z</time>
      </trkpt>
      <trkpt lat="43.64709" lon="3.34227">
        <ele>158.7</ele>
        <time>2011-03-06T08:51:41Z</time>
      </trkpt>
      <trkpt lat="43.64709" lon="3.34234">
        <ele>158.5</ele>
        <time>2011-03-06T08:51:42Z</time>
      </trkpt>
      <trkpt lat="43.6471" lon="3.34242">
        <ele>158.2</ele>
        <time>2011-03-06T08:51:43Z</time>
      </trkpt>
      <trkpt lat="43.6471" lon="3.3425">
        <ele>158</ele>
        <time>2011-03-06T08:51:44Z</time>
      </trkpt>
      <trkpt lat="43.64711" lon="3.34258">
        <ele>157.8</ele>
        <time>2011-03-06T08:51:45Z</time>
      </trkpt>
      <trkpt lat="43.64711" lon="3.34266">
        <ele>157.5</ele>
        <time>2011-03-06T08:51:46Z</time>
      </trkpt>
      <trkpt lat="43.64712" lon="3.34275">
        <ele>157.2</ele>
        <time>2011-03-06T08:51:47Z</time>
      </trkpt>
      <trkpt lat="43.64713" lon="3.34284">
        <ele>157</ele>
        <time>2011-03-06T08:51:48Z</time>
      </trkpt>
      <trkpt lat="43.64714" lon="3.34294">
        <ele>156.7</ele>
        <time>2011-03-06T08:51:49Z</time>
      </trkpt>
      <trkpt lat="43.64715" lon="3.34303">
        <ele>156.4</ele>
        <time>2011-03-06T08:51:50Z</time>
      </trkpt>
      <trkpt lat="43.64716" lon="3.34313">
        <ele>156</ele>
        <time>2011-03-06T08:51:51Z</time>
      </trkpt>
      <trkpt lat="43.64717" lon="3.34323">
        <ele>155.7</ele>
        <time>2011-03-06T08:51:52Z</time>
      </trkpt>
      <trkpt lat="43.64718" lon="3.34333">
        <ele>155.4</ele>
        <time>2011-03-06T08:51:53Z</time>
      </trkpt>
      <trkpt lat="43.64719" lon="3.34343">
        <ele>155.1</ele>
        <time>2011-03-06T08:51:54Z</time>
      </trkpt>
      <trkpt lat="43.6472" lon="3.34353">
        <ele>154.7</ele>
        <time>2011-03-06T08:51:55Z</time>
      </trkpt>
      <trkpt lat="43.6472" lon="3.34363">
        <ele>154.4</ele>
        <time>2011-03-06T08:51:56Z</time>
      </trkpt>
      <trkpt lat="43.64721" lon="3.34374">
        <ele>154</ele>
        <time>2011-03-06T08:51:57Z</time>
      </trkpt>
      <trkpt lat="43.64721" lon="3.34384">
        <ele>153.7</ele>
        <time>2011-03-06T08:51:58Z</time>
      </trkpt>
      <trkpt lat="43.64721" lon="3.34394">
        <ele>153.4</ele>
        <time>2011-03-06T08:51:59Z</time>
      </trkpt>
      <trkpt lat="43.64721" lon="3.34405">
        <ele>153</ele>
        <time>2011-03-06T08:52:00Z</time>
      </trkpt>
      <trkpt lat="43.64721" lon="3.34415">
        <ele>152.7</ele>
        <time>2011-03-06T08:52:01Z</time>
      </trkpt>
      <trkpt lat="43.6472" lon="3.34426">
        <ele>152.5</ele>
        <time>2011-03-06T08:52:02Z</time>
      </trkpt>
      <trkpt lat="43.64719" lon="3.34437">
        <ele>152.4</ele>
        <time>2011-03-06T08:52:03Z</time>
      </trkpt>
      <trkpt lat="43.64718" lon="3.34447">
        <ele>152.3</ele>
        <time>2011-03-06T08:52:04Z</time>
      </trkpt>
      <trkpt lat="43.64717" lon="3.34457">
        <ele>152.1</ele>
        <time>2011-03-06T08:52:05Z</time>
      </trkpt>
      <trkpt lat="43.64717" lon="3.34467">
        <ele>152</ele>
        <time>2011-03-06T08:52:06Z</time>
      </trkpt>
      <trkpt lat="43.64716" lon="3.34476">
        <ele>151.9</ele>
        <time>2011-03-06T08:52:07Z</time>
      </trkpt>
      <trkpt lat="43.64715" lon="3.34485">
        <ele>151.8</ele>
        <time>2011-03-06T08:52:08Z</time>
      </trkpt>
      <trkpt lat="43.64715" lon="3.34494">
        <ele>151.7</ele>
        <time>2011-03-06T08:52:09Z</time>
      </trkpt>
      <trkpt lat="43.64714" lon="3.34502">
        <ele>151.5</ele>
        <time>2011-03-06T08:52:10Z</time>
      </trkpt>
      <trkpt lat="43.64714" lon="3.3451">
        <ele>151.3</ele>
        <time>2011-03-06T08:52:11Z</time>
      </trkpt>
      <trkpt lat="43.64713" lon="3.34518">
        <ele>151.1</ele>
        <time>2011-03-06T08:52:12Z</time>
      </trkpt>
      <trkpt lat="43.64713" lon="3.34527">
        <ele>150.8</ele>
        <time>2011-03-06T08:52:13Z</time>
      </trkpt>
      <trkpt lat="43.64712" lon="3.34535">
        <ele>150.6</ele>
        <time>2011-03-06T08:52:14Z</time>
      </trkpt>
      <trkpt lat="43.64712" lon="3.34544">
        <ele>150.4</ele>
        <time>2011-03-06T08:52:15Z</time>
      </trkpt>
      <trkpt lat="43.64711" lon="3.34553">
        <ele>150.2</ele>
        <time>2011-03-06T08:52:16Z</time>
      </trkpt>
      <trkpt lat="43.64711" lon="3.34562">
        <ele>150</ele>
        <time>2011-03-06T08:52:17Z</time>
      </trkpt>
      <trkpt lat="43.6471" lon="3.3457">
        <ele>149.8</ele>
        <time>2011-03-06T08:52:18Z</time>
      </trkpt>
      <trkpt lat="43.6471" lon="3.34578">
        <ele>149.6</ele>
        <time>2011-03-06T08:52:19Z</time>
      </trkpt>
      <trkpt lat="43.64709" lon="3.34586">
        <ele>149.4</ele>
        <time>2011-03-06T08:52:20Z</time>
      </trkpt>
      <trkpt lat="43.64708" lon="3.34594">
        <ele>149.2</ele>
        <time>2011-03-06T08:52:21Z</time>
      </trkpt>
      <trkpt lat="43.64708" lon="3.34602">
        <ele>149.1</ele>
        <time>2011-03-06T08:52:22Z</time>
      </trkpt>
      <trkpt lat="43.64708" lon="3.3461">
        <ele>148.9</ele>
        <time>2011-03-06T08:52:23Z</time>
      </trkpt>
      <trkpt lat="43.64707" lon="3.34617">
        <ele>148.7</ele>
        <time>2011-03-06T08:52:24Z</time>
      </trkpt>
      <trkpt lat="43.64707" lon="3.34624">
        <ele>148.6</ele>
        <time>2011-03-06T08:52:25Z</time>
      </trkpt>
      <trkpt lat="43.64707" lon="3.34631">
        <ele>148.4</ele>
        <time>2011-03-06T08:52:26Z</time>
      </trkpt>
      <trkpt lat="43.64707" lon="3.34638">
        <ele>148.2</ele>
        <time>2011-03-06T08:52:27Z</time>
      </trkpt>
      <trkpt lat="43.64707" lon="3.34645">
        <ele>148.1</ele>
        <time>2011-03-06T08:52:28Z</time>
      </trkpt>
      <trkpt lat="43.64707" lon="3.34652">
        <ele>147.9</ele>
        <time>2011-03-06T08:52:29Z</time>
      </trkpt>
      <trkpt lat="43.64706" lon="3.34659">
        <ele>147.8</ele>
        <time>2011-03-06T08:52:30Z</time>
      </trkpt>
      <trkpt lat="43.64706" lon="3.34665">
        <ele>147.6</ele>
        <time>2011-03-06T08:52:31Z</time>
      </trkpt>
      <trkpt lat="43.64705" lon="3.34672">
        <ele>147.5</ele>
        <time>2011-03-06T08:52:32Z</time>
      </trkpt>
      <trkpt lat="43.64704" lon="3.34684">
        <ele>147.3</ele>
        <time>2011-03-06T08:52:34Z</time>
      </trkpt>
      <trkpt lat="43.64703" lon="3.34696">
        <ele>147.1</ele>
        <time>2011-03-06T08:52:36Z</time>
      </trkpt>
      <trkpt lat="43.64703" lon="3.34708">
        <ele>146.9</ele>
        <time>2011-03-06T08:52:38Z</time>
      </trkpt>
      <trkpt lat="43.64702" lon="3.34719">
        <ele>146.7</ele>
        <time>2011-03-06T08:52:40Z</time>
      </trkpt>
      <trkpt lat="43.64701" lon="3.3473">
        <ele>146.6</ele>
        <time>2011-03-06T08:52:42Z</time>
      </trkpt>
      <trkpt lat="43.647" lon="3.34742">
        <ele>146.4</ele>
        <time>2011-03-06T08:52:44Z</time>
      </trkpt>
      <trkpt lat="43.64698" lon="3.34754">
        <ele>146.1</ele>
        <time>2011-03-06T08:52:46Z</time>
      </trkpt>
      <trkpt lat="43.64698" lon="3.3476">
        <ele>146</ele>
        <time>2011-03-06T08:52:47Z</time>
      </trkpt>
      <trkpt lat="43.64697" lon="3.34766">
        <ele>145.8</ele>
        <time>2011-03-06T08:52:48Z</time>
      </trkpt>
      <trkpt lat="43.64696" lon="3.34773">
        <ele>145.6</ele>
        <time>2011-03-06T08:52:49Z</time>
      </trkpt>
      <trkpt lat="43.64696" lon="3.34779">
        <ele>145.5</ele>
        <time>2011-03-06T08:52:50Z</time>
      </trkpt>
      <trkpt lat="43.64695" lon="3.34786">
        <ele>145.3</ele>
        <time>2011-03-06T08:52:51Z</time>
      </trkpt>
      <trkpt lat="43.64693" lon="3.34792">
        <ele>145.2</ele>
        <time>2011-03-06T08:52:52Z</time>
      </trkpt>
      <trkpt lat="43.64692" lon="3.34799">
        <ele>145.1</ele>
        <time>2011-03-06T08:52:53Z</time>
      </trkpt>
      <trkpt lat="43.6469" lon="3.34805">
        <ele>144.9</ele>
        <time>2011-03-06T08:52:54Z</time>
      </trkpt>
      <trkpt lat="43.64688" lon="3.34811">
        <ele>144.8</ele>
        <time>2011-03-06T08:52:55Z</time>
      </trkpt>
      <trkpt lat="43.64687" lon="3.34818">
        <ele>144.7</ele>
        <time>2011-03-06T08:52:56Z</time>
      </trkpt>
      <trkpt lat="43.64686" lon="3.34825">
        <ele>144.5</ele>
        <time>2011-03-06T08:52:57Z</time>
      </trkpt>
      <trkpt lat="43.64685" lon="3.34831">
        <ele>144.4</ele>
        <time>2011-03-06T08:52:58Z</time>
      </trkpt>
      <trkpt lat="43.64684" lon="3.34838">
        <ele>144.2</ele>
        <time>2011-03-06T08:52:59Z</time>
      </trkpt>
      <trkpt lat="43.64682" lon="3.34844">
        <ele>144.1</ele>
        <time>2011-03-06T08:53:00Z</time>
      </trkpt>
      <trkpt lat="43.64681" lon="3.34851">
        <ele>143.9</ele>
        <time>2011-03-06T08:53:01Z</time>
      </trkpt>
      <trkpt lat="43.6468" lon="3.34857">
        <ele>143.7</ele>
        <time>2011-03-06T08:53:02Z</time>
      </trkpt>
      <trkpt lat="43.64678" lon="3.34864">
        <ele>143.5</ele>
        <time>2011-03-06T08:53:03Z</time>
      </trkpt>
      <trkpt lat="43.64677" lon="3.3487">
        <ele>143.3</ele>
        <time>2011-03-06T08:53:04Z</time>
      </trkpt>
      <trkpt lat="43.64675" lon="3.34876">
        <ele>143.1</ele>
        <time>2011-03-06T08:53:05Z</time>
      </trkpt>
      <trkpt lat="43.64674" lon="3.34883">
        <ele>143</ele>
        <time>2011-03-06T08:53:06Z</time>
      </trkpt>
      <trkpt lat="43.64672" lon="3.34889">
        <ele>142.8</ele>
        <time>2011-03-06T08:53:07Z</time>
      </trkpt>
      <trkpt lat="43.64671" lon="3.34895">
        <ele>142.6</ele>
        <time>2011-03-06T08:53:08Z</time>
      </trkpt>
      <trkpt lat="43.64669" lon="3.34901">
        <ele>142.5</ele>
        <time>2011-03-06T08:53:09Z</time>
      </trkpt>
      <trkpt lat="43.64668" lon="3.34907">
        <ele>142.3</ele>
        <time>2011-03-06T08:53:10Z</time>
      </trkpt>
      <trkpt lat="43.64666" lon="3.34913">
        <ele>142.2</ele>
        <time>2011-03-06T08:53:11Z</time>
      </trkpt>
      <trkpt lat="43.64665" lon="3.3492">
        <ele>142.1</ele>
        <time>2011-03-06T08:53:12Z</time>
      </trkpt>
      <trkpt lat="43.64663" lon="3.34926">
        <ele>142.1</ele>
        <time>2011-03-06T08:53:13Z</time>
      </trkpt>
      <trkpt lat="43.64661" lon="3.34932">
        <ele>142.1</ele>
        <time>2011-03-06T08:53:14Z</time>
      </trkpt>
      <trkpt lat="43.6466" lon="3.34939">
        <ele>142.1</ele>
        <time>2011-03-06T08:53:15Z</time>
      </trkpt>
      <trkpt lat="43.64657" lon="3.34945">
        <ele>142.1</ele>
        <time>2011-03-06T08:53:16Z</time>
      </trkpt>
      <trkpt lat="43.64655" lon="3.34951">
        <ele>142.1</ele>
        <time>2011-03-06T08:53:17Z</time>
      </trkpt>
      <trkpt lat="43.64653" lon="3.34957">
        <ele>142.1</ele>
        <time>2011-03-06T08:53:18Z</time>
      </trkpt>
      <trkpt lat="43.64651" lon="3.34962">
        <ele>142.1</ele>
        <time>2011-03-06T08:53:19Z</time>
      </trkpt>
      <trkpt lat="43.64648" lon="3.34968">
        <ele>142.2</ele>
        <time>2011-03-06T08:53:20Z</time>
      </trkpt>
      <trkpt lat="43.64645" lon="3.34973">
        <ele>142.2</ele>
        <time>2011-03-06T08:53:21Z</time>
      </trkpt>
      <trkpt lat="43.64641" lon="3.34982">
        <ele>142.2</ele>
        <time>2011-03-06T08:53:23Z</time>
      </trkpt>
      <trkpt lat="43.64637" lon="3.34991">
        <ele>142.2</ele>
        <time>2011-03-06T08:53:25Z</time>
      </trkpt>
      <trkpt lat="43.64637" lon="3.35">
        <ele>141.8</ele>
        <time>2011-03-06T08:53:28Z</time>
      </trkpt>
      <trkpt lat="43.64643" lon="3.35004">
        <ele>141.6</ele>
        <time>2011-03-06T08:53:30Z</time>
      </trkpt>
      <trkpt lat="43.64647" lon="3.35005">
        <ele>141.4</ele>
        <time>2011-03-06T08:53:31Z</time>
      </trkpt>
      <trkpt lat="43.64658" lon="3.35013">
        <ele>140.9</ele>
        <time>2011-03-06T08:53:34Z</time>
      </trkpt>
      <trkpt lat="43.64664" lon="3.3502">
        <ele>140.9</ele>
        <time>2011-03-06T08:53:36Z</time>
      </trkpt>
      <trkpt lat="43.64669" lon="3.35029">
        <ele>141</ele>
        <time>2011-03-06T08:53:38Z</time>
      </trkpt>
      <trkpt lat="43.64673" lon="3.35037">
        <ele>141.2</ele>
        <time>2011-03-06T08:53:40Z</time>
      </trkpt>
      <trkpt lat="43.64674" lon="3.35047">
        <ele>141.5</ele>
        <time>2011-03-06T08:53:42Z</time>
      </trkpt>
      <trkpt lat="43.64674" lon="3.35057">
        <ele>141.9</ele>
        <time>2011-03-06T08:53:44Z</time>
      </trkpt>
      <trkpt lat="43.64675" lon="3.35068">
        <ele>142.2</ele>
        <time>2011-03-06T08:53:46Z</time>
      </trkpt>
      <trkpt lat="43.64676" lon="3.35079">
        <ele>142.5</ele>
        <time>2011-03-06T08:53:48Z</time>
      </trkpt>
      <trkpt lat="43.64678" lon="3.3509">
        <ele>142.7</ele>
        <time>2011-03-06T08:53:50Z</time>
      </trkpt>
      <trkpt lat="43.64679" lon="3.35101">
        <ele>142.8</ele>
        <time>2011-03-06T08:53:52Z</time>
      </trkpt>
      <trkpt lat="43.6468" lon="3.35107">
        <ele>142.8</ele>
        <time>2011-03-06T08:53:53Z</time>
      </trkpt>
      <trkpt lat="43.64681" lon="3.35113">
        <ele>142.8</ele>
        <time>2011-03-06T08:53:54Z</time>
      </trkpt>
      <trkpt lat="43.64682" lon="3.3512">
        <ele>142.9</ele>
        <time>2011-03-06T08:53:55Z</time>
      </trkpt>
      <trkpt lat="43.64682" lon="3.35127">
        <ele>143</ele>
        <time>2011-03-06T08:53:56Z</time>
      </trkpt>
      <trkpt lat="43.64681" lon="3.35133">
        <ele>143.1</ele>
        <time>2011-03-06T08:53:57Z</time>
      </trkpt>
      <trkpt lat="43.6468" lon="3.3514">
        <ele>143.2</ele>
        <time>2011-03-06T08:53:58Z</time>
      </trkpt>
      <trkpt lat="43.64679" lon="3.35147">
        <ele>143.3</ele>
        <time>2011-03-06T08:53:59Z</time>
      </trkpt>
      <trkpt lat="43.64678" lon="3.35153">
        <ele>143.4</ele>
        <time>2011-03-06T08:54:00Z</time>
      </trkpt>
      <trkpt lat="43.64677" lon="3.3516">
        <ele>143.5</ele>
        <time>2011-03-06T08:54:01Z</time>
      </trkpt>
      <trkpt lat="43.64676" lon="3.35166">
        <ele>143.6</ele>
        <time>2011-03-06T08:54:02Z</time>
      </trkpt>
      <trkpt lat="43.64676" lon="3.35173">
        <ele>143.8</ele>
        <time>2011-03-06T08:54:03Z</time>
      </trkpt>
      <trkpt lat="43.64675" lon="3.35179">
        <ele>143.9</ele>
        <time>2011-03-06T08:54:04Z</time>
      </trkpt>
      <trkpt lat="43.64674" lon="3.35185">
        <ele>144</ele>
        <time>2011-03-06T08:54:05Z</time>
      </trkpt>
      <trkpt lat="43.64673" lon="3.35191">
        <ele>144.1</ele>
        <time>2011-03-06T08:54:06Z</time>
      </trkpt>
      <trkpt lat="43.64672" lon="3.35204">
        <ele>144.3</ele>
        <time>2011-03-06T08:54:08Z</time>
      </trkpt>
      <trkpt lat="43.64671" lon="3.3521">
        <ele>144.4</ele>
        <time>2011-03-06T08:54:09Z</time>
      </trkpt>
      <trkpt lat="43.6467" lon="3.35222">
        <ele>144.5</ele>
        <time>2011-03-06T08:54:11Z</time>
      </trkpt>
      <trkpt lat="43.6467" lon="3.35234">
        <ele>144.7</ele>
        <time>2011-03-06T08:54:13Z</time>
      </trkpt>
      <trkpt lat="43.6467" lon="3.35241">
        <ele>144.8</ele>
        <time>2011-03-06T08:54:14Z</time>
      </trkpt>
      <trkpt lat="43.64669" lon="3.35253">
        <ele>144.9</ele>
        <time>2011-03-06T08:54:16Z</time>
      </trkpt>
      <trkpt lat="43.64669" lon="3.35265">
        <ele>144.7</ele>
        <time>2011-03-06T08:54:18Z</time>
      </trkpt>
      <trkpt lat="43.64669" lon="3.35278">
        <ele>144.6</ele>
        <time>2011-03-06T08:54:20Z</time>
      </trkpt>
      <trkpt lat="43.6467" lon="3.3529">
        <ele>144.5</ele>
        <time>2011-03-06T08:54:22Z</time>
      </trkpt>
      <trkpt lat="43.6467" lon="3.35302">
        <ele>144.3</ele>
        <time>2011-03-06T08:54:24Z</time>
      </trkpt>
      <trkpt lat="43.64671" lon="3.35314">
        <ele>144.2</ele>
        <time>2011-03-06T08:54:26Z</time>
      </trkpt>
      <trkpt lat="43.64671" lon="3.3532">
        <ele>144.1</ele>
        <time>2011-03-06T08:54:27Z</time>
      </trkpt>
      <trkpt lat="43.64672" lon="3.35332">
        <ele>144</ele>
        <time>2011-03-06T08:54:29Z</time>
      </trkpt>
      <trkpt lat="43.64673" lon="3.35344">
        <ele>144</ele>
        <time>2011-03-06T08:54:31Z</time>
      </trkpt>
      <trkpt lat="43.64674" lon="3.3535">
        <ele>144</ele>
        <time>2011-03-06T08:54:32Z</time>
      </trkpt>
      <trkpt lat="43.64675" lon="3.35363">
        <ele>144</ele>
        <time>2011-03-06T08:54:34Z</time>
      </trkpt>
      <trkpt lat="43.64675" lon="3.35369">
        <ele>144</ele>
        <time>2011-03-06T08:54:35Z</time>
      </trkpt>
      <trkpt lat="43.64676" lon="3.35375">
        <ele>143.9</ele>
        <time>2011-03-06T08:54:36Z</time>
      </trkpt>
      <trkpt lat="43.64676" lon="3.35382">
        <ele>143.9</ele>
        <time>2011-03-06T08:54:37Z</time>
      </trkpt>
      <trkpt lat="43.64677" lon="3.35388">
        <ele>143.9</ele>
        <time>2011-03-06T08:54:38Z</time>
      </trkpt>
      <trkpt lat="43.64677" lon="3.35394">
        <ele>143.9</ele>
        <time>2011-03-06T08:54:39Z</time>
      </trkpt>
      <trkpt lat="43.64677" lon="3.35401">
        <ele>143.9</ele>
        <time>2011-03-06T08:54:40Z</time>
      </trkpt>
      <trkpt lat="43.64677" lon="3.35407">
        <ele>143.9</ele>
        <time>2011-03-06T08:54:41Z</time>
      </trkpt>
      <trkpt lat="43.64678" lon="3.35413">
        <ele>143.9</ele>
        <time>2011-03-06T08:54:42Z</time>
      </trkpt>
      <trkpt lat="43.64678" lon="3.3542">
        <ele>143.9</ele>
        <time>2011-03-06T08:54:43Z</time>
      </trkpt>
      <trkpt lat="43.64678" lon="3.35426">
        <ele>144</ele>
        <time>2011-03-06T08:54:44Z</time>
      </trkpt>
      <trkpt lat="43.64678" lon="3.35433">
        <ele>144</ele>
        <time>2011-03-06T08:54:45Z</time>
      </trkpt>
      <trkpt lat="43.64678" lon="3.35439">
        <ele>144.1</ele>
        <time>2011-03-06T08:54:46Z</time>
      </trkpt>
      <trkpt lat="43.64677" lon="3.35451">
        <ele>144.2</ele>
        <time>2011-03-06T08:54:48Z</time>
      </trkpt>
      <trkpt lat="43.64677" lon="3.35458">
        <ele>144.3</ele>
        <time>2011-03-06T08:54:49Z</time>
      </trkpt>
      <trkpt lat="43.64676" lon="3.35464">
        <ele>144.4</ele>
        <time>2011-03-06T08:54:50Z</time>
      </trkpt>
      <trkpt lat="43.64675" lon="3.35471">
        <ele>144.5</ele>
        <time>2011-03-06T08:54:51Z</time>
      </trkpt>
      <trkpt lat="43.64673" lon="3.35477">
        <ele>144.6</ele>
        <time>2011-03-06T08:54:52Z</time>
      </trkpt>
      <trkpt lat="43.64671" lon="3.35484">
        <ele>144.7</ele>
        <time>2011-03-06T08:54:53Z</time>
      </trkpt>
      <trkpt lat="43.64669" lon="3.3549">
        <ele>144.8</ele>
        <time>2011-03-06T08:54:54Z</time>
      </trkpt>
      <trkpt lat="43.64667" lon="3.35496">
        <ele>145</ele>
        <time>2011-03-06T08:54:55Z</time>
      </trkpt>
      <trkpt lat="43.64664" lon="3.35502">
        <ele>145.1</ele>
        <time>2011-03-06T08:54:56Z</time>
      </trkpt>
      <trkpt lat="43.64662" lon="3.35509">
        <ele>145.3</ele>
        <time>2011-03-06T08:54:57Z</time>
      </trkpt>
      <trkpt lat="43.64659" lon="3.35515">
        <ele>145.5</ele>
        <time>2011-03-06T08:54:58Z</time>
      </trkpt>
      <trkpt lat="43.64657" lon="3.35522">
        <ele>145.6</ele>
        <time>2011-03-06T08:54:59Z</time>
      </trkpt>
      <trkpt lat="43.64655" lon="3.35529">
        <ele>145.8</ele>
        <time>2011-03-06T08:55:00Z</time>
      </trkpt>
      <trkpt lat="43.64653" lon="3.35536">
        <ele>146</ele>
        <time>2011-03-06T08:55:01Z</time>
      </trkpt>
      <trkpt lat="43.64652" lon="3.35543">
        <ele>146.1</ele>
        <time>2011-03-06T08:55:02Z</time>
      </trkpt>
      <trkpt lat="43.64651" lon="3.3555">
        <ele>146.3</ele>
        <time>2011-03-06T08:55:03Z</time>
      </trkpt>
      <trkpt lat="43.64651" lon="3.35556">
        <ele>146.4</ele>
        <time>2011-03-06T08:55:04Z</time>
      </trkpt>
      <trkpt lat="43.6465" lon="3.35563">
        <ele>146.5</ele>
        <time>2011-03-06T08:55:05Z</time>
      </trkpt>
      <trkpt lat="43.6465" lon="3.35569">
        <ele>146.6</ele>
        <time>2011-03-06T08:55:06Z</time>
      </trkpt>
      <trkpt lat="43.64649" lon="3.35575">
        <ele>146.7</ele>
        <time>2011-03-06T08:55:07Z</time>
      </trkpt>
      <trkpt lat="43.64649" lon="3.35582">
        <ele>146.8</ele>
        <time>2011-03-06T08:55:08Z</time>
      </trkpt>
      <trkpt lat="43.64649" lon="3.35588">
        <ele>146.9</ele>
        <time>2011-03-06T08:55:09Z</time>
      </trkpt>
      <trkpt lat="43.64649" lon="3.35594">
        <ele>147</ele>
        <time>2011-03-06T08:55:10Z</time>
      </trkpt>
      <trkpt lat="43.64648" lon="3.35601">
        <ele>147</ele>
        <time>2011-03-06T08:55:11Z</time>
      </trkpt>
      <trkpt lat="43.64648" lon="3.35607">
        <ele>147.1</ele>
        <time>2011-03-06T08:55:12Z</time>
      </trkpt>
      <trkpt lat="43.64648" lon="3.35614">
        <ele>147.2</ele>
        <time>2011-03-06T08:55:13Z</time>
      </trkpt>
      <trkpt lat="43.64648" lon="3.3562">
        <ele>147.2</ele>
        <time>2011-03-06T08:55:14Z</time>
      </trkpt>
      <trkpt lat="43.64648" lon="3.35627">
        <ele>147.3</ele>
        <time>2011-03-06T08:55:15Z</time>
      </trkpt>
      <trkpt lat="43.64648" lon="3.35634">
        <ele>147.3</ele>
        <time>2011-03-06T08:55:16Z</time>
      </trkpt>
      <trkpt lat="43.64649" lon="3.3564">
        <ele>147.4</ele>
        <time>2011-03-06T08:55:17Z</time>
      </trkpt>
      <trkpt lat="43.64649" lon="3.35647">
        <ele>147.5</ele>
        <time>2011-03-06T08:55:18Z</time>
      </trkpt>
      <trkpt lat="43.64649" lon="3.35653">
        <ele>147.5</ele>
        <time>2011-03-06T08:55:19Z</time>
      </trkpt>
      <trkpt lat="43.64649" lon="3.3566">
        <ele>147.6</ele>
        <time>2011-03-06T08:55:20Z</time>
      </trkpt>
      <trkpt lat="43.6465" lon="3.35667">
        <ele>147.6</ele>
        <time>2011-03-06T08:55:21Z</time>
      </trkpt>
      <trkpt lat="43.6465" lon="3.35674">
        <ele>147.6</ele>
        <time>2011-03-06T08:55:22Z</time>
      </trkpt>
      <trkpt lat="43.6465" lon="3.35681">
        <ele>147.6</ele>
        <time>2011-03-06T08:55:23Z</time>
      </trkpt>
      <trkpt lat="43.6465" lon="3.35688">
        <ele>147.5</ele>
        <time>2011-03-06T08:55:24Z</time>
      </trkpt>
      <trkpt lat="43.64651" lon="3.35695">
        <ele>147.5</ele>
        <time>2011-03-06T08:55:25Z</time>
      </trkpt>
      <trkpt lat="43.64651" lon="3.35702">
        <ele>147.5</ele>
        <time>2011-03-06T08:55:26Z</time>
      </trkpt>
      <trkpt lat="43.64651" lon="3.35708">
        <ele>147.5</ele>
        <time>2011-03-06T08:55:27Z</time>
      </trkpt>
      <trkpt lat="43.64651" lon="3.35715">
        <ele>147.5</ele>
        <time>2011-03-06T08:55:28Z</time>
      </trkpt>
      <trkpt lat="43.64651" lon="3.35722">
        <ele>147.4</ele>
        <time>2011-03-06T08:55:29Z</time>
      </trkpt>
      <trkpt lat="43.64651" lon="3.35728">
        <ele>147.4</ele>
        <time>2011-03-06T08:55:30Z</time>
      </trkpt>
      <trkpt lat="43.64651" lon="3.35735">
        <ele>147.4</ele>
        <time>2011-03-06T08:55:31Z</time>
      </trkpt>
      <trkpt lat="43.6465" lon="3.35747">
        <ele>147.4</ele>
        <time>2011-03-06T08:55:33Z</time>
      </trkpt>
      <trkpt lat="43.6465" lon="3.35753">
        <ele>147.4</ele>
        <time>2011-03-06T08:55:34Z</time>
      </trkpt>
      <trkpt lat="43.64649" lon="3.35766">
        <ele>147.4</ele>
        <time>2011-03-06T08:55:36Z</time>
      </trkpt>
      <trkpt lat="43.64649" lon="3.35772">
        <ele>147.4</ele>
        <time>2011-03-06T08:55:37Z</time>
      </trkpt>
      <trkpt lat="43.64648" lon="3.35778">
        <ele>147.4</ele>
        <time>2011-03-06T08:55:38Z</time>
      </trkpt>
      <trkpt lat="43.64648" lon="3.35784">
        <ele>147.5</ele>
        <time>2011-03-06T08:55:39Z</time>
      </trkpt>
      <trkpt lat="43.64647" lon="3.35791">
        <ele>147.5</ele>
        <time>2011-03-06T08:55:40Z</time>
      </trkpt>
      <trkpt lat="43.64645" lon="3.35797">
        <ele>147.5</ele>
        <time>2011-03-06T08:55:41Z</time>
      </trkpt>
      <trkpt lat="43.64644" lon="3.35803">
        <ele>147.5</ele>
        <time>2011-03-06T08:55:42Z</time>
      </trkpt>
      <trkpt lat="43.64643" lon="3.35809">
        <ele>147.6</ele>
        <time>2011-03-06T08:55:43Z</time>
      </trkpt>
      <trkpt lat="43.64641" lon="3.35815">
        <ele>147.6</ele>
        <time>2011-03-06T08:55:44Z</time>
      </trkpt>
      <trkpt lat="43.64639" lon="3.35821">
        <ele>147.7</ele>
        <time>2011-03-06T08:55:45Z</time>
      </trkpt>
      <trkpt lat="43.64637" lon="3.35827">
        <ele>147.7</ele>
        <time>2011-03-06T08:55:46Z</time>
      </trkpt>
      <trkpt lat="43.64636" lon="3.35833">
        <ele>147.7</ele>
        <time>2011-03-06T08:55:47Z</time>
      </trkpt>
      <trkpt lat="43.64632" lon="3.35844">
        <ele>147.5</ele>
        <time>2011-03-06T08:55:49Z</time>
      </trkpt>
      <trkpt lat="43.64631" lon="3.3585">
        <ele>147.3</ele>
        <time>2011-03-06T08:55:50Z</time>
      </trkpt>
      <trkpt lat="43.64629" lon="3.35856">
        <ele>147.1</ele>
        <time>2011-03-06T08:55:51Z</time>
      </trkpt>
      <trkpt lat="43.64627" lon="3.35862">
        <ele>147</ele>
        <time>2011-03-06T08:55:52Z</time>
      </trkpt>
      <trkpt lat="43.64625" lon="3.35867">
        <ele>146.8</ele>
        <time>2011-03-06T08:55:53Z</time>
      </trkpt>
      <trkpt lat="43.64624" lon="3.35873">
        <ele>146.6</ele>
        <time>2011-03-06T08:55:54Z</time>
      </trkpt>
      <trkpt lat="43.64622" lon="3.3588">
        <ele>146.3</ele>
        <time>2011-03-06T08:55:55Z</time>
      </trkpt>
      <trkpt lat="43.6462" lon="3.35888">
        <ele>146.1</ele>
        <time>2011-03-06T08:55:56Z</time>
      </trkpt>
      <trkpt lat="43.64617" lon="3.35896">
        <ele>145.8</ele>
        <time>2011-03-06T08:55:57Z</time>
      </trkpt>
      <trkpt lat="43.64615" lon="3.35905">
        <ele>145.5</ele>
        <time>2011-03-06T08:55:58Z</time>
      </trkpt>
      <trkpt lat="43.64613" lon="3.35914">
        <ele>145.1</ele>
        <time>2011-03-06T08:55:59Z</time>
      </trkpt>
      <trkpt lat="43.64611" lon="3.35924">
        <ele>144.7</ele>
        <time>2011-03-06T08:56:00Z</time>
      </trkpt>
      <trkpt lat="43.64609" lon="3.35935">
        <ele>144.3</ele>
        <time>2011-03-06T08:56:01Z</time>
      </trkpt>
      <trkpt lat="43.64606" lon="3.35946">
        <ele>143.9</ele>
        <time>2011-03-06T08:56:02Z</time>
      </trkpt>
      <trkpt lat="43.64602" lon="3.35957">
        <ele>143.5</ele>
        <time>2011-03-06T08:56:03Z</time>
      </trkpt>
      <trkpt lat="43.64599" lon="3.35967">
        <ele>143.2</ele>
        <time>2011-03-06T08:56:04Z</time>
      </trkpt>
      <trkpt lat="43.64595" lon="3.35974">
        <ele>142.9</ele>
        <time>2011-03-06T08:56:05Z</time>
      </trkpt>
      <trkpt lat="43.64589" lon="3.35978">
        <ele>142.8</ele>
        <time>2011-03-06T08:56:06Z</time>
      </trkpt>
      <trkpt lat="43.64584" lon="3.35979">
        <ele>142.7</ele>
        <time>2011-03-06T08:56:07Z</time>
      </trkpt>
      <trkpt lat="43.64578" lon="3.35979">
        <ele>143.2</ele>
        <time>2011-03-06T08:56:08Z</time>
      </trkpt>
      <trkpt lat="43.64574" lon="3.35977">
        <ele>143.6</ele>
        <time>2011-03-06T08:56:09Z</time>
      </trkpt>
      <trkpt lat="43.64566" lon="3.35971">
        <ele>144.4</ele>
        <time>2011-03-06T08:56:11Z</time>
      </trkpt>
      <trkpt lat="43.64559" lon="3.35965">
        <ele>145.2</ele>
        <time>2011-03-06T08:56:13Z</time>
      </trkpt>
      <trkpt lat="43.64552" lon="3.35961">
        <ele>145.9</ele>
        <time>2011-03-06T08:56:15Z</time>
      </trkpt>
      <trkpt lat="43.64545" lon="3.35956">
        <ele>146.6</ele>
        <time>2011-03-06T08:56:17Z</time>
      </trkpt>
      <trkpt lat="43.64538" lon="3.35952">
        <ele>147.3</ele>
        <time>2011-03-06T08:56:19Z</time>
      </trkpt>
      <trkpt lat="43.64531" lon="3.35947">
        <ele>147.9</ele>
        <time>2011-03-06T08:56:21Z</time>
      </trkpt>
      <trkpt lat="43.64524" lon="3.35943">
        <ele>148.5</ele>
        <time>2011-03-06T08:56:23Z</time>
      </trkpt>
      <trkpt lat="43.64517" lon="3.35939">
        <ele>149.2</ele>
        <time>2011-03-06T08:56:25Z</time>
      </trkpt>
      <trkpt lat="43.64511" lon="3.35934">
        <ele>149.8</ele>
        <time>2011-03-06T08:56:27Z</time>
      </trkpt>
      <trkpt lat="43.64504" lon="3.35929">
        <ele>150.4</ele>
        <time>2011-03-06T08:56:29Z</time>
      </trkpt>
      <trkpt lat="43.64499" lon="3.35921">
        <ele>150.9</ele>
        <time>2011-03-06T08:56:31Z</time>
      </trkpt>
      <trkpt lat="43.64493" lon="3.35913">
        <ele>151.3</ele>
        <time>2011-03-06T08:56:33Z</time>
      </trkpt>
      <trkpt lat="43.64489" lon="3.35905">
        <ele>151.8</ele>
        <time>2011-03-06T08:56:35Z</time>
      </trkpt>
      <trkpt lat="43.64486" lon="3.35901">
        <ele>152</ele>
        <time>2011-03-06T08:56:36Z</time>
      </trkpt>
      <trkpt lat="43.64479" lon="3.35888">
        <ele>152.5</ele>
        <time>2011-03-06T08:56:39Z</time>
      </trkpt>
      <trkpt lat="43.64474" lon="3.3588">
        <ele>152.8</ele>
        <time>2011-03-06T08:56:41Z</time>
      </trkpt>
      <trkpt lat="43.64469" lon="3.35871">
        <ele>153.1</ele>
        <time>2011-03-06T08:56:43Z</time>
      </trkpt>
      <trkpt lat="43.64465" lon="3.35863">
        <ele>153.3</ele>
        <time>2011-03-06T08:56:45Z</time>
      </trkpt>
      <trkpt lat="43.6446" lon="3.35855">
        <ele>153.5</ele>
        <time>2011-03-06T08:56:47Z</time>
      </trkpt>
      <trkpt lat="43.64455" lon="3.35847">
        <ele>153.6</ele>
        <time>2011-03-06T08:56:49Z</time>
      </trkpt>
      <trkpt lat="43.64449" lon="3.35842">
        <ele>153.6</ele>
        <time>2011-03-06T08:56:51Z</time>
      </trkpt>
      <trkpt lat="43.64442" lon="3.35838">
        <ele>153.5</ele>
        <time>2011-03-06T08:56:53Z</time>
      </trkpt>
      <trkpt lat="43.64434" lon="3.35836">
        <ele>153.4</ele>
        <time>2011-03-06T08:56:55Z</time>
      </trkpt>
      <trkpt lat="43.64427" lon="3.35838">
        <ele>153.2</ele>
        <time>2011-03-06T08:56:57Z</time>
      </trkpt>
      <trkpt lat="43.6442" lon="3.35841">
        <ele>153.1</ele>
        <time>2011-03-06T08:56:59Z</time>
      </trkpt>
      <trkpt lat="43.64414" lon="3.35844">
        <ele>153.1</ele>
        <time>2011-03-06T08:57:01Z</time>
      </trkpt>
      <trkpt lat="43.64407" lon="3.35843">
        <ele>153.3</ele>
        <time>2011-03-06T08:57:03Z</time>
      </trkpt>
      <trkpt lat="43.64401" lon="3.35842">
        <ele>153.4</ele>
        <time>2011-03-06T08:57:05Z</time>
      </trkpt>
      <trkpt lat="43.64394" lon="3.35842">
        <ele>153.6</ele>
        <time>2011-03-06T08:57:07Z</time>
      </trkpt>
      <trkpt lat="43.64387" lon="3.3584">
        <ele>153.8</ele>
        <time>2011-03-06T08:57:09Z</time>
      </trkpt>
      <trkpt lat="43.64381" lon="3.35839">
        <ele>153.9</ele>
        <time>2011-03-06T08:57:11Z</time>
      </trkpt>
      <trkpt lat="43.64375" lon="3.35835">
        <ele>154</ele>
        <time>2011-03-06T08:57:13Z</time>
      </trkpt>
      <trkpt lat="43.6437" lon="3.35831">
        <ele>154.2</ele>
        <time>2011-03-06T08:57:15Z</time>
      </trkpt>
      <trkpt lat="43.64365" lon="3.35826">
        <ele>154.3</ele>
        <time>2011-03-06T08:57:17Z</time>
      </trkpt>
      <trkpt lat="43.64361" lon="3.3582">
        <ele>154.5</ele>
        <time>2011-03-06T08:57:19Z</time>
      </trkpt>
      <trkpt lat="43.64357" lon="3.35814">
        <ele>154.7</ele>
        <time>2011-03-06T08:57:21Z</time>
      </trkpt>
      <trkpt lat="43.64353" lon="3.35807">
        <ele>154.8</ele>
        <time>2011-03-06T08:57:23Z</time>
      </trkpt>
      <trkpt lat="43.64349" lon="3.358">
        <ele>155</ele>
        <time>2011-03-06T08:57:25Z</time>
      </trkpt>
      <trkpt lat="43.64344" lon="3.35794">
        <ele>155.2</ele>
        <time>2011-03-06T08:57:27Z</time>
      </trkpt>
      <trkpt lat="43.64339" lon="3.3579">
        <ele>155.4</ele>
        <time>2011-03-06T08:57:29Z</time>
      </trkpt>
      <trkpt lat="43.64333" lon="3.35786">
        <ele>155.6</ele>
        <time>2011-03-06T08:57:31Z</time>
      </trkpt>
      <trkpt lat="43.64327" lon="3.35784">
        <ele>156.1</ele>
        <time>2011-03-06T08:57:33Z</time>
      </trkpt>
      <trkpt lat="43.64321" lon="3.35785">
        <ele>156.6</ele>
        <time>2011-03-06T08:57:35Z</time>
      </trkpt>
      <trkpt lat="43.64315" lon="3.35784">
        <ele>157</ele>
        <time>2011-03-06T08:57:37Z</time>
      </trkpt>
      <trkpt lat="43.64312" lon="3.35784">
        <ele>157.3</ele>
        <time>2011-03-06T08:57:38Z</time>
      </trkpt>
      <trkpt lat="43.64298" lon="3.3578">
        <ele>158.3</ele>
        <time>2011-03-06T08:57:43Z</time>
      </trkpt>
      <trkpt lat="43.64291" lon="3.35775">
        <ele>158.9</ele>
        <time>2011-03-06T08:57:46Z</time>
      </trkpt>
      <trkpt lat="43.64285" lon="3.35767">
        <ele>159.4</ele>
        <time>2011-03-06T08:57:49Z</time>
      </trkpt>
      <trkpt lat="43.64279" lon="3.35758">
        <ele>159.9</ele>
        <time>2011-03-06T08:57:52Z</time>
      </trkpt>
      <trkpt lat="43.64272" lon="3.35749">
        <ele>160.4</ele>
        <time>2011-03-06T08:57:55Z</time>
      </trkpt>
      <trkpt lat="43.64265" lon="3.35744">
        <ele>161.2</ele>
        <time>2011-03-06T08:57:58Z</time>
      </trkpt>
      <trkpt lat="43.64257" lon="3.35742">
        <ele>161.9</ele>
        <time>2011-03-06T08:58:01Z</time>
      </trkpt>
      <trkpt lat="43.6425" lon="3.35739">
        <ele>162.6</ele>
        <time>2011-03-06T08:58:04Z</time>
      </trkpt>
      <trkpt lat="43.64242" lon="3.35737">
        <ele>163.4</ele>
        <time>2011-03-06T08:58:07Z</time>
      </trkpt>
      <trkpt lat="43.64235" lon="3.35734">
        <ele>164.2</ele>
        <time>2011-03-06T08:58:10Z</time>
      </trkpt>
      <trkpt lat="43.64228" lon="3.35729">
        <ele>165</ele>
        <time>2011-03-06T08:58:13Z</time>
      </trkpt>
      <trkpt lat="43.64222" lon="3.35723">
        <ele>165.8</ele>
        <time>2011-03-06T08:58:16Z</time>
      </trkpt>
      <trkpt lat="43.64216" lon="3.35717">
        <ele>166.4</ele>
        <time>2011-03-06T08:58:19Z</time>
      </trkpt>
      <trkpt lat="43.6421" lon="3.35711">
        <ele>167</ele>
        <time>2011-03-06T08:58:22Z</time>
      </trkpt>
      <trkpt lat="43.64204" lon="3.35705">
        <ele>167.6</ele>
        <time>2011-03-06T08:58:25Z</time>
      </trkpt>
      <trkpt lat="43.64196" lon="3.35699">
        <ele>168.3</ele>
        <time>2011-03-06T08:58:29Z</time>
      </trkpt>
      <trkpt lat="43.64188" lon="3.35694">
        <ele>168.9</ele>
        <time>2011-03-06T08:58:33Z</time>
      </trkpt>
      <trkpt lat="43.64182" lon="3.3569">
        <ele>169.3</ele>
        <time>2011-03-06T08:58:36Z</time>
      </trkpt>
      <trkpt lat="43.64177" lon="3.35685">
        <ele>169.6</ele>
        <time>2011-03-06T08:58:39Z</time>
      </trkpt>
      <trkpt lat="43.64175" lon="3.35683">
        <ele>169.7</ele>
        <time>2011-03-06T08:58:40Z</time>
      </trkpt>
      <trkpt lat="43.64165" lon="3.35674">
        <ele>170.2</ele>
        <time>2011-03-06T08:58:45Z</time>
      </trkpt>
      <trkpt lat="43.6416" lon="3.35668">
        <ele>170.3</ele>
        <time>2011-03-06T08:58:48Z</time>
      </trkpt>
      <trkpt lat="43.64153" lon="3.3566">
        <ele>170.8</ele>
        <time>2011-03-06T08:58:52Z</time>
      </trkpt>
      <trkpt lat="43.64148" lon="3.35654">
        <ele>171.3</ele>
        <time>2011-03-06T08:58:55Z</time>
      </trkpt>
      <trkpt lat="43.64142" lon="3.35649">
        <ele>171.8</ele>
        <time>2011-03-06T08:58:58Z</time>
      </trkpt>
      <trkpt lat="43.64136" lon="3.35646">
        <ele>172.3</ele>
        <time>2011-03-06T08:59:01Z</time>
      </trkpt>
      <trkpt lat="43.64127" lon="3.35642">
        <ele>172.9</ele>
        <time>2011-03-06T08:59:05Z</time>
      </trkpt>
      <trkpt lat="43.6412" lon="3.35642">
        <ele>173.3</ele>
        <time>2011-03-06T08:59:09Z</time>
      </trkpt>
      <trkpt lat="43.64112" lon="3.35645">
        <ele>173.6</ele>
        <time>2011-03-06T08:59:13Z</time>
      </trkpt>
      <trkpt lat="43.64104" lon="3.35644">
        <ele>174.2</ele>
        <time>2011-03-06T08:59:17Z</time>
      </trkpt>
      <trkpt lat="43.64096" lon="3.35649">
        <ele>174.3</ele>
        <time>2011-03-06T08:59:22Z</time>
      </trkpt>
      <trkpt lat="43.64088" lon="3.35652">
        <ele>174.6</ele>
        <time>2011-03-06T08:59:26Z</time>
      </trkpt>
      <trkpt lat="43.64081" lon="3.35656">
        <ele>174.8</ele>
        <time>2011-03-06T08:59:29Z</time>
      </trkpt>
      <trkpt lat="43.64074" lon="3.35661">
        <ele>175.1</ele>
        <time>2011-03-06T08:59:32Z</time>
      </trkpt>
      <trkpt lat="43.64067" lon="3.35669">
        <ele>175.3</ele>
        <time>2011-03-06T08:59:35Z</time>
      </trkpt>
      <trkpt lat="43.64061" lon="3.35677">
        <ele>175.8</ele>
        <time>2011-03-06T08:59:38Z</time>
      </trkpt>
      <trkpt lat="43.64057" lon="3.35686">
        <ele>176.1</ele>
        <time>2011-03-06T08:59:41Z</time>
      </trkpt>
      <trkpt lat="43.64055" lon="3.35689">
        <ele>176.2</ele>
        <time>2011-03-06T08:59:42Z</time>
      </trkpt>
      <trkpt lat="43.64048" lon="3.35706">
        <ele>176.7</ele>
        <time>2011-03-06T08:59:47Z</time>
      </trkpt>
      <trkpt lat="43.64044" lon="3.35716">
        <ele>177</ele>
        <time>2011-03-06T08:59:50Z</time>
      </trkpt>
      <trkpt lat="43.6404" lon="3.35727">
        <ele>177.3</ele>
        <time>2011-03-06T08:59:53Z</time>
      </trkpt>
      <trkpt lat="43.64036" lon="3.35738">
        <ele>177.6</ele>
        <time>2011-03-06T08:59:56Z</time>
      </trkpt>
      <trkpt lat="43.64031" lon="3.35748">
        <ele>178.1</ele>
        <time>2011-03-06T08:59:59Z</time>
      </trkpt>
      <trkpt lat="43.64026" lon="3.35753">
        <ele>178.4</ele>
        <time>2011-03-06T09:00:01Z</time>
      </trkpt>
      <trkpt lat="43.64021" lon="3.35758">
        <ele>178.7</ele>
        <time>2011-03-06T09:00:03Z</time>
      </trkpt>
      <trkpt lat="43.64013" lon="3.35763">
        <ele>179.3</ele>
        <time>2011-03-06T09:00:06Z</time>
      </trkpt>
      <trkpt lat="43.64007" lon="3.35766">
        <ele>179.8</ele>
        <time>2011-03-06T09:00:08Z</time>
      </trkpt>
      <trkpt lat="43.64002" lon="3.35769">
        <ele>180.2</ele>
        <time>2011-03-06T09:00:10Z</time>
      </trkpt>
      <trkpt lat="43.63996" lon="3.35772">
        <ele>180.4</ele>
        <time>2011-03-06T09:00:12Z</time>
      </trkpt>
      <trkpt lat="43.6399" lon="3.35774">
        <ele>180.6</ele>
        <time>2011-03-06T09:00:14Z</time>
      </trkpt>
      <trkpt lat="43.63984" lon="3.35778">
        <ele>180.8</ele>
        <time>2011-03-06T09:00:16Z</time>
      </trkpt>
      <trkpt lat="43.63978" lon="3.35781">
        <ele>181</ele>
        <time>2011-03-06T09:00:18Z</time>
      </trkpt>
      <trkpt lat="43.63973" lon="3.35785">
        <ele>181.2</ele>
        <time>2011-03-06T09:00:20Z</time>
      </trkpt>
      <trkpt lat="43.63964" lon="3.35789">
        <ele>181.5</ele>
        <time>2011-03-06T09:00:23Z</time>
      </trkpt>
      <trkpt lat="43.63958" lon="3.3579">
        <ele>181.8</ele>
        <time>2011-03-06T09:00:25Z</time>
      </trkpt>
      <trkpt lat="43.63952" lon="3.3579">
        <ele>182.1</ele>
        <time>2011-03-06T09:00:27Z</time>
      </trkpt>
      <trkpt lat="43.63944" lon="3.3579">
        <ele>182.6</ele>
        <time>2011-03-06T09:00:30Z</time>
      </trkpt>
      <trkpt lat="43.63938" lon="3.3579">
        <ele>182.9</ele>
        <time>2011-03-06T09:00:32Z</time>
      </trkpt>
      <trkpt lat="43.63931" lon="3.3579">
        <ele>183.2</ele>
        <time>2011-03-06T09:00:34Z</time>
      </trkpt>
      <trkpt lat="43.63925" lon="3.3579">
        <ele>183.5</ele>
        <time>2011-03-06T09:00:36Z</time>
      </trkpt>
      <trkpt lat="43.63919" lon="3.3579">
        <ele>183.9</ele>
        <time>2011-03-06T09:00:38Z</time>
      </trkpt>
      <trkpt lat="43.63913" lon="3.35791">
        <ele>184.4</ele>
        <time>2011-03-06T09:00:40Z</time>
      </trkpt>
      <trkpt lat="43.63904" lon="3.35791">
        <ele>185.4</ele>
        <time>2011-03-06T09:00:43Z</time>
      </trkpt>
      <trkpt lat="43.63901" lon="3.35792">
        <ele>185.7</ele>
        <time>2011-03-06T09:00:44Z</time>
      </trkpt>
      <trkpt lat="43.63889" lon="3.35794">
        <ele>187</ele>
        <time>2011-03-06T09:00:48Z</time>
      </trkpt>
      <trkpt lat="43.63881" lon="3.35795">
        <ele>187.9</ele>
        <time>2011-03-06T09:00:51Z</time>
      </trkpt>
      <trkpt lat="43.63873" lon="3.35794">
        <ele>188.7</ele>
        <time>2011-03-06T09:00:54Z</time>
      </trkpt>
      <trkpt lat="43.63865" lon="3.35791">
        <ele>189.6</ele>
        <time>2011-03-06T09:00:57Z</time>
      </trkpt>
      <trkpt lat="43.63859" lon="3.35788">
        <ele>190.3</ele>
        <time>2011-03-06T09:01:00Z</time>
      </trkpt>
      <trkpt lat="43.63851" lon="3.35783">
        <ele>191.3</ele>
        <time>2011-03-06T09:01:04Z</time>
      </trkpt>
      <trkpt lat="43.63843" lon="3.3578">
        <ele>192.2</ele>
        <time>2011-03-06T09:01:08Z</time>
      </trkpt>
      <trkpt lat="43.63836" lon="3.35776">
        <ele>193.1</ele>
        <time>2011-03-06T09:01:12Z</time>
      </trkpt>
      <trkpt lat="43.6383" lon="3.35771">
        <ele>193.9</ele>
        <time>2011-03-06T09:01:16Z</time>
      </trkpt>
      <trkpt lat="43.63823" lon="3.35767">
        <ele>194.6</ele>
        <time>2011-03-06T09:01:20Z</time>
      </trkpt>
      <trkpt lat="43.63816" lon="3.35763">
        <ele>195.3</ele>
        <time>2011-03-06T09:01:24Z</time>
      </trkpt>
      <trkpt lat="43.63809" lon="3.35768">
        <ele>196</ele>
        <time>2011-03-06T09:01:32Z</time>
      </trkpt>
      <trkpt lat="43.63807" lon="3.3578">
        <ele>196</ele>
        <time>2011-03-06T09:01:35Z</time>
      </trkpt>
      <trkpt lat="43.63804" lon="3.35787">
        <ele>196.3</ele>
        <time>2011-03-06T09:01:37Z</time>
      </trkpt>
      <trkpt lat="43.63801" lon="3.35795">
        <ele>196.6</ele>
        <time>2011-03-06T09:01:39Z</time>
      </trkpt>
      <trkpt lat="43.638" lon="3.35805">
        <ele>196.8</ele>
        <time>2011-03-06T09:01:41Z</time>
      </trkpt>
      <trkpt lat="43.63798" lon="3.35814">
        <ele>197.1</ele>
        <time>2011-03-06T09:01:43Z</time>
      </trkpt>
      <trkpt lat="43.63796" lon="3.35824">
        <ele>197.4</ele>
        <time>2011-03-06T09:01:45Z</time>
      </trkpt>
      <trkpt lat="43.63795" lon="3.35828">
        <ele>197.5</ele>
        <time>2011-03-06T09:01:46Z</time>
      </trkpt>
      <trkpt lat="43.63792" lon="3.35842">
        <ele>197.8</ele>
        <time>2011-03-06T09:01:49Z</time>
      </trkpt>
      <trkpt lat="43.6379" lon="3.35851">
        <ele>198</ele>
        <time>2011-03-06T09:01:51Z</time>
      </trkpt>
      <trkpt lat="43.63787" lon="3.3586">
        <ele>198.1</ele>
        <time>2011-03-06T09:01:53Z</time>
      </trkpt>
      <trkpt lat="43.63785" lon="3.35869">
        <ele>198.3</ele>
        <time>2011-03-06T09:01:55Z</time>
      </trkpt>
      <trkpt lat="43.63781" lon="3.35876">
        <ele>198.6</ele>
        <time>2011-03-06T09:01:57Z</time>
      </trkpt>
      <trkpt lat="43.63775" lon="3.35885">
        <ele>199.1</ele>
        <time>2011-03-06T09:02:00Z</time>
      </trkpt>
      <trkpt lat="43.63768" lon="3.35891">
        <ele>199.8</ele>
        <time>2011-03-06T09:02:03Z</time>
      </trkpt>
      <trkpt lat="43.63761" lon="3.35897">
        <ele>200.4</ele>
        <time>2011-03-06T09:02:06Z</time>
      </trkpt>
      <trkpt lat="43.63753" lon="3.35902">
        <ele>201.2</ele>
        <time>2011-03-06T09:02:09Z</time>
      </trkpt>
      <trkpt lat="43.63745" lon="3.35906">
        <ele>201.6</ele>
        <time>2011-03-06T09:02:12Z</time>
      </trkpt>
      <trkpt lat="43.63737" lon="3.35909">
        <ele>201.8</ele>
        <time>2011-03-06T09:02:15Z</time>
      </trkpt>
      <trkpt lat="43.63731" lon="3.3591">
        <ele>201.9</ele>
        <time>2011-03-06T09:02:17Z</time>
      </trkpt>
      <trkpt lat="43.63724" lon="3.35911">
        <ele>202.2</ele>
        <time>2011-03-06T09:02:19Z</time>
      </trkpt>
      <trkpt lat="43.63718" lon="3.35909">
        <ele>202.5</ele>
        <time>2011-03-06T09:02:21Z</time>
      </trkpt>
      <trkpt lat="43.6371" lon="3.35904">
        <ele>203</ele>
        <time>2011-03-06T09:02:24Z</time>
      </trkpt>
      <trkpt lat="43.63702" lon="3.35899">
        <ele>203.5</ele>
        <time>2011-03-06T09:02:27Z</time>
      </trkpt>
      <trkpt lat="43.63695" lon="3.35899">
        <ele>203.7</ele>
        <time>2011-03-06T09:02:29Z</time>
      </trkpt>
      <trkpt lat="43.63689" lon="3.35903">
        <ele>203.8</ele>
        <time>2011-03-06T09:02:31Z</time>
      </trkpt>
      <trkpt lat="43.63682" lon="3.35907">
        <ele>203.9</ele>
        <time>2011-03-06T09:02:33Z</time>
      </trkpt>
      <trkpt lat="43.63677" lon="3.35912">
        <ele>203.9</ele>
        <time>2011-03-06T09:02:35Z</time>
      </trkpt>
      <trkpt lat="43.63672" lon="3.35917">
        <ele>203.8</ele>
        <time>2011-03-06T09:02:37Z</time>
      </trkpt>
      <trkpt lat="43.63667" lon="3.35924">
        <ele>204.1</ele>
        <time>2011-03-06T09:02:39Z</time>
      </trkpt>
      <trkpt lat="43.63663" lon="3.3593">
        <ele>205.1</ele>
        <time>2011-03-06T09:02:41Z</time>
      </trkpt>
      <trkpt lat="43.63658" lon="3.35939">
        <ele>206.7</ele>
        <time>2011-03-06T09:02:44Z</time>
      </trkpt>
      <trkpt lat="43.63655" lon="3.35947">
        <ele>207.4</ele>
        <time>2011-03-06T09:02:46Z</time>
      </trkpt>
      <trkpt lat="43.63655" lon="3.35951">
        <ele>207.6</ele>
        <time>2011-03-06T09:02:47Z</time>
      </trkpt>
      <trkpt lat="43.63653" lon="3.35971">
        <ele>208.4</ele>
        <time>2011-03-06T09:02:52Z</time>
      </trkpt>
      <trkpt lat="43.63652" lon="3.35982">
        <ele>208.8</ele>
        <time>2011-03-06T09:02:55Z</time>
      </trkpt>
      <trkpt lat="43.63651" lon="3.35994">
        <ele>209.2</ele>
        <time>2011-03-06T09:02:58Z</time>
      </trkpt>
      <trkpt lat="43.6365" lon="3.36006">
        <ele>210</ele>
        <time>2011-03-06T09:03:01Z</time>
      </trkpt>
      <trkpt lat="43.63648" lon="3.36018">
        <ele>211.4</ele>
        <time>2011-03-06T09:03:04Z</time>
      </trkpt>
      <trkpt lat="43.63645" lon="3.36029">
        <ele>212.8</ele>
        <time>2011-03-06T09:03:07Z</time>
      </trkpt>
      <trkpt lat="43.63642" lon="3.3604">
        <ele>214.3</ele>
        <time>2011-03-06T09:03:10Z</time>
      </trkpt>
      <trkpt lat="43.6364" lon="3.36048">
        <ele>215.2</ele>
        <time>2011-03-06T09:03:12Z</time>
      </trkpt>
      <trkpt lat="43.63637" lon="3.3606">
        <ele>216.5</ele>
        <time>2011-03-06T09:03:15Z</time>
      </trkpt>
      <trkpt lat="43.63634" lon="3.36071">
        <ele>217.6</ele>
        <time>2011-03-06T09:03:18Z</time>
      </trkpt>
      <trkpt lat="43.63631" lon="3.36082">
        <ele>218.8</ele>
        <time>2011-03-06T09:03:21Z</time>
      </trkpt>
      <trkpt lat="43.63629" lon="3.36092">
        <ele>218.9</ele>
        <time>2011-03-06T09:03:24Z</time>
      </trkpt>
      <trkpt lat="43.63627" lon="3.36104">
        <ele>218.7</ele>
        <time>2011-03-06T09:03:27Z</time>
      </trkpt>
      <trkpt lat="43.63624" lon="3.36115">
        <ele>218.6</ele>
        <time>2011-03-06T09:03:30Z</time>
      </trkpt>
      <trkpt lat="43.63622" lon="3.36125">
        <ele>218.4</ele>
        <time>2011-03-06T09:03:33Z</time>
      </trkpt>
      <trkpt lat="43.63618" lon="3.36134">
        <ele>218.5</ele>
        <time>2011-03-06T09:03:36Z</time>
      </trkpt>
      <trkpt lat="43.63614" lon="3.36142">
        <ele>218.6</ele>
        <time>2011-03-06T09:03:39Z</time>
      </trkpt>
      <trkpt lat="43.6361" lon="3.36152">
        <ele>218.4</ele>
        <time>2011-03-06T09:03:42Z</time>
      </trkpt>
      <trkpt lat="43.63607" lon="3.36162">
        <ele>218.1</ele>
        <time>2011-03-06T09:03:45Z</time>
      </trkpt>
      <trkpt lat="43.63604" lon="3.36174">
        <ele>217.8</ele>
        <time>2011-03-06T09:03:48Z</time>
      </trkpt>
      <trkpt lat="43.63603" lon="3.36178">
        <ele>217.7</ele>
        <time>2011-03-06T09:03:49Z</time>
      </trkpt>
      <trkpt lat="43.636" lon="3.36194">
        <ele>217.2</ele>
        <time>2011-03-06T09:03:52Z</time>
      </trkpt>
      <trkpt lat="43.63599" lon="3.36203">
        <ele>216.9</ele>
        <time>2011-03-06T09:03:54Z</time>
      </trkpt>
      <trkpt lat="43.63597" lon="3.36213">
        <ele>216.6</ele>
        <time>2011-03-06T09:03:56Z</time>
      </trkpt>
      <trkpt lat="43.63594" lon="3.36224">
        <ele>216.4</ele>
        <time>2011-03-06T09:03:59Z</time>
      </trkpt>
      <trkpt lat="43.63591" lon="3.36232">
        <ele>216.3</ele>
        <time>2011-03-06T09:04:02Z</time>
      </trkpt>
      <trkpt lat="43.63586" lon="3.36242">
        <ele>216.2</ele>
        <time>2011-03-06T09:04:05Z</time>
      </trkpt>
      <trkpt lat="43.63583" lon="3.36249">
        <ele>216.3</ele>
        <time>2011-03-06T09:04:07Z</time>
      </trkpt>
      <trkpt lat="43.63579" lon="3.36257">
        <ele>216.9</ele>
        <time>2011-03-06T09:04:09Z</time>
      </trkpt>
      <trkpt lat="43.63575" lon="3.36267">
        <ele>217.9</ele>
        <time>2011-03-06T09:04:11Z</time>
      </trkpt>
      <trkpt lat="43.63571" lon="3.36277">
        <ele>218.9</ele>
        <time>2011-03-06T09:04:13Z</time>
      </trkpt>
      <trkpt lat="43.63568" lon="3.36286">
        <ele>219.8</ele>
        <time>2011-03-06T09:04:15Z</time>
      </trkpt>
      <trkpt lat="43.63566" lon="3.36295">
        <ele>220.3</ele>
        <time>2011-03-06T09:04:17Z</time>
      </trkpt>
      <trkpt lat="43.63564" lon="3.36303">
        <ele>220.9</ele>
        <time>2011-03-06T09:04:19Z</time>
      </trkpt>
      <trkpt lat="43.63562" lon="3.36312">
        <ele>221.7</ele>
        <time>2011-03-06T09:04:21Z</time>
      </trkpt>
      <trkpt lat="43.63559" lon="3.36321">
        <ele>222.5</ele>
        <time>2011-03-06T09:04:23Z</time>
      </trkpt>
      <trkpt lat="43.63556" lon="3.36332">
        <ele>223.5</ele>
        <time>2011-03-06T09:04:25Z</time>
      </trkpt>
      <trkpt lat="43.63554" lon="3.36343">
        <ele>224</ele>
        <time>2011-03-06T09:04:27Z</time>
      </trkpt>
      <trkpt lat="43.63553" lon="3.36355">
        <ele>224.3</ele>
        <time>2011-03-06T09:04:29Z</time>
      </trkpt>
      <trkpt lat="43.63552" lon="3.36366">
        <ele>224.5</ele>
        <time>2011-03-06T09:04:31Z</time>
      </trkpt>
      <trkpt lat="43.63551" lon="3.36377">
        <ele>224.7</ele>
        <time>2011-03-06T09:04:33Z</time>
      </trkpt>
      <trkpt lat="43.63551" lon="3.36387">
        <ele>224.9</ele>
        <time>2011-03-06T09:04:35Z</time>
      </trkpt>
      <trkpt lat="43.63549" lon="3.36399">
        <ele>225.2</ele>
        <time>2011-03-06T09:04:38Z</time>
      </trkpt>
      <trkpt lat="43.63549" lon="3.3641">
        <ele>225.1</ele>
        <time>2011-03-06T09:04:43Z</time>
      </trkpt>
      <trkpt lat="43.6355" lon="3.36419">
        <ele>224.9</ele>
        <time>2011-03-06T09:04:46Z</time>
      </trkpt>
      <trkpt lat="43.6355" lon="3.3643">
        <ele>225</ele>
        <time>2011-03-06T09:04:49Z</time>
      </trkpt>
      <trkpt lat="43.6355" lon="3.36434">
        <ele>225.1</ele>
        <time>2011-03-06T09:04:50Z</time>
      </trkpt>
      <trkpt lat="43.63551" lon="3.36452">
        <ele>225.3</ele>
        <time>2011-03-06T09:04:54Z</time>
      </trkpt>
      <trkpt lat="43.63551" lon="3.36461">
        <ele>225.6</ele>
        <time>2011-03-06T09:04:56Z</time>
      </trkpt>
      <trkpt lat="43.63552" lon="3.3647">
        <ele>225.5</ele>
        <time>2011-03-06T09:04:58Z</time>
      </trkpt>
      <trkpt lat="43.63553" lon="3.36478">
        <ele>225.3</ele>
        <time>2011-03-06T09:05:00Z</time>
      </trkpt>
      <trkpt lat="43.63556" lon="3.36486">
        <ele>224.6</ele>
        <time>2011-03-06T09:05:02Z</time>
      </trkpt>
      <trkpt lat="43.6356" lon="3.36494">
        <ele>223.7</ele>
        <time>2011-03-06T09:05:04Z</time>
      </trkpt>
      <trkpt lat="43.63564" lon="3.36502">
        <ele>222.8</ele>
        <time>2011-03-06T09:05:06Z</time>
      </trkpt>
      <trkpt lat="43.63567" lon="3.3651">
        <ele>222.2</ele>
        <time>2011-03-06T09:05:08Z</time>
      </trkpt>
      <trkpt lat="43.63572" lon="3.36521">
        <ele>221.4</ele>
        <time>2011-03-06T09:05:11Z</time>
      </trkpt>
      <trkpt lat="43.63575" lon="3.3653">
        <ele>220.8</ele>
        <time>2011-03-06T09:05:14Z</time>
      </trkpt>
      <trkpt lat="43.6357" lon="3.36522">
        <ele>221.9</ele>
        <time>2011-03-06T09:05:33Z</time>
      </trkpt>
      <trkpt lat="43.63565" lon="3.36514">
        <ele>222.8</ele>
        <time>2011-03-06T09:05:36Z</time>
      </trkpt>
      <trkpt lat="43.63561" lon="3.36504">
        <ele>223.7</ele>
        <time>2011-03-06T09:05:39Z</time>
      </trkpt>
      <trkpt lat="43.63557" lon="3.36496">
        <ele>224.4</ele>
        <time>2011-03-06T09:05:42Z</time>
      </trkpt>
      <trkpt lat="43.63555" lon="3.36485">
        <ele>224.9</ele>
        <time>2011-03-06T09:05:45Z</time>
      </trkpt>
      <trkpt lat="43.63554" lon="3.36474">
        <ele>224.9</ele>
        <time>2011-03-06T09:05:48Z</time>
      </trkpt>
      <trkpt lat="43.63553" lon="3.36463">
        <ele>225</ele>
        <time>2011-03-06T09:05:51Z</time>
      </trkpt>
      <trkpt lat="43.63552" lon="3.36458">
        <ele>225.1</ele>
        <time>2011-03-06T09:05:52Z</time>
      </trkpt>
      <trkpt lat="43.63549" lon="3.36445">
        <ele>225.6</ele>
        <time>2011-03-06T09:05:55Z</time>
      </trkpt>
      <trkpt lat="43.63547" lon="3.36436">
        <ele>226.2</ele>
        <time>2011-03-06T09:05:57Z</time>
      </trkpt>
      <trkpt lat="43.63543" lon="3.36427">
        <ele>226.8</ele>
        <time>2011-03-06T09:05:59Z</time>
      </trkpt>
      <trkpt lat="43.63539" lon="3.36419">
        <ele>227.7</ele>
        <time>2011-03-06T09:06:01Z</time>
      </trkpt>
      <trkpt lat="43.63535" lon="3.36409">
        <ele>228.9</ele>
        <time>2011-03-06T09:06:04Z</time>
      </trkpt>
      <trkpt lat="43.63532" lon="3.364">
        <ele>229.8</ele>
        <time>2011-03-06T09:06:07Z</time>
      </trkpt>
      <trkpt lat="43.63529" lon="3.36391">
        <ele>230.8</ele>
        <time>2011-03-06T09:06:10Z</time>
      </trkpt>
      <trkpt lat="43.63527" lon="3.3638">
        <ele>231.7</ele>
        <time>2011-03-06T09:06:13Z</time>
      </trkpt>
      <trkpt lat="43.63525" lon="3.36369">
        <ele>232.3</ele>
        <time>2011-03-06T09:06:16Z</time>
      </trkpt>
      <trkpt lat="43.63526" lon="3.36358">
        <ele>232.4</ele>
        <time>2011-03-06T09:06:19Z</time>
      </trkpt>
      <trkpt lat="43.63527" lon="3.36348">
        <ele>232.2</ele>
        <time>2011-03-06T09:06:22Z</time>
      </trkpt>
      <trkpt lat="43.63527" lon="3.36337">
        <ele>232.6</ele>
        <time>2011-03-06T09:06:25Z</time>
      </trkpt>
      <trkpt lat="43.63524" lon="3.36325">
        <ele>233.3</ele>
        <time>2011-03-06T09:06:28Z</time>
      </trkpt>
      <trkpt lat="43.63522" lon="3.36317">
        <ele>233.6</ele>
        <time>2011-03-06T09:06:30Z</time>
      </trkpt>
      <trkpt lat="43.6352" lon="3.36305">
        <ele>233.6</ele>
        <time>2011-03-06T09:06:33Z</time>
      </trkpt>
      <trkpt lat="43.63519" lon="3.36294">
        <ele>233.4</ele>
        <time>2011-03-06T09:06:36Z</time>
      </trkpt>
      <trkpt lat="43.63516" lon="3.36283">
        <ele>233.7</ele>
        <time>2011-03-06T09:06:39Z</time>
      </trkpt>
      <trkpt lat="43.63513" lon="3.36271">
        <ele>234</ele>
        <time>2011-03-06T09:06:42Z</time>
      </trkpt>
      <trkpt lat="43.63509" lon="3.36261">
        <ele>234.4</ele>
        <time>2011-03-06T09:06:45Z</time>
      </trkpt>
      <trkpt lat="43.63505" lon="3.3625">
        <ele>234.7</ele>
        <time>2011-03-06T09:06:48Z</time>
      </trkpt>
      <trkpt lat="43.635" lon="3.3624">
        <ele>235.6</ele>
        <time>2011-03-06T09:06:51Z</time>
      </trkpt>
      <trkpt lat="43.63496" lon="3.36233">
        <ele>236.1</ele>
        <time>2011-03-06T09:06:53Z</time>
      </trkpt>
      <trkpt lat="43.63494" lon="3.36231">
        <ele>236.4</ele>
        <time>2011-03-06T09:06:54Z</time>
      </trkpt>
      <trkpt lat="43.63482" lon="3.36224">
        <ele>238.6</ele>
        <time>2011-03-06T09:07:00Z</time>
      </trkpt>
      <trkpt lat="43.63475" lon="3.36221">
        <ele>240.2</ele>
        <time>2011-03-06T09:07:04Z</time>
      </trkpt>
      <trkpt lat="43.63469" lon="3.36213">
        <ele>241.1</ele>
        <time>2011-03-06T09:07:08Z</time>
      </trkpt>
      <trkpt lat="43.63467" lon="3.36203">
        <ele>241.2</ele>
        <time>2011-03-06T09:07:11Z</time>
      </trkpt>
      <trkpt lat="43.63466" lon="3.36193">
        <ele>240.8</ele>
        <time>2011-03-06T09:07:14Z</time>
      </trkpt>
      <trkpt lat="43.63466" lon="3.36184">
        <ele>240.6</ele>
        <time>2011-03-06T09:07:16Z</time>
      </trkpt>
      <trkpt lat="43.63465" lon="3.36175">
        <ele>240.3</ele>
        <time>2011-03-06T09:07:18Z</time>
      </trkpt>
      <trkpt lat="43.63465" lon="3.36164">
        <ele>240.2</ele>
        <time>2011-03-06T09:07:20Z</time>
      </trkpt>
      <trkpt lat="43.63464" lon="3.36153">
        <ele>240.7</ele>
        <time>2011-03-06T09:07:22Z</time>
      </trkpt>
      <trkpt lat="43.63464" lon="3.36143">
        <ele>241.2</ele>
        <time>2011-03-06T09:07:24Z</time>
      </trkpt>
      <trkpt lat="43.63463" lon="3.36134">
        <ele>241.6</ele>
        <time>2011-03-06T09:07:26Z</time>
      </trkpt>
      <trkpt lat="43.63463" lon="3.36125">
        <ele>242</ele>
        <time>2011-03-06T09:07:28Z</time>
      </trkpt>
      <trkpt lat="43.63462" lon="3.36117">
        <ele>242.5</ele>
        <time>2011-03-06T09:07:30Z</time>
      </trkpt>
      <trkpt lat="43.63462" lon="3.36108">
        <ele>242.8</ele>
        <time>2011-03-06T09:07:32Z</time>
      </trkpt>
      <trkpt lat="43.63461" lon="3.36099">
        <ele>243.2</ele>
        <time>2011-03-06T09:07:34Z</time>
      </trkpt>
      <trkpt lat="43.63462" lon="3.36088">
        <ele>243.6</ele>
        <time>2011-03-06T09:07:36Z</time>
      </trkpt>
      <trkpt lat="43.63463" lon="3.3608">
        <ele>244.2</ele>
        <time>2011-03-06T09:07:38Z</time>
      </trkpt>
      <trkpt lat="43.63467" lon="3.3607">
        <ele>245.2</ele>
        <time>2011-03-06T09:07:41Z</time>
      </trkpt>
      <trkpt lat="43.63474" lon="3.36065">
        <ele>245.5</ele>
        <time>2011-03-06T09:07:44Z</time>
      </trkpt>
      <trkpt lat="43.63481" lon="3.3606">
        <ele>245.6</ele>
        <time>2011-03-06T09:07:48Z</time>
      </trkpt>
      <trkpt lat="43.63488" lon="3.36055">
        <ele>246.1</ele>
        <time>2011-03-06T09:07:52Z</time>
      </trkpt>
      <trkpt lat="43.63493" lon="3.36046">
        <ele>247.2</ele>
        <time>2011-03-06T09:07:58Z</time>
      </trkpt>
      <trkpt lat="43.63494" lon="3.36044">
        <ele>247.4</ele>
        <time>2011-03-06T09:07:59Z</time>
      </trkpt>
      <trkpt lat="43.63488" lon="3.36024">
        <ele>250.6</ele>
        <time>2011-03-06T09:08:28Z</time>
      </trkpt>
      <trkpt lat="43.63481" lon="3.36017">
        <ele>251.8</ele>
        <time>2011-03-06T09:08:34Z</time>
      </trkpt>
      <trkpt lat="43.63475" lon="3.36008">
        <ele>253.1</ele>
        <time>2011-03-06T09:08:40Z</time>
      </trkpt>
      <trkpt lat="43.63473" lon="3.35997">
        <ele>254.6</ele>
        <time>2011-03-06T09:08:46Z</time>
      </trkpt>
      <trkpt lat="43.63472" lon="3.35986">
        <ele>255.5</ele>
        <time>2011-03-06T09:08:51Z</time>
      </trkpt>
      <trkpt lat="43.6347" lon="3.35975">
        <ele>256.5</ele>
        <time>2011-03-06T09:08:56Z</time>
      </trkpt>
      <trkpt lat="43.63467" lon="3.35964">
        <ele>257.5</ele>
        <time>2011-03-06T09:09:01Z</time>
      </trkpt>
      <trkpt lat="43.63467" lon="3.35962">
        <ele>257.7</ele>
        <time>2011-03-06T09:09:02Z</time>
      </trkpt>
      <trkpt lat="43.63464" lon="3.35941">
        <ele>259.6</ele>
        <time>2011-03-06T09:09:20Z</time>
      </trkpt>
      <trkpt lat="43.63464" lon="3.35929">
        <ele>260.6</ele>
        <time>2011-03-06T09:09:29Z</time>
      </trkpt>
      <trkpt lat="43.63464" lon="3.35917">
        <ele>261.7</ele>
        <time>2011-03-06T09:09:40Z</time>
      </trkpt>
      <trkpt lat="43.63465" lon="3.35905">
        <ele>262.4</ele>
        <time>2011-03-06T09:09:47Z</time>
      </trkpt>
      <trkpt lat="43.63464" lon="3.35893">
        <ele>263.1</ele>
        <time>2011-03-06T09:09:53Z</time>
      </trkpt>
      <trkpt lat="43.63464" lon="3.35881">
        <ele>263.8</ele>
        <time>2011-03-06T09:09:58Z</time>
      </trkpt>
      <trkpt lat="43.63463" lon="3.35869">
        <ele>264.5</ele>
        <time>2011-03-06T09:10:03Z</time>
      </trkpt>
      <trkpt lat="43.63463" lon="3.35866">
        <ele>264.7</ele>
        <time>2011-03-06T09:10:04Z</time>
      </trkpt>
      <trkpt lat="43.63464" lon="3.35847">
        <ele>265.7</ele>
        <time>2011-03-06T09:10:11Z</time>
      </trkpt>
      <trkpt lat="43.63465" lon="3.35835">
        <ele>266.3</ele>
        <time>2011-03-06T09:10:15Z</time>
      </trkpt>
      <trkpt lat="43.63465" lon="3.35825">
        <ele>267.1</ele>
        <time>2011-03-06T09:10:18Z</time>
      </trkpt>
      <trkpt lat="43.63461" lon="3.35816">
        <ele>268.4</ele>
        <time>2011-03-06T09:10:21Z</time>
      </trkpt>
      <trkpt lat="43.63455" lon="3.35811">
        <ele>269.8</ele>
        <time>2011-03-06T09:10:24Z</time>
      </trkpt>
      <trkpt lat="43.63447" lon="3.35807">
        <ele>271.4</ele>
        <time>2011-03-06T09:10:28Z</time>
      </trkpt>
      <trkpt lat="43.6344" lon="3.358">
        <ele>273.3</ele>
        <time>2011-03-06T09:10:46Z</time>
      </trkpt>
      <trkpt lat="43.63434" lon="3.35792">
        <ele>275.5</ele>
        <time>2011-03-06T09:10:54Z</time>
      </trkpt>
      <trkpt lat="43.63426" lon="3.35787">
        <ele>277.7</ele>
        <time>2011-03-06T09:11:01Z</time>
      </trkpt>
      <trkpt lat="43.63419" lon="3.35782">
        <ele>279.9</ele>
        <time>2011-03-06T09:11:08Z</time>
      </trkpt>
      <trkpt lat="43.63418" lon="3.35781">
        <ele>280.2</ele>
        <time>2011-03-06T09:11:09Z</time>
      </trkpt>
      <trkpt lat="43.63404" lon="3.3577">
        <ele>283.5</ele>
        <time>2011-03-06T09:11:21Z</time>
      </trkpt>
      <trkpt lat="43.63397" lon="3.35766">
        <ele>285.1</ele>
        <time>2011-03-06T09:11:28Z</time>
      </trkpt>
      <trkpt lat="43.63392" lon="3.35756">
        <ele>287</ele>
        <time>2011-03-06T09:11:35Z</time>
      </trkpt>
      <trkpt lat="43.63385" lon="3.35748">
        <ele>289</ele>
        <time>2011-03-06T09:11:42Z</time>
      </trkpt>
      <trkpt lat="43.63378" lon="3.35743">
        <ele>290.7</ele>
        <time>2011-03-06T09:11:48Z</time>
      </trkpt>
      <trkpt lat="43.63372" lon="3.35736">
        <ele>292.9</ele>
        <time>2011-03-06T09:11:54Z</time>
      </trkpt>
      <trkpt lat="43.63365" lon="3.3573">
        <ele>295</ele>
        <time>2011-03-06T09:12:08Z</time>
      </trkpt>
      <trkpt lat="43.63358" lon="3.35722">
        <ele>297.5</ele>
        <time>2011-03-06T09:12:23Z</time>
      </trkpt>
      <trkpt lat="43.63357" lon="3.35721">
        <ele>297.8</ele>
        <time>2011-03-06T09:12:24Z</time>
      </trkpt>
      <trkpt lat="43.63345" lon="3.35706">
        <ele>302.8</ele>
        <time>2011-03-06T09:12:40Z</time>
      </trkpt>
      <trkpt lat="43.63339" lon="3.35698">
        <ele>305.5</ele>
        <time>2011-03-06T09:12:48Z</time>
      </trkpt>
      <trkpt lat="43.63333" lon="3.35691">
        <ele>308.1</ele>
        <time>2011-03-06T09:12:55Z</time>
      </trkpt>
      <trkpt lat="43.63325" lon="3.35685">
        <ele>310.8</ele>
        <time>2011-03-06T09:13:02Z</time>
      </trkpt>
      <trkpt lat="43.63317" lon="3.35679">
        <ele>313.4</ele>
        <time>2011-03-06T09:13:11Z</time>
      </trkpt>
      <trkpt lat="43.63311" lon="3.35672">
        <ele>315.9</ele>
        <time>2011-03-06T09:13:19Z</time>
      </trkpt>
      <trkpt lat="43.63305" lon="3.35663">
        <ele>318.4</ele>
        <time>2011-03-06T09:13:30Z</time>
      </trkpt>
      <trkpt lat="43.63304" lon="3.35662">
        <ele>318.7</ele>
        <time>2011-03-06T09:13:31Z</time>
      </trkpt>
      <trkpt lat="43.63291" lon="3.35671">
        <ele>318.9</ele>
        <time>2011-03-06T09:13:46Z</time>
      </trkpt>
      <trkpt lat="43.63286" lon="3.35678">
        <ele>318.5</ele>
        <time>2011-03-06T09:13:50Z</time>
      </trkpt>
      <trkpt lat="43.6328" lon="3.35686">
        <ele>318.3</ele>
        <time>2011-03-06T09:13:55Z</time>
      </trkpt>
      <trkpt lat="43.63273" lon="3.35695">
        <ele>318.3</ele>
        <time>2011-03-06T09:14:01Z</time>
      </trkpt>
      <trkpt lat="43.63272" lon="3.35698">
        <ele>318.1</ele>
        <time>2011-03-06T09:14:04Z</time>
      </trkpt>
      <trkpt lat="43.63244" lon="3.35743">
        <ele>321.8</ele>
        <time>2011-03-06T09:14:40Z</time>
      </trkpt>
      <trkpt lat="43.6324" lon="3.35753">
        <ele>323.7</ele>
        <time>2011-03-06T09:14:47Z</time>
      </trkpt>
      <trkpt lat="43.63236" lon="3.35762">
        <ele>325.7</ele>
        <time>2011-03-06T09:14:53Z</time>
      </trkpt>
      <trkpt lat="43.63227" lon="3.3576">
        <ele>330.6</ele>
        <time>2011-03-06T09:15:13Z</time>
      </trkpt>
      <trkpt lat="43.63225" lon="3.35749">
        <ele>332.4</ele>
        <time>2011-03-06T09:15:21Z</time>
      </trkpt>
      <trkpt lat="43.63223" lon="3.35738">
        <ele>334.4</ele>
        <time>2011-03-06T09:15:29Z</time>
      </trkpt>
      <trkpt lat="43.63222" lon="3.35726">
        <ele>335.4</ele>
        <time>2011-03-06T09:15:36Z</time>
      </trkpt>
      <trkpt lat="43.63221" lon="3.35715">
        <ele>336.8</ele>
        <time>2011-03-06T09:15:43Z</time>
      </trkpt>
      <trkpt lat="43.63221" lon="3.35714">
        <ele>337.1</ele>
        <time>2011-03-06T09:15:44Z</time>
      </trkpt>
      <trkpt lat="43.63218" lon="3.35692">
        <ele>340.2</ele>
        <time>2011-03-06T09:15:58Z</time>
      </trkpt>
      <trkpt lat="43.63217" lon="3.35681">
        <ele>341.7</ele>
        <time>2011-03-06T09:16:05Z</time>
      </trkpt>
      <trkpt lat="43.63216" lon="3.3567">
        <ele>343.4</ele>
        <time>2011-03-06T09:16:12Z</time>
      </trkpt>
      <trkpt lat="43.63212" lon="3.3566">
        <ele>346.1</ele>
        <time>2011-03-06T09:16:19Z</time>
      </trkpt>
      <trkpt lat="43.6321" lon="3.35649">
        <ele>348.5</ele>
        <time>2011-03-06T09:16:26Z</time>
      </trkpt>
      <trkpt lat="43.63207" lon="3.35637">
        <ele>350.7</ele>
        <time>2011-03-06T09:16:33Z</time>
      </trkpt>
      <trkpt lat="43.63204" lon="3.35626">
        <ele>352.9</ele>
        <time>2011-03-06T09:16:40Z</time>
      </trkpt>
      <trkpt lat="43.632" lon="3.35617">
        <ele>355.3</ele>
        <time>2011-03-06T09:16:47Z</time>
      </trkpt>
      <trkpt lat="43.632" lon="3.35615">
        <ele>355.6</ele>
        <time>2011-03-06T09:16:48Z</time>
      </trkpt>
      <trkpt lat="43.63191" lon="3.35597">
        <ele>359.9</ele>
        <time>2011-03-06T09:17:01Z</time>
      </trkpt>
      <trkpt lat="43.63186" lon="3.35588">
        <ele>361.8</ele>
        <time>2011-03-06T09:17:08Z</time>
      </trkpt>
      <trkpt lat="43.63183" lon="3.35576">
        <ele>363.6</ele>
        <time>2011-03-06T09:17:22Z</time>
      </trkpt>
      <trkpt lat="43.6318" lon="3.35565">
        <ele>365.7</ele>
        <time>2011-03-06T09:17:33Z</time>
      </trkpt>
      <trkpt lat="43.63175" lon="3.35555">
        <ele>368.1</ele>
        <time>2011-03-06T09:17:50Z</time>
      </trkpt>
      <trkpt lat="43.63175" lon="3.35555">
        <ele>368.1</ele>
        <time>2011-03-06T09:17:51Z</time>
      </trkpt>
      <trkpt lat="43.63165" lon="3.35537">
        <ele>372.2</ele>
        <time>2011-03-06T09:18:23Z</time>
      </trkpt>
      <trkpt lat="43.63163" lon="3.35525">
        <ele>373.6</ele>
        <time>2011-03-06T09:18:35Z</time>
      </trkpt>
      <trkpt lat="43.63162" lon="3.35513">
        <ele>374.9</ele>
        <time>2011-03-06T09:18:47Z</time>
      </trkpt>
      <trkpt lat="43.63161" lon="3.35501">
        <ele>375.7</ele>
        <time>2011-03-06T09:19:00Z</time>
      </trkpt>
      <trkpt lat="43.63161" lon="3.355">
        <ele>375.8</ele>
        <time>2011-03-06T09:19:01Z</time>
      </trkpt>
      <trkpt lat="43.63145" lon="3.35499">
        <ele>381.2</ele>
        <time>2011-03-06T09:19:46Z</time>
      </trkpt>
      <trkpt lat="43.6314" lon="3.35489">
        <ele>382.7</ele>
        <time>2011-03-06T09:19:57Z</time>
      </trkpt>
      <trkpt lat="43.63136" lon="3.35479">
        <ele>383.8</ele>
        <time>2011-03-06T09:20:06Z</time>
      </trkpt>
      <trkpt lat="43.63135" lon="3.35478">
        <ele>384</ele>
        <time>2011-03-06T09:20:07Z</time>
      </trkpt>
      <trkpt lat="43.63131" lon="3.35457">
        <ele>384.2</ele>
        <time>2011-03-06T09:20:26Z</time>
      </trkpt>
      <trkpt lat="43.63127" lon="3.35446">
        <ele>384.2</ele>
        <time>2011-03-06T09:21:15Z</time>
      </trkpt>
      <trkpt lat="43.63127" lon="3.35446">
        <ele>384.2</ele>
        <time>2011-03-06T09:21:16Z</time>
      </trkpt>
      <trkpt lat="43.63127" lon="3.35459">
        <ele>384.8</ele>
        <time>2011-03-06T09:28:39Z</time>
      </trkpt>
      <trkpt lat="43.63126" lon="3.35446">
        <ele>384.2</ele>
        <time>2011-03-06T09:30:16Z</time>
      </trkpt>
      <trkpt lat="43.63115" lon="3.35431">
        <ele>383.2</ele>
        <time>2011-03-06T09:30:45Z</time>
      </trkpt>
      <trkpt lat="43.63113" lon="3.35419">
        <ele>381.7</ele>
        <time>2011-03-06T09:30:48Z</time>
      </trkpt>
      <trkpt lat="43.63112" lon="3.35408">
        <ele>380.3</ele>
        <time>2011-03-06T09:30:50Z</time>
      </trkpt>
      <trkpt lat="43.63106" lon="3.354">
        <ele>378.4</ele>
        <time>2011-03-06T09:30:52Z</time>
      </trkpt>
      <trkpt lat="43.63101" lon="3.35397">
        <ele>377.3</ele>
        <time>2011-03-06T09:30:53Z</time>
      </trkpt>
      <trkpt lat="43.63097" lon="3.35394">
        <ele>376.2</ele>
        <time>2011-03-06T09:30:54Z</time>
      </trkpt>
      <trkpt lat="43.63092" lon="3.3539">
        <ele>375</ele>
        <time>2011-03-06T09:30:55Z</time>
      </trkpt>
      <trkpt lat="43.63086" lon="3.35383">
        <ele>372.7</ele>
        <time>2011-03-06T09:30:57Z</time>
      </trkpt>
      <trkpt lat="43.63084" lon="3.35371">
        <ele>370</ele>
        <time>2011-03-06T09:31:00Z</time>
      </trkpt>
      <trkpt lat="43.63087" lon="3.35362">
        <ele>368.7</ele>
        <time>2011-03-06T09:31:03Z</time>
      </trkpt>
      <trkpt lat="43.63087" lon="3.3535">
        <ele>366.2</ele>
        <time>2011-03-06T09:31:05Z</time>
      </trkpt>
      <trkpt lat="43.63086" lon="3.35338">
        <ele>363.6</ele>
        <time>2011-03-06T09:31:07Z</time>
      </trkpt>
      <trkpt lat="43.63086" lon="3.35329">
        <ele>362.6</ele>
        <time>2011-03-06T09:31:09Z</time>
      </trkpt>
      <trkpt lat="43.63086" lon="3.35317">
        <ele>362.2</ele>
        <time>2011-03-06T09:31:12Z</time>
      </trkpt>
      <trkpt lat="43.63079" lon="3.35323">
        <ele>361.3</ele>
        <time>2011-03-06T09:31:17Z</time>
      </trkpt>
      <trkpt lat="43.63076" lon="3.35324">
        <ele>361.3</ele>
        <time>2011-03-06T09:31:18Z</time>
      </trkpt>
      <trkpt lat="43.63065" lon="3.35314">
        <ele>359.7</ele>
        <time>2011-03-06T09:31:23Z</time>
      </trkpt>
      <trkpt lat="43.6306" lon="3.35305">
        <ele>358.6</ele>
        <time>2011-03-06T09:31:26Z</time>
      </trkpt>
      <trkpt lat="43.63061" lon="3.35295">
        <ele>357.7</ele>
        <time>2011-03-06T09:31:28Z</time>
      </trkpt>
      <trkpt lat="43.63061" lon="3.35289">
        <ele>357.1</ele>
        <time>2011-03-06T09:31:29Z</time>
      </trkpt>
      <trkpt lat="43.63061" lon="3.35282">
        <ele>356.4</ele>
        <time>2011-03-06T09:31:30Z</time>
      </trkpt>
      <trkpt lat="43.6306" lon="3.35275">
        <ele>355.8</ele>
        <time>2011-03-06T09:31:31Z</time>
      </trkpt>
      <trkpt lat="43.63058" lon="3.35269">
        <ele>354.8</ele>
        <time>2011-03-06T09:31:32Z</time>
      </trkpt>
      <trkpt lat="43.63052" lon="3.35259">
        <ele>352.6</ele>
        <time>2011-03-06T09:31:34Z</time>
      </trkpt>
      <trkpt lat="43.63044" lon="3.35257">
        <ele>350.4</ele>
        <time>2011-03-06T09:31:37Z</time>
      </trkpt>
      <trkpt lat="43.63037" lon="3.35253">
        <ele>348.4</ele>
        <time>2011-03-06T09:31:41Z</time>
      </trkpt>
      <trkpt lat="43.63031" lon="3.35248">
        <ele>346.4</ele>
        <time>2011-03-06T09:31:44Z</time>
      </trkpt>
      <trkpt lat="43.63024" lon="3.35242">
        <ele>344.7</ele>
        <time>2011-03-06T09:31:46Z</time>
      </trkpt>
      <trkpt lat="43.6302" lon="3.35236">
        <ele>343.5</ele>
        <time>2011-03-06T09:31:48Z</time>
      </trkpt>
      <trkpt lat="43.63014" lon="3.35229">
        <ele>341.9</ele>
        <time>2011-03-06T09:31:50Z</time>
      </trkpt>
      <trkpt lat="43.63008" lon="3.35222">
        <ele>340</ele>
        <time>2011-03-06T09:31:52Z</time>
      </trkpt>
      <trkpt lat="43.63004" lon="3.35219">
        <ele>338.9</ele>
        <time>2011-03-06T09:31:53Z</time>
      </trkpt>
      <trkpt lat="43.63" lon="3.35215">
        <ele>337.7</ele>
        <time>2011-03-06T09:31:54Z</time>
      </trkpt>
      <trkpt lat="43.62993" lon="3.35207">
        <ele>336.8</ele>
        <time>2011-03-06T09:31:56Z</time>
      </trkpt>
      <trkpt lat="43.6299" lon="3.35203">
        <ele>336.2</ele>
        <time>2011-03-06T09:31:57Z</time>
      </trkpt>
      <trkpt lat="43.62986" lon="3.352">
        <ele>335.6</ele>
        <time>2011-03-06T09:31:58Z</time>
      </trkpt>
      <trkpt lat="43.62981" lon="3.35197">
        <ele>334.8</ele>
        <time>2011-03-06T09:31:59Z</time>
      </trkpt>
      <trkpt lat="43.62977" lon="3.35193">
        <ele>334</ele>
        <time>2011-03-06T09:32:00Z</time>
      </trkpt>
      <trkpt lat="43.62972" lon="3.35188">
        <ele>332.9</ele>
        <time>2011-03-06T09:32:01Z</time>
      </trkpt>
      <trkpt lat="43.62967" lon="3.35183">
        <ele>331.7</ele>
        <time>2011-03-06T09:32:02Z</time>
      </trkpt>
      <trkpt lat="43.6296" lon="3.35179">
        <ele>330.2</ele>
        <time>2011-03-06T09:32:04Z</time>
      </trkpt>
      <trkpt lat="43.62952" lon="3.35182">
        <ele>329.4</ele>
        <time>2011-03-06T09:32:06Z</time>
      </trkpt>
      <trkpt lat="43.62947" lon="3.35183">
        <ele>328.7</ele>
        <time>2011-03-06T09:32:07Z</time>
      </trkpt>
      <trkpt lat="43.62941" lon="3.35184">
        <ele>328</ele>
        <time>2011-03-06T09:32:08Z</time>
      </trkpt>
      <trkpt lat="43.62936" lon="3.35185">
        <ele>327.4</ele>
        <time>2011-03-06T09:32:09Z</time>
      </trkpt>
      <trkpt lat="43.62929" lon="3.35186">
        <ele>326.7</ele>
        <time>2011-03-06T09:32:10Z</time>
      </trkpt>
      <trkpt lat="43.62924" lon="3.35187">
        <ele>326.1</ele>
        <time>2011-03-06T09:32:11Z</time>
      </trkpt>
      <trkpt lat="43.6292" lon="3.35184">
        <ele>325</ele>
        <time>2011-03-06T09:32:12Z</time>
      </trkpt>
      <trkpt lat="43.62913" lon="3.35179">
        <ele>323.4</ele>
        <time>2011-03-06T09:32:14Z</time>
      </trkpt>
      <trkpt lat="43.62908" lon="3.35172">
        <ele>321.6</ele>
        <time>2011-03-06T09:32:18Z</time>
      </trkpt>
      <trkpt lat="43.62906" lon="3.35169">
        <ele>320.9</ele>
        <time>2011-03-06T09:32:19Z</time>
      </trkpt>
      <trkpt lat="43.629" lon="3.35158">
        <ele>319.3</ele>
        <time>2011-03-06T09:32:22Z</time>
      </trkpt>
      <trkpt lat="43.62897" lon="3.35148">
        <ele>318.2</ele>
        <time>2011-03-06T09:32:24Z</time>
      </trkpt>
      <trkpt lat="43.62892" lon="3.35138">
        <ele>316.9</ele>
        <time>2011-03-06T09:32:26Z</time>
      </trkpt>
      <trkpt lat="43.62888" lon="3.3513">
        <ele>315.7</ele>
        <time>2011-03-06T09:32:28Z</time>
      </trkpt>
      <trkpt lat="43.62885" lon="3.35119">
        <ele>314.1</ele>
        <time>2011-03-06T09:32:31Z</time>
      </trkpt>
      <trkpt lat="43.62884" lon="3.35107">
        <ele>312.8</ele>
        <time>2011-03-06T09:32:34Z</time>
      </trkpt>
      <trkpt lat="43.62881" lon="3.35096">
        <ele>311.2</ele>
        <time>2011-03-06T09:32:53Z</time>
      </trkpt>
      <trkpt lat="43.62887" lon="3.3509">
        <ele>311.6</ele>
        <time>2011-03-06T09:32:56Z</time>
      </trkpt>
      <trkpt lat="43.62891" lon="3.35081">
        <ele>311.6</ele>
        <time>2011-03-06T09:32:59Z</time>
      </trkpt>
      <trkpt lat="43.62891" lon="3.35071">
        <ele>311</ele>
        <time>2011-03-06T09:33:01Z</time>
      </trkpt>
      <trkpt lat="43.6289" lon="3.35065">
        <ele>310.5</ele>
        <time>2011-03-06T09:33:02Z</time>
      </trkpt>
      <trkpt lat="43.6289" lon="3.35058">
        <ele>310</ele>
        <time>2011-03-06T09:33:03Z</time>
      </trkpt>
      <trkpt lat="43.62891" lon="3.3505">
        <ele>309.6</ele>
        <time>2011-03-06T09:33:04Z</time>
      </trkpt>
      <trkpt lat="43.62892" lon="3.35042">
        <ele>309.3</ele>
        <time>2011-03-06T09:33:05Z</time>
      </trkpt>
      <trkpt lat="43.62893" lon="3.35035">
        <ele>309.1</ele>
        <time>2011-03-06T09:33:06Z</time>
      </trkpt>
      <trkpt lat="43.62895" lon="3.35028">
        <ele>308.9</ele>
        <time>2011-03-06T09:33:07Z</time>
      </trkpt>
      <trkpt lat="43.62896" lon="3.35021">
        <ele>308.6</ele>
        <time>2011-03-06T09:33:08Z</time>
      </trkpt>
      <trkpt lat="43.62894" lon="3.3501">
        <ele>307.6</ele>
        <time>2011-03-06T09:33:10Z</time>
      </trkpt>
      <trkpt lat="43.62888" lon="3.35003">
        <ele>306.3</ele>
        <time>2011-03-06T09:33:12Z</time>
      </trkpt>
      <trkpt lat="43.6288" lon="3.35">
        <ele>305.2</ele>
        <time>2011-03-06T09:33:14Z</time>
      </trkpt>
      <trkpt lat="43.62871" lon="3.34998">
        <ele>304.3</ele>
        <time>2011-03-06T09:33:16Z</time>
      </trkpt>
      <trkpt lat="43.62866" lon="3.34999">
        <ele>303.6</ele>
        <time>2011-03-06T09:33:17Z</time>
      </trkpt>
      <trkpt lat="43.6286" lon="3.35001">
        <ele>302.6</ele>
        <time>2011-03-06T09:33:18Z</time>
      </trkpt>
      <trkpt lat="43.62855" lon="3.35002">
        <ele>301.9</ele>
        <time>2011-03-06T09:33:19Z</time>
      </trkpt>
      <trkpt lat="43.6285" lon="3.35003">
        <ele>301.2</ele>
        <time>2011-03-06T09:33:20Z</time>
      </trkpt>
      <trkpt lat="43.62844" lon="3.35004">
        <ele>300.5</ele>
        <time>2011-03-06T09:33:21Z</time>
      </trkpt>
      <trkpt lat="43.62838" lon="3.35005">
        <ele>299.7</ele>
        <time>2011-03-06T09:33:22Z</time>
      </trkpt>
      <trkpt lat="43.62832" lon="3.35004">
        <ele>298.9</ele>
        <time>2011-03-06T09:33:23Z</time>
      </trkpt>
      <trkpt lat="43.62827" lon="3.35002">
        <ele>298.3</ele>
        <time>2011-03-06T09:33:24Z</time>
      </trkpt>
      <trkpt lat="43.62822" lon="3.34999">
        <ele>297.9</ele>
        <time>2011-03-06T09:33:25Z</time>
      </trkpt>
      <trkpt lat="43.62817" lon="3.34997">
        <ele>297.7</ele>
        <time>2011-03-06T09:33:26Z</time>
      </trkpt>
      <trkpt lat="43.62812" lon="3.34996">
        <ele>297.4</ele>
        <time>2011-03-06T09:33:27Z</time>
      </trkpt>
      <trkpt lat="43.62807" lon="3.34995">
        <ele>296.9</ele>
        <time>2011-03-06T09:33:28Z</time>
      </trkpt>
      <trkpt lat="43.62802" lon="3.34994">
        <ele>296.5</ele>
        <time>2011-03-06T09:33:29Z</time>
      </trkpt>
      <trkpt lat="43.62798" lon="3.34994">
        <ele>296.1</ele>
        <time>2011-03-06T09:33:30Z</time>
      </trkpt>
      <trkpt lat="43.62793" lon="3.34994">
        <ele>295.5</ele>
        <time>2011-03-06T09:33:31Z</time>
      </trkpt>
      <trkpt lat="43.62789" lon="3.34994">
        <ele>295</ele>
        <time>2011-03-06T09:33:32Z</time>
      </trkpt>
      <trkpt lat="43.62784" lon="3.34994">
        <ele>294.4</ele>
        <time>2011-03-06T09:33:33Z</time>
      </trkpt>
      <trkpt lat="43.62778" lon="3.34994">
        <ele>293.9</ele>
        <time>2011-03-06T09:33:34Z</time>
      </trkpt>
      <trkpt lat="43.62772" lon="3.34993">
        <ele>293.3</ele>
        <time>2011-03-06T09:33:35Z</time>
      </trkpt>
      <trkpt lat="43.62766" lon="3.3499">
        <ele>292.9</ele>
        <time>2011-03-06T09:33:36Z</time>
      </trkpt>
      <trkpt lat="43.6276" lon="3.34987">
        <ele>292.5</ele>
        <time>2011-03-06T09:33:37Z</time>
      </trkpt>
      <trkpt lat="43.62754" lon="3.34984">
        <ele>292.1</ele>
        <time>2011-03-06T09:33:38Z</time>
      </trkpt>
      <trkpt lat="43.62747" lon="3.34977">
        <ele>292</ele>
        <time>2011-03-06T09:33:40Z</time>
      </trkpt>
      <trkpt lat="43.62742" lon="3.34972">
        <ele>292</ele>
        <time>2011-03-06T09:33:49Z</time>
      </trkpt>
      <trkpt lat="43.62735" lon="3.34966">
        <ele>292</ele>
        <time>2011-03-06T09:33:51Z</time>
      </trkpt>
      <trkpt lat="43.6273" lon="3.34966">
        <ele>291.6</ele>
        <time>2011-03-06T09:33:52Z</time>
      </trkpt>
      <trkpt lat="43.62726" lon="3.34967">
        <ele>291.2</ele>
        <time>2011-03-06T09:33:53Z</time>
      </trkpt>
      <trkpt lat="43.62721" lon="3.34968">
        <ele>290.7</ele>
        <time>2011-03-06T09:33:54Z</time>
      </trkpt>
      <trkpt lat="43.62716" lon="3.3497">
        <ele>290.1</ele>
        <time>2011-03-06T09:33:55Z</time>
      </trkpt>
      <trkpt lat="43.6271" lon="3.34971">
        <ele>289.6</ele>
        <time>2011-03-06T09:33:56Z</time>
      </trkpt>
      <trkpt lat="43.62705" lon="3.34972">
        <ele>289.1</ele>
        <time>2011-03-06T09:33:57Z</time>
      </trkpt>
      <trkpt lat="43.62696" lon="3.3497">
        <ele>288.5</ele>
        <time>2011-03-06T09:33:59Z</time>
      </trkpt>
      <trkpt lat="43.62689" lon="3.34967">
        <ele>288.2</ele>
        <time>2011-03-06T09:34:01Z</time>
      </trkpt>
      <trkpt lat="43.62682" lon="3.34961">
        <ele>288.1</ele>
        <time>2011-03-06T09:34:03Z</time>
      </trkpt>
      <trkpt lat="43.62674" lon="3.34957">
        <ele>287.8</ele>
        <time>2011-03-06T09:34:05Z</time>
      </trkpt>
      <trkpt lat="43.62667" lon="3.34954">
        <ele>287.3</ele>
        <time>2011-03-06T09:34:07Z</time>
      </trkpt>
      <trkpt lat="43.62659" lon="3.3495">
        <ele>286.6</ele>
        <time>2011-03-06T09:34:09Z</time>
      </trkpt>
      <trkpt lat="43.62655" lon="3.34947">
        <ele>286.3</ele>
        <time>2011-03-06T09:34:10Z</time>
      </trkpt>
      <trkpt lat="43.62651" lon="3.34944">
        <ele>286</ele>
        <time>2011-03-06T09:34:11Z</time>
      </trkpt>
      <trkpt lat="43.62646" lon="3.3494">
        <ele>285.7</ele>
        <time>2011-03-06T09:34:12Z</time>
      </trkpt>
      <trkpt lat="43.62642" lon="3.34935">
        <ele>285.4</ele>
        <time>2011-03-06T09:34:13Z</time>
      </trkpt>
      <trkpt lat="43.62639" lon="3.3493">
        <ele>285.3</ele>
        <time>2011-03-06T09:34:14Z</time>
      </trkpt>
      <trkpt lat="43.62637" lon="3.34925">
        <ele>285.2</ele>
        <time>2011-03-06T09:34:15Z</time>
      </trkpt>
      <trkpt lat="43.62634" lon="3.34919">
        <ele>285.2</ele>
        <time>2011-03-06T09:34:16Z</time>
      </trkpt>
      <trkpt lat="43.62631" lon="3.34915">
        <ele>285</ele>
        <time>2011-03-06T09:34:17Z</time>
      </trkpt>
      <trkpt lat="43.62627" lon="3.34911">
        <ele>284.8</ele>
        <time>2011-03-06T09:34:18Z</time>
      </trkpt>
      <trkpt lat="43.62621" lon="3.34903">
        <ele>284.5</ele>
        <time>2011-03-06T09:34:20Z</time>
      </trkpt>
      <trkpt lat="43.62619" lon="3.349">
        <ele>284.6</ele>
        <time>2011-03-06T09:34:21Z</time>
      </trkpt>
      <trkpt lat="43.62615" lon="3.34886">
        <ele>285.2</ele>
        <time>2011-03-06T09:34:24Z</time>
      </trkpt>
      <trkpt lat="43.62614" lon="3.34878">
        <ele>285.8</ele>
        <time>2011-03-06T09:34:26Z</time>
      </trkpt>
      <trkpt lat="43.62611" lon="3.34868">
        <ele>286.4</ele>
        <time>2011-03-06T09:34:29Z</time>
      </trkpt>
      <trkpt lat="43.6261" lon="3.3486">
        <ele>286.9</ele>
        <time>2011-03-06T09:34:31Z</time>
      </trkpt>
      <trkpt lat="43.62609" lon="3.3485">
        <ele>287.5</ele>
        <time>2011-03-06T09:34:33Z</time>
      </trkpt>
      <trkpt lat="43.62607" lon="3.34839">
        <ele>288.3</ele>
        <time>2011-03-06T09:34:35Z</time>
      </trkpt>
      <trkpt lat="43.62604" lon="3.34834">
        <ele>288.4</ele>
        <time>2011-03-06T09:34:36Z</time>
      </trkpt>
      <trkpt lat="43.62599" lon="3.3483">
        <ele>288.3</ele>
        <time>2011-03-06T09:34:37Z</time>
      </trkpt>
      <trkpt lat="43.62595" lon="3.34828">
        <ele>288</ele>
        <time>2011-03-06T09:34:38Z</time>
      </trkpt>
      <trkpt lat="43.6259" lon="3.34827">
        <ele>287.5</ele>
        <time>2011-03-06T09:34:39Z</time>
      </trkpt>
      <trkpt lat="43.62581" lon="3.34831">
        <ele>286.1</ele>
        <time>2011-03-06T09:34:41Z</time>
      </trkpt>
      <trkpt lat="43.62574" lon="3.34835">
        <ele>284.7</ele>
        <time>2011-03-06T09:34:43Z</time>
      </trkpt>
      <trkpt lat="43.6257" lon="3.34836">
        <ele>284</ele>
        <time>2011-03-06T09:34:44Z</time>
      </trkpt>
      <trkpt lat="43.62565" lon="3.34836">
        <ele>283.4</ele>
        <time>2011-03-06T09:34:45Z</time>
      </trkpt>
      <trkpt lat="43.62561" lon="3.34836">
        <ele>282.8</ele>
        <time>2011-03-06T09:34:46Z</time>
      </trkpt>
      <trkpt lat="43.62556" lon="3.34835">
        <ele>282.3</ele>
        <time>2011-03-06T09:34:47Z</time>
      </trkpt>
      <trkpt lat="43.62552" lon="3.34832">
        <ele>282.1</ele>
        <time>2011-03-06T09:34:48Z</time>
      </trkpt>
      <trkpt lat="43.62548" lon="3.34828">
        <ele>282.1</ele>
        <time>2011-03-06T09:34:49Z</time>
      </trkpt>
      <trkpt lat="43.62543" lon="3.34824">
        <ele>282.1</ele>
        <time>2011-03-06T09:34:50Z</time>
      </trkpt>
      <trkpt lat="43.62537" lon="3.34821">
        <ele>281.9</ele>
        <time>2011-03-06T09:34:51Z</time>
      </trkpt>
      <trkpt lat="43.62532" lon="3.34819">
        <ele>281.6</ele>
        <time>2011-03-06T09:34:52Z</time>
      </trkpt>
      <trkpt lat="43.62527" lon="3.34815">
        <ele>281.6</ele>
        <time>2011-03-06T09:34:53Z</time>
      </trkpt>
      <trkpt lat="43.62522" lon="3.34811">
        <ele>281.8</ele>
        <time>2011-03-06T09:34:54Z</time>
      </trkpt>
      <trkpt lat="43.62517" lon="3.34809">
        <ele>281.6</ele>
        <time>2011-03-06T09:34:55Z</time>
      </trkpt>
      <trkpt lat="43.62513" lon="3.34809">
        <ele>281.1</ele>
        <time>2011-03-06T09:34:56Z</time>
      </trkpt>
      <trkpt lat="43.62508" lon="3.3481">
        <ele>280.3</ele>
        <time>2011-03-06T09:34:57Z</time>
      </trkpt>
      <trkpt lat="43.62499" lon="3.34809">
        <ele>279.5</ele>
        <time>2011-03-06T09:34:59Z</time>
      </trkpt>
      <trkpt lat="43.62495" lon="3.34808">
        <ele>279.5</ele>
        <time>2011-03-06T09:35:00Z</time>
      </trkpt>
      <trkpt lat="43.6249" lon="3.34805">
        <ele>279.7</ele>
        <time>2011-03-06T09:35:01Z</time>
      </trkpt>
      <trkpt lat="43.62486" lon="3.34801">
        <ele>280.2</ele>
        <time>2011-03-06T09:35:02Z</time>
      </trkpt>
      <trkpt lat="43.62481" lon="3.34796">
        <ele>280.7</ele>
        <time>2011-03-06T09:35:03Z</time>
      </trkpt>
      <trkpt lat="43.62475" lon="3.34791">
        <ele>281.1</ele>
        <time>2011-03-06T09:35:04Z</time>
      </trkpt>
      <trkpt lat="43.62469" lon="3.34787">
        <ele>281.3</ele>
        <time>2011-03-06T09:35:05Z</time>
      </trkpt>
      <trkpt lat="43.62463" lon="3.34782">
        <ele>281.6</ele>
        <time>2011-03-06T09:35:06Z</time>
      </trkpt>
      <trkpt lat="43.62457" lon="3.34778">
        <ele>281.6</ele>
        <time>2011-03-06T09:35:07Z</time>
      </trkpt>
      <trkpt lat="43.6245" lon="3.34776">
        <ele>281.3</ele>
        <time>2011-03-06T09:35:08Z</time>
      </trkpt>
      <trkpt lat="43.62444" lon="3.34776">
        <ele>280.9</ele>
        <time>2011-03-06T09:35:09Z</time>
      </trkpt>
      <trkpt lat="43.62439" lon="3.34775">
        <ele>280.4</ele>
        <time>2011-03-06T09:35:10Z</time>
      </trkpt>
      <trkpt lat="43.62433" lon="3.34774">
        <ele>280</ele>
        <time>2011-03-06T09:35:11Z</time>
      </trkpt>
      <trkpt lat="43.62424" lon="3.34773">
        <ele>279.4</ele>
        <time>2011-03-06T09:35:13Z</time>
      </trkpt>
      <trkpt lat="43.62416" lon="3.34779">
        <ele>277.9</ele>
        <time>2011-03-06T09:35:16Z</time>
      </trkpt>
      <trkpt lat="43.62409" lon="3.34785">
        <ele>276.9</ele>
        <time>2011-03-06T09:35:19Z</time>
      </trkpt>
      <trkpt lat="43.62404" lon="3.3479">
        <ele>276.3</ele>
        <time>2011-03-06T09:35:21Z</time>
      </trkpt>
      <trkpt lat="43.62401" lon="3.34793">
        <ele>276</ele>
        <time>2011-03-06T09:35:22Z</time>
      </trkpt>
      <trkpt lat="43.62393" lon="3.34801">
        <ele>275.1</ele>
        <time>2011-03-06T09:35:25Z</time>
      </trkpt>
      <trkpt lat="43.62386" lon="3.34806">
        <ele>274.8</ele>
        <time>2011-03-06T09:35:54Z</time>
      </trkpt>
      <trkpt lat="43.6238" lon="3.34815">
        <ele>274.2</ele>
        <time>2011-03-06T09:35:58Z</time>
      </trkpt>
      <trkpt lat="43.62375" lon="3.34822">
        <ele>273.9</ele>
        <time>2011-03-06T09:36:00Z</time>
      </trkpt>
      <trkpt lat="43.62368" lon="3.34829">
        <ele>273.8</ele>
        <time>2011-03-06T09:36:02Z</time>
      </trkpt>
      <trkpt lat="43.6236" lon="3.34833">
        <ele>274.1</ele>
        <time>2011-03-06T09:36:04Z</time>
      </trkpt>
      <trkpt lat="43.62351" lon="3.34834">
        <ele>274.6</ele>
        <time>2011-03-06T09:36:06Z</time>
      </trkpt>
      <trkpt lat="43.62344" lon="3.34837">
        <ele>274.9</ele>
        <time>2011-03-06T09:36:08Z</time>
      </trkpt>
      <trkpt lat="43.62338" lon="3.34842">
        <ele>274.7</ele>
        <time>2011-03-06T09:36:10Z</time>
      </trkpt>
      <trkpt lat="43.62331" lon="3.34849">
        <ele>274.2</ele>
        <time>2011-03-06T09:36:12Z</time>
      </trkpt>
      <trkpt lat="43.62325" lon="3.34855">
        <ele>273.1</ele>
        <time>2011-03-06T09:36:14Z</time>
      </trkpt>
      <trkpt lat="43.62319" lon="3.34864">
        <ele>272</ele>
        <time>2011-03-06T09:36:16Z</time>
      </trkpt>
      <trkpt lat="43.62314" lon="3.34872">
        <ele>270.8</ele>
        <time>2011-03-06T09:36:18Z</time>
      </trkpt>
      <trkpt lat="43.62311" lon="3.34877">
        <ele>270.3</ele>
        <time>2011-03-06T09:36:19Z</time>
      </trkpt>
      <trkpt lat="43.62308" lon="3.34882">
        <ele>269.6</ele>
        <time>2011-03-06T09:36:20Z</time>
      </trkpt>
      <trkpt lat="43.62305" lon="3.34888">
        <ele>269</ele>
        <time>2011-03-06T09:36:21Z</time>
      </trkpt>
      <trkpt lat="43.62302" lon="3.34894">
        <ele>268.3</ele>
        <time>2011-03-06T09:36:22Z</time>
      </trkpt>
      <trkpt lat="43.62298" lon="3.34899">
        <ele>267.7</ele>
        <time>2011-03-06T09:36:23Z</time>
      </trkpt>
      <trkpt lat="43.62293" lon="3.34903">
        <ele>267.2</ele>
        <time>2011-03-06T09:36:24Z</time>
      </trkpt>
      <trkpt lat="43.62288" lon="3.34906">
        <ele>266.8</ele>
        <time>2011-03-06T09:36:25Z</time>
      </trkpt>
      <trkpt lat="43.62281" lon="3.34907">
        <ele>266.5</ele>
        <time>2011-03-06T09:36:26Z</time>
      </trkpt>
      <trkpt lat="43.62274" lon="3.34907">
        <ele>266.3</ele>
        <time>2011-03-06T09:36:27Z</time>
      </trkpt>
      <trkpt lat="43.62267" lon="3.34907">
        <ele>266.1</ele>
        <time>2011-03-06T09:36:28Z</time>
      </trkpt>
      <trkpt lat="43.62261" lon="3.34908">
        <ele>265.8</ele>
        <time>2011-03-06T09:36:29Z</time>
      </trkpt>
      <trkpt lat="43.62256" lon="3.34908">
        <ele>265.7</ele>
        <time>2011-03-06T09:36:30Z</time>
      </trkpt>
      <trkpt lat="43.62251" lon="3.34907">
        <ele>265.6</ele>
        <time>2011-03-06T09:36:31Z</time>
      </trkpt>
      <trkpt lat="43.62246" lon="3.34903">
        <ele>265.7</ele>
        <time>2011-03-06T09:36:32Z</time>
      </trkpt>
      <trkpt lat="43.62242" lon="3.34898">
        <ele>265.7</ele>
        <time>2011-03-06T09:36:33Z</time>
      </trkpt>
      <trkpt lat="43.62237" lon="3.34893">
        <ele>265.8</ele>
        <time>2011-03-06T09:36:34Z</time>
      </trkpt>
      <trkpt lat="43.62232" lon="3.34889">
        <ele>265.8</ele>
        <time>2011-03-06T09:36:35Z</time>
      </trkpt>
      <trkpt lat="43.62228" lon="3.34884">
        <ele>265.9</ele>
        <time>2011-03-06T09:36:36Z</time>
      </trkpt>
      <trkpt lat="43.62222" lon="3.34878">
        <ele>266</ele>
        <time>2011-03-06T09:36:38Z</time>
      </trkpt>
      <trkpt lat="43.62224" lon="3.34868">
        <ele>266.7</ele>
        <time>2011-03-06T09:36:44Z</time>
      </trkpt>
      <trkpt lat="43.62231" lon="3.34864">
        <ele>267.3</ele>
        <time>2011-03-06T09:36:47Z</time>
      </trkpt>
      <trkpt lat="43.62236" lon="3.34854">
        <ele>268.1</ele>
        <time>2011-03-06T09:37:00Z</time>
      </trkpt>
      <trkpt lat="43.6223" lon="3.3486">
        <ele>267.4</ele>
        <time>2011-03-06T09:37:12Z</time>
      </trkpt>
      <trkpt lat="43.62224" lon="3.34864">
        <ele>266.9</ele>
        <time>2011-03-06T09:37:15Z</time>
      </trkpt>
      <trkpt lat="43.62218" lon="3.34868">
        <ele>266.4</ele>
        <time>2011-03-06T09:37:17Z</time>
      </trkpt>
      <trkpt lat="43.62213" lon="3.34871">
        <ele>265.9</ele>
        <time>2011-03-06T09:37:19Z</time>
      </trkpt>
      <trkpt lat="43.62206" lon="3.34876">
        <ele>265.4</ele>
        <time>2011-03-06T09:37:21Z</time>
      </trkpt>
      <trkpt lat="43.62199" lon="3.34881">
        <ele>264.7</ele>
        <time>2011-03-06T09:37:23Z</time>
      </trkpt>
      <trkpt lat="43.62194" lon="3.34883">
        <ele>264.3</ele>
        <time>2011-03-06T09:37:24Z</time>
      </trkpt>
      <trkpt lat="43.62189" lon="3.34885">
        <ele>264</ele>
        <time>2011-03-06T09:37:25Z</time>
      </trkpt>
      <trkpt lat="43.62184" lon="3.34888">
        <ele>263.6</ele>
        <time>2011-03-06T09:37:26Z</time>
      </trkpt>
      <trkpt lat="43.62179" lon="3.3489">
        <ele>263.2</ele>
        <time>2011-03-06T09:37:27Z</time>
      </trkpt>
      <trkpt lat="43.62175" lon="3.34893">
        <ele>262.8</ele>
        <time>2011-03-06T09:37:28Z</time>
      </trkpt>
      <trkpt lat="43.6217" lon="3.34897">
        <ele>262.4</ele>
        <time>2011-03-06T09:37:29Z</time>
      </trkpt>
      <trkpt lat="43.62166" lon="3.34901">
        <ele>262</ele>
        <time>2011-03-06T09:37:30Z</time>
      </trkpt>
      <trkpt lat="43.62162" lon="3.34906">
        <ele>261.8</ele>
        <time>2011-03-06T09:37:31Z</time>
      </trkpt>
      <trkpt lat="43.62157" lon="3.3491">
        <ele>261.6</ele>
        <time>2011-03-06T09:37:32Z</time>
      </trkpt>
      <trkpt lat="43.62152" lon="3.34914">
        <ele>261.5</ele>
        <time>2011-03-06T09:37:33Z</time>
      </trkpt>
      <trkpt lat="43.62147" lon="3.34919">
        <ele>261.3</ele>
        <time>2011-03-06T09:37:34Z</time>
      </trkpt>
      <trkpt lat="43.62141" lon="3.34923">
        <ele>260.9</ele>
        <time>2011-03-06T09:37:35Z</time>
      </trkpt>
      <trkpt lat="43.62135" lon="3.34929">
        <ele>260.5</ele>
        <time>2011-03-06T09:37:36Z</time>
      </trkpt>
      <trkpt lat="43.6213" lon="3.34935">
        <ele>260.1</ele>
        <time>2011-03-06T09:37:37Z</time>
      </trkpt>
      <trkpt lat="43.62125" lon="3.34943">
        <ele>259.5</ele>
        <time>2011-03-06T09:37:38Z</time>
      </trkpt>
      <trkpt lat="43.62121" lon="3.34952">
        <ele>258.8</ele>
        <time>2011-03-06T09:37:39Z</time>
      </trkpt>
      <trkpt lat="43.62117" lon="3.3496">
        <ele>258.2</ele>
        <time>2011-03-06T09:37:40Z</time>
      </trkpt>
      <trkpt lat="43.62113" lon="3.3497">
        <ele>257.6</ele>
        <time>2011-03-06T09:37:41Z</time>
      </trkpt>
      <trkpt lat="43.62108" lon="3.3498">
        <ele>257</ele>
        <time>2011-03-06T09:37:42Z</time>
      </trkpt>
      <trkpt lat="43.62102" lon="3.3499">
        <ele>256.5</ele>
        <time>2011-03-06T09:37:43Z</time>
      </trkpt>
      <trkpt lat="43.62095" lon="3.35">
        <ele>256.2</ele>
        <time>2011-03-06T09:37:44Z</time>
      </trkpt>
      <trkpt lat="43.62088" lon="3.35011">
        <ele>256.2</ele>
        <time>2011-03-06T09:37:45Z</time>
      </trkpt>
      <trkpt lat="43.62082" lon="3.35022">
        <ele>256.2</ele>
        <time>2011-03-06T09:37:46Z</time>
      </trkpt>
      <trkpt lat="43.62075" lon="3.35032">
        <ele>255.7</ele>
        <time>2011-03-06T09:37:47Z</time>
      </trkpt>
      <trkpt lat="43.62068" lon="3.3504">
        <ele>255.2</ele>
        <time>2011-03-06T09:37:48Z</time>
      </trkpt>
      <trkpt lat="43.6206" lon="3.35046">
        <ele>254.7</ele>
        <time>2011-03-06T09:37:49Z</time>
      </trkpt>
      <trkpt lat="43.62053" lon="3.35049">
        <ele>254.4</ele>
        <time>2011-03-06T09:37:50Z</time>
      </trkpt>
      <trkpt lat="43.62044" lon="3.35049">
        <ele>254.1</ele>
        <time>2011-03-06T09:37:51Z</time>
      </trkpt>
      <trkpt lat="43.62036" lon="3.35048">
        <ele>254</ele>
        <time>2011-03-06T09:37:52Z</time>
      </trkpt>
      <trkpt lat="43.62028" lon="3.35048">
        <ele>253.7</ele>
        <time>2011-03-06T09:37:53Z</time>
      </trkpt>
      <trkpt lat="43.62019" lon="3.35049">
        <ele>253.4</ele>
        <time>2011-03-06T09:37:54Z</time>
      </trkpt>
      <trkpt lat="43.6201" lon="3.3505">
        <ele>253.1</ele>
        <time>2011-03-06T09:37:55Z</time>
      </trkpt>
      <trkpt lat="43.62001" lon="3.35051">
        <ele>252.8</ele>
        <time>2011-03-06T09:37:56Z</time>
      </trkpt>
      <trkpt lat="43.61992" lon="3.35053">
        <ele>251.9</ele>
        <time>2011-03-06T09:37:57Z</time>
      </trkpt>
      <trkpt lat="43.61983" lon="3.35056">
        <ele>251</ele>
        <time>2011-03-06T09:37:58Z</time>
      </trkpt>
      <trkpt lat="43.61976" lon="3.35058">
        <ele>250.2</ele>
        <time>2011-03-06T09:37:59Z</time>
      </trkpt>
      <trkpt lat="43.61967" lon="3.35059">
        <ele>249.5</ele>
        <time>2011-03-06T09:38:00Z</time>
      </trkpt>
      <trkpt lat="43.61959" lon="3.35058">
        <ele>248.9</ele>
        <time>2011-03-06T09:38:01Z</time>
      </trkpt>
      <trkpt lat="43.6195" lon="3.35056">
        <ele>248.3</ele>
        <time>2011-03-06T09:38:02Z</time>
      </trkpt>
      <trkpt lat="43.61941" lon="3.35054">
        <ele>247.7</ele>
        <time>2011-03-06T09:38:03Z</time>
      </trkpt>
      <trkpt lat="43.61933" lon="3.35052">
        <ele>247.1</ele>
        <time>2011-03-06T09:38:04Z</time>
      </trkpt>
      <trkpt lat="43.61926" lon="3.3505">
        <ele>246.6</ele>
        <time>2011-03-06T09:38:05Z</time>
      </trkpt>
      <trkpt lat="43.6192" lon="3.35049">
        <ele>246.1</ele>
        <time>2011-03-06T09:38:06Z</time>
      </trkpt>
      <trkpt lat="43.61914" lon="3.35048">
        <ele>245.6</ele>
        <time>2011-03-06T09:38:07Z</time>
      </trkpt>
      <trkpt lat="43.61906" lon="3.35043">
        <ele>244.8</ele>
        <time>2011-03-06T09:38:09Z</time>
      </trkpt>
      <trkpt lat="43.619" lon="3.35037">
        <ele>244.2</ele>
        <time>2011-03-06T09:38:12Z</time>
      </trkpt>
      <trkpt lat="43.61905" lon="3.35044">
        <ele>244.7</ele>
        <time>2011-03-06T09:38:20Z</time>
      </trkpt>
      <trkpt lat="43.61909" lon="3.35052">
        <ele>244.9</ele>
        <time>2011-03-06T09:38:22Z</time>
      </trkpt>
      <trkpt lat="43.61906" lon="3.3506">
        <ele>244.3</ele>
        <time>2011-03-06T09:38:24Z</time>
      </trkpt>
      <trkpt lat="43.61904" lon="3.35064">
        <ele>243.9</ele>
        <time>2011-03-06T09:38:25Z</time>
      </trkpt>
      <trkpt lat="43.61894" lon="3.35075">
        <ele>242.5</ele>
        <time>2011-03-06T09:38:28Z</time>
      </trkpt>
      <trkpt lat="43.6189" lon="3.35079">
        <ele>241.9</ele>
        <time>2011-03-06T09:38:29Z</time>
      </trkpt>
      <trkpt lat="43.61887" lon="3.35083">
        <ele>241.4</ele>
        <time>2011-03-06T09:38:30Z</time>
      </trkpt>
      <trkpt lat="43.61882" lon="3.35087">
        <ele>240.9</ele>
        <time>2011-03-06T09:38:31Z</time>
      </trkpt>
      <trkpt lat="43.61878" lon="3.35091">
        <ele>240.3</ele>
        <time>2011-03-06T09:38:32Z</time>
      </trkpt>
      <trkpt lat="43.61874" lon="3.35093">
        <ele>239.8</ele>
        <time>2011-03-06T09:38:33Z</time>
      </trkpt>
      <trkpt lat="43.61866" lon="3.35098">
        <ele>238.8</ele>
        <time>2011-03-06T09:38:35Z</time>
      </trkpt>
      <trkpt lat="43.61858" lon="3.35103">
        <ele>237.9</ele>
        <time>2011-03-06T09:38:37Z</time>
      </trkpt>
      <trkpt lat="43.61853" lon="3.35108">
        <ele>237.2</ele>
        <time>2011-03-06T09:38:39Z</time>
      </trkpt>
      <trkpt lat="43.61847" lon="3.35113">
        <ele>236.6</ele>
        <time>2011-03-06T09:38:41Z</time>
      </trkpt>
      <trkpt lat="43.61839" lon="3.35117">
        <ele>235.7</ele>
        <time>2011-03-06T09:38:44Z</time>
      </trkpt>
      <trkpt lat="43.61831" lon="3.35122">
        <ele>234.8</ele>
        <time>2011-03-06T09:39:02Z</time>
      </trkpt>
      <trkpt lat="43.61838" lon="3.35119">
        <ele>235.5</ele>
        <time>2011-03-06T09:39:08Z</time>
      </trkpt>
      <trkpt lat="43.61844" lon="3.35115">
        <ele>236.2</ele>
        <time>2011-03-06T09:39:11Z</time>
      </trkpt>
      <trkpt lat="43.61852" lon="3.3511">
        <ele>237.1</ele>
        <time>2011-03-06T09:39:14Z</time>
      </trkpt>
      <trkpt lat="43.61858" lon="3.35105">
        <ele>237.9</ele>
        <time>2011-03-06T09:39:16Z</time>
      </trkpt>
      <trkpt lat="43.61866" lon="3.351">
        <ele>238.8</ele>
        <time>2011-03-06T09:39:18Z</time>
      </trkpt>
      <trkpt lat="43.61873" lon="3.35094">
        <ele>239.7</ele>
        <time>2011-03-06T09:39:20Z</time>
      </trkpt>
      <trkpt lat="43.61877" lon="3.35091">
        <ele>240.2</ele>
        <time>2011-03-06T09:39:21Z</time>
      </trkpt>
      <trkpt lat="43.61881" lon="3.35087">
        <ele>240.7</ele>
        <time>2011-03-06T09:39:22Z</time>
      </trkpt>
      <trkpt lat="43.61885" lon="3.35084">
        <ele>241.1</ele>
        <time>2011-03-06T09:39:23Z</time>
      </trkpt>
      <trkpt lat="43.61892" lon="3.35076">
        <ele>242.2</ele>
        <time>2011-03-06T09:39:25Z</time>
      </trkpt>
      <trkpt lat="43.61895" lon="3.35073">
        <ele>242.7</ele>
        <time>2011-03-06T09:39:26Z</time>
      </trkpt>
      <trkpt lat="43.61904" lon="3.35063">
        <ele>244</ele>
        <time>2011-03-06T09:39:29Z</time>
      </trkpt>
      <trkpt lat="43.61911" lon="3.35055">
        <ele>245</ele>
        <time>2011-03-06T09:39:33Z</time>
      </trkpt>
      <trkpt lat="43.61918" lon="3.35049">
        <ele>246</ele>
        <time>2011-03-06T09:39:38Z</time>
      </trkpt>
      <trkpt lat="43.61927" lon="3.3505">
        <ele>246.6</ele>
        <time>2011-03-06T09:39:42Z</time>
      </trkpt>
      <trkpt lat="43.61933" lon="3.35042">
        <ele>247.4</ele>
        <time>2011-03-06T09:40:14Z</time>
      </trkpt>
      <trkpt lat="43.61934" lon="3.3503">
        <ele>247.9</ele>
        <time>2011-03-06T09:40:27Z</time>
      </trkpt>
      <trkpt lat="43.61934" lon="3.3503">
        <ele>248</ele>
        <time>2011-03-06T09:40:28Z</time>
      </trkpt>
      <trkpt lat="43.61948" lon="3.35016">
        <ele>250</ele>
        <time>2011-03-06T09:40:49Z</time>
      </trkpt>
      <trkpt lat="43.61951" lon="3.35005">
        <ele>250.8</ele>
        <time>2011-03-06T09:40:59Z</time>
      </trkpt>
      <trkpt lat="43.61954" lon="3.34994">
        <ele>251.8</ele>
        <time>2011-03-06T09:41:12Z</time>
      </trkpt>
      <trkpt lat="43.61958" lon="3.34984">
        <ele>253</ele>
        <time>2011-03-06T09:41:27Z</time>
      </trkpt>
      <trkpt lat="43.61962" lon="3.34973">
        <ele>254</ele>
        <time>2011-03-06T09:41:40Z</time>
      </trkpt>
      <trkpt lat="43.61962" lon="3.34972">
        <ele>254.1</ele>
        <time>2011-03-06T09:41:41Z</time>
      </trkpt>
      <trkpt lat="43.61966" lon="3.34951">
        <ele>255.7</ele>
        <time>2011-03-06T09:41:59Z</time>
      </trkpt>
      <trkpt lat="43.61969" lon="3.3494">
        <ele>256.7</ele>
        <time>2011-03-06T09:42:12Z</time>
      </trkpt>
      <trkpt lat="43.61978" lon="3.34937">
        <ele>257.8</ele>
        <time>2011-03-06T09:42:32Z</time>
      </trkpt>
      <trkpt lat="43.61984" lon="3.3493">
        <ele>258.8</ele>
        <time>2011-03-06T09:42:37Z</time>
      </trkpt>
      <trkpt lat="43.61984" lon="3.34918">
        <ele>259.4</ele>
        <time>2011-03-06T09:42:41Z</time>
      </trkpt>
      <trkpt lat="43.61984" lon="3.34916">
        <ele>259.4</ele>
        <time>2011-03-06T09:42:42Z</time>
      </trkpt>
      <trkpt lat="43.61981" lon="3.34894">
        <ele>259.1</ele>
        <time>2011-03-06T09:43:04Z</time>
      </trkpt>
      <trkpt lat="43.61981" lon="3.34882">
        <ele>259</ele>
        <time>2011-03-06T09:43:11Z</time>
      </trkpt>
      <trkpt lat="43.61975" lon="3.34873">
        <ele>258.8</ele>
        <time>2011-03-06T09:43:20Z</time>
      </trkpt>
      <trkpt lat="43.61967" lon="3.34869">
        <ele>258.6</ele>
        <time>2011-03-06T09:43:34Z</time>
      </trkpt>
      <trkpt lat="43.61959" lon="3.34864">
        <ele>258.6</ele>
        <time>2011-03-06T09:43:47Z</time>
      </trkpt>
      <trkpt lat="43.61959" lon="3.34864">
        <ele>258.6</ele>
        <time>2011-03-06T09:43:48Z</time>
      </trkpt>
      <trkpt lat="43.61944" lon="3.34856">
        <ele>258.8</ele>
        <time>2011-03-06T09:44:15Z</time>
      </trkpt>
      <trkpt lat="43.61937" lon="3.34848">
        <ele>259.3</ele>
        <time>2011-03-06T09:44:32Z</time>
      </trkpt>
      <trkpt lat="43.61929" lon="3.34846">
        <ele>259.6</ele>
        <time>2011-03-06T09:44:49Z</time>
      </trkpt>
      <trkpt lat="43.61927" lon="3.34844">
        <ele>259.8</ele>
        <time>2011-03-06T09:44:50Z</time>
      </trkpt>
      <trkpt lat="43.61915" lon="3.34839">
        <ele>260.4</ele>
        <time>2011-03-06T09:44:53Z</time>
      </trkpt>
      <trkpt lat="43.6191" lon="3.34829">
        <ele>260.5</ele>
        <time>2011-03-06T09:44:56Z</time>
      </trkpt>
      <trkpt lat="43.61918" lon="3.34824">
        <ele>261.3</ele>
        <time>2011-03-06T09:45:04Z</time>
      </trkpt>
      <trkpt lat="43.61924" lon="3.3482">
        <ele>261.3</ele>
        <time>2011-03-06T09:45:07Z</time>
      </trkpt>
      <trkpt lat="43.6193" lon="3.34811">
        <ele>261.5</ele>
        <time>2011-03-06T09:45:12Z</time>
      </trkpt>
      <trkpt lat="43.6193" lon="3.34801">
        <ele>262</ele>
        <time>2011-03-06T09:45:19Z</time>
      </trkpt>
      <trkpt lat="43.61931" lon="3.34789">
        <ele>262.5</ele>
        <time>2011-03-06T09:45:23Z</time>
      </trkpt>
      <trkpt lat="43.61926" lon="3.34782">
        <ele>262.9</ele>
        <time>2011-03-06T09:45:26Z</time>
      </trkpt>
      <trkpt lat="43.6192" lon="3.34777">
        <ele>263</ele>
        <time>2011-03-06T09:45:29Z</time>
      </trkpt>
      <trkpt lat="43.61914" lon="3.34769">
        <ele>263</ele>
        <time>2011-03-06T09:45:34Z</time>
      </trkpt>
      <trkpt lat="43.61906" lon="3.34764">
        <ele>262.3</ele>
        <time>2011-03-06T09:45:38Z</time>
      </trkpt>
      <trkpt lat="43.61904" lon="3.34754">
        <ele>262.4</ele>
        <time>2011-03-06T09:45:42Z</time>
      </trkpt>
      <trkpt lat="43.61905" lon="3.34741">
        <ele>262.6</ele>
        <time>2011-03-06T09:45:46Z</time>
      </trkpt>
      <trkpt lat="43.61907" lon="3.34731">
        <ele>262.9</ele>
        <time>2011-03-06T09:45:50Z</time>
      </trkpt>
      <trkpt lat="43.61908" lon="3.3473">
        <ele>263.1</ele>
        <time>2011-03-06T09:45:51Z</time>
      </trkpt>
      <trkpt lat="43.61916" lon="3.34713">
        <ele>263.9</ele>
        <time>2011-03-06T09:45:58Z</time>
      </trkpt>
      <trkpt lat="43.61921" lon="3.34705">
        <ele>264.1</ele>
        <time>2011-03-06T09:46:02Z</time>
      </trkpt>
      <trkpt lat="43.61926" lon="3.34698">
        <ele>264.2</ele>
        <time>2011-03-06T09:46:06Z</time>
      </trkpt>
      <trkpt lat="43.61933" lon="3.34691">
        <ele>264.4</ele>
        <time>2011-03-06T09:46:10Z</time>
      </trkpt>
      <trkpt lat="43.61939" lon="3.34686">
        <ele>264.5</ele>
        <time>2011-03-06T09:46:13Z</time>
      </trkpt>
      <trkpt lat="43.61944" lon="3.3468">
        <ele>264.7</ele>
        <time>2011-03-06T09:46:16Z</time>
      </trkpt>
      <trkpt lat="43.61949" lon="3.34672">
        <ele>264.8</ele>
        <time>2011-03-06T09:46:20Z</time>
      </trkpt>
      <trkpt lat="43.61955" lon="3.34665">
        <ele>264.9</ele>
        <time>2011-03-06T09:46:23Z</time>
      </trkpt>
      <trkpt lat="43.6196" lon="3.3466">
        <ele>264.8</ele>
        <time>2011-03-06T09:46:25Z</time>
      </trkpt>
      <trkpt lat="43.61966" lon="3.34658">
        <ele>264.9</ele>
        <time>2011-03-06T09:46:27Z</time>
      </trkpt>
      <trkpt lat="43.61972" lon="3.34654">
        <ele>264.9</ele>
        <time>2011-03-06T09:46:29Z</time>
      </trkpt>
      <trkpt lat="43.61979" lon="3.34653">
        <ele>265</ele>
        <time>2011-03-06T09:46:31Z</time>
      </trkpt>
      <trkpt lat="43.61987" lon="3.34649">
        <ele>265.1</ele>
        <time>2011-03-06T09:46:34Z</time>
      </trkpt>
      <trkpt lat="43.61994" lon="3.34644">
        <ele>265.1</ele>
        <time>2011-03-06T09:46:37Z</time>
      </trkpt>
      <trkpt lat="43.62002" lon="3.34639">
        <ele>265.1</ele>
        <time>2011-03-06T09:46:40Z</time>
      </trkpt>
      <trkpt lat="43.62009" lon="3.34633">
        <ele>265.4</ele>
        <time>2011-03-06T09:46:43Z</time>
      </trkpt>
      <trkpt lat="43.62015" lon="3.34627">
        <ele>265.6</ele>
        <time>2011-03-06T09:46:46Z</time>
      </trkpt>
      <trkpt lat="43.6202" lon="3.34623">
        <ele>265.7</ele>
        <time>2011-03-06T09:46:48Z</time>
      </trkpt>
      <trkpt lat="43.62026" lon="3.34617">
        <ele>266</ele>
        <time>2011-03-06T09:46:50Z</time>
      </trkpt>
      <trkpt lat="43.62031" lon="3.34611">
        <ele>266.1</ele>
        <time>2011-03-06T09:46:52Z</time>
      </trkpt>
      <trkpt lat="43.62034" lon="3.34609">
        <ele>266.2</ele>
        <time>2011-03-06T09:46:53Z</time>
      </trkpt>
      <trkpt lat="43.62042" lon="3.346">
        <ele>266.5</ele>
        <time>2011-03-06T09:46:56Z</time>
      </trkpt>
      <trkpt lat="43.62049" lon="3.34593">
        <ele>266.8</ele>
        <time>2011-03-06T09:46:59Z</time>
      </trkpt>
      <trkpt lat="43.62055" lon="3.34585">
        <ele>267</ele>
        <time>2011-03-06T09:47:02Z</time>
      </trkpt>
      <trkpt lat="43.62059" lon="3.34579">
        <ele>267</ele>
        <time>2011-03-06T09:47:04Z</time>
      </trkpt>
      <trkpt lat="43.62061" lon="3.34571">
        <ele>266.8</ele>
        <time>2011-03-06T09:47:06Z</time>
      </trkpt>
      <trkpt lat="43.62061" lon="3.34561">
        <ele>266.3</ele>
        <time>2011-03-06T09:47:08Z</time>
      </trkpt>
      <trkpt lat="43.62065" lon="3.34551">
        <ele>266.1</ele>
        <time>2011-03-06T09:47:10Z</time>
      </trkpt>
      <trkpt lat="43.62068" lon="3.34541">
        <ele>265.9</ele>
        <time>2011-03-06T09:47:12Z</time>
      </trkpt>
      <trkpt lat="43.62072" lon="3.34531">
        <ele>265.7</ele>
        <time>2011-03-06T09:47:14Z</time>
      </trkpt>
      <trkpt lat="43.62076" lon="3.34523">
        <ele>265.6</ele>
        <time>2011-03-06T09:47:16Z</time>
      </trkpt>
      <trkpt lat="43.62081" lon="3.34515">
        <ele>265.5</ele>
        <time>2011-03-06T09:47:18Z</time>
      </trkpt>
      <trkpt lat="43.62086" lon="3.34509">
        <ele>265.9</ele>
        <time>2011-03-06T09:47:20Z</time>
      </trkpt>
      <trkpt lat="43.62091" lon="3.34504">
        <ele>266.8</ele>
        <time>2011-03-06T09:47:22Z</time>
      </trkpt>
      <trkpt lat="43.62096" lon="3.34498">
        <ele>267.5</ele>
        <time>2011-03-06T09:47:24Z</time>
      </trkpt>
      <trkpt lat="43.62104" lon="3.34493">
        <ele>269.1</ele>
        <time>2011-03-06T09:47:27Z</time>
      </trkpt>
      <trkpt lat="43.62112" lon="3.3449">
        <ele>270.6</ele>
        <time>2011-03-06T09:47:30Z</time>
      </trkpt>
      <trkpt lat="43.62118" lon="3.34486">
        <ele>271.7</ele>
        <time>2011-03-06T09:47:33Z</time>
      </trkpt>
      <trkpt lat="43.62124" lon="3.3448">
        <ele>272.6</ele>
        <time>2011-03-06T09:47:36Z</time>
      </trkpt>
      <trkpt lat="43.62129" lon="3.34471">
        <ele>273.2</ele>
        <time>2011-03-06T09:47:40Z</time>
      </trkpt>
      <trkpt lat="43.62134" lon="3.34464">
        <ele>273.8</ele>
        <time>2011-03-06T09:47:43Z</time>
      </trkpt>
      <trkpt lat="43.6214" lon="3.34456">
        <ele>274.5</ele>
        <time>2011-03-06T09:47:47Z</time>
      </trkpt>
      <trkpt lat="43.62146" lon="3.34447">
        <ele>274.9</ele>
        <time>2011-03-06T09:47:51Z</time>
      </trkpt>
      <trkpt lat="43.62151" lon="3.3444">
        <ele>275.2</ele>
        <time>2011-03-06T09:47:54Z</time>
      </trkpt>
      <trkpt lat="43.62152" lon="3.34438">
        <ele>275.3</ele>
        <time>2011-03-06T09:47:55Z</time>
      </trkpt>
      <trkpt lat="43.62162" lon="3.34425">
        <ele>275.9</ele>
        <time>2011-03-06T09:48:03Z</time>
      </trkpt>
      <trkpt lat="43.62167" lon="3.34415">
        <ele>276</ele>
        <time>2011-03-06T09:48:08Z</time>
      </trkpt>
      <trkpt lat="43.62173" lon="3.34405">
        <ele>277.4</ele>
        <time>2011-03-06T09:48:12Z</time>
      </trkpt>
      <trkpt lat="43.62178" lon="3.34399">
        <ele>278.7</ele>
        <time>2011-03-06T09:48:15Z</time>
      </trkpt>
      <trkpt lat="43.62184" lon="3.34393">
        <ele>279.8</ele>
        <time>2011-03-06T09:48:18Z</time>
      </trkpt>
      <trkpt lat="43.6219" lon="3.34386">
        <ele>280.7</ele>
        <time>2011-03-06T09:48:21Z</time>
      </trkpt>
      <trkpt lat="43.62195" lon="3.34379">
        <ele>281.3</ele>
        <time>2011-03-06T09:48:24Z</time>
      </trkpt>
      <trkpt lat="43.62201" lon="3.34372">
        <ele>281.8</ele>
        <time>2011-03-06T09:48:27Z</time>
      </trkpt>
      <trkpt lat="43.62207" lon="3.34365">
        <ele>282.1</ele>
        <time>2011-03-06T09:48:30Z</time>
      </trkpt>
      <trkpt lat="43.62213" lon="3.34359">
        <ele>282.6</ele>
        <time>2011-03-06T09:48:33Z</time>
      </trkpt>
      <trkpt lat="43.6222" lon="3.34354">
        <ele>283</ele>
        <time>2011-03-06T09:48:36Z</time>
      </trkpt>
      <trkpt lat="43.62228" lon="3.3435">
        <ele>283.4</ele>
        <time>2011-03-06T09:48:39Z</time>
      </trkpt>
      <trkpt lat="43.62236" lon="3.34346">
        <ele>283.9</ele>
        <time>2011-03-06T09:48:42Z</time>
      </trkpt>
      <trkpt lat="43.62244" lon="3.34344">
        <ele>284.6</ele>
        <time>2011-03-06T09:48:45Z</time>
      </trkpt>
      <trkpt lat="43.62252" lon="3.34342">
        <ele>285.3</ele>
        <time>2011-03-06T09:48:48Z</time>
      </trkpt>
      <trkpt lat="43.6226" lon="3.3434">
        <ele>286.7</ele>
        <time>2011-03-06T09:48:51Z</time>
      </trkpt>
      <trkpt lat="43.62269" lon="3.34339">
        <ele>288.2</ele>
        <time>2011-03-06T09:48:54Z</time>
      </trkpt>
      <trkpt lat="43.62277" lon="3.34338">
        <ele>289.7</ele>
        <time>2011-03-06T09:48:57Z</time>
      </trkpt>
      <trkpt lat="43.6228" lon="3.34337">
        <ele>290.2</ele>
        <time>2011-03-06T09:48:58Z</time>
      </trkpt>
      <trkpt lat="43.62293" lon="3.34333">
        <ele>292.3</ele>
        <time>2011-03-06T09:49:03Z</time>
      </trkpt>
      <trkpt lat="43.623" lon="3.34328">
        <ele>293.4</ele>
        <time>2011-03-06T09:49:06Z</time>
      </trkpt>
      <trkpt lat="43.62306" lon="3.34323">
        <ele>294</ele>
        <time>2011-03-06T09:49:08Z</time>
      </trkpt>
      <trkpt lat="43.62311" lon="3.34317">
        <ele>294.4</ele>
        <time>2011-03-06T09:49:10Z</time>
      </trkpt>
      <trkpt lat="43.62317" lon="3.3431">
        <ele>294.3</ele>
        <time>2011-03-06T09:49:12Z</time>
      </trkpt>
      <trkpt lat="43.62321" lon="3.34302">
        <ele>294</ele>
        <time>2011-03-06T09:49:14Z</time>
      </trkpt>
      <trkpt lat="43.62326" lon="3.34294">
        <ele>293.4</ele>
        <time>2011-03-06T09:49:16Z</time>
      </trkpt>
      <trkpt lat="43.62332" lon="3.34286">
        <ele>292.8</ele>
        <time>2011-03-06T09:49:18Z</time>
      </trkpt>
      <trkpt lat="43.62338" lon="3.34277">
        <ele>292.5</ele>
        <time>2011-03-06T09:49:20Z</time>
      </trkpt>
      <trkpt lat="43.62341" lon="3.34273">
        <ele>292.5</ele>
        <time>2011-03-06T09:49:21Z</time>
      </trkpt>
      <trkpt lat="43.62345" lon="3.34269">
        <ele>292.5</ele>
        <time>2011-03-06T09:49:22Z</time>
      </trkpt>
      <trkpt lat="43.62352" lon="3.34261">
        <ele>292.7</ele>
        <time>2011-03-06T09:49:24Z</time>
      </trkpt>
      <trkpt lat="43.62359" lon="3.34254">
        <ele>292.9</ele>
        <time>2011-03-06T09:49:26Z</time>
      </trkpt>
      <trkpt lat="43.62366" lon="3.34246">
        <ele>293.6</ele>
        <time>2011-03-06T09:49:28Z</time>
      </trkpt>
      <trkpt lat="43.62373" lon="3.34239">
        <ele>294.9</ele>
        <time>2011-03-06T09:49:30Z</time>
      </trkpt>
      <trkpt lat="43.62377" lon="3.34236">
        <ele>295.4</ele>
        <time>2011-03-06T09:49:31Z</time>
      </trkpt>
      <trkpt lat="43.62381" lon="3.34232">
        <ele>295.9</ele>
        <time>2011-03-06T09:49:32Z</time>
      </trkpt>
      <trkpt lat="43.62385" lon="3.34229">
        <ele>296.4</ele>
        <time>2011-03-06T09:49:33Z</time>
      </trkpt>
      <trkpt lat="43.62392" lon="3.34223">
        <ele>297.2</ele>
        <time>2011-03-06T09:49:35Z</time>
      </trkpt>
      <trkpt lat="43.624" lon="3.34217">
        <ele>297.6</ele>
        <time>2011-03-06T09:49:37Z</time>
      </trkpt>
      <trkpt lat="43.62406" lon="3.34209">
        <ele>297.5</ele>
        <time>2011-03-06T09:49:39Z</time>
      </trkpt>
      <trkpt lat="43.62413" lon="3.34201">
        <ele>297.3</ele>
        <time>2011-03-06T09:49:41Z</time>
      </trkpt>
      <trkpt lat="43.62419" lon="3.34193">
        <ele>296.8</ele>
        <time>2011-03-06T09:49:43Z</time>
      </trkpt>
      <trkpt lat="43.62425" lon="3.34185">
        <ele>296.4</ele>
        <time>2011-03-06T09:49:45Z</time>
      </trkpt>
      <trkpt lat="43.6243" lon="3.34178">
        <ele>296</ele>
        <time>2011-03-06T09:49:47Z</time>
      </trkpt>
      <trkpt lat="43.62436" lon="3.34172">
        <ele>295.6</ele>
        <time>2011-03-06T09:49:49Z</time>
      </trkpt>
      <trkpt lat="43.62442" lon="3.34166">
        <ele>295.4</ele>
        <time>2011-03-06T09:49:51Z</time>
      </trkpt>
      <trkpt lat="43.62448" lon="3.34162">
        <ele>296.8</ele>
        <time>2011-03-06T09:49:53Z</time>
      </trkpt>
      <trkpt lat="43.62454" lon="3.34157">
        <ele>298</ele>
        <time>2011-03-06T09:49:55Z</time>
      </trkpt>
      <trkpt lat="43.62462" lon="3.34152">
        <ele>299.2</ele>
        <time>2011-03-06T09:49:58Z</time>
      </trkpt>
      <trkpt lat="43.62465" lon="3.3415">
        <ele>299.6</ele>
        <time>2011-03-06T09:49:59Z</time>
      </trkpt>
      <trkpt lat="43.62475" lon="3.34143">
        <ele>300.8</ele>
        <time>2011-03-06T09:50:03Z</time>
      </trkpt>
      <trkpt lat="43.62481" lon="3.3414">
        <ele>301.2</ele>
        <time>2011-03-06T09:50:05Z</time>
      </trkpt>
      <trkpt lat="43.62486" lon="3.34135">
        <ele>301.6</ele>
        <time>2011-03-06T09:50:07Z</time>
      </trkpt>
      <trkpt lat="43.62492" lon="3.34126">
        <ele>302.1</ele>
        <time>2011-03-06T09:50:10Z</time>
      </trkpt>
      <trkpt lat="43.62499" lon="3.34119">
        <ele>302.2</ele>
        <time>2011-03-06T09:50:13Z</time>
      </trkpt>
      <trkpt lat="43.62504" lon="3.34114">
        <ele>302.7</ele>
        <time>2011-03-06T09:50:16Z</time>
      </trkpt>
      <trkpt lat="43.6251" lon="3.34109">
        <ele>303.5</ele>
        <time>2011-03-06T09:50:19Z</time>
      </trkpt>
      <trkpt lat="43.62518" lon="3.34103">
        <ele>304.3</ele>
        <time>2011-03-06T09:50:23Z</time>
      </trkpt>
      <trkpt lat="43.62524" lon="3.34096">
        <ele>305.1</ele>
        <time>2011-03-06T09:50:27Z</time>
      </trkpt>
      <trkpt lat="43.62531" lon="3.34089">
        <ele>305.9</ele>
        <time>2011-03-06T09:50:31Z</time>
      </trkpt>
      <trkpt lat="43.62537" lon="3.34082">
        <ele>306.8</ele>
        <time>2011-03-06T09:50:35Z</time>
      </trkpt>
      <trkpt lat="43.62543" lon="3.34074">
        <ele>308.3</ele>
        <time>2011-03-06T09:50:39Z</time>
      </trkpt>
      <trkpt lat="43.62547" lon="3.34065">
        <ele>309.7</ele>
        <time>2011-03-06T09:50:43Z</time>
      </trkpt>
      <trkpt lat="43.62552" lon="3.34054">
        <ele>311.1</ele>
        <time>2011-03-06T09:50:48Z</time>
      </trkpt>
      <trkpt lat="43.62555" lon="3.34043">
        <ele>312.3</ele>
        <time>2011-03-06T09:50:53Z</time>
      </trkpt>
      <trkpt lat="43.62559" lon="3.34034">
        <ele>313</ele>
        <time>2011-03-06T09:50:57Z</time>
      </trkpt>
      <trkpt lat="43.62563" lon="3.34023">
        <ele>313.6</ele>
        <time>2011-03-06T09:51:02Z</time>
      </trkpt>
      <trkpt lat="43.62564" lon="3.34021">
        <ele>313.8</ele>
        <time>2011-03-06T09:51:03Z</time>
      </trkpt>
      <trkpt lat="43.62572" lon="3.34007">
        <ele>313.9</ele>
        <time>2011-03-06T09:51:10Z</time>
      </trkpt>
      <trkpt lat="43.62578" lon="3.34">
        <ele>313.7</ele>
        <time>2011-03-06T09:51:14Z</time>
      </trkpt>
      <trkpt lat="43.62583" lon="3.33993">
        <ele>314.2</ele>
        <time>2011-03-06T09:51:18Z</time>
      </trkpt>
      <trkpt lat="43.62588" lon="3.33984">
        <ele>316.3</ele>
        <time>2011-03-06T09:51:22Z</time>
      </trkpt>
      <trkpt lat="43.62591" lon="3.33974">
        <ele>318.4</ele>
        <time>2011-03-06T09:51:26Z</time>
      </trkpt>
      <trkpt lat="43.62596" lon="3.33967">
        <ele>320.3</ele>
        <time>2011-03-06T09:51:30Z</time>
      </trkpt>
      <trkpt lat="43.62602" lon="3.3396">
        <ele>322</ele>
        <time>2011-03-06T09:51:34Z</time>
      </trkpt>
      <trkpt lat="43.62609" lon="3.33955">
        <ele>323.5</ele>
        <time>2011-03-06T09:51:38Z</time>
      </trkpt>
      <trkpt lat="43.62616" lon="3.33949">
        <ele>324.9</ele>
        <time>2011-03-06T09:51:42Z</time>
      </trkpt>
      <trkpt lat="43.62621" lon="3.33943">
        <ele>326</ele>
        <time>2011-03-06T09:51:46Z</time>
      </trkpt>
      <trkpt lat="43.62627" lon="3.33935">
        <ele>327.1</ele>
        <time>2011-03-06T09:51:51Z</time>
      </trkpt>
      <trkpt lat="43.62633" lon="3.33927">
        <ele>328</ele>
        <time>2011-03-06T09:51:57Z</time>
      </trkpt>
      <trkpt lat="43.62639" lon="3.33918">
        <ele>328.6</ele>
        <time>2011-03-06T09:52:02Z</time>
      </trkpt>
      <trkpt lat="43.62644" lon="3.3391">
        <ele>329.9</ele>
        <time>2011-03-06T09:52:07Z</time>
      </trkpt>
      <trkpt lat="43.62645" lon="3.33908">
        <ele>330.2</ele>
        <time>2011-03-06T09:52:08Z</time>
      </trkpt>
      <trkpt lat="43.62655" lon="3.33894">
        <ele>332.5</ele>
        <time>2011-03-06T09:52:18Z</time>
      </trkpt>
      <trkpt lat="43.62661" lon="3.33886">
        <ele>333.6</ele>
        <time>2011-03-06T09:52:23Z</time>
      </trkpt>
      <trkpt lat="43.62668" lon="3.33879">
        <ele>334.7</ele>
        <time>2011-03-06T09:52:28Z</time>
      </trkpt>
      <trkpt lat="43.62674" lon="3.33871">
        <ele>336.3</ele>
        <time>2011-03-06T09:52:33Z</time>
      </trkpt>
      <trkpt lat="43.6268" lon="3.33863">
        <ele>337.5</ele>
        <time>2011-03-06T09:52:38Z</time>
      </trkpt>
      <trkpt lat="43.62686" lon="3.33856">
        <ele>338.5</ele>
        <time>2011-03-06T09:52:43Z</time>
      </trkpt>
      <trkpt lat="43.62691" lon="3.33848">
        <ele>339.2</ele>
        <time>2011-03-06T09:52:48Z</time>
      </trkpt>
      <trkpt lat="43.62698" lon="3.33842">
        <ele>339.7</ele>
        <time>2011-03-06T09:52:53Z</time>
      </trkpt>
      <trkpt lat="43.62703" lon="3.33834">
        <ele>340</ele>
        <time>2011-03-06T09:52:58Z</time>
      </trkpt>
      <trkpt lat="43.62709" lon="3.33825">
        <ele>341.6</ele>
        <time>2011-03-06T09:53:04Z</time>
      </trkpt>
      <trkpt lat="43.62715" lon="3.33818">
        <ele>342.8</ele>
        <time>2011-03-06T09:53:09Z</time>
      </trkpt>
      <trkpt lat="43.62716" lon="3.33816">
        <ele>343</ele>
        <time>2011-03-06T09:53:10Z</time>
      </trkpt>
      <trkpt lat="43.62728" lon="3.33803">
        <ele>344.7</ele>
        <time>2011-03-06T09:53:20Z</time>
      </trkpt>
      <trkpt lat="43.62734" lon="3.33797">
        <ele>345.3</ele>
        <time>2011-03-06T09:53:25Z</time>
      </trkpt>
      <trkpt lat="43.62741" lon="3.3379">
        <ele>345.8</ele>
        <time>2011-03-06T09:53:30Z</time>
      </trkpt>
      <trkpt lat="43.62748" lon="3.33784">
        <ele>346.1</ele>
        <time>2011-03-06T09:53:35Z</time>
      </trkpt>
      <trkpt lat="43.62754" lon="3.33778">
        <ele>346.9</ele>
        <time>2011-03-06T09:53:40Z</time>
      </trkpt>
      <trkpt lat="43.62761" lon="3.33771">
        <ele>347.9</ele>
        <time>2011-03-06T09:53:45Z</time>
      </trkpt>
      <trkpt lat="43.62768" lon="3.33764">
        <ele>348.6</ele>
        <time>2011-03-06T09:53:50Z</time>
      </trkpt>
      <trkpt lat="43.62774" lon="3.33756">
        <ele>349.1</ele>
        <time>2011-03-06T09:53:55Z</time>
      </trkpt>
      <trkpt lat="43.62781" lon="3.33748">
        <ele>349.7</ele>
        <time>2011-03-06T09:54:00Z</time>
      </trkpt>
      <trkpt lat="43.62787" lon="3.33741">
        <ele>351.3</ele>
        <time>2011-03-06T09:54:05Z</time>
      </trkpt>
      <trkpt lat="43.62794" lon="3.33733">
        <ele>352.6</ele>
        <time>2011-03-06T09:54:10Z</time>
      </trkpt>
      <trkpt lat="43.62796" lon="3.33732">
        <ele>352.8</ele>
        <time>2011-03-06T09:54:11Z</time>
      </trkpt>
      <trkpt lat="43.62808" lon="3.33721">
        <ele>353.9</ele>
        <time>2011-03-06T09:54:19Z</time>
      </trkpt>
      <trkpt lat="43.62816" lon="3.33716">
        <ele>354</ele>
        <time>2011-03-06T09:54:24Z</time>
      </trkpt>
      <trkpt lat="43.62822" lon="3.33717">
        <ele>353.2</ele>
        <time>2011-03-06T09:54:27Z</time>
      </trkpt>
      <trkpt lat="43.62828" lon="3.33722">
        <ele>351.8</ele>
        <time>2011-03-06T09:54:29Z</time>
      </trkpt>
      <trkpt lat="43.62832" lon="3.33727">
        <ele>351</ele>
        <time>2011-03-06T09:54:30Z</time>
      </trkpt>
      <trkpt lat="43.62835" lon="3.33733">
        <ele>350.1</ele>
        <time>2011-03-06T09:54:31Z</time>
      </trkpt>
      <trkpt lat="43.62838" lon="3.33739">
        <ele>349.3</ele>
        <time>2011-03-06T09:54:32Z</time>
      </trkpt>
      <trkpt lat="43.62841" lon="3.33746">
        <ele>348.6</ele>
        <time>2011-03-06T09:54:33Z</time>
      </trkpt>
      <trkpt lat="43.62845" lon="3.33752">
        <ele>348.6</ele>
        <time>2011-03-06T09:54:34Z</time>
      </trkpt>
      <trkpt lat="43.62848" lon="3.33758">
        <ele>349.5</ele>
        <time>2011-03-06T09:54:35Z</time>
      </trkpt>
      <trkpt lat="43.62856" lon="3.33762">
        <ele>350.5</ele>
        <time>2011-03-06T09:54:37Z</time>
      </trkpt>
      <trkpt lat="43.62863" lon="3.33765">
        <ele>351.3</ele>
        <time>2011-03-06T09:54:40Z</time>
      </trkpt>
      <trkpt lat="43.62871" lon="3.33765">
        <ele>351.8</ele>
        <time>2011-03-06T09:54:44Z</time>
      </trkpt>
      <trkpt lat="43.62879" lon="3.33766">
        <ele>352.5</ele>
        <time>2011-03-06T09:54:48Z</time>
      </trkpt>
      <trkpt lat="43.62887" lon="3.33768">
        <ele>353.3</ele>
        <time>2011-03-06T09:54:52Z</time>
      </trkpt>
      <trkpt lat="43.62895" lon="3.33771">
        <ele>354.4</ele>
        <time>2011-03-06T09:54:56Z</time>
      </trkpt>
      <trkpt lat="43.62903" lon="3.33773">
        <ele>355.4</ele>
        <time>2011-03-06T09:55:00Z</time>
      </trkpt>
      <trkpt lat="43.62911" lon="3.33774">
        <ele>356.1</ele>
        <time>2011-03-06T09:55:04Z</time>
      </trkpt>
      <trkpt lat="43.62918" lon="3.33773">
        <ele>356.3</ele>
        <time>2011-03-06T09:55:07Z</time>
      </trkpt>
      <trkpt lat="43.62926" lon="3.33771">
        <ele>355.3</ele>
        <time>2011-03-06T09:55:10Z</time>
      </trkpt>
      <trkpt lat="43.62933" lon="3.33769">
        <ele>354.5</ele>
        <time>2011-03-06T09:55:13Z</time>
      </trkpt>
      <trkpt lat="43.62935" lon="3.33768">
        <ele>354.2</ele>
        <time>2011-03-06T09:55:14Z</time>
      </trkpt>
      <trkpt lat="43.62949" lon="3.33763">
        <ele>352.3</ele>
        <time>2011-03-06T09:55:21Z</time>
      </trkpt>
      <trkpt lat="43.62958" lon="3.33762">
        <ele>351.7</ele>
        <time>2011-03-06T09:56:40Z</time>
      </trkpt>
      <trkpt lat="43.62958" lon="3.33762">
        <ele>351.7</ele>
        <time>2011-03-06T09:56:41Z</time>
      </trkpt>
      <trkpt lat="43.62967" lon="3.33761">
        <ele>350.8</ele>
        <time>2011-03-06T09:57:58Z</time>
      </trkpt>
      <trkpt lat="43.62979" lon="3.33759">
        <ele>349.8</ele>
        <time>2011-03-06T09:58:02Z</time>
      </trkpt>
      <trkpt lat="43.62986" lon="3.33759">
        <ele>349.6</ele>
        <time>2011-03-06T09:58:04Z</time>
      </trkpt>
      <trkpt lat="43.62994" lon="3.33762">
        <ele>350.1</ele>
        <time>2011-03-06T09:58:06Z</time>
      </trkpt>
      <trkpt lat="43.62998" lon="3.33765">
        <ele>350.8</ele>
        <time>2011-03-06T09:58:07Z</time>
      </trkpt>
      <trkpt lat="43.63003" lon="3.33768">
        <ele>351.5</ele>
        <time>2011-03-06T09:58:08Z</time>
      </trkpt>
      <trkpt lat="43.63007" lon="3.33771">
        <ele>352.2</ele>
        <time>2011-03-06T09:58:09Z</time>
      </trkpt>
      <trkpt lat="43.63012" lon="3.33774">
        <ele>352.8</ele>
        <time>2011-03-06T09:58:10Z</time>
      </trkpt>
      <trkpt lat="43.63016" lon="3.33777">
        <ele>353.4</ele>
        <time>2011-03-06T09:58:11Z</time>
      </trkpt>
      <trkpt lat="43.63021" lon="3.3378">
        <ele>354.1</ele>
        <time>2011-03-06T09:58:12Z</time>
      </trkpt>
      <trkpt lat="43.63025" lon="3.33784">
        <ele>354.8</ele>
        <time>2011-03-06T09:58:13Z</time>
      </trkpt>
      <trkpt lat="43.63029" lon="3.33788">
        <ele>355.5</ele>
        <time>2011-03-06T09:58:14Z</time>
      </trkpt>
      <trkpt lat="43.63034" lon="3.33791">
        <ele>356.1</ele>
        <time>2011-03-06T09:58:15Z</time>
      </trkpt>
      <trkpt lat="43.63039" lon="3.33796">
        <ele>356.8</ele>
        <time>2011-03-06T09:58:16Z</time>
      </trkpt>
      <trkpt lat="43.63044" lon="3.338">
        <ele>357.5</ele>
        <time>2011-03-06T09:58:17Z</time>
      </trkpt>
      <trkpt lat="43.63049" lon="3.33804">
        <ele>357.9</ele>
        <time>2011-03-06T09:58:18Z</time>
      </trkpt>
      <trkpt lat="43.63054" lon="3.33808">
        <ele>358.4</ele>
        <time>2011-03-06T09:58:19Z</time>
      </trkpt>
      <trkpt lat="43.63058" lon="3.33811">
        <ele>358.5</ele>
        <time>2011-03-06T09:58:20Z</time>
      </trkpt>
      <trkpt lat="43.63063" lon="3.33813">
        <ele>358.4</ele>
        <time>2011-03-06T09:58:21Z</time>
      </trkpt>
      <trkpt lat="43.63068" lon="3.33814">
        <ele>358</ele>
        <time>2011-03-06T09:58:22Z</time>
      </trkpt>
      <trkpt lat="43.63073" lon="3.33815">
        <ele>357.6</ele>
        <time>2011-03-06T09:58:23Z</time>
      </trkpt>
      <trkpt lat="43.63079" lon="3.33816">
        <ele>357</ele>
        <time>2011-03-06T09:58:24Z</time>
      </trkpt>
      <trkpt lat="43.63085" lon="3.33816">
        <ele>356.6</ele>
        <time>2011-03-06T09:58:25Z</time>
      </trkpt>
      <trkpt lat="43.6309" lon="3.33816">
        <ele>356.8</ele>
        <time>2011-03-06T09:58:26Z</time>
      </trkpt>
      <trkpt lat="43.63095" lon="3.33816">
        <ele>356.9</ele>
        <time>2011-03-06T09:58:27Z</time>
      </trkpt>
      <trkpt lat="43.631" lon="3.33815">
        <ele>357</ele>
        <time>2011-03-06T09:58:28Z</time>
      </trkpt>
      <trkpt lat="43.63105" lon="3.33813">
        <ele>357</ele>
        <time>2011-03-06T09:58:29Z</time>
      </trkpt>
      <trkpt lat="43.63111" lon="3.33812">
        <ele>357.1</ele>
        <time>2011-03-06T09:58:30Z</time>
      </trkpt>
      <trkpt lat="43.63117" lon="3.33812">
        <ele>357.3</ele>
        <time>2011-03-06T09:58:31Z</time>
      </trkpt>
      <trkpt lat="43.63123" lon="3.33812">
        <ele>357.7</ele>
        <time>2011-03-06T09:58:32Z</time>
      </trkpt>
      <trkpt lat="43.63128" lon="3.33813">
        <ele>358.1</ele>
        <time>2011-03-06T09:58:33Z</time>
      </trkpt>
      <trkpt lat="43.63134" lon="3.33814">
        <ele>358.5</ele>
        <time>2011-03-06T09:58:34Z</time>
      </trkpt>
      <trkpt lat="43.63139" lon="3.33815">
        <ele>358.9</ele>
        <time>2011-03-06T09:58:35Z</time>
      </trkpt>
      <trkpt lat="43.63143" lon="3.33814">
        <ele>358.9</ele>
        <time>2011-03-06T09:58:36Z</time>
      </trkpt>
      <trkpt lat="43.63151" lon="3.33807">
        <ele>358.6</ele>
        <time>2011-03-06T09:58:38Z</time>
      </trkpt>
      <trkpt lat="43.63158" lon="3.33802">
        <ele>358.4</ele>
        <time>2011-03-06T09:58:51Z</time>
      </trkpt>
      <trkpt lat="43.63153" lon="3.33791">
        <ele>356.9</ele>
        <time>2011-03-06T09:59:18Z</time>
      </trkpt>
      <trkpt lat="43.63154" lon="3.3379">
        <ele>356.8</ele>
        <time>2011-03-06T09:59:19Z</time>
      </trkpt>
      <trkpt lat="43.63148" lon="3.33768">
        <ele>353.8</ele>
        <time>2011-03-06T09:59:27Z</time>
      </trkpt>
      <trkpt lat="43.63145" lon="3.33758">
        <ele>352.1</ele>
        <time>2011-03-06T09:59:29Z</time>
      </trkpt>
      <trkpt lat="43.63143" lon="3.33753">
        <ele>351.2</ele>
        <time>2011-03-06T09:59:30Z</time>
      </trkpt>
      <trkpt lat="43.6314" lon="3.33748">
        <ele>350.3</ele>
        <time>2011-03-06T09:59:31Z</time>
      </trkpt>
      <trkpt lat="43.63135" lon="3.33745">
        <ele>349.5</ele>
        <time>2011-03-06T09:59:32Z</time>
      </trkpt>
      <trkpt lat="43.63131" lon="3.33742">
        <ele>348.6</ele>
        <time>2011-03-06T09:59:33Z</time>
      </trkpt>
      <trkpt lat="43.63128" lon="3.33738">
        <ele>347.7</ele>
        <time>2011-03-06T09:59:34Z</time>
      </trkpt>
      <trkpt lat="43.63125" lon="3.33732">
        <ele>346.8</ele>
        <time>2011-03-06T09:59:35Z</time>
      </trkpt>
      <trkpt lat="43.63123" lon="3.33726">
        <ele>345.9</ele>
        <time>2011-03-06T09:59:36Z</time>
      </trkpt>
      <trkpt lat="43.63118" lon="3.33719">
        <ele>344.2</ele>
        <time>2011-03-06T09:59:38Z</time>
      </trkpt>
      <trkpt lat="43.63114" lon="3.33709">
        <ele>342.4</ele>
        <time>2011-03-06T10:00:03Z</time>
      </trkpt>
      <trkpt lat="43.63108" lon="3.33701">
        <ele>340.4</ele>
        <time>2011-03-06T10:00:07Z</time>
      </trkpt>
      <trkpt lat="43.63104" lon="3.33693">
        <ele>338.6</ele>
        <time>2011-03-06T10:00:09Z</time>
      </trkpt>
      <trkpt lat="43.63104" lon="3.33684">
        <ele>337.4</ele>
        <time>2011-03-06T10:00:12Z</time>
      </trkpt>
      <trkpt lat="43.631" lon="3.33674">
        <ele>335.1</ele>
        <time>2011-03-06T10:00:15Z</time>
      </trkpt>
      <trkpt lat="43.63097" lon="3.33665">
        <ele>333.5</ele>
        <time>2011-03-06T10:00:17Z</time>
      </trkpt>
      <trkpt lat="43.63095" lon="3.33654">
        <ele>332.3</ele>
        <time>2011-03-06T10:00:20Z</time>
      </trkpt>
      <trkpt lat="43.63094" lon="3.3365">
        <ele>331.8</ele>
        <time>2011-03-06T10:00:21Z</time>
      </trkpt>
      <trkpt lat="43.6309" lon="3.33641">
        <ele>330.3</ele>
        <time>2011-03-06T10:00:23Z</time>
      </trkpt>
      <trkpt lat="43.63088" lon="3.33634">
        <ele>329.5</ele>
        <time>2011-03-06T10:00:24Z</time>
      </trkpt>
      <trkpt lat="43.63086" lon="3.33625">
        <ele>328.6</ele>
        <time>2011-03-06T10:00:26Z</time>
      </trkpt>
      <trkpt lat="43.63082" lon="3.33617">
        <ele>327.6</ele>
        <time>2011-03-06T10:00:30Z</time>
      </trkpt>
      <trkpt lat="43.63076" lon="3.33612">
        <ele>327.2</ele>
        <time>2011-03-06T10:00:33Z</time>
      </trkpt>
      <trkpt lat="43.63069" lon="3.33606">
        <ele>326.7</ele>
        <time>2011-03-06T10:00:36Z</time>
      </trkpt>
      <trkpt lat="43.63064" lon="3.33601">
        <ele>326.2</ele>
        <time>2011-03-06T10:00:38Z</time>
      </trkpt>
      <trkpt lat="43.63058" lon="3.33597">
        <ele>325.8</ele>
        <time>2011-03-06T10:00:40Z</time>
      </trkpt>
      <trkpt lat="43.63052" lon="3.33588">
        <ele>325.1</ele>
        <time>2011-03-06T10:00:43Z</time>
      </trkpt>
      <trkpt lat="43.63054" lon="3.33576">
        <ele>324.3</ele>
        <time>2011-03-06T10:00:54Z</time>
      </trkpt>
      <trkpt lat="43.6306" lon="3.33568">
        <ele>323.5</ele>
        <time>2011-03-06T10:01:37Z</time>
      </trkpt>
      <trkpt lat="43.6306" lon="3.33567">
        <ele>323.5</ele>
        <time>2011-03-06T10:01:38Z</time>
      </trkpt>
      <trkpt lat="43.63065" lon="3.33548">
        <ele>321.2</ele>
        <time>2011-03-06T10:01:45Z</time>
      </trkpt>
      <trkpt lat="43.63069" lon="3.33538">
        <ele>319.8</ele>
        <time>2011-03-06T10:01:48Z</time>
      </trkpt>
      <trkpt lat="43.63073" lon="3.33531">
        <ele>318.5</ele>
        <time>2011-03-06T10:01:50Z</time>
      </trkpt>
      <trkpt lat="43.6308" lon="3.33522">
        <ele>316.8</ele>
        <time>2011-03-06T10:01:52Z</time>
      </trkpt>
      <trkpt lat="43.63084" lon="3.33515">
        <ele>315.4</ele>
        <time>2011-03-06T10:01:54Z</time>
      </trkpt>
      <trkpt lat="43.6309" lon="3.33507">
        <ele>315.4</ele>
        <time>2011-03-06T10:01:56Z</time>
      </trkpt>
      <trkpt lat="43.63096" lon="3.33499">
        <ele>315</ele>
        <time>2011-03-06T10:01:58Z</time>
      </trkpt>
      <trkpt lat="43.63099" lon="3.33494">
        <ele>314.7</ele>
        <time>2011-03-06T10:01:59Z</time>
      </trkpt>
      <trkpt lat="43.63103" lon="3.33488">
        <ele>314.3</ele>
        <time>2011-03-06T10:02:00Z</time>
      </trkpt>
      <trkpt lat="43.63107" lon="3.33483">
        <ele>313.9</ele>
        <time>2011-03-06T10:02:01Z</time>
      </trkpt>
      <trkpt lat="43.63112" lon="3.33478">
        <ele>313.7</ele>
        <time>2011-03-06T10:02:02Z</time>
      </trkpt>
      <trkpt lat="43.63118" lon="3.33471">
        <ele>313.4</ele>
        <time>2011-03-06T10:02:04Z</time>
      </trkpt>
      <trkpt lat="43.63124" lon="3.33462">
        <ele>312.6</ele>
        <time>2011-03-06T10:02:07Z</time>
      </trkpt>
      <trkpt lat="43.63129" lon="3.33454">
        <ele>311.8</ele>
        <time>2011-03-06T10:02:09Z</time>
      </trkpt>
      <trkpt lat="43.63132" lon="3.33447">
        <ele>310.8</ele>
        <time>2011-03-06T10:02:11Z</time>
      </trkpt>
      <trkpt lat="43.63136" lon="3.3344">
        <ele>310</ele>
        <time>2011-03-06T10:02:13Z</time>
      </trkpt>
      <trkpt lat="43.63139" lon="3.33432">
        <ele>308.6</ele>
        <time>2011-03-06T10:02:15Z</time>
      </trkpt>
      <trkpt lat="43.63144" lon="3.33424">
        <ele>307.7</ele>
        <time>2011-03-06T10:02:18Z</time>
      </trkpt>
      <trkpt lat="43.63148" lon="3.33416">
        <ele>306.6</ele>
        <time>2011-03-06T10:02:21Z</time>
      </trkpt>
      <trkpt lat="43.6315" lon="3.33409">
        <ele>305.1</ele>
        <time>2011-03-06T10:02:23Z</time>
      </trkpt>
      <trkpt lat="43.63155" lon="3.33401">
        <ele>303.7</ele>
        <time>2011-03-06T10:02:25Z</time>
      </trkpt>
      <trkpt lat="43.63158" lon="3.33394">
        <ele>302.3</ele>
        <time>2011-03-06T10:02:27Z</time>
      </trkpt>
      <trkpt lat="43.63161" lon="3.33386">
        <ele>300.3</ele>
        <time>2011-03-06T10:02:29Z</time>
      </trkpt>
      <trkpt lat="43.63166" lon="3.33377">
        <ele>298</ele>
        <time>2011-03-06T10:02:31Z</time>
      </trkpt>
      <trkpt lat="43.63172" lon="3.33367">
        <ele>296.6</ele>
        <time>2011-03-06T10:02:33Z</time>
      </trkpt>
      <trkpt lat="43.63177" lon="3.33358">
        <ele>295.2</ele>
        <time>2011-03-06T10:02:36Z</time>
      </trkpt>
      <trkpt lat="43.6318" lon="3.33348">
        <ele>293.4</ele>
        <time>2011-03-06T10:02:38Z</time>
      </trkpt>
      <trkpt lat="43.63183" lon="3.33344">
        <ele>292.8</ele>
        <time>2011-03-06T10:02:39Z</time>
      </trkpt>
      <trkpt lat="43.63191" lon="3.3333">
        <ele>291.5</ele>
        <time>2011-03-06T10:02:42Z</time>
      </trkpt>
      <trkpt lat="43.63196" lon="3.33323">
        <ele>291.6</ele>
        <time>2011-03-06T10:02:44Z</time>
      </trkpt>
      <trkpt lat="43.63203" lon="3.33317">
        <ele>292</ele>
        <time>2011-03-06T10:02:46Z</time>
      </trkpt>
      <trkpt lat="43.63209" lon="3.33311">
        <ele>292</ele>
        <time>2011-03-06T10:02:48Z</time>
      </trkpt>
      <trkpt lat="43.63216" lon="3.33305">
        <ele>292.5</ele>
        <time>2011-03-06T10:02:50Z</time>
      </trkpt>
      <trkpt lat="43.63222" lon="3.33298">
        <ele>292.3</ele>
        <time>2011-03-06T10:02:54Z</time>
      </trkpt>
      <trkpt lat="43.63226" lon="3.3329">
        <ele>291.2</ele>
        <time>2011-03-06T10:02:57Z</time>
      </trkpt>
      <trkpt lat="43.63232" lon="3.33286">
        <ele>291.4</ele>
        <time>2011-03-06T10:02:59Z</time>
      </trkpt>
      <trkpt lat="43.63239" lon="3.33279">
        <ele>291</ele>
        <time>2011-03-06T10:03:07Z</time>
      </trkpt>
      <trkpt lat="43.63243" lon="3.33272">
        <ele>290.1</ele>
        <time>2011-03-06T10:03:10Z</time>
      </trkpt>
      <trkpt lat="43.6325" lon="3.33265">
        <ele>289.5</ele>
        <time>2011-03-06T10:03:13Z</time>
      </trkpt>
      <trkpt lat="43.63254" lon="3.33256">
        <ele>288.1</ele>
        <time>2011-03-06T10:03:17Z</time>
      </trkpt>
      <trkpt lat="43.63255" lon="3.33246">
        <ele>285.7</ele>
        <time>2011-03-06T10:03:21Z</time>
      </trkpt>
      <trkpt lat="43.63251" lon="3.33235">
        <ele>281.9</ele>
        <time>2011-03-06T10:03:24Z</time>
      </trkpt>
      <trkpt lat="43.63248" lon="3.33224">
        <ele>279.1</ele>
        <time>2011-03-06T10:03:27Z</time>
      </trkpt>
      <trkpt lat="43.63246" lon="3.33215">
        <ele>276.8</ele>
        <time>2011-03-06T10:03:30Z</time>
      </trkpt>
      <trkpt lat="43.63245" lon="3.33205">
        <ele>274.4</ele>
        <time>2011-03-06T10:03:33Z</time>
      </trkpt>
      <trkpt lat="43.63247" lon="3.33195">
        <ele>272.7</ele>
        <time>2011-03-06T10:03:35Z</time>
      </trkpt>
      <trkpt lat="43.63246" lon="3.33187">
        <ele>270.8</ele>
        <time>2011-03-06T10:03:37Z</time>
      </trkpt>
      <trkpt lat="43.63246" lon="3.33178">
        <ele>268.9</ele>
        <time>2011-03-06T10:03:39Z</time>
      </trkpt>
      <trkpt lat="43.63247" lon="3.33174">
        <ele>268</ele>
        <time>2011-03-06T10:03:40Z</time>
      </trkpt>
      <trkpt lat="43.63249" lon="3.33159">
        <ele>265.1</ele>
        <time>2011-03-06T10:03:43Z</time>
      </trkpt>
      <trkpt lat="43.63249" lon="3.33149">
        <ele>262.7</ele>
        <time>2011-03-06T10:03:45Z</time>
      </trkpt>
      <trkpt lat="43.63251" lon="3.33139">
        <ele>260.9</ele>
        <time>2011-03-06T10:03:47Z</time>
      </trkpt>
      <trkpt lat="43.63252" lon="3.33127">
        <ele>258.5</ele>
        <time>2011-03-06T10:03:49Z</time>
      </trkpt>
      <trkpt lat="43.63256" lon="3.33116">
        <ele>256.6</ele>
        <time>2011-03-06T10:03:51Z</time>
      </trkpt>
      <trkpt lat="43.63258" lon="3.33105">
        <ele>254.6</ele>
        <time>2011-03-06T10:03:53Z</time>
      </trkpt>
      <trkpt lat="43.63261" lon="3.33096">
        <ele>253.3</ele>
        <time>2011-03-06T10:03:55Z</time>
      </trkpt>
      <trkpt lat="43.63264" lon="3.33092">
        <ele>252.9</ele>
        <time>2011-03-06T10:03:56Z</time>
      </trkpt>
      <trkpt lat="43.63268" lon="3.33087">
        <ele>252.4</ele>
        <time>2011-03-06T10:03:57Z</time>
      </trkpt>
      <trkpt lat="43.63272" lon="3.33082">
        <ele>251.9</ele>
        <time>2011-03-06T10:03:58Z</time>
      </trkpt>
      <trkpt lat="43.63275" lon="3.33076">
        <ele>251.1</ele>
        <time>2011-03-06T10:03:59Z</time>
      </trkpt>
      <trkpt lat="43.6328" lon="3.33067">
        <ele>249.9</ele>
        <time>2011-03-06T10:04:01Z</time>
      </trkpt>
      <trkpt lat="43.63285" lon="3.33057">
        <ele>248.2</ele>
        <time>2011-03-06T10:04:04Z</time>
      </trkpt>
      <trkpt lat="43.6329" lon="3.33049">
        <ele>246.7</ele>
        <time>2011-03-06T10:04:07Z</time>
      </trkpt>
      <trkpt lat="43.63291" lon="3.33037">
        <ele>243.9</ele>
        <time>2011-03-06T10:04:13Z</time>
      </trkpt>
      <trkpt lat="43.63294" lon="3.33026">
        <ele>241.3</ele>
        <time>2011-03-06T10:04:20Z</time>
      </trkpt>
      <trkpt lat="43.63296" lon="3.33014">
        <ele>238.5</ele>
        <time>2011-03-06T10:04:29Z</time>
      </trkpt>
      <trkpt lat="43.633" lon="3.33004">
        <ele>236.2</ele>
        <time>2011-03-06T10:04:35Z</time>
      </trkpt>
      <trkpt lat="43.63303" lon="3.32994">
        <ele>234.1</ele>
        <time>2011-03-06T10:04:42Z</time>
      </trkpt>
      <trkpt lat="43.63304" lon="3.32992">
        <ele>233.9</ele>
        <time>2011-03-06T10:04:43Z</time>
      </trkpt>
      <trkpt lat="43.6331" lon="3.32981">
        <ele>232</ele>
        <time>2011-03-06T10:07:04Z</time>
      </trkpt>
      <trkpt lat="43.63308" lon="3.32731">
        <ele>194.2</ele>
        <time>2011-03-06T10:10:48Z</time>
      </trkpt>
      <trkpt lat="43.63309" lon="3.32724">
        <ele>193.7</ele>
        <time>2011-03-06T10:10:49Z</time>
      </trkpt>
      <trkpt lat="43.63311" lon="3.32717">
        <ele>193.3</ele>
        <time>2011-03-06T10:10:50Z</time>
      </trkpt>
      <trkpt lat="43.63313" lon="3.3271">
        <ele>192.8</ele>
        <time>2011-03-06T10:10:51Z</time>
      </trkpt>
      <trkpt lat="43.63315" lon="3.32703">
        <ele>192.2</ele>
        <time>2011-03-06T10:10:52Z</time>
      </trkpt>
      <trkpt lat="43.63315" lon="3.32695">
        <ele>191.7</ele>
        <time>2011-03-06T10:10:53Z</time>
      </trkpt>
      <trkpt lat="43.63316" lon="3.32687">
        <ele>191.2</ele>
        <time>2011-03-06T10:10:54Z</time>
      </trkpt>
      <trkpt lat="43.63317" lon="3.32675">
        <ele>190.4</ele>
        <time>2011-03-06T10:11:11Z</time>
      </trkpt>
      <trkpt lat="43.63322" lon="3.32667">
        <ele>189.9</ele>
        <time>2011-03-06T10:11:30Z</time>
      </trkpt>
      <trkpt lat="43.63327" lon="3.3266">
        <ele>189.7</ele>
        <time>2011-03-06T10:11:33Z</time>
      </trkpt>
      <trkpt lat="43.6333" lon="3.32651">
        <ele>189.4</ele>
        <time>2011-03-06T10:11:35Z</time>
      </trkpt>
      <trkpt lat="43.63335" lon="3.32642">
        <ele>189</ele>
        <time>2011-03-06T10:11:37Z</time>
      </trkpt>
      <trkpt lat="43.63339" lon="3.32632">
        <ele>188.5</ele>
        <time>2011-03-06T10:11:39Z</time>
      </trkpt>
      <trkpt lat="43.63344" lon="3.32622">
        <ele>187.9</ele>
        <time>2011-03-06T10:11:41Z</time>
      </trkpt>
      <trkpt lat="43.63346" lon="3.32617">
        <ele>187.6</ele>
        <time>2011-03-06T10:11:42Z</time>
      </trkpt>
      <trkpt lat="43.63349" lon="3.32611">
        <ele>187.3</ele>
        <time>2011-03-06T10:11:43Z</time>
      </trkpt>
      <trkpt lat="43.63352" lon="3.32605">
        <ele>186.9</ele>
        <time>2011-03-06T10:11:44Z</time>
      </trkpt>
      <trkpt lat="43.63355" lon="3.32599">
        <ele>186.5</ele>
        <time>2011-03-06T10:11:45Z</time>
      </trkpt>
      <trkpt lat="43.63358" lon="3.32592">
        <ele>186.1</ele>
        <time>2011-03-06T10:11:46Z</time>
      </trkpt>
      <trkpt lat="43.63361" lon="3.32584">
        <ele>185.7</ele>
        <time>2011-03-06T10:11:47Z</time>
      </trkpt>
      <trkpt lat="43.63364" lon="3.32575">
        <ele>184.8</ele>
        <time>2011-03-06T10:11:48Z</time>
      </trkpt>
      <trkpt lat="43.63368" lon="3.32567">
        <ele>183.9</ele>
        <time>2011-03-06T10:11:49Z</time>
      </trkpt>
      <trkpt lat="43.63373" lon="3.3256">
        <ele>183.2</ele>
        <time>2011-03-06T10:11:50Z</time>
      </trkpt>
      <trkpt lat="43.63379" lon="3.32554">
        <ele>182.6</ele>
        <time>2011-03-06T10:11:51Z</time>
      </trkpt>
      <trkpt lat="43.63384" lon="3.32547">
        <ele>182.1</ele>
        <time>2011-03-06T10:11:52Z</time>
      </trkpt>
      <trkpt lat="43.6339" lon="3.32539">
        <ele>181.7</ele>
        <time>2011-03-06T10:11:53Z</time>
      </trkpt>
      <trkpt lat="43.63396" lon="3.32532">
        <ele>181.4</ele>
        <time>2011-03-06T10:11:54Z</time>
      </trkpt>
      <trkpt lat="43.63401" lon="3.32523">
        <ele>181.1</ele>
        <time>2011-03-06T10:11:55Z</time>
      </trkpt>
      <trkpt lat="43.63406" lon="3.32514">
        <ele>180.9</ele>
        <time>2011-03-06T10:11:56Z</time>
      </trkpt>
      <trkpt lat="43.63409" lon="3.32504">
        <ele>180.7</ele>
        <time>2011-03-06T10:11:57Z</time>
      </trkpt>
      <trkpt lat="43.63411" lon="3.32494">
        <ele>180.2</ele>
        <time>2011-03-06T10:11:58Z</time>
      </trkpt>
      <trkpt lat="43.63413" lon="3.32485">
        <ele>179.7</ele>
        <time>2011-03-06T10:11:59Z</time>
      </trkpt>
      <trkpt lat="43.63415" lon="3.32477">
        <ele>179.2</ele>
        <time>2011-03-06T10:12:00Z</time>
      </trkpt>
      <trkpt lat="43.63416" lon="3.3247">
        <ele>178.8</ele>
        <time>2011-03-06T10:12:01Z</time>
      </trkpt>
      <trkpt lat="43.63418" lon="3.3246">
        <ele>178</ele>
        <time>2011-03-06T10:12:03Z</time>
      </trkpt>
      <trkpt lat="43.6342" lon="3.32452">
        <ele>177.2</ele>
        <time>2011-03-06T10:12:06Z</time>
      </trkpt>
      <trkpt lat="43.63419" lon="3.32442">
        <ele>176.7</ele>
        <time>2011-03-06T10:12:08Z</time>
      </trkpt>
      <trkpt lat="43.63413" lon="3.32433">
        <ele>175.9</ele>
        <time>2011-03-06T10:12:14Z</time>
      </trkpt>
      <trkpt lat="43.63414" lon="3.32423">
        <ele>175.3</ele>
        <time>2011-03-06T10:12:27Z</time>
      </trkpt>
      <trkpt lat="43.63416" lon="3.32411">
        <ele>174.3</ele>
        <time>2011-03-06T10:12:30Z</time>
      </trkpt>
      <trkpt lat="43.63418" lon="3.32402">
        <ele>173.1</ele>
        <time>2011-03-06T10:12:32Z</time>
      </trkpt>
      <trkpt lat="43.63424" lon="3.32396">
        <ele>172.1</ele>
        <time>2011-03-06T10:12:34Z</time>
      </trkpt>
      <trkpt lat="43.6343" lon="3.32394">
        <ele>171.5</ele>
        <time>2011-03-06T10:12:36Z</time>
      </trkpt>
      <trkpt lat="43.63437" lon="3.32392">
        <ele>171</ele>
        <time>2011-03-06T10:12:38Z</time>
      </trkpt>
      <trkpt lat="43.63444" lon="3.32394">
        <ele>170.7</ele>
        <time>2011-03-06T10:12:40Z</time>
      </trkpt>
      <trkpt lat="43.63451" lon="3.32394">
        <ele>170.4</ele>
        <time>2011-03-06T10:12:42Z</time>
      </trkpt>
      <trkpt lat="43.63456" lon="3.32387">
        <ele>169.4</ele>
        <time>2011-03-06T10:12:44Z</time>
      </trkpt>
      <trkpt lat="43.63461" lon="3.32379">
        <ele>168.5</ele>
        <time>2011-03-06T10:12:46Z</time>
      </trkpt>
      <trkpt lat="43.63467" lon="3.3237">
        <ele>167.5</ele>
        <time>2011-03-06T10:12:48Z</time>
      </trkpt>
      <trkpt lat="43.63472" lon="3.32366">
        <ele>167</ele>
        <time>2011-03-06T10:12:49Z</time>
      </trkpt>
      <trkpt lat="43.63476" lon="3.32362">
        <ele>166.5</ele>
        <time>2011-03-06T10:12:50Z</time>
      </trkpt>
      <trkpt lat="43.6348" lon="3.32351">
        <ele>165.5</ele>
        <time>2011-03-06T10:12:52Z</time>
      </trkpt>
      <trkpt lat="43.63483" lon="3.32346">
        <ele>165.1</ele>
        <time>2011-03-06T10:12:53Z</time>
      </trkpt>
      <trkpt lat="43.63487" lon="3.32335">
        <ele>164.2</ele>
        <time>2011-03-06T10:12:55Z</time>
      </trkpt>
      <trkpt lat="43.63492" lon="3.32325">
        <ele>163.6</ele>
        <time>2011-03-06T10:12:57Z</time>
      </trkpt>
      <trkpt lat="43.63499" lon="3.32318">
        <ele>163.1</ele>
        <time>2011-03-06T10:12:59Z</time>
      </trkpt>
      <trkpt lat="43.63503" lon="3.32316">
        <ele>162.8</ele>
        <time>2011-03-06T10:13:00Z</time>
      </trkpt>
      <trkpt lat="43.63508" lon="3.32314">
        <ele>162.4</ele>
        <time>2011-03-06T10:13:01Z</time>
      </trkpt>
      <trkpt lat="43.63515" lon="3.32308">
        <ele>161.7</ele>
        <time>2011-03-06T10:13:03Z</time>
      </trkpt>
      <trkpt lat="43.63519" lon="3.32305">
        <ele>161.3</ele>
        <time>2011-03-06T10:13:04Z</time>
      </trkpt>
      <trkpt lat="43.63523" lon="3.323">
        <ele>160.8</ele>
        <time>2011-03-06T10:13:05Z</time>
      </trkpt>
      <trkpt lat="43.63527" lon="3.32294">
        <ele>160.3</ele>
        <time>2011-03-06T10:13:06Z</time>
      </trkpt>
      <trkpt lat="43.63531" lon="3.32283">
        <ele>159.6</ele>
        <time>2011-03-06T10:13:08Z</time>
      </trkpt>
      <trkpt lat="43.63535" lon="3.32273">
        <ele>158.9</ele>
        <time>2011-03-06T10:13:12Z</time>
      </trkpt>
      <trkpt lat="43.63537" lon="3.32263">
        <ele>158.3</ele>
        <time>2011-03-06T10:13:14Z</time>
      </trkpt>
      <trkpt lat="43.63538" lon="3.32253">
        <ele>157.8</ele>
        <time>2011-03-06T10:13:16Z</time>
      </trkpt>
      <trkpt lat="43.63538" lon="3.32242">
        <ele>157.2</ele>
        <time>2011-03-06T10:13:18Z</time>
      </trkpt>
      <trkpt lat="43.6354" lon="3.32235">
        <ele>156.8</ele>
        <time>2011-03-06T10:13:19Z</time>
      </trkpt>
      <trkpt lat="43.63542" lon="3.32229">
        <ele>156.4</ele>
        <time>2011-03-06T10:13:20Z</time>
      </trkpt>
      <trkpt lat="43.63545" lon="3.32223">
        <ele>155.9</ele>
        <time>2011-03-06T10:13:21Z</time>
      </trkpt>
      <trkpt lat="43.63548" lon="3.32216">
        <ele>155.4</ele>
        <time>2011-03-06T10:13:22Z</time>
      </trkpt>
      <trkpt lat="43.63551" lon="3.32206">
        <ele>154.7</ele>
        <time>2011-03-06T10:13:24Z</time>
      </trkpt>
      <trkpt lat="43.63553" lon="3.32198">
        <ele>154.2</ele>
        <time>2011-03-06T10:13:26Z</time>
      </trkpt>
      <trkpt lat="43.63555" lon="3.3219">
        <ele>153.6</ele>
        <time>2011-03-06T10:13:28Z</time>
      </trkpt>
      <trkpt lat="43.63559" lon="3.32181">
        <ele>153</ele>
        <time>2011-03-06T10:13:30Z</time>
      </trkpt>
      <trkpt lat="43.63562" lon="3.32172">
        <ele>152.3</ele>
        <time>2011-03-06T10:13:32Z</time>
      </trkpt>
      <trkpt lat="43.63564" lon="3.3216">
        <ele>151.8</ele>
        <time>2011-03-06T10:13:34Z</time>
      </trkpt>
      <trkpt lat="43.63561" lon="3.32149">
        <ele>151.7</ele>
        <time>2011-03-06T10:13:36Z</time>
      </trkpt>
      <trkpt lat="43.63559" lon="3.3214">
        <ele>151.6</ele>
        <time>2011-03-06T10:13:38Z</time>
      </trkpt>
      <trkpt lat="43.63559" lon="3.32129">
        <ele>151.3</ele>
        <time>2011-03-06T10:13:41Z</time>
      </trkpt>
      <trkpt lat="43.63556" lon="3.32118">
        <ele>151.2</ele>
        <time>2011-03-06T10:13:52Z</time>
      </trkpt>
      <trkpt lat="43.63555" lon="3.32118">
        <ele>151.2</ele>
        <time>2011-03-06T10:13:53Z</time>
      </trkpt>
      <trkpt lat="43.63541" lon="3.32113">
        <ele>151.4</ele>
        <time>2011-03-06T10:14:00Z</time>
      </trkpt>
      <trkpt lat="43.63532" lon="3.3211">
        <ele>151.5</ele>
        <time>2011-03-06T10:14:03Z</time>
      </trkpt>
      <trkpt lat="43.6354" lon="3.32114">
        <ele>151.5</ele>
        <time>2011-03-06T10:14:22Z</time>
      </trkpt>
      <trkpt lat="43.63548" lon="3.32116">
        <ele>151.3</ele>
        <time>2011-03-06T10:14:25Z</time>
      </trkpt>
      <trkpt lat="43.63555" lon="3.32119">
        <ele>151.2</ele>
        <time>2011-03-06T10:14:28Z</time>
      </trkpt>
      <trkpt lat="43.63562" lon="3.32121">
        <ele>151.1</ele>
        <time>2011-03-06T10:14:36Z</time>
      </trkpt>
      <trkpt lat="43.63567" lon="3.32123">
        <ele>150.9</ele>
        <time>2011-03-06T10:14:38Z</time>
      </trkpt>
      <trkpt lat="43.63575" lon="3.32125">
        <ele>150.8</ele>
        <time>2011-03-06T10:14:40Z</time>
      </trkpt>
      <trkpt lat="43.63579" lon="3.32127">
        <ele>150.7</ele>
        <time>2011-03-06T10:14:41Z</time>
      </trkpt>
      <trkpt lat="43.63583" lon="3.32128">
        <ele>150.5</ele>
        <time>2011-03-06T10:14:42Z</time>
      </trkpt>
      <trkpt lat="43.63588" lon="3.3213">
        <ele>150.4</ele>
        <time>2011-03-06T10:14:43Z</time>
      </trkpt>
      <trkpt lat="43.63592" lon="3.32131">
        <ele>150.3</ele>
        <time>2011-03-06T10:14:44Z</time>
      </trkpt>
      <trkpt lat="43.63597" lon="3.32133">
        <ele>150.2</ele>
        <time>2011-03-06T10:14:45Z</time>
      </trkpt>
      <trkpt lat="43.63601" lon="3.32134">
        <ele>150</ele>
        <time>2011-03-06T10:14:46Z</time>
      </trkpt>
      <trkpt lat="43.63606" lon="3.32135">
        <ele>149.9</ele>
        <time>2011-03-06T10:14:47Z</time>
      </trkpt>
      <trkpt lat="43.63615" lon="3.32136">
        <ele>149.6</ele>
        <time>2011-03-06T10:14:49Z</time>
      </trkpt>
      <trkpt lat="43.63619" lon="3.32137">
        <ele>149.5</ele>
        <time>2011-03-06T10:14:50Z</time>
      </trkpt>
      <trkpt lat="43.63624" lon="3.32138">
        <ele>149.4</ele>
        <time>2011-03-06T10:14:51Z</time>
      </trkpt>
      <trkpt lat="43.63628" lon="3.32139">
        <ele>149.2</ele>
        <time>2011-03-06T10:14:52Z</time>
      </trkpt>
      <trkpt lat="43.63633" lon="3.3214">
        <ele>149.1</ele>
        <time>2011-03-06T10:14:53Z</time>
      </trkpt>
      <trkpt lat="43.63638" lon="3.32141">
        <ele>148.9</ele>
        <time>2011-03-06T10:14:54Z</time>
      </trkpt>
      <trkpt lat="43.63642" lon="3.32142">
        <ele>148.8</ele>
        <time>2011-03-06T10:14:55Z</time>
      </trkpt>
      <trkpt lat="43.63647" lon="3.32143">
        <ele>148.6</ele>
        <time>2011-03-06T10:14:56Z</time>
      </trkpt>
      <trkpt lat="43.63652" lon="3.32144">
        <ele>148.5</ele>
        <time>2011-03-06T10:14:57Z</time>
      </trkpt>
      <trkpt lat="43.63661" lon="3.32146">
        <ele>148.2</ele>
        <time>2011-03-06T10:14:59Z</time>
      </trkpt>
      <trkpt lat="43.63665" lon="3.32147">
        <ele>148.1</ele>
        <time>2011-03-06T10:15:00Z</time>
      </trkpt>
      <trkpt lat="43.6367" lon="3.32148">
        <ele>147.9</ele>
        <time>2011-03-06T10:15:01Z</time>
      </trkpt>
      <trkpt lat="43.63678" lon="3.32147">
        <ele>147.6</ele>
        <time>2011-03-06T10:15:03Z</time>
      </trkpt>
      <trkpt lat="43.63687" lon="3.32145">
        <ele>147.3</ele>
        <time>2011-03-06T10:15:06Z</time>
      </trkpt>
      <trkpt lat="43.63694" lon="3.32142">
        <ele>147</ele>
        <time>2011-03-06T10:15:08Z</time>
      </trkpt>
      <trkpt lat="43.63699" lon="3.32134">
        <ele>146.8</ele>
        <time>2011-03-06T10:15:10Z</time>
      </trkpt>
      <trkpt lat="43.63701" lon="3.32128">
        <ele>146.8</ele>
        <time>2011-03-06T10:15:11Z</time>
      </trkpt>
      <trkpt lat="43.63703" lon="3.32122">
        <ele>146.7</ele>
        <time>2011-03-06T10:15:12Z</time>
      </trkpt>
      <trkpt lat="43.63706" lon="3.32116">
        <ele>146.6</ele>
        <time>2011-03-06T10:15:13Z</time>
      </trkpt>
      <trkpt lat="43.63708" lon="3.32109">
        <ele>146.5</ele>
        <time>2011-03-06T10:15:14Z</time>
      </trkpt>
      <trkpt lat="43.63711" lon="3.32102">
        <ele>146.4</ele>
        <time>2011-03-06T10:15:15Z</time>
      </trkpt>
      <trkpt lat="43.63713" lon="3.32095">
        <ele>146.3</ele>
        <time>2011-03-06T10:15:16Z</time>
      </trkpt>
      <trkpt lat="43.63716" lon="3.32089">
        <ele>146.2</ele>
        <time>2011-03-06T10:15:17Z</time>
      </trkpt>
      <trkpt lat="43.63719" lon="3.32082">
        <ele>146.1</ele>
        <time>2011-03-06T10:15:18Z</time>
      </trkpt>
      <trkpt lat="43.63723" lon="3.32076">
        <ele>146.1</ele>
        <time>2011-03-06T10:15:19Z</time>
      </trkpt>
      <trkpt lat="43.63727" lon="3.3207">
        <ele>146.1</ele>
        <time>2011-03-06T10:15:20Z</time>
      </trkpt>
      <trkpt lat="43.63731" lon="3.32065">
        <ele>146</ele>
        <time>2011-03-06T10:15:21Z</time>
      </trkpt>
      <trkpt lat="43.63735" lon="3.3206">
        <ele>146</ele>
        <time>2011-03-06T10:15:22Z</time>
      </trkpt>
      <trkpt lat="43.6374" lon="3.32056">
        <ele>145.9</ele>
        <time>2011-03-06T10:15:23Z</time>
      </trkpt>
      <trkpt lat="43.63744" lon="3.32052">
        <ele>145.9</ele>
        <time>2011-03-06T10:15:24Z</time>
      </trkpt>
      <trkpt lat="43.63748" lon="3.32048">
        <ele>145.9</ele>
        <time>2011-03-06T10:15:25Z</time>
      </trkpt>
      <trkpt lat="43.63755" lon="3.32041">
        <ele>146</ele>
        <time>2011-03-06T10:15:27Z</time>
      </trkpt>
      <trkpt lat="43.63763" lon="3.32037">
        <ele>146</ele>
        <time>2011-03-06T10:15:30Z</time>
      </trkpt>
      <trkpt lat="43.63771" lon="3.32036">
        <ele>146</ele>
        <time>2011-03-06T10:15:33Z</time>
      </trkpt>
      <trkpt lat="43.63777" lon="3.32039">
        <ele>145.9</ele>
        <time>2011-03-06T10:15:35Z</time>
      </trkpt>
      <trkpt lat="43.63784" lon="3.32045">
        <ele>145.7</ele>
        <time>2011-03-06T10:15:37Z</time>
      </trkpt>
      <trkpt lat="43.63792" lon="3.32051">
        <ele>145.6</ele>
        <time>2011-03-06T10:15:39Z</time>
      </trkpt>
      <trkpt lat="43.63796" lon="3.32054">
        <ele>145.5</ele>
        <time>2011-03-06T10:15:40Z</time>
      </trkpt>
      <trkpt lat="43.638" lon="3.32058">
        <ele>145.4</ele>
        <time>2011-03-06T10:15:41Z</time>
      </trkpt>
      <trkpt lat="43.63808" lon="3.32063">
        <ele>145.3</ele>
        <time>2011-03-06T10:15:43Z</time>
      </trkpt>
      <trkpt lat="43.63812" lon="3.32066">
        <ele>145.3</ele>
        <time>2011-03-06T10:15:44Z</time>
      </trkpt>
      <trkpt lat="43.63816" lon="3.32069">
        <ele>145.2</ele>
        <time>2011-03-06T10:15:45Z</time>
      </trkpt>
      <trkpt lat="43.63819" lon="3.32073">
        <ele>145.1</ele>
        <time>2011-03-06T10:15:46Z</time>
      </trkpt>
      <trkpt lat="43.63823" lon="3.32077">
        <ele>145.1</ele>
        <time>2011-03-06T10:15:47Z</time>
      </trkpt>
      <trkpt lat="43.63827" lon="3.32081">
        <ele>145</ele>
        <time>2011-03-06T10:15:48Z</time>
      </trkpt>
      <trkpt lat="43.63831" lon="3.32085">
        <ele>145</ele>
        <time>2011-03-06T10:15:49Z</time>
      </trkpt>
      <trkpt lat="43.63835" lon="3.32088">
        <ele>144.9</ele>
        <time>2011-03-06T10:15:50Z</time>
      </trkpt>
      <trkpt lat="43.63839" lon="3.32092">
        <ele>144.8</ele>
        <time>2011-03-06T10:15:51Z</time>
      </trkpt>
      <trkpt lat="43.63843" lon="3.32095">
        <ele>144.8</ele>
        <time>2011-03-06T10:15:52Z</time>
      </trkpt>
      <trkpt lat="43.63847" lon="3.32099">
        <ele>144.8</ele>
        <time>2011-03-06T10:15:53Z</time>
      </trkpt>
      <trkpt lat="43.63851" lon="3.32103">
        <ele>144.7</ele>
        <time>2011-03-06T10:15:54Z</time>
      </trkpt>
      <trkpt lat="43.63854" lon="3.32107">
        <ele>144.6</ele>
        <time>2011-03-06T10:15:55Z</time>
      </trkpt>
      <trkpt lat="43.63858" lon="3.32112">
        <ele>144.6</ele>
        <time>2011-03-06T10:15:56Z</time>
      </trkpt>
      <trkpt lat="43.63861" lon="3.32117">
        <ele>144.5</ele>
        <time>2011-03-06T10:15:57Z</time>
      </trkpt>
      <trkpt lat="43.63865" lon="3.32121">
        <ele>144.4</ele>
        <time>2011-03-06T10:15:58Z</time>
      </trkpt>
      <trkpt lat="43.63868" lon="3.32126">
        <ele>144.3</ele>
        <time>2011-03-06T10:15:59Z</time>
      </trkpt>
      <trkpt lat="43.6387" lon="3.32131">
        <ele>144.2</ele>
        <time>2011-03-06T10:16:00Z</time>
      </trkpt>
      <trkpt lat="43.63872" lon="3.32137">
        <ele>144</ele>
        <time>2011-03-06T10:16:01Z</time>
      </trkpt>
      <trkpt lat="43.63874" lon="3.32143">
        <ele>143.8</ele>
        <time>2011-03-06T10:16:02Z</time>
      </trkpt>
      <trkpt lat="43.63876" lon="3.32149">
        <ele>143.7</ele>
        <time>2011-03-06T10:16:03Z</time>
      </trkpt>
      <trkpt lat="43.63879" lon="3.32154">
        <ele>143.5</ele>
        <time>2011-03-06T10:16:04Z</time>
      </trkpt>
      <trkpt lat="43.63882" lon="3.32159">
        <ele>143.4</ele>
        <time>2011-03-06T10:16:05Z</time>
      </trkpt>
      <trkpt lat="43.63885" lon="3.32164">
        <ele>143.3</ele>
        <time>2011-03-06T10:16:06Z</time>
      </trkpt>
      <trkpt lat="43.63888" lon="3.32169">
        <ele>143.3</ele>
        <time>2011-03-06T10:16:07Z</time>
      </trkpt>
      <trkpt lat="43.63894" lon="3.32177">
        <ele>143.4</ele>
        <time>2011-03-06T10:16:09Z</time>
      </trkpt>
      <trkpt lat="43.63901" lon="3.32186">
        <ele>143.5</ele>
        <time>2011-03-06T10:16:11Z</time>
      </trkpt>
      <trkpt lat="43.63907" lon="3.32194">
        <ele>143.6</ele>
        <time>2011-03-06T10:16:13Z</time>
      </trkpt>
      <trkpt lat="43.63914" lon="3.32202">
        <ele>143.6</ele>
        <time>2011-03-06T10:16:15Z</time>
      </trkpt>
      <trkpt lat="43.6392" lon="3.32211">
        <ele>143.6</ele>
        <time>2011-03-06T10:16:17Z</time>
      </trkpt>
      <trkpt lat="43.63924" lon="3.32215">
        <ele>143.6</ele>
        <time>2011-03-06T10:16:18Z</time>
      </trkpt>
      <trkpt lat="43.63927" lon="3.32219">
        <ele>143.6</ele>
        <time>2011-03-06T10:16:19Z</time>
      </trkpt>
      <trkpt lat="43.6393" lon="3.32224">
        <ele>143.6</ele>
        <time>2011-03-06T10:16:20Z</time>
      </trkpt>
      <trkpt lat="43.63934" lon="3.32228">
        <ele>143.7</ele>
        <time>2011-03-06T10:16:21Z</time>
      </trkpt>
      <trkpt lat="43.63937" lon="3.32232">
        <ele>143.7</ele>
        <time>2011-03-06T10:16:22Z</time>
      </trkpt>
      <trkpt lat="43.63941" lon="3.32237">
        <ele>143.7</ele>
        <time>2011-03-06T10:16:23Z</time>
      </trkpt>
      <trkpt lat="43.63944" lon="3.32241">
        <ele>143.8</ele>
        <time>2011-03-06T10:16:24Z</time>
      </trkpt>
      <trkpt lat="43.63948" lon="3.32245">
        <ele>143.8</ele>
        <time>2011-03-06T10:16:25Z</time>
      </trkpt>
      <trkpt lat="43.63951" lon="3.32249">
        <ele>143.8</ele>
        <time>2011-03-06T10:16:26Z</time>
      </trkpt>
      <trkpt lat="43.63955" lon="3.32253">
        <ele>143.9</ele>
        <time>2011-03-06T10:16:27Z</time>
      </trkpt>
      <trkpt lat="43.63958" lon="3.32257">
        <ele>144</ele>
        <time>2011-03-06T10:16:28Z</time>
      </trkpt>
      <trkpt lat="43.63962" lon="3.32261">
        <ele>144.1</ele>
        <time>2011-03-06T10:16:29Z</time>
      </trkpt>
      <trkpt lat="43.63966" lon="3.32266">
        <ele>144.1</ele>
        <time>2011-03-06T10:16:30Z</time>
      </trkpt>
      <trkpt lat="43.63969" lon="3.3227">
        <ele>144.2</ele>
        <time>2011-03-06T10:16:31Z</time>
      </trkpt>
      <trkpt lat="43.63973" lon="3.32274">
        <ele>144.2</ele>
        <time>2011-03-06T10:16:32Z</time>
      </trkpt>
      <trkpt lat="43.63977" lon="3.32279">
        <ele>144.3</ele>
        <time>2011-03-06T10:16:33Z</time>
      </trkpt>
      <trkpt lat="43.6398" lon="3.32283">
        <ele>144.3</ele>
        <time>2011-03-06T10:16:34Z</time>
      </trkpt>
      <trkpt lat="43.63984" lon="3.32288">
        <ele>144.3</ele>
        <time>2011-03-06T10:16:35Z</time>
      </trkpt>
      <trkpt lat="43.63988" lon="3.32293">
        <ele>144.3</ele>
        <time>2011-03-06T10:16:36Z</time>
      </trkpt>
      <trkpt lat="43.63991" lon="3.32298">
        <ele>144.3</ele>
        <time>2011-03-06T10:16:37Z</time>
      </trkpt>
      <trkpt lat="43.63994" lon="3.32303">
        <ele>144.3</ele>
        <time>2011-03-06T10:16:38Z</time>
      </trkpt>
      <trkpt lat="43.63997" lon="3.32308">
        <ele>144.3</ele>
        <time>2011-03-06T10:16:39Z</time>
      </trkpt>
      <trkpt lat="43.64" lon="3.32314">
        <ele>144.2</ele>
        <time>2011-03-06T10:16:40Z</time>
      </trkpt>
      <trkpt lat="43.64003" lon="3.32319">
        <ele>144.2</ele>
        <time>2011-03-06T10:16:41Z</time>
      </trkpt>
      <trkpt lat="43.64006" lon="3.32324">
        <ele>144.2</ele>
        <time>2011-03-06T10:16:42Z</time>
      </trkpt>
      <trkpt lat="43.6401" lon="3.3233">
        <ele>144.2</ele>
        <time>2011-03-06T10:16:43Z</time>
      </trkpt>
      <trkpt lat="43.64014" lon="3.32334">
        <ele>144.2</ele>
        <time>2011-03-06T10:16:44Z</time>
      </trkpt>
      <trkpt lat="43.64018" lon="3.32337">
        <ele>144.3</ele>
        <time>2011-03-06T10:16:45Z</time>
      </trkpt>
      <trkpt lat="43.64023" lon="3.3234">
        <ele>144.3</ele>
        <time>2011-03-06T10:16:46Z</time>
      </trkpt>
      <trkpt lat="43.64026" lon="3.32345">
        <ele>144.4</ele>
        <time>2011-03-06T10:16:47Z</time>
      </trkpt>
      <trkpt lat="43.64029" lon="3.3235">
        <ele>144.5</ele>
        <time>2011-03-06T10:16:48Z</time>
      </trkpt>
      <trkpt lat="43.6403" lon="3.32356">
        <ele>144.5</ele>
        <time>2011-03-06T10:16:49Z</time>
      </trkpt>
      <trkpt lat="43.64032" lon="3.32362">
        <ele>144.6</ele>
        <time>2011-03-06T10:16:50Z</time>
      </trkpt>
      <trkpt lat="43.64034" lon="3.32368">
        <ele>144.7</ele>
        <time>2011-03-06T10:16:51Z</time>
      </trkpt>
      <trkpt lat="43.64037" lon="3.32373">
        <ele>144.7</ele>
        <time>2011-03-06T10:16:52Z</time>
      </trkpt>
      <trkpt lat="43.64039" lon="3.32379">
        <ele>144.8</ele>
        <time>2011-03-06T10:16:53Z</time>
      </trkpt>
      <trkpt lat="43.64042" lon="3.32384">
        <ele>144.8</ele>
        <time>2011-03-06T10:16:54Z</time>
      </trkpt>
      <trkpt lat="43.64045" lon="3.32389">
        <ele>144.8</ele>
        <time>2011-03-06T10:16:55Z</time>
      </trkpt>
      <trkpt lat="43.64046" lon="3.32395">
        <ele>144.9</ele>
        <time>2011-03-06T10:16:56Z</time>
      </trkpt>
      <trkpt lat="43.64044" lon="3.3241">
        <ele>145</ele>
        <time>2011-03-06T10:16:59Z</time>
      </trkpt>
      <trkpt lat="43.64048" lon="3.3242">
        <ele>144.9</ele>
        <time>2011-03-06T10:17:02Z</time>
      </trkpt>
      <trkpt lat="43.64057" lon="3.32422">
        <ele>144.9</ele>
        <time>2011-03-06T10:17:05Z</time>
      </trkpt>
      <trkpt lat="43.64064" lon="3.32424">
        <ele>144.8</ele>
        <time>2011-03-06T10:17:07Z</time>
      </trkpt>
      <trkpt lat="43.64072" lon="3.32427">
        <ele>144.7</ele>
        <time>2011-03-06T10:17:09Z</time>
      </trkpt>
      <trkpt lat="43.64076" lon="3.32429">
        <ele>144.6</ele>
        <time>2011-03-06T10:17:10Z</time>
      </trkpt>
      <trkpt lat="43.64081" lon="3.3243">
        <ele>144.5</ele>
        <time>2011-03-06T10:17:11Z</time>
      </trkpt>
      <trkpt lat="43.64086" lon="3.32432">
        <ele>144.4</ele>
        <time>2011-03-06T10:17:12Z</time>
      </trkpt>
      <trkpt lat="43.6409" lon="3.32433">
        <ele>144.3</ele>
        <time>2011-03-06T10:17:13Z</time>
      </trkpt>
      <trkpt lat="43.64095" lon="3.32434">
        <ele>144.2</ele>
        <time>2011-03-06T10:17:14Z</time>
      </trkpt>
      <trkpt lat="43.64101" lon="3.32434">
        <ele>144</ele>
        <time>2011-03-06T10:17:15Z</time>
      </trkpt>
      <trkpt lat="43.64105" lon="3.32435">
        <ele>143.9</ele>
        <time>2011-03-06T10:17:16Z</time>
      </trkpt>
      <trkpt lat="43.64114" lon="3.32435">
        <ele>143.8</ele>
        <time>2011-03-06T10:17:18Z</time>
      </trkpt>
      <trkpt lat="43.64121" lon="3.32437">
        <ele>143.6</ele>
        <time>2011-03-06T10:17:20Z</time>
      </trkpt>
      <trkpt lat="43.64127" lon="3.32439">
        <ele>143.4</ele>
        <time>2011-03-06T10:17:22Z</time>
      </trkpt>
      <trkpt lat="43.64135" lon="3.32441">
        <ele>143.3</ele>
        <time>2011-03-06T10:17:24Z</time>
      </trkpt>
      <trkpt lat="43.64142" lon="3.32444">
        <ele>143.1</ele>
        <time>2011-03-06T10:17:26Z</time>
      </trkpt>
      <trkpt lat="43.64149" lon="3.32448">
        <ele>142.9</ele>
        <time>2011-03-06T10:17:28Z</time>
      </trkpt>
      <trkpt lat="43.64156" lon="3.32452">
        <ele>142.7</ele>
        <time>2011-03-06T10:17:30Z</time>
      </trkpt>
      <trkpt lat="43.64163" lon="3.32457">
        <ele>142.6</ele>
        <time>2011-03-06T10:17:32Z</time>
      </trkpt>
      <trkpt lat="43.6417" lon="3.32461">
        <ele>142.4</ele>
        <time>2011-03-06T10:17:34Z</time>
      </trkpt>
      <trkpt lat="43.64177" lon="3.32466">
        <ele>142.3</ele>
        <time>2011-03-06T10:17:36Z</time>
      </trkpt>
      <trkpt lat="43.64183" lon="3.3247">
        <ele>142.2</ele>
        <time>2011-03-06T10:17:38Z</time>
      </trkpt>
      <trkpt lat="43.6419" lon="3.32474">
        <ele>142</ele>
        <time>2011-03-06T10:17:40Z</time>
      </trkpt>
      <trkpt lat="43.64196" lon="3.32479">
        <ele>141.8</ele>
        <time>2011-03-06T10:17:42Z</time>
      </trkpt>
      <trkpt lat="43.64201" lon="3.32482">
        <ele>141.7</ele>
        <time>2011-03-06T10:17:44Z</time>
      </trkpt>
      <trkpt lat="43.6421" lon="3.32486">
        <ele>141.4</ele>
        <time>2011-03-06T10:17:47Z</time>
      </trkpt>
      <trkpt lat="43.64216" lon="3.32489">
        <ele>141.2</ele>
        <time>2011-03-06T10:17:49Z</time>
      </trkpt>
      <trkpt lat="43.64222" lon="3.32493">
        <ele>140.9</ele>
        <time>2011-03-06T10:17:51Z</time>
      </trkpt>
      <trkpt lat="43.64229" lon="3.32496">
        <ele>140.7</ele>
        <time>2011-03-06T10:17:53Z</time>
      </trkpt>
      <trkpt lat="43.64236" lon="3.325">
        <ele>140.4</ele>
        <time>2011-03-06T10:17:55Z</time>
      </trkpt>
      <trkpt lat="43.64241" lon="3.32503">
        <ele>140.2</ele>
        <time>2011-03-06T10:17:57Z</time>
      </trkpt>
      <trkpt lat="43.64244" lon="3.32505">
        <ele>140.1</ele>
        <time>2011-03-06T10:17:58Z</time>
      </trkpt>
      <trkpt lat="43.64255" lon="3.3251">
        <ele>140</ele>
        <time>2011-03-06T10:18:01Z</time>
      </trkpt>
      <trkpt lat="43.64262" lon="3.32514">
        <ele>139.9</ele>
        <time>2011-03-06T10:18:03Z</time>
      </trkpt>
      <trkpt lat="43.64271" lon="3.32518">
        <ele>139.8</ele>
        <time>2011-03-06T10:18:05Z</time>
      </trkpt>
      <trkpt lat="43.64279" lon="3.32522">
        <ele>139.7</ele>
        <time>2011-03-06T10:18:07Z</time>
      </trkpt>
      <trkpt lat="43.64284" lon="3.32524">
        <ele>139.7</ele>
        <time>2011-03-06T10:18:08Z</time>
      </trkpt>
      <trkpt lat="43.64288" lon="3.32526">
        <ele>139.7</ele>
        <time>2011-03-06T10:18:09Z</time>
      </trkpt>
      <trkpt lat="43.64292" lon="3.32528">
        <ele>139.7</ele>
        <time>2011-03-06T10:18:10Z</time>
      </trkpt>
      <trkpt lat="43.64297" lon="3.3253">
        <ele>139.6</ele>
        <time>2011-03-06T10:18:11Z</time>
      </trkpt>
      <trkpt lat="43.64301" lon="3.32532">
        <ele>139.6</ele>
        <time>2011-03-06T10:18:12Z</time>
      </trkpt>
      <trkpt lat="43.64306" lon="3.32534">
        <ele>139.6</ele>
        <time>2011-03-06T10:18:13Z</time>
      </trkpt>
      <trkpt lat="43.64311" lon="3.32536">
        <ele>139.6</ele>
        <time>2011-03-06T10:18:14Z</time>
      </trkpt>
      <trkpt lat="43.64315" lon="3.32538">
        <ele>139.6</ele>
        <time>2011-03-06T10:18:15Z</time>
      </trkpt>
      <trkpt lat="43.6432" lon="3.32539">
        <ele>139.5</ele>
        <time>2011-03-06T10:18:16Z</time>
      </trkpt>
      <trkpt lat="43.64325" lon="3.3254">
        <ele>139.5</ele>
        <time>2011-03-06T10:18:17Z</time>
      </trkpt>
      <trkpt lat="43.64331" lon="3.32541">
        <ele>139.5</ele>
        <time>2011-03-06T10:18:18Z</time>
      </trkpt>
      <trkpt lat="43.64336" lon="3.32542">
        <ele>139.5</ele>
        <time>2011-03-06T10:18:19Z</time>
      </trkpt>
      <trkpt lat="43.64341" lon="3.32542">
        <ele>139.6</ele>
        <time>2011-03-06T10:18:20Z</time>
      </trkpt>
      <trkpt lat="43.64346" lon="3.32542">
        <ele>139.7</ele>
        <time>2011-03-06T10:18:21Z</time>
      </trkpt>
      <trkpt lat="43.64351" lon="3.32542">
        <ele>139.8</ele>
        <time>2011-03-06T10:18:22Z</time>
      </trkpt>
      <trkpt lat="43.64356" lon="3.32542">
        <ele>139.9</ele>
        <time>2011-03-06T10:18:23Z</time>
      </trkpt>
      <trkpt lat="43.64365" lon="3.32541">
        <ele>140.1</ele>
        <time>2011-03-06T10:18:25Z</time>
      </trkpt>
      <trkpt lat="43.64373" lon="3.32541">
        <ele>140.2</ele>
        <time>2011-03-06T10:18:27Z</time>
      </trkpt>
      <trkpt lat="43.6438" lon="3.3254">
        <ele>140.4</ele>
        <time>2011-03-06T10:18:29Z</time>
      </trkpt>
      <trkpt lat="43.64387" lon="3.32536">
        <ele>140.5</ele>
        <time>2011-03-06T10:18:31Z</time>
      </trkpt>
      <trkpt lat="43.64393" lon="3.32532">
        <ele>140.7</ele>
        <time>2011-03-06T10:18:33Z</time>
      </trkpt>
      <trkpt lat="43.64401" lon="3.3253">
        <ele>140.9</ele>
        <time>2011-03-06T10:18:35Z</time>
      </trkpt>
      <trkpt lat="43.64407" lon="3.3253">
        <ele>141.1</ele>
        <time>2011-03-06T10:18:37Z</time>
      </trkpt>
      <trkpt lat="43.64414" lon="3.3253">
        <ele>141.2</ele>
        <time>2011-03-06T10:18:39Z</time>
      </trkpt>
      <trkpt lat="43.6442" lon="3.32531">
        <ele>141.1</ele>
        <time>2011-03-06T10:18:41Z</time>
      </trkpt>
      <trkpt lat="43.64427" lon="3.3253">
        <ele>140.8</ele>
        <time>2011-03-06T10:18:43Z</time>
      </trkpt>
      <trkpt lat="43.64435" lon="3.32528">
        <ele>140.5</ele>
        <time>2011-03-06T10:18:45Z</time>
      </trkpt>
      <trkpt lat="43.64442" lon="3.32526">
        <ele>140.2</ele>
        <time>2011-03-06T10:18:47Z</time>
      </trkpt>
      <trkpt lat="43.64449" lon="3.32524">
        <ele>140</ele>
        <time>2011-03-06T10:18:49Z</time>
      </trkpt>
      <trkpt lat="43.64457" lon="3.32521">
        <ele>139.7</ele>
        <time>2011-03-06T10:18:52Z</time>
      </trkpt>
      <trkpt lat="43.64466" lon="3.32518">
        <ele>139.4</ele>
        <time>2011-03-06T10:19:02Z</time>
      </trkpt>
      <trkpt lat="43.64466" lon="3.32518">
        <ele>139.3</ele>
        <time>2011-03-06T10:19:03Z</time>
      </trkpt>
      <trkpt lat="43.64478" lon="3.32523">
        <ele>138.7</ele>
        <time>2011-03-06T10:19:09Z</time>
      </trkpt>
      <trkpt lat="43.64484" lon="3.32527">
        <ele>138.4</ele>
        <time>2011-03-06T10:19:11Z</time>
      </trkpt>
      <trkpt lat="43.6449" lon="3.32528">
        <ele>138.1</ele>
        <time>2011-03-06T10:19:13Z</time>
      </trkpt>
      <trkpt lat="43.64497" lon="3.32529">
        <ele>137.8</ele>
        <time>2011-03-06T10:19:15Z</time>
      </trkpt>
      <trkpt lat="43.64504" lon="3.32529">
        <ele>137.7</ele>
        <time>2011-03-06T10:19:17Z</time>
      </trkpt>
      <trkpt lat="43.64511" lon="3.3253">
        <ele>137.8</ele>
        <time>2011-03-06T10:19:19Z</time>
      </trkpt>
      <trkpt lat="43.64518" lon="3.3253">
        <ele>137.8</ele>
        <time>2011-03-06T10:19:21Z</time>
      </trkpt>
      <trkpt lat="43.64526" lon="3.32529">
        <ele>138</ele>
        <time>2011-03-06T10:19:24Z</time>
      </trkpt>
      <trkpt lat="43.64535" lon="3.32528">
        <ele>138.1</ele>
        <time>2011-03-06T10:19:27Z</time>
      </trkpt>
      <trkpt lat="43.64542" lon="3.3253">
        <ele>138.1</ele>
        <time>2011-03-06T10:19:29Z</time>
      </trkpt>
      <trkpt lat="43.64548" lon="3.32535">
        <ele>138.2</ele>
        <time>2011-03-06T10:19:31Z</time>
      </trkpt>
      <trkpt lat="43.64556" lon="3.3254">
        <ele>138.2</ele>
        <time>2011-03-06T10:19:34Z</time>
      </trkpt>
      <trkpt lat="43.64563" lon="3.32542">
        <ele>138.3</ele>
        <time>2011-03-06T10:19:36Z</time>
      </trkpt>
      <trkpt lat="43.64569" lon="3.32545">
        <ele>138.3</ele>
        <time>2011-03-06T10:19:38Z</time>
      </trkpt>
      <trkpt lat="43.64576" lon="3.32548">
        <ele>138.3</ele>
        <time>2011-03-06T10:19:40Z</time>
      </trkpt>
      <trkpt lat="43.64582" lon="3.32549">
        <ele>138.4</ele>
        <time>2011-03-06T10:19:42Z</time>
      </trkpt>
      <trkpt lat="43.64588" lon="3.32548">
        <ele>138.5</ele>
        <time>2011-03-06T10:19:44Z</time>
      </trkpt>
      <trkpt lat="43.64594" lon="3.32547">
        <ele>138.6</ele>
        <time>2011-03-06T10:19:46Z</time>
      </trkpt>
      <trkpt lat="43.646" lon="3.32547">
        <ele>138.7</ele>
        <time>2011-03-06T10:19:48Z</time>
      </trkpt>
      <trkpt lat="43.64606" lon="3.32541">
        <ele>138.9</ele>
        <time>2011-03-06T10:19:50Z</time>
      </trkpt>
      <trkpt lat="43.64612" lon="3.32533">
        <ele>139.2</ele>
        <time>2011-03-06T10:19:53Z</time>
      </trkpt>
      <trkpt lat="43.64616" lon="3.32527">
        <ele>139.5</ele>
        <time>2011-03-06T10:19:55Z</time>
      </trkpt>
      <trkpt lat="43.64622" lon="3.32519">
        <ele>139.8</ele>
        <time>2011-03-06T10:19:57Z</time>
      </trkpt>
      <trkpt lat="43.64629" lon="3.32515">
        <ele>140.2</ele>
        <time>2011-03-06T10:19:59Z</time>
      </trkpt>
      <trkpt lat="43.64636" lon="3.32515">
        <ele>140.4</ele>
        <time>2011-03-06T10:20:01Z</time>
      </trkpt>
      <trkpt lat="43.64644" lon="3.32516">
        <ele>140.6</ele>
        <time>2011-03-06T10:20:03Z</time>
      </trkpt>
      <trkpt lat="43.64648" lon="3.32516">
        <ele>140.7</ele>
        <time>2011-03-06T10:20:04Z</time>
      </trkpt>
      <trkpt lat="43.6466" lon="3.32518">
        <ele>140.9</ele>
        <time>2011-03-06T10:20:07Z</time>
      </trkpt>
      <trkpt lat="43.64667" lon="3.32518">
        <ele>141.1</ele>
        <time>2011-03-06T10:20:09Z</time>
      </trkpt>
      <trkpt lat="43.64675" lon="3.32517">
        <ele>140.9</ele>
        <time>2011-03-06T10:20:11Z</time>
      </trkpt>
      <trkpt lat="43.64683" lon="3.32517">
        <ele>140.7</ele>
        <time>2011-03-06T10:20:13Z</time>
      </trkpt>
      <trkpt lat="43.64691" lon="3.32518">
        <ele>140.4</ele>
        <time>2011-03-06T10:20:15Z</time>
      </trkpt>
      <trkpt lat="43.647" lon="3.32519">
        <ele>140.2</ele>
        <time>2011-03-06T10:20:17Z</time>
      </trkpt>
      <trkpt lat="43.64708" lon="3.3252">
        <ele>139.9</ele>
        <time>2011-03-06T10:20:19Z</time>
      </trkpt>
      <trkpt lat="43.64717" lon="3.32519">
        <ele>139.7</ele>
        <time>2011-03-06T10:20:21Z</time>
      </trkpt>
      <trkpt lat="43.64726" lon="3.32518">
        <ele>139.5</ele>
        <time>2011-03-06T10:20:23Z</time>
      </trkpt>
      <trkpt lat="43.64734" lon="3.32515">
        <ele>139.3</ele>
        <time>2011-03-06T10:20:25Z</time>
      </trkpt>
      <trkpt lat="43.64742" lon="3.3251">
        <ele>139.1</ele>
        <time>2011-03-06T10:20:27Z</time>
      </trkpt>
      <trkpt lat="43.64749" lon="3.32506">
        <ele>139</ele>
        <time>2011-03-06T10:20:29Z</time>
      </trkpt>
      <trkpt lat="43.64756" lon="3.32506">
        <ele>138.8</ele>
        <time>2011-03-06T10:20:31Z</time>
      </trkpt>
      <trkpt lat="43.64763" lon="3.32509">
        <ele>138.6</ele>
        <time>2011-03-06T10:20:33Z</time>
      </trkpt>
      <trkpt lat="43.6477" lon="3.32513">
        <ele>138.4</ele>
        <time>2011-03-06T10:20:35Z</time>
      </trkpt>
      <trkpt lat="43.64776" lon="3.32514">
        <ele>138.3</ele>
        <time>2011-03-06T10:20:37Z</time>
      </trkpt>
      <trkpt lat="43.64783" lon="3.32513">
        <ele>138.1</ele>
        <time>2011-03-06T10:20:39Z</time>
      </trkpt>
      <trkpt lat="43.64791" lon="3.3251">
        <ele>138</ele>
        <time>2011-03-06T10:20:41Z</time>
      </trkpt>
      <trkpt lat="43.64798" lon="3.32507">
        <ele>137.8</ele>
        <time>2011-03-06T10:20:43Z</time>
      </trkpt>
      <trkpt lat="43.64806" lon="3.32504">
        <ele>137.6</ele>
        <time>2011-03-06T10:20:45Z</time>
      </trkpt>
      <trkpt lat="43.64815" lon="3.32502">
        <ele>137.4</ele>
        <time>2011-03-06T10:20:47Z</time>
      </trkpt>
      <trkpt lat="43.64823" lon="3.32499">
        <ele>137.4</ele>
        <time>2011-03-06T10:20:49Z</time>
      </trkpt>
      <trkpt lat="43.6483" lon="3.32494">
        <ele>137.5</ele>
        <time>2011-03-06T10:20:51Z</time>
      </trkpt>
      <trkpt lat="43.64838" lon="3.32491">
        <ele>137.7</ele>
        <time>2011-03-06T10:20:53Z</time>
      </trkpt>
      <trkpt lat="43.64846" lon="3.32486">
        <ele>138</ele>
        <time>2011-03-06T10:20:55Z</time>
      </trkpt>
      <trkpt lat="43.6485" lon="3.32484">
        <ele>138.2</ele>
        <time>2011-03-06T10:20:56Z</time>
      </trkpt>
      <trkpt lat="43.64859" lon="3.32479">
        <ele>138.6</ele>
        <time>2011-03-06T10:20:58Z</time>
      </trkpt>
      <trkpt lat="43.64867" lon="3.32474">
        <ele>139.1</ele>
        <time>2011-03-06T10:21:00Z</time>
      </trkpt>
      <trkpt lat="43.64875" lon="3.32471">
        <ele>139.5</ele>
        <time>2011-03-06T10:21:02Z</time>
      </trkpt>
      <trkpt lat="43.64883" lon="3.3247">
        <ele>139.6</ele>
        <time>2011-03-06T10:21:04Z</time>
      </trkpt>
      <trkpt lat="43.64886" lon="3.32472">
        <ele>139.5</ele>
        <time>2011-03-06T10:21:05Z</time>
      </trkpt>
      <trkpt lat="43.64896" lon="3.32484">
        <ele>138.2</ele>
        <time>2011-03-06T10:21:09Z</time>
      </trkpt>
      <trkpt lat="43.64901" lon="3.32492">
        <ele>137.2</ele>
        <time>2011-03-06T10:21:11Z</time>
      </trkpt>
      <trkpt lat="43.64904" lon="3.32496">
        <ele>136.7</ele>
        <time>2011-03-06T10:21:12Z</time>
      </trkpt>
      <trkpt lat="43.64908" lon="3.325">
        <ele>136.1</ele>
        <time>2011-03-06T10:21:13Z</time>
      </trkpt>
      <trkpt lat="43.64911" lon="3.32505">
        <ele>136.1</ele>
        <time>2011-03-06T10:21:14Z</time>
      </trkpt>
      <trkpt lat="43.64915" lon="3.32509">
        <ele>136.1</ele>
        <time>2011-03-06T10:21:15Z</time>
      </trkpt>
      <trkpt lat="43.64919" lon="3.32513">
        <ele>136.3</ele>
        <time>2011-03-06T10:21:16Z</time>
      </trkpt>
      <trkpt lat="43.64923" lon="3.32516">
        <ele>136.6</ele>
        <time>2011-03-06T10:21:17Z</time>
      </trkpt>
      <trkpt lat="43.64927" lon="3.32518">
        <ele>136.9</ele>
        <time>2011-03-06T10:21:18Z</time>
      </trkpt>
      <trkpt lat="43.64932" lon="3.32521">
        <ele>137.3</ele>
        <time>2011-03-06T10:21:19Z</time>
      </trkpt>
      <trkpt lat="43.64936" lon="3.32524">
        <ele>137.6</ele>
        <time>2011-03-06T10:21:20Z</time>
      </trkpt>
      <trkpt lat="43.64941" lon="3.32527">
        <ele>137.9</ele>
        <time>2011-03-06T10:21:21Z</time>
      </trkpt>
      <trkpt lat="43.64945" lon="3.3253">
        <ele>138.1</ele>
        <time>2011-03-06T10:21:22Z</time>
      </trkpt>
      <trkpt lat="43.64949" lon="3.32533">
        <ele>138.4</ele>
        <time>2011-03-06T10:21:23Z</time>
      </trkpt>
      <trkpt lat="43.64953" lon="3.32536">
        <ele>138.7</ele>
        <time>2011-03-06T10:21:24Z</time>
      </trkpt>
      <trkpt lat="43.64957" lon="3.3254">
        <ele>138.9</ele>
        <time>2011-03-06T10:21:25Z</time>
      </trkpt>
      <trkpt lat="43.64962" lon="3.32544">
        <ele>139.2</ele>
        <time>2011-03-06T10:21:26Z</time>
      </trkpt>
      <trkpt lat="43.64965" lon="3.32548">
        <ele>139.4</ele>
        <time>2011-03-06T10:21:27Z</time>
      </trkpt>
      <trkpt lat="43.64969" lon="3.32552">
        <ele>139.6</ele>
        <time>2011-03-06T10:21:28Z</time>
      </trkpt>
      <trkpt lat="43.64973" lon="3.32556">
        <ele>139.8</ele>
        <time>2011-03-06T10:21:29Z</time>
      </trkpt>
      <trkpt lat="43.64977" lon="3.32559">
        <ele>140</ele>
        <time>2011-03-06T10:21:30Z</time>
      </trkpt>
      <trkpt lat="43.64981" lon="3.32563">
        <ele>140.2</ele>
        <time>2011-03-06T10:21:31Z</time>
      </trkpt>
      <trkpt lat="43.64986" lon="3.32566">
        <ele>140.4</ele>
        <time>2011-03-06T10:21:32Z</time>
      </trkpt>
      <trkpt lat="43.6499" lon="3.32568">
        <ele>140.7</ele>
        <time>2011-03-06T10:21:33Z</time>
      </trkpt>
      <trkpt lat="43.64995" lon="3.32569">
        <ele>140.9</ele>
        <time>2011-03-06T10:21:34Z</time>
      </trkpt>
      <trkpt lat="43.64999" lon="3.32569">
        <ele>141.1</ele>
        <time>2011-03-06T10:21:35Z</time>
      </trkpt>
      <trkpt lat="43.65004" lon="3.3257">
        <ele>141.2</ele>
        <time>2011-03-06T10:21:36Z</time>
      </trkpt>
      <trkpt lat="43.65013" lon="3.3257">
        <ele>141.2</ele>
        <time>2011-03-06T10:21:38Z</time>
      </trkpt>
      <trkpt lat="43.65021" lon="3.32569">
        <ele>141.2</ele>
        <time>2011-03-06T10:21:40Z</time>
      </trkpt>
      <trkpt lat="43.65028" lon="3.32569">
        <ele>141.2</ele>
        <time>2011-03-06T10:21:42Z</time>
      </trkpt>
      <trkpt lat="43.65035" lon="3.32569">
        <ele>141.2</ele>
        <time>2011-03-06T10:21:44Z</time>
      </trkpt>
      <trkpt lat="43.65042" lon="3.32567">
        <ele>141.3</ele>
        <time>2011-03-06T10:21:46Z</time>
      </trkpt>
      <trkpt lat="43.65048" lon="3.32561">
        <ele>141.4</ele>
        <time>2011-03-06T10:21:48Z</time>
      </trkpt>
      <trkpt lat="43.65054" lon="3.32557">
        <ele>141.5</ele>
        <time>2011-03-06T10:21:50Z</time>
      </trkpt>
      <trkpt lat="43.65061" lon="3.32555">
        <ele>141.6</ele>
        <time>2011-03-06T10:21:52Z</time>
      </trkpt>
      <trkpt lat="43.65068" lon="3.32556">
        <ele>141.6</ele>
        <time>2011-03-06T10:21:54Z</time>
      </trkpt>
      <trkpt lat="43.65076" lon="3.32556">
        <ele>141.6</ele>
        <time>2011-03-06T10:21:56Z</time>
      </trkpt>
      <trkpt lat="43.65084" lon="3.32556">
        <ele>141.6</ele>
        <time>2011-03-06T10:21:58Z</time>
      </trkpt>
      <trkpt lat="43.65089" lon="3.32555">
        <ele>141.4</ele>
        <time>2011-03-06T10:21:59Z</time>
      </trkpt>
      <trkpt lat="43.65094" lon="3.32554">
        <ele>141.2</ele>
        <time>2011-03-06T10:22:00Z</time>
      </trkpt>
      <trkpt lat="43.651" lon="3.32553">
        <ele>141</ele>
        <time>2011-03-06T10:22:01Z</time>
      </trkpt>
      <trkpt lat="43.65105" lon="3.32551">
        <ele>140.8</ele>
        <time>2011-03-06T10:22:02Z</time>
      </trkpt>
      <trkpt lat="43.6511" lon="3.32549">
        <ele>140.7</ele>
        <time>2011-03-06T10:22:03Z</time>
      </trkpt>
      <trkpt lat="43.65114" lon="3.32548">
        <ele>140.5</ele>
        <time>2011-03-06T10:22:04Z</time>
      </trkpt>
      <trkpt lat="43.6512" lon="3.32546">
        <ele>140.3</ele>
        <time>2011-03-06T10:22:05Z</time>
      </trkpt>
      <trkpt lat="43.65125" lon="3.32544">
        <ele>140.2</ele>
        <time>2011-03-06T10:22:06Z</time>
      </trkpt>
      <trkpt lat="43.65131" lon="3.32542">
        <ele>140</ele>
        <time>2011-03-06T10:22:07Z</time>
      </trkpt>
      <trkpt lat="43.65139" lon="3.32541">
        <ele>139.7</ele>
        <time>2011-03-06T10:22:09Z</time>
      </trkpt>
      <trkpt lat="43.65146" lon="3.32546">
        <ele>139.2</ele>
        <time>2011-03-06T10:22:11Z</time>
      </trkpt>
      <trkpt lat="43.65151" lon="3.32553">
        <ele>138.8</ele>
        <time>2011-03-06T10:22:13Z</time>
      </trkpt>
      <trkpt lat="43.65157" lon="3.3256">
        <ele>138.3</ele>
        <time>2011-03-06T10:22:15Z</time>
      </trkpt>
      <trkpt lat="43.65164" lon="3.32566">
        <ele>137.7</ele>
        <time>2011-03-06T10:22:19Z</time>
      </trkpt>
      <trkpt lat="43.65171" lon="3.32564">
        <ele>137.8</ele>
        <time>2011-03-06T10:22:22Z</time>
      </trkpt>
      <trkpt lat="43.6518" lon="3.32564">
        <ele>138</ele>
        <time>2011-03-06T10:22:26Z</time>
      </trkpt>
      <trkpt lat="43.65188" lon="3.3256">
        <ele>138.3</ele>
        <time>2011-03-06T10:22:31Z</time>
      </trkpt>
      <trkpt lat="43.65195" lon="3.32559">
        <ele>138.4</ele>
        <time>2011-03-06T10:22:34Z</time>
      </trkpt>
      <trkpt lat="43.65203" lon="3.32563">
        <ele>138.5</ele>
        <time>2011-03-06T10:22:38Z</time>
      </trkpt>
      <trkpt lat="43.65207" lon="3.32571">
        <ele>138.4</ele>
        <time>2011-03-06T10:22:40Z</time>
      </trkpt>
      <trkpt lat="43.65212" lon="3.32576">
        <ele>138.3</ele>
        <time>2011-03-06T10:22:42Z</time>
      </trkpt>
      <trkpt lat="43.65221" lon="3.32581">
        <ele>138.4</ele>
        <time>2011-03-06T10:22:45Z</time>
      </trkpt>
      <trkpt lat="43.65227" lon="3.32586">
        <ele>138.4</ele>
        <time>2011-03-06T10:22:48Z</time>
      </trkpt>
      <trkpt lat="43.65232" lon="3.32596">
        <ele>138.2</ele>
        <time>2011-03-06T10:22:51Z</time>
      </trkpt>
      <trkpt lat="43.65236" lon="3.32603">
        <ele>138</ele>
        <time>2011-03-06T10:22:53Z</time>
      </trkpt>
      <trkpt lat="43.6524" lon="3.3261">
        <ele>137.9</ele>
        <time>2011-03-06T10:22:55Z</time>
      </trkpt>
      <trkpt lat="43.65244" lon="3.32619">
        <ele>137.6</ele>
        <time>2011-03-06T10:22:58Z</time>
      </trkpt>
      <trkpt lat="43.65249" lon="3.3263">
        <ele>137.3</ele>
        <time>2011-03-06T10:23:20Z</time>
      </trkpt>
      <trkpt lat="43.65249" lon="3.32631">
        <ele>137.3</ele>
        <time>2011-03-06T10:23:21Z</time>
      </trkpt>
      <trkpt lat="43.65257" lon="3.3265">
        <ele>136.8</ele>
        <time>2011-03-06T10:23:31Z</time>
      </trkpt>
      <trkpt lat="43.65262" lon="3.32661">
        <ele>136.5</ele>
        <time>2011-03-06T10:23:36Z</time>
      </trkpt>
      <trkpt lat="43.65266" lon="3.32671">
        <ele>136.4</ele>
        <time>2011-03-06T10:23:40Z</time>
      </trkpt>
      <trkpt lat="43.6527" lon="3.32681">
        <ele>136.6</ele>
        <time>2011-03-06T10:23:44Z</time>
      </trkpt>
      <trkpt lat="43.65275" lon="3.32688">
        <ele>136.8</ele>
        <time>2011-03-06T10:23:47Z</time>
      </trkpt>
      <trkpt lat="43.6528" lon="3.32698">
        <ele>137</ele>
        <time>2011-03-06T10:23:51Z</time>
      </trkpt>
      <trkpt lat="43.65284" lon="3.32707">
        <ele>137.1</ele>
        <time>2011-03-06T10:23:55Z</time>
      </trkpt>
      <trkpt lat="43.65289" lon="3.32715">
        <ele>137.2</ele>
        <time>2011-03-06T10:23:58Z</time>
      </trkpt>
      <trkpt lat="43.65293" lon="3.32724">
        <ele>137.4</ele>
        <time>2011-03-06T10:24:01Z</time>
      </trkpt>
      <trkpt lat="43.65298" lon="3.32733">
        <ele>137.5</ele>
        <time>2011-03-06T10:24:04Z</time>
      </trkpt>
      <trkpt lat="43.65302" lon="3.32743">
        <ele>137.6</ele>
        <time>2011-03-06T10:24:07Z</time>
      </trkpt>
      <trkpt lat="43.65306" lon="3.3275">
        <ele>137.7</ele>
        <time>2011-03-06T10:24:09Z</time>
      </trkpt>
      <trkpt lat="43.6531" lon="3.32756">
        <ele>137.7</ele>
        <time>2011-03-06T10:24:11Z</time>
      </trkpt>
      <trkpt lat="43.65314" lon="3.32762">
        <ele>137.7</ele>
        <time>2011-03-06T10:24:13Z</time>
      </trkpt>
      <trkpt lat="43.6532" lon="3.32766">
        <ele>137.8</ele>
        <time>2011-03-06T10:24:15Z</time>
      </trkpt>
      <trkpt lat="43.65327" lon="3.32769">
        <ele>137.9</ele>
        <time>2011-03-06T10:24:17Z</time>
      </trkpt>
      <trkpt lat="43.65333" lon="3.32769">
        <ele>138</ele>
        <time>2011-03-06T10:24:19Z</time>
      </trkpt>
      <trkpt lat="43.65338" lon="3.32776">
        <ele>138.4</ele>
        <time>2011-03-06T10:24:22Z</time>
      </trkpt>
      <trkpt lat="43.65339" lon="3.3278">
        <ele>138.5</ele>
        <time>2011-03-06T10:24:23Z</time>
      </trkpt>
      <trkpt lat="43.65345" lon="3.32791">
        <ele>139.1</ele>
        <time>2011-03-06T10:24:26Z</time>
      </trkpt>
      <trkpt lat="43.6535" lon="3.32798">
        <ele>139.5</ele>
        <time>2011-03-06T10:24:28Z</time>
      </trkpt>
      <trkpt lat="43.65356" lon="3.32808">
        <ele>139.9</ele>
        <time>2011-03-06T10:24:31Z</time>
      </trkpt>
      <trkpt lat="43.65361" lon="3.32818">
        <ele>140.4</ele>
        <time>2011-03-06T10:24:34Z</time>
      </trkpt>
      <trkpt lat="43.65364" lon="3.32825">
        <ele>140.6</ele>
        <time>2011-03-06T10:24:36Z</time>
      </trkpt>
      <trkpt lat="43.65366" lon="3.32833">
        <ele>140.8</ele>
        <time>2011-03-06T10:24:38Z</time>
      </trkpt>
      <trkpt lat="43.6537" lon="3.3284">
        <ele>140.8</ele>
        <time>2011-03-06T10:24:40Z</time>
      </trkpt>
      <trkpt lat="43.65375" lon="3.32848">
        <ele>140.9</ele>
        <time>2011-03-06T10:24:42Z</time>
      </trkpt>
      <trkpt lat="43.65381" lon="3.32855">
        <ele>141</ele>
        <time>2011-03-06T10:24:44Z</time>
      </trkpt>
      <trkpt lat="43.65387" lon="3.32862">
        <ele>141.1</ele>
        <time>2011-03-06T10:24:46Z</time>
      </trkpt>
      <trkpt lat="43.65393" lon="3.32869">
        <ele>141.2</ele>
        <time>2011-03-06T10:24:48Z</time>
      </trkpt>
      <trkpt lat="43.65399" lon="3.32875">
        <ele>141.4</ele>
        <time>2011-03-06T10:24:50Z</time>
      </trkpt>
      <trkpt lat="43.65405" lon="3.32879">
        <ele>141.5</ele>
        <time>2011-03-06T10:24:52Z</time>
      </trkpt>
      <trkpt lat="43.65412" lon="3.32884">
        <ele>141.7</ele>
        <time>2011-03-06T10:24:55Z</time>
      </trkpt>
      <trkpt lat="43.65415" lon="3.32895">
        <ele>141.2</ele>
        <time>2011-03-06T10:24:58Z</time>
      </trkpt>
      <trkpt lat="43.65418" lon="3.32902">
        <ele>141.1</ele>
        <time>2011-03-06T10:25:00Z</time>
      </trkpt>
      <trkpt lat="43.65416" lon="3.32911">
        <ele>140.3</ele>
        <time>2011-03-06T10:25:02Z</time>
      </trkpt>
      <trkpt lat="43.65414" lon="3.32923">
        <ele>139.6</ele>
        <time>2011-03-06T10:25:04Z</time>
      </trkpt>
      <trkpt lat="43.65415" lon="3.3293">
        <ele>139.4</ele>
        <time>2011-03-06T10:25:05Z</time>
      </trkpt>
      <trkpt lat="43.65421" lon="3.32939">
        <ele>140</ele>
        <time>2011-03-06T10:25:07Z</time>
      </trkpt>
      <trkpt lat="43.65426" lon="3.32947">
        <ele>140.7</ele>
        <time>2011-03-06T10:25:10Z</time>
      </trkpt>
      <trkpt lat="43.65428" lon="3.32957">
        <ele>140.6</ele>
        <time>2011-03-06T10:25:13Z</time>
      </trkpt>
      <trkpt lat="43.6543" lon="3.32965">
        <ele>140.6</ele>
        <time>2011-03-06T10:25:15Z</time>
      </trkpt>
      <trkpt lat="43.65432" lon="3.32973">
        <ele>140.6</ele>
        <time>2011-03-06T10:25:17Z</time>
      </trkpt>
      <trkpt lat="43.65437" lon="3.32981">
        <ele>140.9</ele>
        <time>2011-03-06T10:25:20Z</time>
      </trkpt>
      <trkpt lat="43.65443" lon="3.32989">
        <ele>141.4</ele>
        <time>2011-03-06T10:25:24Z</time>
      </trkpt>
      <trkpt lat="43.65445" lon="3.32991">
        <ele>141.6</ele>
        <time>2011-03-06T10:25:25Z</time>
      </trkpt>
      <trkpt lat="43.65457" lon="3.32995">
        <ele>143.1</ele>
        <time>2011-03-06T10:25:30Z</time>
      </trkpt>
      <trkpt lat="43.65466" lon="3.32999">
        <ele>144.1</ele>
        <time>2011-03-06T10:25:34Z</time>
      </trkpt>
      <trkpt lat="43.65474" lon="3.33001">
        <ele>145.2</ele>
        <time>2011-03-06T10:25:37Z</time>
      </trkpt>
      <trkpt lat="43.65481" lon="3.32998">
        <ele>146.5</ele>
        <time>2011-03-06T10:25:40Z</time>
      </trkpt>
      <trkpt lat="43.65487" lon="3.33005">
        <ele>146.7</ele>
        <time>2011-03-06T10:25:42Z</time>
      </trkpt>
      <trkpt lat="43.65492" lon="3.33013">
        <ele>146.7</ele>
        <time>2011-03-06T10:25:44Z</time>
      </trkpt>
      <trkpt lat="43.65496" lon="3.33019">
        <ele>146.7</ele>
        <time>2011-03-06T10:25:46Z</time>
      </trkpt>
      <trkpt lat="43.65501" lon="3.33025">
        <ele>146.8</ele>
        <time>2011-03-06T10:25:48Z</time>
      </trkpt>
      <trkpt lat="43.65507" lon="3.33033">
        <ele>147.6</ele>
        <time>2011-03-06T10:25:51Z</time>
      </trkpt>
      <trkpt lat="43.65512" lon="3.3304">
        <ele>148.1</ele>
        <time>2011-03-06T10:25:54Z</time>
      </trkpt>
      <trkpt lat="43.65515" lon="3.33051">
        <ele>147.7</ele>
        <time>2011-03-06T10:25:57Z</time>
      </trkpt>
      <trkpt lat="43.65519" lon="3.33059">
        <ele>147.7</ele>
        <time>2011-03-06T10:25:59Z</time>
      </trkpt>
      <trkpt lat="43.65522" lon="3.33068">
        <ele>147.4</ele>
        <time>2011-03-06T10:26:01Z</time>
      </trkpt>
      <trkpt lat="43.65524" lon="3.33077">
        <ele>146.7</ele>
        <time>2011-03-06T10:26:03Z</time>
      </trkpt>
      <trkpt lat="43.65529" lon="3.33083">
        <ele>147.1</ele>
        <time>2011-03-06T10:26:05Z</time>
      </trkpt>
      <trkpt lat="43.65535" lon="3.3309">
        <ele>147.4</ele>
        <time>2011-03-06T10:26:08Z</time>
      </trkpt>
      <trkpt lat="43.6554" lon="3.33094">
        <ele>148</ele>
        <time>2011-03-06T10:26:10Z</time>
      </trkpt>
      <trkpt lat="43.65548" lon="3.33099">
        <ele>148.9</ele>
        <time>2011-03-06T10:26:16Z</time>
      </trkpt>
      <trkpt lat="43.65552" lon="3.33107">
        <ele>148.6</ele>
        <time>2011-03-06T10:26:19Z</time>
      </trkpt>
      <trkpt lat="43.65556" lon="3.33115">
        <ele>148.2</ele>
        <time>2011-03-06T10:26:22Z</time>
      </trkpt>
      <trkpt lat="43.65561" lon="3.33122">
        <ele>148</ele>
        <time>2011-03-06T10:26:25Z</time>
      </trkpt>
      <trkpt lat="43.65563" lon="3.33124">
        <ele>148.1</ele>
        <time>2011-03-06T10:26:26Z</time>
      </trkpt>
      <trkpt lat="43.65575" lon="3.33132">
        <ele>148.6</ele>
        <time>2011-03-06T10:26:31Z</time>
      </trkpt>
      <trkpt lat="43.65582" lon="3.33137">
        <ele>148.7</ele>
        <time>2011-03-06T10:26:34Z</time>
      </trkpt>
      <trkpt lat="43.65584" lon="3.33145">
        <ele>148</ele>
        <time>2011-03-06T10:26:36Z</time>
      </trkpt>
      <trkpt lat="43.65587" lon="3.33155">
        <ele>146.8</ele>
        <time>2011-03-06T10:26:38Z</time>
      </trkpt>
      <trkpt lat="43.65591" lon="3.33165">
        <ele>145.8</ele>
        <time>2011-03-06T10:26:40Z</time>
      </trkpt>
      <trkpt lat="43.65597" lon="3.33173">
        <ele>146.1</ele>
        <time>2011-03-06T10:26:43Z</time>
      </trkpt>
      <trkpt lat="43.65604" lon="3.33173">
        <ele>147.8</ele>
        <time>2011-03-06T10:26:47Z</time>
      </trkpt>
      <trkpt lat="43.6561" lon="3.33174">
        <ele>148.9</ele>
        <time>2011-03-06T10:26:51Z</time>
      </trkpt>
      <trkpt lat="43.65616" lon="3.33181">
        <ele>149.2</ele>
        <time>2011-03-06T10:26:53Z</time>
      </trkpt>
      <trkpt lat="43.65619" lon="3.33191">
        <ele>148.5</ele>
        <time>2011-03-06T10:26:55Z</time>
      </trkpt>
      <trkpt lat="43.6562" lon="3.33201">
        <ele>147.5</ele>
        <time>2011-03-06T10:26:57Z</time>
      </trkpt>
      <trkpt lat="43.65624" lon="3.3321">
        <ele>146.8</ele>
        <time>2011-03-06T10:26:59Z</time>
      </trkpt>
      <trkpt lat="43.65629" lon="3.3322">
        <ele>146.2</ele>
        <time>2011-03-06T10:27:01Z</time>
      </trkpt>
      <trkpt lat="43.65632" lon="3.33225">
        <ele>146</ele>
        <time>2011-03-06T10:27:02Z</time>
      </trkpt>
      <trkpt lat="43.65636" lon="3.33229">
        <ele>146</ele>
        <time>2011-03-06T10:27:03Z</time>
      </trkpt>
      <trkpt lat="43.6564" lon="3.33234">
        <ele>145.9</ele>
        <time>2011-03-06T10:27:04Z</time>
      </trkpt>
      <trkpt lat="43.65646" lon="3.33242">
        <ele>145.5</ele>
        <time>2011-03-06T10:27:06Z</time>
      </trkpt>
      <trkpt lat="43.65648" lon="3.33254">
        <ele>144.3</ele>
        <time>2011-03-06T10:27:09Z</time>
      </trkpt>
      <trkpt lat="43.65648" lon="3.33262">
        <ele>143.6</ele>
        <time>2011-03-06T10:27:11Z</time>
      </trkpt>
      <trkpt lat="43.65645" lon="3.33271">
        <ele>142.6</ele>
        <time>2011-03-06T10:27:13Z</time>
      </trkpt>
      <trkpt lat="43.65649" lon="3.33282">
        <ele>142.3</ele>
        <time>2011-03-06T10:27:16Z</time>
      </trkpt>
      <trkpt lat="43.65653" lon="3.33293">
        <ele>141.8</ele>
        <time>2011-03-06T10:27:19Z</time>
      </trkpt>
      <trkpt lat="43.65658" lon="3.33302">
        <ele>141.4</ele>
        <time>2011-03-06T10:27:22Z</time>
      </trkpt>
      <trkpt lat="43.65662" lon="3.33312">
        <ele>140.8</ele>
        <time>2011-03-06T10:27:25Z</time>
      </trkpt>
      <trkpt lat="43.65667" lon="3.33321">
        <ele>140.2</ele>
        <time>2011-03-06T10:27:27Z</time>
      </trkpt>
      <trkpt lat="43.65669" lon="3.33324">
        <ele>140.4</ele>
        <time>2011-03-06T10:27:28Z</time>
      </trkpt>
      <trkpt lat="43.65679" lon="3.33338">
        <ele>141.1</ele>
        <time>2011-03-06T10:27:32Z</time>
      </trkpt>
      <trkpt lat="43.65687" lon="3.33343">
        <ele>142.3</ele>
        <time>2011-03-06T10:27:35Z</time>
      </trkpt>
      <trkpt lat="43.65694" lon="3.33346">
        <ele>143.3</ele>
        <time>2011-03-06T10:27:37Z</time>
      </trkpt>
      <trkpt lat="43.657" lon="3.33349">
        <ele>144.1</ele>
        <time>2011-03-06T10:27:39Z</time>
      </trkpt>
      <trkpt lat="43.65707" lon="3.33353">
        <ele>144.9</ele>
        <time>2011-03-06T10:27:41Z</time>
      </trkpt>
      <trkpt lat="43.65712" lon="3.33362">
        <ele>144.8</ele>
        <time>2011-03-06T10:27:43Z</time>
      </trkpt>
      <trkpt lat="43.65718" lon="3.3337">
        <ele>144.8</ele>
        <time>2011-03-06T10:27:45Z</time>
      </trkpt>
      <trkpt lat="43.65724" lon="3.33378">
        <ele>144.6</ele>
        <time>2011-03-06T10:27:47Z</time>
      </trkpt>
      <trkpt lat="43.65727" lon="3.33387">
        <ele>144</ele>
        <time>2011-03-06T10:27:49Z</time>
      </trkpt>
      <trkpt lat="43.65733" lon="3.33392">
        <ele>144</ele>
        <time>2011-03-06T10:27:51Z</time>
      </trkpt>
      <trkpt lat="43.65738" lon="3.33396">
        <ele>144</ele>
        <time>2011-03-06T10:27:53Z</time>
      </trkpt>
      <trkpt lat="43.65744" lon="3.33398">
        <ele>144.3</ele>
        <time>2011-03-06T10:27:55Z</time>
      </trkpt>
      <trkpt lat="43.65751" lon="3.33402">
        <ele>144.3</ele>
        <time>2011-03-06T10:27:57Z</time>
      </trkpt>
      <trkpt lat="43.65755" lon="3.3341">
        <ele>143.5</ele>
        <time>2011-03-06T10:27:59Z</time>
      </trkpt>
      <trkpt lat="43.6576" lon="3.33416">
        <ele>142.8</ele>
        <time>2011-03-06T10:28:01Z</time>
      </trkpt>
      <trkpt lat="43.65766" lon="3.33422">
        <ele>142.7</ele>
        <time>2011-03-06T10:28:03Z</time>
      </trkpt>
      <trkpt lat="43.65773" lon="3.33426">
        <ele>142.9</ele>
        <time>2011-03-06T10:28:05Z</time>
      </trkpt>
      <trkpt lat="43.65781" lon="3.33431">
        <ele>142.9</ele>
        <time>2011-03-06T10:28:07Z</time>
      </trkpt>
      <trkpt lat="43.65789" lon="3.33435">
        <ele>143</ele>
        <time>2011-03-06T10:28:09Z</time>
      </trkpt>
      <trkpt lat="43.65797" lon="3.33435">
        <ele>143.4</ele>
        <time>2011-03-06T10:28:11Z</time>
      </trkpt>
      <trkpt lat="43.65806" lon="3.33438">
        <ele>143.7</ele>
        <time>2011-03-06T10:28:13Z</time>
      </trkpt>
      <trkpt lat="43.65811" lon="3.33438">
        <ele>144</ele>
        <time>2011-03-06T10:28:14Z</time>
      </trkpt>
      <trkpt lat="43.65816" lon="3.3344">
        <ele>144</ele>
        <time>2011-03-06T10:28:15Z</time>
      </trkpt>
      <trkpt lat="43.65821" lon="3.33442">
        <ele>144</ele>
        <time>2011-03-06T10:28:16Z</time>
      </trkpt>
      <trkpt lat="43.65829" lon="3.33445">
        <ele>144</ele>
        <time>2011-03-06T10:28:18Z</time>
      </trkpt>
      <trkpt lat="43.65837" lon="3.33446">
        <ele>144.3</ele>
        <time>2011-03-06T10:28:23Z</time>
      </trkpt>
      <trkpt lat="43.65844" lon="3.33452">
        <ele>144.1</ele>
        <time>2011-03-06T10:28:29Z</time>
      </trkpt>
      <trkpt lat="43.65845" lon="3.33452">
        <ele>144.1</ele>
        <time>2011-03-06T10:28:30Z</time>
      </trkpt>
      <trkpt lat="43.65859" lon="3.33448">
        <ele>145.7</ele>
        <time>2011-03-06T10:29:05Z</time>
      </trkpt>
      <trkpt lat="43.65866" lon="3.33441">
        <ele>147</ele>
        <time>2011-03-06T10:29:18Z</time>
      </trkpt>
      <trkpt lat="43.65875" lon="3.33442">
        <ele>147.4</ele>
        <time>2011-03-06T10:30:21Z</time>
      </trkpt>
      <trkpt lat="43.65877" lon="3.33442">
        <ele>147.6</ele>
        <time>2011-03-06T10:30:22Z</time>
      </trkpt>
      <trkpt lat="43.65887" lon="3.33451">
        <ele>147.3</ele>
        <time>2011-03-06T10:30:32Z</time>
      </trkpt>
      <trkpt lat="43.65885" lon="3.33462">
        <ele>145.8</ele>
        <time>2011-03-06T10:30:46Z</time>
      </trkpt>
      <trkpt lat="43.65891" lon="3.33471">
        <ele>145.2</ele>
        <time>2011-03-06T10:31:34Z</time>
      </trkpt>
      <trkpt lat="43.65892" lon="3.33471">
        <ele>145.2</ele>
        <time>2011-03-06T10:31:35Z</time>
      </trkpt>
      <trkpt lat="43.65906" lon="3.3348">
        <ele>145.2</ele>
        <time>2011-03-06T10:31:44Z</time>
      </trkpt>
      <trkpt lat="43.65912" lon="3.33488">
        <ele>144.9</ele>
        <time>2011-03-06T10:31:47Z</time>
      </trkpt>
      <trkpt lat="43.65916" lon="3.33496">
        <ele>144.4</ele>
        <time>2011-03-06T10:31:49Z</time>
      </trkpt>
      <trkpt lat="43.65921" lon="3.33505">
        <ele>144.4</ele>
        <time>2011-03-06T10:31:51Z</time>
      </trkpt>
      <trkpt lat="43.65925" lon="3.33514">
        <ele>144.6</ele>
        <time>2011-03-06T10:31:53Z</time>
      </trkpt>
      <trkpt lat="43.6593" lon="3.33522">
        <ele>144.9</ele>
        <time>2011-03-06T10:31:55Z</time>
      </trkpt>
      <trkpt lat="43.65938" lon="3.33528">
        <ele>145.5</ele>
        <time>2011-03-06T10:31:58Z</time>
      </trkpt>
      <trkpt lat="43.65945" lon="3.33534">
        <ele>145.8</ele>
        <time>2011-03-06T10:32:02Z</time>
      </trkpt>
      <trkpt lat="43.65951" lon="3.33531">
        <ele>146.6</ele>
        <time>2011-03-06T10:32:06Z</time>
      </trkpt>
      <trkpt lat="43.65958" lon="3.33527">
        <ele>147.5</ele>
        <time>2011-03-06T10:32:09Z</time>
      </trkpt>
      <trkpt lat="43.65964" lon="3.33522">
        <ele>148.6</ele>
        <time>2011-03-06T10:32:12Z</time>
      </trkpt>
      <trkpt lat="43.65972" lon="3.33523">
        <ele>149.4</ele>
        <time>2011-03-06T10:32:15Z</time>
      </trkpt>
      <trkpt lat="43.6598" lon="3.33526">
        <ele>149.9</ele>
        <time>2011-03-06T10:32:18Z</time>
      </trkpt>
      <trkpt lat="43.65988" lon="3.33528">
        <ele>150.4</ele>
        <time>2011-03-06T10:32:21Z</time>
      </trkpt>
      <trkpt lat="43.65996" lon="3.33531">
        <ele>150.9</ele>
        <time>2011-03-06T10:32:24Z</time>
      </trkpt>
      <trkpt lat="43.66003" lon="3.33535">
        <ele>151.3</ele>
        <time>2011-03-06T10:32:27Z</time>
      </trkpt>
      <trkpt lat="43.6601" lon="3.33538">
        <ele>151.8</ele>
        <time>2011-03-06T10:32:30Z</time>
      </trkpt>
      <trkpt lat="43.66017" lon="3.33538">
        <ele>152.6</ele>
        <time>2011-03-06T10:32:33Z</time>
      </trkpt>
      <trkpt lat="43.66024" lon="3.33537">
        <ele>153.7</ele>
        <time>2011-03-06T10:32:36Z</time>
      </trkpt>
      <trkpt lat="43.66027" lon="3.33537">
        <ele>154.1</ele>
        <time>2011-03-06T10:32:37Z</time>
      </trkpt>
      <trkpt lat="43.66037" lon="3.33539">
        <ele>155.1</ele>
        <time>2011-03-06T10:32:40Z</time>
      </trkpt>
      <trkpt lat="43.66044" lon="3.33543">
        <ele>155.3</ele>
        <time>2011-03-06T10:32:42Z</time>
      </trkpt>
      <trkpt lat="43.6605" lon="3.33547">
        <ele>155.4</ele>
        <time>2011-03-06T10:32:44Z</time>
      </trkpt>
      <trkpt lat="43.66056" lon="3.33551">
        <ele>155.6</ele>
        <time>2011-03-06T10:32:46Z</time>
      </trkpt>
      <trkpt lat="43.66062" lon="3.33554">
        <ele>155.9</ele>
        <time>2011-03-06T10:32:48Z</time>
      </trkpt>
      <trkpt lat="43.66068" lon="3.33556">
        <ele>156.2</ele>
        <time>2011-03-06T10:32:50Z</time>
      </trkpt>
      <trkpt lat="43.66075" lon="3.33557">
        <ele>156.7</ele>
        <time>2011-03-06T10:32:52Z</time>
      </trkpt>
      <trkpt lat="43.66083" lon="3.33558">
        <ele>157.5</ele>
        <time>2011-03-06T10:32:55Z</time>
      </trkpt>
      <trkpt lat="43.6609" lon="3.3356">
        <ele>158</ele>
        <time>2011-03-06T10:32:57Z</time>
      </trkpt>
      <trkpt lat="43.66098" lon="3.33561">
        <ele>158.5</ele>
        <time>2011-03-06T10:32:59Z</time>
      </trkpt>
      <trkpt lat="43.66106" lon="3.33562">
        <ele>159.2</ele>
        <time>2011-03-06T10:33:01Z</time>
      </trkpt>
      <trkpt lat="43.66114" lon="3.33563">
        <ele>159.8</ele>
        <time>2011-03-06T10:33:03Z</time>
      </trkpt>
      <trkpt lat="43.66121" lon="3.33569">
        <ele>159.5</ele>
        <time>2011-03-06T10:33:05Z</time>
      </trkpt>
      <trkpt lat="43.66124" lon="3.33578">
        <ele>158.2</ele>
        <time>2011-03-06T10:33:07Z</time>
      </trkpt>
      <trkpt lat="43.66127" lon="3.33588">
        <ele>157</ele>
        <time>2011-03-06T10:33:09Z</time>
      </trkpt>
      <trkpt lat="43.6613" lon="3.33597">
        <ele>156.3</ele>
        <time>2011-03-06T10:33:11Z</time>
      </trkpt>
      <trkpt lat="43.66135" lon="3.33603">
        <ele>156</ele>
        <time>2011-03-06T10:33:13Z</time>
      </trkpt>
      <trkpt lat="43.66141" lon="3.33608">
        <ele>156</ele>
        <time>2011-03-06T10:33:15Z</time>
      </trkpt>
      <trkpt lat="43.66148" lon="3.3361">
        <ele>156.3</ele>
        <time>2011-03-06T10:33:17Z</time>
      </trkpt>
      <trkpt lat="43.66155" lon="3.33611">
        <ele>156.9</ele>
        <time>2011-03-06T10:33:19Z</time>
      </trkpt>
      <trkpt lat="43.66162" lon="3.33611">
        <ele>157.6</ele>
        <time>2011-03-06T10:33:21Z</time>
      </trkpt>
      <trkpt lat="43.66169" lon="3.33612">
        <ele>158</ele>
        <time>2011-03-06T10:33:23Z</time>
      </trkpt>
      <trkpt lat="43.66176" lon="3.33612">
        <ele>158.3</ele>
        <time>2011-03-06T10:33:25Z</time>
      </trkpt>
      <trkpt lat="43.66183" lon="3.33612">
        <ele>158.7</ele>
        <time>2011-03-06T10:33:27Z</time>
      </trkpt>
      <trkpt lat="43.6619" lon="3.33612">
        <ele>159.1</ele>
        <time>2011-03-06T10:33:29Z</time>
      </trkpt>
      <trkpt lat="43.66198" lon="3.33612">
        <ele>159.5</ele>
        <time>2011-03-06T10:33:31Z</time>
      </trkpt>
      <trkpt lat="43.66204" lon="3.33613">
        <ele>159.7</ele>
        <time>2011-03-06T10:33:32Z</time>
      </trkpt>
      <trkpt lat="43.6621" lon="3.33615">
        <ele>159.8</ele>
        <time>2011-03-06T10:33:33Z</time>
      </trkpt>
      <trkpt lat="43.66216" lon="3.33617">
        <ele>159.7</ele>
        <time>2011-03-06T10:33:34Z</time>
      </trkpt>
      <trkpt lat="43.66222" lon="3.33624">
        <ele>159.2</ele>
        <time>2011-03-06T10:33:36Z</time>
      </trkpt>
      <trkpt lat="43.66229" lon="3.33631">
        <ele>158.6</ele>
        <time>2011-03-06T10:33:40Z</time>
      </trkpt>
      <trkpt lat="43.66232" lon="3.33632">
        <ele>158.6</ele>
        <time>2011-03-06T10:33:41Z</time>
      </trkpt>
      <trkpt lat="43.66231" lon="3.33647">
        <ele>156.5</ele>
        <time>2011-03-06T10:33:48Z</time>
      </trkpt>
      <trkpt lat="43.66226" lon="3.33648">
        <ele>156.1</ele>
        <time>2011-03-06T10:33:50Z</time>
      </trkpt>
      <trkpt lat="43.66219" lon="3.33652">
        <ele>155.1</ele>
        <time>2011-03-06T10:33:52Z</time>
      </trkpt>
      <trkpt lat="43.66214" lon="3.33655">
        <ele>154.5</ele>
        <time>2011-03-06T10:33:53Z</time>
      </trkpt>
      <trkpt lat="43.6621" lon="3.33659">
        <ele>153.7</ele>
        <time>2011-03-06T10:33:54Z</time>
      </trkpt>
      <trkpt lat="43.66207" lon="3.33664">
        <ele>152.8</ele>
        <time>2011-03-06T10:33:55Z</time>
      </trkpt>
      <trkpt lat="43.66205" lon="3.3367">
        <ele>152.1</ele>
        <time>2011-03-06T10:33:56Z</time>
      </trkpt>
      <trkpt lat="43.66203" lon="3.33676">
        <ele>151.5</ele>
        <time>2011-03-06T10:33:57Z</time>
      </trkpt>
      <trkpt lat="43.662" lon="3.33682">
        <ele>150.9</ele>
        <time>2011-03-06T10:33:58Z</time>
      </trkpt>
      <trkpt lat="43.66196" lon="3.33687">
        <ele>150.4</ele>
        <time>2011-03-06T10:33:59Z</time>
      </trkpt>
      <trkpt lat="43.66193" lon="3.33693">
        <ele>149.8</ele>
        <time>2011-03-06T10:34:00Z</time>
      </trkpt>
      <trkpt lat="43.66191" lon="3.337">
        <ele>149.3</ele>
        <time>2011-03-06T10:34:01Z</time>
      </trkpt>
      <trkpt lat="43.66189" lon="3.33707">
        <ele>148.7</ele>
        <time>2011-03-06T10:34:02Z</time>
      </trkpt>
      <trkpt lat="43.66187" lon="3.33715">
        <ele>148.1</ele>
        <time>2011-03-06T10:34:03Z</time>
      </trkpt>
      <trkpt lat="43.66185" lon="3.33723">
        <ele>147.4</ele>
        <time>2011-03-06T10:34:04Z</time>
      </trkpt>
      <trkpt lat="43.66182" lon="3.33732">
        <ele>146.7</ele>
        <time>2011-03-06T10:34:05Z</time>
      </trkpt>
      <trkpt lat="43.6618" lon="3.33741">
        <ele>146.1</ele>
        <time>2011-03-06T10:34:06Z</time>
      </trkpt>
      <trkpt lat="43.66178" lon="3.3375">
        <ele>145.4</ele>
        <time>2011-03-06T10:34:07Z</time>
      </trkpt>
      <trkpt lat="43.66177" lon="3.3376">
        <ele>144.6</ele>
        <time>2011-03-06T10:34:08Z</time>
      </trkpt>
      <trkpt lat="43.66176" lon="3.33769">
        <ele>143.9</ele>
        <time>2011-03-06T10:34:09Z</time>
      </trkpt>
      <trkpt lat="43.66177" lon="3.33781">
        <ele>143.1</ele>
        <time>2011-03-06T10:34:11Z</time>
      </trkpt>
      <trkpt lat="43.66182" lon="3.33786">
        <ele>142.9</ele>
        <time>2011-03-06T10:34:13Z</time>
      </trkpt>
      <trkpt lat="43.66191" lon="3.33785">
        <ele>143.2</ele>
        <time>2011-03-06T10:34:15Z</time>
      </trkpt>
      <trkpt lat="43.66196" lon="3.33789">
        <ele>143.1</ele>
        <time>2011-03-06T10:34:16Z</time>
      </trkpt>
      <trkpt lat="43.662" lon="3.33798">
        <ele>142.5</ele>
        <time>2011-03-06T10:34:18Z</time>
      </trkpt>
      <trkpt lat="43.66203" lon="3.33807">
        <ele>141.9</ele>
        <time>2011-03-06T10:34:20Z</time>
      </trkpt>
      <trkpt lat="43.66206" lon="3.33812">
        <ele>141.6</ele>
        <time>2011-03-06T10:34:21Z</time>
      </trkpt>
      <trkpt lat="43.66209" lon="3.33817">
        <ele>141.3</ele>
        <time>2011-03-06T10:34:22Z</time>
      </trkpt>
      <trkpt lat="43.66212" lon="3.33825">
        <ele>140.8</ele>
        <time>2011-03-06T10:34:23Z</time>
      </trkpt>
      <trkpt lat="43.66212" lon="3.33835">
        <ele>140.1</ele>
        <time>2011-03-06T10:34:25Z</time>
      </trkpt>
      <trkpt lat="43.66211" lon="3.33845">
        <ele>139.9</ele>
        <time>2011-03-06T10:34:28Z</time>
      </trkpt>
      <trkpt lat="43.66209" lon="3.33856">
        <ele>139.8</ele>
        <time>2011-03-06T10:34:33Z</time>
      </trkpt>
      <trkpt lat="43.66213" lon="3.33868">
        <ele>139.7</ele>
        <time>2011-03-06T10:34:39Z</time>
      </trkpt>
      <trkpt lat="43.66221" lon="3.3387">
        <ele>140</ele>
        <time>2011-03-06T10:34:51Z</time>
      </trkpt>
      <trkpt lat="43.66223" lon="3.33871">
        <ele>140.1</ele>
        <time>2011-03-06T10:34:52Z</time>
      </trkpt>
      <trkpt lat="43.66237" lon="3.33877">
        <ele>140.5</ele>
        <time>2011-03-06T10:35:04Z</time>
      </trkpt>
      <trkpt lat="43.66243" lon="3.33886">
        <ele>140.7</ele>
        <time>2011-03-06T10:35:11Z</time>
      </trkpt>
      <trkpt lat="43.66248" lon="3.33896">
        <ele>140.9</ele>
        <time>2011-03-06T10:35:26Z</time>
      </trkpt>
      <trkpt lat="43.66244" lon="3.33903">
        <ele>140.7</ele>
        <time>2011-03-06T10:35:35Z</time>
      </trkpt>
      <trkpt lat="43.66241" lon="3.33912">
        <ele>140.6</ele>
        <time>2011-03-06T10:35:37Z</time>
      </trkpt>
      <trkpt lat="43.66239" lon="3.33924">
        <ele>141</ele>
        <time>2011-03-06T10:35:40Z</time>
      </trkpt>
      <trkpt lat="43.66238" lon="3.33934">
        <ele>141.7</ele>
        <time>2011-03-06T10:35:44Z</time>
      </trkpt>
      <trkpt lat="43.66236" lon="3.33946">
        <ele>142.5</ele>
        <time>2011-03-06T10:35:47Z</time>
      </trkpt>
      <trkpt lat="43.66232" lon="3.33955">
        <ele>142.9</ele>
        <time>2011-03-06T10:35:50Z</time>
      </trkpt>
      <trkpt lat="43.66224" lon="3.33955">
        <ele>142.5</ele>
        <time>2011-03-06T10:35:53Z</time>
      </trkpt>
      <trkpt lat="43.66221" lon="3.33957">
        <ele>142.5</ele>
        <time>2011-03-06T10:35:54Z</time>
      </trkpt>
      <trkpt lat="43.66213" lon="3.33971">
        <ele>143.1</ele>
        <time>2011-03-06T10:35:59Z</time>
      </trkpt>
      <trkpt lat="43.66214" lon="3.33983">
        <ele>144</ele>
        <time>2011-03-06T10:36:05Z</time>
      </trkpt>
      <trkpt lat="43.66221" lon="3.33988">
        <ele>144.8</ele>
        <time>2011-03-06T10:36:10Z</time>
      </trkpt>
      <trkpt lat="43.66228" lon="3.33994">
        <ele>145.5</ele>
        <time>2011-03-06T10:36:15Z</time>
      </trkpt>
      <trkpt lat="43.66236" lon="3.33997">
        <ele>146.1</ele>
        <time>2011-03-06T10:36:20Z</time>
      </trkpt>
      <trkpt lat="43.66244" lon="3.33998">
        <ele>146.6</ele>
        <time>2011-03-06T10:36:24Z</time>
      </trkpt>
      <trkpt lat="43.66252" lon="3.33999">
        <ele>147</ele>
        <time>2011-03-06T10:36:28Z</time>
      </trkpt>
      <trkpt lat="43.66258" lon="3.33995">
        <ele>147.1</ele>
        <time>2011-03-06T10:36:31Z</time>
      </trkpt>
      <trkpt lat="43.66265" lon="3.33991">
        <ele>147.3</ele>
        <time>2011-03-06T10:36:34Z</time>
      </trkpt>
      <trkpt lat="43.66273" lon="3.3399">
        <ele>147.7</ele>
        <time>2011-03-06T10:36:37Z</time>
      </trkpt>
      <trkpt lat="43.66281" lon="3.33988">
        <ele>148.1</ele>
        <time>2011-03-06T10:36:40Z</time>
      </trkpt>
      <trkpt lat="43.66289" lon="3.33987">
        <ele>148.5</ele>
        <time>2011-03-06T10:36:43Z</time>
      </trkpt>
      <trkpt lat="43.66297" lon="3.33985">
        <ele>148.8</ele>
        <time>2011-03-06T10:36:46Z</time>
      </trkpt>
      <trkpt lat="43.66304" lon="3.33984">
        <ele>149.2</ele>
        <time>2011-03-06T10:36:49Z</time>
      </trkpt>
      <trkpt lat="43.66311" lon="3.33981">
        <ele>149.4</ele>
        <time>2011-03-06T10:36:52Z</time>
      </trkpt>
      <trkpt lat="43.66318" lon="3.33976">
        <ele>149.6</ele>
        <time>2011-03-06T10:36:55Z</time>
      </trkpt>
      <trkpt lat="43.66321" lon="3.33975">
        <ele>149.7</ele>
        <time>2011-03-06T10:36:56Z</time>
      </trkpt>
      <trkpt lat="43.6633" lon="3.3397">
        <ele>150</ele>
        <time>2011-03-06T10:36:59Z</time>
      </trkpt>
      <trkpt lat="43.66337" lon="3.33965">
        <ele>150.1</ele>
        <time>2011-03-06T10:37:02Z</time>
      </trkpt>
      <trkpt lat="43.66343" lon="3.3396">
        <ele>150.4</ele>
        <time>2011-03-06T10:37:05Z</time>
      </trkpt>
      <trkpt lat="43.6635" lon="3.33955">
        <ele>150.7</ele>
        <time>2011-03-06T10:37:08Z</time>
      </trkpt>
      <trkpt lat="43.66356" lon="3.33951">
        <ele>151</ele>
        <time>2011-03-06T10:37:11Z</time>
      </trkpt>
      <trkpt lat="43.66364" lon="3.33949">
        <ele>151.5</ele>
        <time>2011-03-06T10:37:14Z</time>
      </trkpt>
      <trkpt lat="43.66372" lon="3.33949">
        <ele>152.2</ele>
        <time>2011-03-06T10:37:17Z</time>
      </trkpt>
      <trkpt lat="43.66377" lon="3.33949">
        <ele>152.5</ele>
        <time>2011-03-06T10:37:18Z</time>
      </trkpt>
      <trkpt lat="43.66381" lon="3.3395">
        <ele>153</ele>
        <time>2011-03-06T10:37:19Z</time>
      </trkpt>
      <trkpt lat="43.66387" lon="3.33951">
        <ele>153.5</ele>
        <time>2011-03-06T10:37:20Z</time>
      </trkpt>
      <trkpt lat="43.66393" lon="3.33949">
        <ele>153.9</ele>
        <time>2011-03-06T10:37:21Z</time>
      </trkpt>
      <trkpt lat="43.66396" lon="3.33945">
        <ele>154</ele>
        <time>2011-03-06T10:37:22Z</time>
      </trkpt>
      <trkpt lat="43.66401" lon="3.33934">
        <ele>153.7</ele>
        <time>2011-03-06T10:37:24Z</time>
      </trkpt>
      <trkpt lat="43.66406" lon="3.33926">
        <ele>153.6</ele>
        <time>2011-03-06T10:37:26Z</time>
      </trkpt>
      <trkpt lat="43.66412" lon="3.33918">
        <ele>153.7</ele>
        <time>2011-03-06T10:37:28Z</time>
      </trkpt>
      <trkpt lat="43.66416" lon="3.3391">
        <ele>153.6</ele>
        <time>2011-03-06T10:37:30Z</time>
      </trkpt>
      <trkpt lat="43.66419" lon="3.33903">
        <ele>153.6</ele>
        <time>2011-03-06T10:37:32Z</time>
      </trkpt>
      <trkpt lat="43.66425" lon="3.33895">
        <ele>154.1</ele>
        <time>2011-03-06T10:37:35Z</time>
      </trkpt>
      <trkpt lat="43.66432" lon="3.33891">
        <ele>155.1</ele>
        <time>2011-03-06T10:37:38Z</time>
      </trkpt>
      <trkpt lat="43.66441" lon="3.33888">
        <ele>156.4</ele>
        <time>2011-03-06T10:37:42Z</time>
      </trkpt>
      <trkpt lat="43.66449" lon="3.33885">
        <ele>157.4</ele>
        <time>2011-03-06T10:37:46Z</time>
      </trkpt>
      <trkpt lat="43.66458" lon="3.33885">
        <ele>158.9</ele>
        <time>2011-03-06T10:37:49Z</time>
      </trkpt>
      <trkpt lat="43.66466" lon="3.33885">
        <ele>160.3</ele>
        <time>2011-03-06T10:37:51Z</time>
      </trkpt>
      <trkpt lat="43.66472" lon="3.33881">
        <ele>161.2</ele>
        <time>2011-03-06T10:37:53Z</time>
      </trkpt>
      <trkpt lat="43.66478" lon="3.33875">
        <ele>161.7</ele>
        <time>2011-03-06T10:37:55Z</time>
      </trkpt>
      <trkpt lat="43.66482" lon="3.33869">
        <ele>162.2</ele>
        <time>2011-03-06T10:37:57Z</time>
      </trkpt>
      <trkpt lat="43.66485" lon="3.33867">
        <ele>162.5</ele>
        <time>2011-03-06T10:37:58Z</time>
      </trkpt>
      <trkpt lat="43.66495" lon="3.33857">
        <ele>163.5</ele>
        <time>2011-03-06T10:38:03Z</time>
      </trkpt>
      <trkpt lat="43.66501" lon="3.33851">
        <ele>164.2</ele>
        <time>2011-03-06T10:38:06Z</time>
      </trkpt>
      <trkpt lat="43.66508" lon="3.33848">
        <ele>165.2</ele>
        <time>2011-03-06T10:38:09Z</time>
      </trkpt>
      <trkpt lat="43.66514" lon="3.33842">
        <ele>165.8</ele>
        <time>2011-03-06T10:38:12Z</time>
      </trkpt>
      <trkpt lat="43.66522" lon="3.33836">
        <ele>166.6</ele>
        <time>2011-03-06T10:38:16Z</time>
      </trkpt>
      <trkpt lat="43.66529" lon="3.33832">
        <ele>167.3</ele>
        <time>2011-03-06T10:38:20Z</time>
      </trkpt>
      <trkpt lat="43.66537" lon="3.33829">
        <ele>168.3</ele>
        <time>2011-03-06T10:38:25Z</time>
      </trkpt>
      <trkpt lat="43.66545" lon="3.33829">
        <ele>169.5</ele>
        <time>2011-03-06T10:38:30Z</time>
      </trkpt>
      <trkpt lat="43.66552" lon="3.33829">
        <ele>170.7</ele>
        <time>2011-03-06T10:38:34Z</time>
      </trkpt>
      <trkpt lat="43.6656" lon="3.3383">
        <ele>172</ele>
        <time>2011-03-06T10:38:38Z</time>
      </trkpt>
      <trkpt lat="43.66568" lon="3.3383">
        <ele>173.2</ele>
        <time>2011-03-06T10:38:42Z</time>
      </trkpt>
      <trkpt lat="43.66576" lon="3.33829">
        <ele>174.3</ele>
        <time>2011-03-06T10:38:47Z</time>
      </trkpt>
      <trkpt lat="43.66585" lon="3.33827">
        <ele>175.4</ele>
        <time>2011-03-06T10:38:59Z</time>
      </trkpt>
      <trkpt lat="43.66586" lon="3.33827">
        <ele>175.5</ele>
        <time>2011-03-06T10:39:00Z</time>
      </trkpt>
      <trkpt lat="43.66601" lon="3.33823">
        <ele>177.6</ele>
        <time>2011-03-06T10:39:16Z</time>
      </trkpt>
      <trkpt lat="43.66609" lon="3.33821">
        <ele>178.8</ele>
        <time>2011-03-06T10:39:26Z</time>
      </trkpt>
      <trkpt lat="43.66618" lon="3.3382">
        <ele>180.2</ele>
        <time>2011-03-06T10:39:35Z</time>
      </trkpt>
      <trkpt lat="43.66626" lon="3.33821">
        <ele>181.7</ele>
        <time>2011-03-06T10:39:43Z</time>
      </trkpt>
      <trkpt lat="43.66634" lon="3.33821">
        <ele>183.1</ele>
        <time>2011-03-06T10:40:07Z</time>
      </trkpt>
      <trkpt lat="43.66635" lon="3.3382">
        <ele>183.2</ele>
        <time>2011-03-06T10:40:08Z</time>
      </trkpt>
      <trkpt lat="43.66649" lon="3.33818">
        <ele>185.4</ele>
        <time>2011-03-06T10:40:18Z</time>
      </trkpt>
      <trkpt lat="43.66655" lon="3.3381">
        <ele>185.6</ele>
        <time>2011-03-06T10:40:21Z</time>
      </trkpt>
      <trkpt lat="43.66659" lon="3.33801">
        <ele>185.5</ele>
        <time>2011-03-06T10:40:24Z</time>
      </trkpt>
      <trkpt lat="43.66664" lon="3.33793">
        <ele>185.6</ele>
        <time>2011-03-06T10:40:27Z</time>
      </trkpt>
      <trkpt lat="43.6667" lon="3.33784">
        <ele>185.8</ele>
        <time>2011-03-06T10:40:30Z</time>
      </trkpt>
      <trkpt lat="43.66676" lon="3.33777">
        <ele>186.3</ele>
        <time>2011-03-06T10:40:33Z</time>
      </trkpt>
      <trkpt lat="43.66683" lon="3.3377">
        <ele>186.7</ele>
        <time>2011-03-06T10:40:36Z</time>
      </trkpt>
      <trkpt lat="43.66689" lon="3.33764">
        <ele>187</ele>
        <time>2011-03-06T10:40:39Z</time>
      </trkpt>
      <trkpt lat="43.66692" lon="3.33756">
        <ele>186.5</ele>
        <time>2011-03-06T10:40:42Z</time>
      </trkpt>
      <trkpt lat="43.66695" lon="3.33746">
        <ele>186</ele>
        <time>2011-03-06T10:40:45Z</time>
      </trkpt>
      <trkpt lat="43.66699" lon="3.33736">
        <ele>185.4</ele>
        <time>2011-03-06T10:40:48Z</time>
      </trkpt>
      <trkpt lat="43.66705" lon="3.33728">
        <ele>185.3</ele>
        <time>2011-03-06T10:40:51Z</time>
      </trkpt>
      <trkpt lat="43.66712" lon="3.33721">
        <ele>185.5</ele>
        <time>2011-03-06T10:40:55Z</time>
      </trkpt>
      <trkpt lat="43.66719" lon="3.33714">
        <ele>185.6</ele>
        <time>2011-03-06T10:40:59Z</time>
      </trkpt>
      <trkpt lat="43.66726" lon="3.33707">
        <ele>185.7</ele>
        <time>2011-03-06T10:41:04Z</time>
      </trkpt>
      <trkpt lat="43.66733" lon="3.33699">
        <ele>185.5</ele>
        <time>2011-03-06T10:41:08Z</time>
      </trkpt>
      <trkpt lat="43.66736" lon="3.33697">
        <ele>185.5</ele>
        <time>2011-03-06T10:41:09Z</time>
      </trkpt>
      <trkpt lat="43.66743" lon="3.3369">
        <ele>185.6</ele>
        <time>2011-03-06T10:41:11Z</time>
      </trkpt>
      <trkpt lat="43.66748" lon="3.33687">
        <ele>185.6</ele>
        <time>2011-03-06T10:41:12Z</time>
      </trkpt>
      <trkpt lat="43.66753" lon="3.33683">
        <ele>185.6</ele>
        <time>2011-03-06T10:41:13Z</time>
      </trkpt>
      <trkpt lat="43.66758" lon="3.33678">
        <ele>185.4</ele>
        <time>2011-03-06T10:41:14Z</time>
      </trkpt>
      <trkpt lat="43.66763" lon="3.33673">
        <ele>185.3</ele>
        <time>2011-03-06T10:41:15Z</time>
      </trkpt>
      <trkpt lat="43.66766" lon="3.33666">
        <ele>184.8</ele>
        <time>2011-03-06T10:41:16Z</time>
      </trkpt>
      <trkpt lat="43.6677" lon="3.3366">
        <ele>184.9</ele>
        <time>2011-03-06T10:41:17Z</time>
      </trkpt>
      <trkpt lat="43.66776" lon="3.33652">
        <ele>185.1</ele>
        <time>2011-03-06T10:41:19Z</time>
      </trkpt>
      <trkpt lat="43.66777" lon="3.33641">
        <ele>184.6</ele>
        <time>2011-03-06T10:41:24Z</time>
      </trkpt>
      <trkpt lat="43.66776" lon="3.3363">
        <ele>184.1</ele>
        <time>2011-03-06T10:41:27Z</time>
      </trkpt>
      <trkpt lat="43.66776" lon="3.33618">
        <ele>183.5</ele>
        <time>2011-03-06T10:41:31Z</time>
      </trkpt>
      <trkpt lat="43.66777" lon="3.33628">
        <ele>184.1</ele>
        <time>2011-03-06T10:41:37Z</time>
      </trkpt>
      <trkpt lat="43.66776" lon="3.3364">
        <ele>184.6</ele>
        <time>2011-03-06T10:42:21Z</time>
      </trkpt>
      <trkpt lat="43.66776" lon="3.3364">
        <ele>184.6</ele>
        <time>2011-03-06T10:42:22Z</time>
      </trkpt>
      <trkpt lat="43.66775" lon="3.33627">
        <ele>183.8</ele>
        <time>2011-03-06T10:45:43Z</time>
      </trkpt>
      <trkpt lat="43.66776" lon="3.33611">
        <ele>183.1</ele>
        <time>2011-03-06T10:45:47Z</time>
      </trkpt>
      <trkpt lat="43.66777" lon="3.33602">
        <ele>182.8</ele>
        <time>2011-03-06T10:45:49Z</time>
      </trkpt>
      <trkpt lat="43.6678" lon="3.33591">
        <ele>182.5</ele>
        <time>2011-03-06T10:45:51Z</time>
      </trkpt>
      <trkpt lat="43.66784" lon="3.33581">
        <ele>182.5</ele>
        <time>2011-03-06T10:45:53Z</time>
      </trkpt>
      <trkpt lat="43.66789" lon="3.33572">
        <ele>183.1</ele>
        <time>2011-03-06T10:45:55Z</time>
      </trkpt>
      <trkpt lat="43.66795" lon="3.33565">
        <ele>183.7</ele>
        <time>2011-03-06T10:45:57Z</time>
      </trkpt>
      <trkpt lat="43.66802" lon="3.33564">
        <ele>184.2</ele>
        <time>2011-03-06T10:45:59Z</time>
      </trkpt>
      <trkpt lat="43.66809" lon="3.33566">
        <ele>184.6</ele>
        <time>2011-03-06T10:46:01Z</time>
      </trkpt>
      <trkpt lat="43.66817" lon="3.33567">
        <ele>185</ele>
        <time>2011-03-06T10:46:03Z</time>
      </trkpt>
      <trkpt lat="43.66824" lon="3.33566">
        <ele>185.4</ele>
        <time>2011-03-06T10:46:05Z</time>
      </trkpt>
      <trkpt lat="43.6683" lon="3.3356">
        <ele>185.8</ele>
        <time>2011-03-06T10:46:08Z</time>
      </trkpt>
      <trkpt lat="43.66838" lon="3.33557">
        <ele>186</ele>
        <time>2011-03-06T10:46:11Z</time>
      </trkpt>
      <trkpt lat="43.66844" lon="3.33557">
        <ele>185.9</ele>
        <time>2011-03-06T10:46:13Z</time>
      </trkpt>
      <trkpt lat="43.66851" lon="3.33556">
        <ele>185.8</ele>
        <time>2011-03-06T10:46:15Z</time>
      </trkpt>
      <trkpt lat="43.66859" lon="3.33556">
        <ele>185.7</ele>
        <time>2011-03-06T10:46:17Z</time>
      </trkpt>
      <trkpt lat="43.66863" lon="3.33556">
        <ele>185.7</ele>
        <time>2011-03-06T10:46:18Z</time>
      </trkpt>
      <trkpt lat="43.66868" lon="3.33556">
        <ele>185.6</ele>
        <time>2011-03-06T10:46:19Z</time>
      </trkpt>
      <trkpt lat="43.66873" lon="3.33556">
        <ele>185.6</ele>
        <time>2011-03-06T10:46:20Z</time>
      </trkpt>
      <trkpt lat="43.66878" lon="3.33556">
        <ele>185.5</ele>
        <time>2011-03-06T10:46:21Z</time>
      </trkpt>
      <trkpt lat="43.66883" lon="3.33554">
        <ele>185.3</ele>
        <time>2011-03-06T10:46:22Z</time>
      </trkpt>
      <trkpt lat="43.66888" lon="3.33552">
        <ele>185.1</ele>
        <time>2011-03-06T10:46:23Z</time>
      </trkpt>
      <trkpt lat="43.66893" lon="3.3355">
        <ele>184.9</ele>
        <time>2011-03-06T10:46:24Z</time>
      </trkpt>
      <trkpt lat="43.66898" lon="3.33549">
        <ele>184.7</ele>
        <time>2011-03-06T10:46:25Z</time>
      </trkpt>
      <trkpt lat="43.66902" lon="3.33548">
        <ele>184.5</ele>
        <time>2011-03-06T10:46:26Z</time>
      </trkpt>
      <trkpt lat="43.66907" lon="3.33547">
        <ele>184.3</ele>
        <time>2011-03-06T10:46:27Z</time>
      </trkpt>
      <trkpt lat="43.66912" lon="3.33547">
        <ele>184.2</ele>
        <time>2011-03-06T10:46:28Z</time>
      </trkpt>
      <trkpt lat="43.66918" lon="3.33548">
        <ele>184.1</ele>
        <time>2011-03-06T10:46:29Z</time>
      </trkpt>
      <trkpt lat="43.66924" lon="3.33548">
        <ele>183.8</ele>
        <time>2011-03-06T10:46:30Z</time>
      </trkpt>
      <trkpt lat="43.6693" lon="3.33548">
        <ele>183.4</ele>
        <time>2011-03-06T10:46:31Z</time>
      </trkpt>
      <trkpt lat="43.66936" lon="3.33548">
        <ele>183.1</ele>
        <time>2011-03-06T10:46:32Z</time>
      </trkpt>
      <trkpt lat="43.66942" lon="3.33548">
        <ele>182.8</ele>
        <time>2011-03-06T10:46:33Z</time>
      </trkpt>
      <trkpt lat="43.66948" lon="3.33549">
        <ele>182.6</ele>
        <time>2011-03-06T10:46:34Z</time>
      </trkpt>
      <trkpt lat="43.66954" lon="3.3355">
        <ele>182.4</ele>
        <time>2011-03-06T10:46:35Z</time>
      </trkpt>
      <trkpt lat="43.6696" lon="3.33551">
        <ele>182.2</ele>
        <time>2011-03-06T10:46:36Z</time>
      </trkpt>
      <trkpt lat="43.66966" lon="3.33552">
        <ele>181.8</ele>
        <time>2011-03-06T10:46:37Z</time>
      </trkpt>
      <trkpt lat="43.66972" lon="3.33552">
        <ele>181.5</ele>
        <time>2011-03-06T10:46:38Z</time>
      </trkpt>
      <trkpt lat="43.66979" lon="3.33553">
        <ele>181.2</ele>
        <time>2011-03-06T10:46:39Z</time>
      </trkpt>
      <trkpt lat="43.66987" lon="3.33553">
        <ele>180.8</ele>
        <time>2011-03-06T10:46:40Z</time>
      </trkpt>
      <trkpt lat="43.66994" lon="3.33555">
        <ele>180.6</ele>
        <time>2011-03-06T10:46:41Z</time>
      </trkpt>
      <trkpt lat="43.67001" lon="3.33558">
        <ele>180.5</ele>
        <time>2011-03-06T10:46:42Z</time>
      </trkpt>
      <trkpt lat="43.67007" lon="3.3356">
        <ele>180.2</ele>
        <time>2011-03-06T10:46:43Z</time>
      </trkpt>
      <trkpt lat="43.67012" lon="3.3356">
        <ele>179.8</ele>
        <time>2011-03-06T10:46:44Z</time>
      </trkpt>
      <trkpt lat="43.67022" lon="3.33551">
        <ele>178.3</ele>
        <time>2011-03-06T10:46:47Z</time>
      </trkpt>
      <trkpt lat="43.67026" lon="3.33542">
        <ele>177.3</ele>
        <time>2011-03-06T10:46:49Z</time>
      </trkpt>
      <trkpt lat="43.67029" lon="3.33536">
        <ele>176.6</ele>
        <time>2011-03-06T10:46:50Z</time>
      </trkpt>
      <trkpt lat="43.67033" lon="3.33529">
        <ele>175.9</ele>
        <time>2011-03-06T10:46:51Z</time>
      </trkpt>
      <trkpt lat="43.67038" lon="3.33523">
        <ele>175.3</ele>
        <time>2011-03-06T10:46:52Z</time>
      </trkpt>
      <trkpt lat="43.67043" lon="3.3352">
        <ele>174.8</ele>
        <time>2011-03-06T10:46:53Z</time>
      </trkpt>
      <trkpt lat="43.6705" lon="3.33519">
        <ele>174.3</ele>
        <time>2011-03-06T10:46:54Z</time>
      </trkpt>
      <trkpt lat="43.67057" lon="3.33517">
        <ele>173.9</ele>
        <time>2011-03-06T10:46:55Z</time>
      </trkpt>
      <trkpt lat="43.67066" lon="3.33516">
        <ele>173.4</ele>
        <time>2011-03-06T10:46:56Z</time>
      </trkpt>
      <trkpt lat="43.67074" lon="3.33517">
        <ele>173</ele>
        <time>2011-03-06T10:46:57Z</time>
      </trkpt>
      <trkpt lat="43.67082" lon="3.33517">
        <ele>172.7</ele>
        <time>2011-03-06T10:46:58Z</time>
      </trkpt>
      <trkpt lat="43.6709" lon="3.33516">
        <ele>172</ele>
        <time>2011-03-06T10:46:59Z</time>
      </trkpt>
      <trkpt lat="43.67097" lon="3.33515">
        <ele>171.2</ele>
        <time>2011-03-06T10:47:00Z</time>
      </trkpt>
      <trkpt lat="43.67105" lon="3.33512">
        <ele>170.4</ele>
        <time>2011-03-06T10:47:01Z</time>
      </trkpt>
      <trkpt lat="43.67113" lon="3.3351">
        <ele>169.5</ele>
        <time>2011-03-06T10:47:02Z</time>
      </trkpt>
      <trkpt lat="43.6712" lon="3.33506">
        <ele>168.7</ele>
        <time>2011-03-06T10:47:03Z</time>
      </trkpt>
      <trkpt lat="43.67128" lon="3.33504">
        <ele>167.9</ele>
        <time>2011-03-06T10:47:04Z</time>
      </trkpt>
      <trkpt lat="43.67137" lon="3.33503">
        <ele>167</ele>
        <time>2011-03-06T10:47:05Z</time>
      </trkpt>
      <trkpt lat="43.67146" lon="3.33501">
        <ele>166.1</ele>
        <time>2011-03-06T10:47:06Z</time>
      </trkpt>
      <trkpt lat="43.67154" lon="3.33498">
        <ele>165.2</ele>
        <time>2011-03-06T10:47:07Z</time>
      </trkpt>
      <trkpt lat="43.67162" lon="3.33495">
        <ele>164.4</ele>
        <time>2011-03-06T10:47:08Z</time>
      </trkpt>
      <trkpt lat="43.67168" lon="3.33492">
        <ele>163.9</ele>
        <time>2011-03-06T10:47:09Z</time>
      </trkpt>
      <trkpt lat="43.67173" lon="3.33489">
        <ele>163.6</ele>
        <time>2011-03-06T10:47:10Z</time>
      </trkpt>
      <trkpt lat="43.67181" lon="3.33486">
        <ele>163</ele>
        <time>2011-03-06T10:47:12Z</time>
      </trkpt>
      <trkpt lat="43.67189" lon="3.33492">
        <ele>162.5</ele>
        <time>2011-03-06T10:47:14Z</time>
      </trkpt>
      <trkpt lat="43.67193" lon="3.33496">
        <ele>162.1</ele>
        <time>2011-03-06T10:47:15Z</time>
      </trkpt>
      <trkpt lat="43.67198" lon="3.33499">
        <ele>161.7</ele>
        <time>2011-03-06T10:47:16Z</time>
      </trkpt>
      <trkpt lat="43.67202" lon="3.33502">
        <ele>161.5</ele>
        <time>2011-03-06T10:47:17Z</time>
      </trkpt>
      <trkpt lat="43.67206" lon="3.33506">
        <ele>161.3</ele>
        <time>2011-03-06T10:47:18Z</time>
      </trkpt>
      <trkpt lat="43.67215" lon="3.3351">
        <ele>160.7</ele>
        <time>2011-03-06T10:47:20Z</time>
      </trkpt>
      <trkpt lat="43.67221" lon="3.33512">
        <ele>160.3</ele>
        <time>2011-03-06T10:47:22Z</time>
      </trkpt>
      <trkpt lat="43.67227" lon="3.33517">
        <ele>160</ele>
        <time>2011-03-06T10:47:24Z</time>
      </trkpt>
      <trkpt lat="43.67233" lon="3.33514">
        <ele>159.5</ele>
        <time>2011-03-06T10:47:26Z</time>
      </trkpt>
      <trkpt lat="43.67236" lon="3.3351">
        <ele>159.2</ele>
        <time>2011-03-06T10:47:27Z</time>
      </trkpt>
      <trkpt lat="43.6724" lon="3.33506">
        <ele>158.8</ele>
        <time>2011-03-06T10:47:28Z</time>
      </trkpt>
      <trkpt lat="43.67245" lon="3.33502">
        <ele>158.4</ele>
        <time>2011-03-06T10:47:29Z</time>
      </trkpt>
      <trkpt lat="43.67252" lon="3.335">
        <ele>157.8</ele>
        <time>2011-03-06T10:47:30Z</time>
      </trkpt>
      <trkpt lat="43.67259" lon="3.335">
        <ele>157.2</ele>
        <time>2011-03-06T10:47:31Z</time>
      </trkpt>
      <trkpt lat="43.67266" lon="3.33502">
        <ele>156.5</ele>
        <time>2011-03-06T10:47:32Z</time>
      </trkpt>
      <trkpt lat="43.67272" lon="3.33508">
        <ele>156.1</ele>
        <time>2011-03-06T10:47:33Z</time>
      </trkpt>
      <trkpt lat="43.67277" lon="3.33515">
        <ele>155.9</ele>
        <time>2011-03-06T10:47:34Z</time>
      </trkpt>
      <trkpt lat="43.67281" lon="3.3352">
        <ele>155.6</ele>
        <time>2011-03-06T10:47:35Z</time>
      </trkpt>
      <trkpt lat="43.67286" lon="3.33522">
        <ele>155.3</ele>
        <time>2011-03-06T10:47:36Z</time>
      </trkpt>
      <trkpt lat="43.67294" lon="3.33527">
        <ele>154.7</ele>
        <time>2011-03-06T10:47:38Z</time>
      </trkpt>
      <trkpt lat="43.67301" lon="3.33532">
        <ele>154.4</ele>
        <time>2011-03-06T10:47:40Z</time>
      </trkpt>
      <trkpt lat="43.67308" lon="3.3354">
        <ele>154.3</ele>
        <time>2011-03-06T10:47:42Z</time>
      </trkpt>
      <trkpt lat="43.6731" lon="3.33547">
        <ele>154.4</ele>
        <time>2011-03-06T10:47:43Z</time>
      </trkpt>
      <trkpt lat="43.67314" lon="3.33551">
        <ele>154.4</ele>
        <time>2011-03-06T10:47:44Z</time>
      </trkpt>
      <trkpt lat="43.67318" lon="3.33553">
        <ele>154.2</ele>
        <time>2011-03-06T10:47:45Z</time>
      </trkpt>
      <trkpt lat="43.67329" lon="3.33557">
        <ele>153.7</ele>
        <time>2011-03-06T10:47:48Z</time>
      </trkpt>
      <trkpt lat="43.67334" lon="3.33564">
        <ele>153.8</ele>
        <time>2011-03-06T10:47:50Z</time>
      </trkpt>
      <trkpt lat="43.67339" lon="3.33574">
        <ele>154.1</ele>
        <time>2011-03-06T10:47:52Z</time>
      </trkpt>
      <trkpt lat="43.67342" lon="3.33578">
        <ele>154.2</ele>
        <time>2011-03-06T10:47:53Z</time>
      </trkpt>
      <trkpt lat="43.67345" lon="3.33583">
        <ele>154.3</ele>
        <time>2011-03-06T10:47:54Z</time>
      </trkpt>
      <trkpt lat="43.67348" lon="3.33588">
        <ele>154.5</ele>
        <time>2011-03-06T10:47:55Z</time>
      </trkpt>
      <trkpt lat="43.67351" lon="3.33593">
        <ele>154.8</ele>
        <time>2011-03-06T10:47:56Z</time>
      </trkpt>
      <trkpt lat="43.67353" lon="3.33599">
        <ele>155.2</ele>
        <time>2011-03-06T10:47:57Z</time>
      </trkpt>
      <trkpt lat="43.67357" lon="3.33604">
        <ele>155.4</ele>
        <time>2011-03-06T10:47:58Z</time>
      </trkpt>
      <trkpt lat="43.67361" lon="3.33608">
        <ele>155.4</ele>
        <time>2011-03-06T10:47:59Z</time>
      </trkpt>
      <trkpt lat="43.67367" lon="3.33615">
        <ele>155.5</ele>
        <time>2011-03-06T10:48:01Z</time>
      </trkpt>
      <trkpt lat="43.67372" lon="3.33622">
        <ele>155.8</ele>
        <time>2011-03-06T10:48:03Z</time>
      </trkpt>
      <trkpt lat="43.67374" lon="3.33632">
        <ele>156.3</ele>
        <time>2011-03-06T10:48:05Z</time>
      </trkpt>
      <trkpt lat="43.67378" lon="3.33642">
        <ele>156.8</ele>
        <time>2011-03-06T10:48:07Z</time>
      </trkpt>
      <trkpt lat="43.67386" lon="3.33642">
        <ele>156.2</ele>
        <time>2011-03-06T10:48:10Z</time>
      </trkpt>
      <trkpt lat="43.6739" lon="3.3364">
        <ele>155.6</ele>
        <time>2011-03-06T10:48:11Z</time>
      </trkpt>
      <trkpt lat="43.67395" lon="3.33639">
        <ele>155.2</ele>
        <time>2011-03-06T10:48:12Z</time>
      </trkpt>
      <trkpt lat="43.67401" lon="3.33641">
        <ele>154.8</ele>
        <time>2011-03-06T10:48:13Z</time>
      </trkpt>
      <trkpt lat="43.67407" lon="3.33641">
        <ele>154.3</ele>
        <time>2011-03-06T10:48:14Z</time>
      </trkpt>
      <trkpt lat="43.67412" lon="3.33638">
        <ele>153.7</ele>
        <time>2011-03-06T10:48:15Z</time>
      </trkpt>
      <trkpt lat="43.67417" lon="3.33634">
        <ele>153</ele>
        <time>2011-03-06T10:48:16Z</time>
      </trkpt>
      <trkpt lat="43.67423" lon="3.33633">
        <ele>152.5</ele>
        <time>2011-03-06T10:48:17Z</time>
      </trkpt>
      <trkpt lat="43.67428" lon="3.33635">
        <ele>152.2</ele>
        <time>2011-03-06T10:48:18Z</time>
      </trkpt>
      <trkpt lat="43.67435" lon="3.33638">
        <ele>151.8</ele>
        <time>2011-03-06T10:48:20Z</time>
      </trkpt>
      <trkpt lat="43.67442" lon="3.33638">
        <ele>151.2</ele>
        <time>2011-03-06T10:48:22Z</time>
      </trkpt>
      <trkpt lat="43.67447" lon="3.33637">
        <ele>150.8</ele>
        <time>2011-03-06T10:48:23Z</time>
      </trkpt>
      <trkpt lat="43.67454" lon="3.33635">
        <ele>150.1</ele>
        <time>2011-03-06T10:48:24Z</time>
      </trkpt>
      <trkpt lat="43.6746" lon="3.33631">
        <ele>149.5</ele>
        <time>2011-03-06T10:48:25Z</time>
      </trkpt>
      <trkpt lat="43.67465" lon="3.33627">
        <ele>148.8</ele>
        <time>2011-03-06T10:48:26Z</time>
      </trkpt>
      <trkpt lat="43.67471" lon="3.33624">
        <ele>148.2</ele>
        <time>2011-03-06T10:48:27Z</time>
      </trkpt>
      <trkpt lat="43.67478" lon="3.33624">
        <ele>147.7</ele>
        <time>2011-03-06T10:48:28Z</time>
      </trkpt>
      <trkpt lat="43.67483" lon="3.33627">
        <ele>147.4</ele>
        <time>2011-03-06T10:48:29Z</time>
      </trkpt>
      <trkpt lat="43.67489" lon="3.3363">
        <ele>147.1</ele>
        <time>2011-03-06T10:48:30Z</time>
      </trkpt>
      <trkpt lat="43.67496" lon="3.33631">
        <ele>146.6</ele>
        <time>2011-03-06T10:48:32Z</time>
      </trkpt>
      <trkpt lat="43.67502" lon="3.3364">
        <ele>146.7</ele>
        <time>2011-03-06T10:48:35Z</time>
      </trkpt>
      <trkpt lat="43.67505" lon="3.3365">
        <ele>147.1</ele>
        <time>2011-03-06T10:48:38Z</time>
      </trkpt>
      <trkpt lat="43.67506" lon="3.33662">
        <ele>147.6</ele>
        <time>2011-03-06T10:48:41Z</time>
      </trkpt>
      <trkpt lat="43.67507" lon="3.33674">
        <ele>148.2</ele>
        <time>2011-03-06T10:48:44Z</time>
      </trkpt>
      <trkpt lat="43.67508" lon="3.33682">
        <ele>148.6</ele>
        <time>2011-03-06T10:48:46Z</time>
      </trkpt>
      <trkpt lat="43.6751" lon="3.33686">
        <ele>148.7</ele>
        <time>2011-03-06T10:48:47Z</time>
      </trkpt>
      <trkpt lat="43.67518" lon="3.33698">
        <ele>149.1</ele>
        <time>2011-03-06T10:48:50Z</time>
      </trkpt>
      <trkpt lat="43.67521" lon="3.33705">
        <ele>149.3</ele>
        <time>2011-03-06T10:48:51Z</time>
      </trkpt>
      <trkpt lat="43.67524" lon="3.33712">
        <ele>149.6</ele>
        <time>2011-03-06T10:48:52Z</time>
      </trkpt>
      <trkpt lat="43.67528" lon="3.33719">
        <ele>149.8</ele>
        <time>2011-03-06T10:48:53Z</time>
      </trkpt>
      <trkpt lat="43.67531" lon="3.33724">
        <ele>150</ele>
        <time>2011-03-06T10:48:54Z</time>
      </trkpt>
      <trkpt lat="43.67536" lon="3.33733">
        <ele>150.3</ele>
        <time>2011-03-06T10:48:56Z</time>
      </trkpt>
      <trkpt lat="43.67538" lon="3.33742">
        <ele>150.7</ele>
        <time>2011-03-06T10:48:58Z</time>
      </trkpt>
      <trkpt lat="43.67537" lon="3.33753">
        <ele>151.2</ele>
        <time>2011-03-06T10:49:01Z</time>
      </trkpt>
      <trkpt lat="43.67536" lon="3.33763">
        <ele>151.7</ele>
        <time>2011-03-06T10:49:04Z</time>
      </trkpt>
      <trkpt lat="43.67539" lon="3.33773">
        <ele>152.2</ele>
        <time>2011-03-06T10:49:08Z</time>
      </trkpt>
      <trkpt lat="43.67543" lon="3.33782">
        <ele>152.5</ele>
        <time>2011-03-06T10:49:11Z</time>
      </trkpt>
      <trkpt lat="43.67546" lon="3.33791">
        <ele>152.9</ele>
        <time>2011-03-06T10:49:14Z</time>
      </trkpt>
      <trkpt lat="43.67547" lon="3.33802">
        <ele>153.4</ele>
        <time>2011-03-06T10:49:17Z</time>
      </trkpt>
      <trkpt lat="43.67545" lon="3.33813">
        <ele>153.9</ele>
        <time>2011-03-06T10:49:20Z</time>
      </trkpt>
      <trkpt lat="43.67546" lon="3.33823">
        <ele>154.4</ele>
        <time>2011-03-06T10:49:24Z</time>
      </trkpt>
      <trkpt lat="43.67552" lon="3.33828">
        <ele>154.5</ele>
        <time>2011-03-06T10:49:26Z</time>
      </trkpt>
      <trkpt lat="43.67557" lon="3.33836">
        <ele>154.7</ele>
        <time>2011-03-06T10:49:30Z</time>
      </trkpt>
      <trkpt lat="43.67554" lon="3.33845">
        <ele>155.1</ele>
        <time>2011-03-06T10:49:33Z</time>
      </trkpt>
      <trkpt lat="43.67557" lon="3.33854">
        <ele>155.4</ele>
        <time>2011-03-06T10:49:36Z</time>
      </trkpt>
      <trkpt lat="43.67564" lon="3.33861">
        <ele>155.6</ele>
        <time>2011-03-06T10:49:39Z</time>
      </trkpt>
      <trkpt lat="43.67567" lon="3.33872">
        <ele>156</ele>
        <time>2011-03-06T10:49:43Z</time>
      </trkpt>
      <trkpt lat="43.67566" lon="3.33884">
        <ele>156.5</ele>
        <time>2011-03-06T10:49:47Z</time>
      </trkpt>
      <trkpt lat="43.67565" lon="3.33886">
        <ele>156.6</ele>
        <time>2011-03-06T10:49:48Z</time>
      </trkpt>
      <trkpt lat="43.67563" lon="3.33908">
        <ele>157.4</ele>
        <time>2011-03-06T10:49:55Z</time>
      </trkpt>
      <trkpt lat="43.67565" lon="3.33918">
        <ele>157.7</ele>
        <time>2011-03-06T10:49:58Z</time>
      </trkpt>
      <trkpt lat="43.67567" lon="3.33927">
        <ele>157.2</ele>
        <time>2011-03-06T10:50:01Z</time>
      </trkpt>
      <trkpt lat="43.67568" lon="3.33937">
        <ele>156.7</ele>
        <time>2011-03-06T10:50:04Z</time>
      </trkpt>
      <trkpt lat="43.6757" lon="3.33949">
        <ele>156.1</ele>
        <time>2011-03-06T10:50:08Z</time>
      </trkpt>
      <trkpt lat="43.67572" lon="3.3396">
        <ele>155.6</ele>
        <time>2011-03-06T10:50:12Z</time>
      </trkpt>
      <trkpt lat="43.67574" lon="3.33969">
        <ele>155.2</ele>
        <time>2011-03-06T10:50:16Z</time>
      </trkpt>
      <trkpt lat="43.67578" lon="3.33978">
        <ele>154.9</ele>
        <time>2011-03-06T10:50:19Z</time>
      </trkpt>
      <trkpt lat="43.67583" lon="3.33985">
        <ele>154.7</ele>
        <time>2011-03-06T10:50:21Z</time>
      </trkpt>
      <trkpt lat="43.67587" lon="3.33988">
        <ele>154.5</ele>
        <time>2011-03-06T10:50:22Z</time>
      </trkpt>
      <trkpt lat="43.67591" lon="3.33992">
        <ele>154.2</ele>
        <time>2011-03-06T10:50:23Z</time>
      </trkpt>
      <trkpt lat="43.67595" lon="3.33997">
        <ele>153.9</ele>
        <time>2011-03-06T10:50:24Z</time>
      </trkpt>
      <trkpt lat="43.67599" lon="3.34003">
        <ele>153.4</ele>
        <time>2011-03-06T10:50:25Z</time>
      </trkpt>
      <trkpt lat="43.67603" lon="3.34009">
        <ele>152.6</ele>
        <time>2011-03-06T10:50:26Z</time>
      </trkpt>
      <trkpt lat="43.67608" lon="3.34017">
        <ele>151.8</ele>
        <time>2011-03-06T10:50:27Z</time>
      </trkpt>
      <trkpt lat="43.67613" lon="3.34025">
        <ele>151.1</ele>
        <time>2011-03-06T10:50:28Z</time>
      </trkpt>
      <trkpt lat="43.67618" lon="3.34033">
        <ele>150.3</ele>
        <time>2011-03-06T10:50:29Z</time>
      </trkpt>
      <trkpt lat="43.67624" lon="3.34042">
        <ele>149.4</ele>
        <time>2011-03-06T10:50:30Z</time>
      </trkpt>
      <trkpt lat="43.67629" lon="3.34051">
        <ele>148.7</ele>
        <time>2011-03-06T10:50:31Z</time>
      </trkpt>
      <trkpt lat="43.67635" lon="3.34059">
        <ele>148.2</ele>
        <time>2011-03-06T10:50:32Z</time>
      </trkpt>
      <trkpt lat="43.67641" lon="3.34064">
        <ele>147.8</ele>
        <time>2011-03-06T10:50:33Z</time>
      </trkpt>
      <trkpt lat="43.67649" lon="3.34068">
        <ele>147.7</ele>
        <time>2011-03-06T10:50:34Z</time>
      </trkpt>
      <trkpt lat="43.67655" lon="3.34068">
        <ele>147.7</ele>
        <time>2011-03-06T10:50:35Z</time>
      </trkpt>
      <trkpt lat="43.6766" lon="3.34066">
        <ele>147.9</ele>
        <time>2011-03-06T10:50:36Z</time>
      </trkpt>
      <trkpt lat="43.67666" lon="3.34067">
        <ele>148</ele>
        <time>2011-03-06T10:50:37Z</time>
      </trkpt>
      <trkpt lat="43.67671" lon="3.34072">
        <ele>147.2</ele>
        <time>2011-03-06T10:50:38Z</time>
      </trkpt>
      <trkpt lat="43.67676" lon="3.34076">
        <ele>146.4</ele>
        <time>2011-03-06T10:50:39Z</time>
      </trkpt>
      <trkpt lat="43.6768" lon="3.3408">
        <ele>145.7</ele>
        <time>2011-03-06T10:50:40Z</time>
      </trkpt>
      <trkpt lat="43.67685" lon="3.34083">
        <ele>145.1</ele>
        <time>2011-03-06T10:50:41Z</time>
      </trkpt>
      <trkpt lat="43.67691" lon="3.34087">
        <ele>144.1</ele>
        <time>2011-03-06T10:50:43Z</time>
      </trkpt>
      <trkpt lat="43.67697" lon="3.34092">
        <ele>143.1</ele>
        <time>2011-03-06T10:50:45Z</time>
      </trkpt>
      <trkpt lat="43.67701" lon="3.34096">
        <ele>142.4</ele>
        <time>2011-03-06T10:50:46Z</time>
      </trkpt>
      <trkpt lat="43.67705" lon="3.341">
        <ele>141.7</ele>
        <time>2011-03-06T10:50:47Z</time>
      </trkpt>
      <trkpt lat="43.6771" lon="3.34106">
        <ele>140.9</ele>
        <time>2011-03-06T10:50:48Z</time>
      </trkpt>
      <trkpt lat="43.67713" lon="3.34113">
        <ele>140.1</ele>
        <time>2011-03-06T10:50:49Z</time>
      </trkpt>
      <trkpt lat="43.67718" lon="3.34121">
        <ele>139.2</ele>
        <time>2011-03-06T10:50:50Z</time>
      </trkpt>
      <trkpt lat="43.67723" lon="3.34128">
        <ele>138.4</ele>
        <time>2011-03-06T10:50:51Z</time>
      </trkpt>
      <trkpt lat="43.67729" lon="3.34135">
        <ele>137.6</ele>
        <time>2011-03-06T10:50:52Z</time>
      </trkpt>
      <trkpt lat="43.67734" lon="3.34143">
        <ele>136.9</ele>
        <time>2011-03-06T10:50:53Z</time>
      </trkpt>
      <trkpt lat="43.67738" lon="3.34151">
        <ele>136.3</ele>
        <time>2011-03-06T10:50:54Z</time>
      </trkpt>
      <trkpt lat="43.67743" lon="3.3416">
        <ele>135.6</ele>
        <time>2011-03-06T10:50:55Z</time>
      </trkpt>
      <trkpt lat="43.67747" lon="3.34169">
        <ele>135.1</ele>
        <time>2011-03-06T10:50:56Z</time>
      </trkpt>
      <trkpt lat="43.6775" lon="3.3418">
        <ele>134.5</ele>
        <time>2011-03-06T10:50:57Z</time>
      </trkpt>
      <trkpt lat="43.67754" lon="3.3419">
        <ele>133.9</ele>
        <time>2011-03-06T10:50:58Z</time>
      </trkpt>
      <trkpt lat="43.67758" lon="3.34199">
        <ele>133.3</ele>
        <time>2011-03-06T10:50:59Z</time>
      </trkpt>
      <trkpt lat="43.67763" lon="3.34207">
        <ele>132.7</ele>
        <time>2011-03-06T10:51:00Z</time>
      </trkpt>
      <trkpt lat="43.67769" lon="3.34216">
        <ele>132.1</ele>
        <time>2011-03-06T10:51:01Z</time>
      </trkpt>
      <trkpt lat="43.67773" lon="3.34224">
        <ele>131.6</ele>
        <time>2011-03-06T10:51:02Z</time>
      </trkpt>
      <trkpt lat="43.67777" lon="3.34233">
        <ele>131</ele>
        <time>2011-03-06T10:51:03Z</time>
      </trkpt>
      <trkpt lat="43.67781" lon="3.34242">
        <ele>130.5</ele>
        <time>2011-03-06T10:51:04Z</time>
      </trkpt>
      <trkpt lat="43.67784" lon="3.3425">
        <ele>130</ele>
        <time>2011-03-06T10:51:05Z</time>
      </trkpt>
      <trkpt lat="43.67787" lon="3.34259">
        <ele>129.6</ele>
        <time>2011-03-06T10:51:06Z</time>
      </trkpt>
      <trkpt lat="43.67788" lon="3.34269">
        <ele>129.4</ele>
        <time>2011-03-06T10:51:07Z</time>
      </trkpt>
      <trkpt lat="43.67788" lon="3.34279">
        <ele>129.2</ele>
        <time>2011-03-06T10:51:08Z</time>
      </trkpt>
      <trkpt lat="43.67788" lon="3.34289">
        <ele>129</ele>
        <time>2011-03-06T10:51:09Z</time>
      </trkpt>
      <trkpt lat="43.67789" lon="3.34299">
        <ele>128.8</ele>
        <time>2011-03-06T10:51:10Z</time>
      </trkpt>
      <trkpt lat="43.67789" lon="3.34307">
        <ele>128.6</ele>
        <time>2011-03-06T10:51:11Z</time>
      </trkpt>
      <trkpt lat="43.6779" lon="3.34315">
        <ele>128.4</ele>
        <time>2011-03-06T10:51:12Z</time>
      </trkpt>
      <trkpt lat="43.6779" lon="3.34323">
        <ele>128.2</ele>
        <time>2011-03-06T10:51:13Z</time>
      </trkpt>
      <trkpt lat="43.67791" lon="3.34332">
        <ele>128.1</ele>
        <time>2011-03-06T10:51:14Z</time>
      </trkpt>
      <trkpt lat="43.67791" lon="3.3434">
        <ele>128.1</ele>
        <time>2011-03-06T10:51:15Z</time>
      </trkpt>
      <trkpt lat="43.67791" lon="3.34348">
        <ele>128.2</ele>
        <time>2011-03-06T10:51:16Z</time>
      </trkpt>
      <trkpt lat="43.6779" lon="3.3436">
        <ele>128.4</ele>
        <time>2011-03-06T10:51:18Z</time>
      </trkpt>
      <trkpt lat="43.67788" lon="3.3437">
        <ele>128.7</ele>
        <time>2011-03-06T10:51:20Z</time>
      </trkpt>
      <trkpt lat="43.67786" lon="3.34381">
        <ele>128.9</ele>
        <time>2011-03-06T10:51:22Z</time>
      </trkpt>
      <trkpt lat="43.67784" lon="3.34392">
        <ele>129.2</ele>
        <time>2011-03-06T10:51:24Z</time>
      </trkpt>
      <trkpt lat="43.67781" lon="3.34404">
        <ele>129.6</ele>
        <time>2011-03-06T10:51:26Z</time>
      </trkpt>
      <trkpt lat="43.67778" lon="3.34415">
        <ele>130</ele>
        <time>2011-03-06T10:51:28Z</time>
      </trkpt>
      <trkpt lat="43.67777" lon="3.34427">
        <ele>129.9</ele>
        <time>2011-03-06T10:51:30Z</time>
      </trkpt>
      <trkpt lat="43.67776" lon="3.34438">
        <ele>129.8</ele>
        <time>2011-03-06T10:51:32Z</time>
      </trkpt>
      <trkpt lat="43.67775" lon="3.34447">
        <ele>129.7</ele>
        <time>2011-03-06T10:51:34Z</time>
      </trkpt>
      <trkpt lat="43.67772" lon="3.34456">
        <ele>129.7</ele>
        <time>2011-03-06T10:51:36Z</time>
      </trkpt>
      <trkpt lat="43.67766" lon="3.34466">
        <ele>129.9</ele>
        <time>2011-03-06T10:51:39Z</time>
      </trkpt>
      <trkpt lat="43.67762" lon="3.34476">
        <ele>129.9</ele>
        <time>2011-03-06T10:51:42Z</time>
      </trkpt>
      <trkpt lat="43.67758" lon="3.34487">
        <ele>129.9</ele>
        <time>2011-03-06T10:51:46Z</time>
      </trkpt>
      <trkpt lat="43.67751" lon="3.34486">
        <ele>130.3</ele>
        <time>2011-03-06T10:53:44Z</time>
      </trkpt>
      <trkpt lat="43.67748" lon="3.34487">
        <ele>130.5</ele>
        <time>2011-03-06T10:53:45Z</time>
      </trkpt>
      <trkpt lat="43.67735" lon="3.34494">
        <ele>131.4</ele>
        <time>2011-03-06T10:53:51Z</time>
      </trkpt>
      <trkpt lat="43.67729" lon="3.34497">
        <ele>131.9</ele>
        <time>2011-03-06T10:53:53Z</time>
      </trkpt>
      <trkpt lat="43.67721" lon="3.345">
        <ele>132.5</ele>
        <time>2011-03-06T10:53:56Z</time>
      </trkpt>
      <trkpt lat="43.67712" lon="3.34505">
        <ele>133.2</ele>
        <time>2011-03-06T10:54:00Z</time>
      </trkpt>
      <trkpt lat="43.67706" lon="3.34511">
        <ele>133.7</ele>
        <time>2011-03-06T10:54:04Z</time>
      </trkpt>
      <trkpt lat="43.67698" lon="3.34515">
        <ele>134.4</ele>
        <time>2011-03-06T10:54:13Z</time>
      </trkpt>
      <trkpt lat="43.67691" lon="3.34518">
        <ele>135</ele>
        <time>2011-03-06T10:54:21Z</time>
      </trkpt>
      <trkpt lat="43.67686" lon="3.34523">
        <ele>135.4</ele>
        <time>2011-03-06T10:54:23Z</time>
      </trkpt>
      <trkpt lat="43.6768" lon="3.3453">
        <ele>135.9</ele>
        <time>2011-03-06T10:54:25Z</time>
      </trkpt>
      <trkpt lat="43.67674" lon="3.34539">
        <ele>136.4</ele>
        <time>2011-03-06T10:54:27Z</time>
      </trkpt>
      <trkpt lat="43.67669" lon="3.34548">
        <ele>136.8</ele>
        <time>2011-03-06T10:54:29Z</time>
      </trkpt>
      <trkpt lat="43.67664" lon="3.34551">
        <ele>137</ele>
        <time>2011-03-06T10:54:30Z</time>
      </trkpt>
      <trkpt lat="43.6766" lon="3.34554">
        <ele>137</ele>
        <time>2011-03-06T10:54:31Z</time>
      </trkpt>
      <trkpt lat="43.67656" lon="3.34556">
        <ele>137</ele>
        <time>2011-03-06T10:54:32Z</time>
      </trkpt>
      <trkpt lat="43.67652" lon="3.34559">
        <ele>136.9</ele>
        <time>2011-03-06T10:54:33Z</time>
      </trkpt>
      <trkpt lat="43.67648" lon="3.34564">
        <ele>136.9</ele>
        <time>2011-03-06T10:54:34Z</time>
      </trkpt>
      <trkpt lat="43.67645" lon="3.3457">
        <ele>136.8</ele>
        <time>2011-03-06T10:54:35Z</time>
      </trkpt>
      <trkpt lat="43.67642" lon="3.34577">
        <ele>136.8</ele>
        <time>2011-03-06T10:54:36Z</time>
      </trkpt>
      <trkpt lat="43.67636" lon="3.34585">
        <ele>136.6</ele>
        <time>2011-03-06T10:54:38Z</time>
      </trkpt>
      <trkpt lat="43.6763" lon="3.34585">
        <ele>136.5</ele>
        <time>2011-03-06T10:54:40Z</time>
      </trkpt>
      <trkpt lat="43.67623" lon="3.34587">
        <ele>136.4</ele>
        <time>2011-03-06T10:54:42Z</time>
      </trkpt>
      <trkpt lat="43.67616" lon="3.34592">
        <ele>136.3</ele>
        <time>2011-03-06T10:54:44Z</time>
      </trkpt>
      <trkpt lat="43.6761" lon="3.34597">
        <ele>136.2</ele>
        <time>2011-03-06T10:54:46Z</time>
      </trkpt>
      <trkpt lat="43.67606" lon="3.34599">
        <ele>136.1</ele>
        <time>2011-03-06T10:54:47Z</time>
      </trkpt>
      <trkpt lat="43.67597" lon="3.34605">
        <ele>135.9</ele>
        <time>2011-03-06T10:54:50Z</time>
      </trkpt>
      <trkpt lat="43.67592" lon="3.3461">
        <ele>135.8</ele>
        <time>2011-03-06T10:54:52Z</time>
      </trkpt>
      <trkpt lat="43.67586" lon="3.34615">
        <ele>135.6</ele>
        <time>2011-03-06T10:54:54Z</time>
      </trkpt>
      <trkpt lat="43.6758" lon="3.34621">
        <ele>135.8</ele>
        <time>2011-03-06T10:54:56Z</time>
      </trkpt>
      <trkpt lat="43.67575" lon="3.34628">
        <ele>136.1</ele>
        <time>2011-03-06T10:54:58Z</time>
      </trkpt>
      <trkpt lat="43.67569" lon="3.34635">
        <ele>136.3</ele>
        <time>2011-03-06T10:55:00Z</time>
      </trkpt>
      <trkpt lat="43.67565" lon="3.34642">
        <ele>136.6</ele>
        <time>2011-03-06T10:55:02Z</time>
      </trkpt>
      <trkpt lat="43.6756" lon="3.34649">
        <ele>136.8</ele>
        <time>2011-03-06T10:55:04Z</time>
      </trkpt>
      <trkpt lat="43.67557" lon="3.34658">
        <ele>137</ele>
        <time>2011-03-06T10:55:06Z</time>
      </trkpt>
      <trkpt lat="43.67553" lon="3.34668">
        <ele>137.2</ele>
        <time>2011-03-06T10:55:08Z</time>
      </trkpt>
      <trkpt lat="43.6755" lon="3.34678">
        <ele>137.5</ele>
        <time>2011-03-06T10:55:10Z</time>
      </trkpt>
      <trkpt lat="43.67546" lon="3.34688">
        <ele>138</ele>
        <time>2011-03-06T10:55:12Z</time>
      </trkpt>
      <trkpt lat="43.67543" lon="3.34693">
        <ele>138.2</ele>
        <time>2011-03-06T10:55:13Z</time>
      </trkpt>
      <trkpt lat="43.67539" lon="3.34698">
        <ele>138.5</ele>
        <time>2011-03-06T10:55:14Z</time>
      </trkpt>
      <trkpt lat="43.67532" lon="3.34705">
        <ele>139.1</ele>
        <time>2011-03-06T10:55:16Z</time>
      </trkpt>
      <trkpt lat="43.67529" lon="3.34714">
        <ele>139.5</ele>
        <time>2011-03-06T10:55:18Z</time>
      </trkpt>
      <trkpt lat="43.67525" lon="3.34721">
        <ele>139.9</ele>
        <time>2011-03-06T10:55:20Z</time>
      </trkpt>
      <trkpt lat="43.6752" lon="3.34727">
        <ele>140.3</ele>
        <time>2011-03-06T10:55:22Z</time>
      </trkpt>
      <trkpt lat="43.67517" lon="3.34739">
        <ele>140.6</ele>
        <time>2011-03-06T10:55:25Z</time>
      </trkpt>
      <trkpt lat="43.67517" lon="3.34748">
        <ele>140.7</ele>
        <time>2011-03-06T10:55:27Z</time>
      </trkpt>
      <trkpt lat="43.67516" lon="3.3476">
        <ele>140.6</ele>
        <time>2011-03-06T10:55:29Z</time>
      </trkpt>
      <trkpt lat="43.67515" lon="3.34767">
        <ele>140.6</ele>
        <time>2011-03-06T10:55:30Z</time>
      </trkpt>
      <trkpt lat="43.67514" lon="3.34773">
        <ele>140.5</ele>
        <time>2011-03-06T10:55:31Z</time>
      </trkpt>
      <trkpt lat="43.67513" lon="3.3478">
        <ele>140.4</ele>
        <time>2011-03-06T10:55:32Z</time>
      </trkpt>
      <trkpt lat="43.67513" lon="3.34788">
        <ele>140.3</ele>
        <time>2011-03-06T10:55:33Z</time>
      </trkpt>
      <trkpt lat="43.67512" lon="3.34796">
        <ele>140.1</ele>
        <time>2011-03-06T10:55:34Z</time>
      </trkpt>
      <trkpt lat="43.67512" lon="3.34805">
        <ele>139.9</ele>
        <time>2011-03-06T10:55:35Z</time>
      </trkpt>
      <trkpt lat="43.67512" lon="3.34813">
        <ele>139.7</ele>
        <time>2011-03-06T10:55:36Z</time>
      </trkpt>
      <trkpt lat="43.67513" lon="3.3482">
        <ele>139.5</ele>
        <time>2011-03-06T10:55:37Z</time>
      </trkpt>
      <trkpt lat="43.67513" lon="3.34826">
        <ele>139.4</ele>
        <time>2011-03-06T10:55:38Z</time>
      </trkpt>
      <trkpt lat="43.67514" lon="3.34834">
        <ele>139.2</ele>
        <time>2011-03-06T10:55:39Z</time>
      </trkpt>
      <trkpt lat="43.67514" lon="3.34841">
        <ele>139</ele>
        <time>2011-03-06T10:55:40Z</time>
      </trkpt>
      <trkpt lat="43.67513" lon="3.34848">
        <ele>138.9</ele>
        <time>2011-03-06T10:55:41Z</time>
      </trkpt>
      <trkpt lat="43.6751" lon="3.34853">
        <ele>138.9</ele>
        <time>2011-03-06T10:55:42Z</time>
      </trkpt>
      <trkpt lat="43.67508" lon="3.34859">
        <ele>139</ele>
        <time>2011-03-06T10:55:43Z</time>
      </trkpt>
      <trkpt lat="43.67503" lon="3.34869">
        <ele>139</ele>
        <time>2011-03-06T10:55:45Z</time>
      </trkpt>
      <trkpt lat="43.67498" lon="3.34878">
        <ele>139.4</ele>
        <time>2011-03-06T10:55:47Z</time>
      </trkpt>
      <trkpt lat="43.67494" lon="3.34881">
        <ele>139.9</ele>
        <time>2011-03-06T10:55:48Z</time>
      </trkpt>
      <trkpt lat="43.67484" lon="3.34887">
        <ele>141.7</ele>
        <time>2011-03-06T10:55:51Z</time>
      </trkpt>
      <trkpt lat="43.67478" lon="3.34892">
        <ele>142.6</ele>
        <time>2011-03-06T10:55:53Z</time>
      </trkpt>
      <trkpt lat="43.67472" lon="3.34898">
        <ele>143.3</ele>
        <time>2011-03-06T10:55:55Z</time>
      </trkpt>
      <trkpt lat="43.67467" lon="3.34903">
        <ele>144</ele>
        <time>2011-03-06T10:55:57Z</time>
      </trkpt>
      <trkpt lat="43.67461" lon="3.34908">
        <ele>144.6</ele>
        <time>2011-03-06T10:55:59Z</time>
      </trkpt>
      <trkpt lat="43.67457" lon="3.34916">
        <ele>144.8</ele>
        <time>2011-03-06T10:56:01Z</time>
      </trkpt>
      <trkpt lat="43.67452" lon="3.34926">
        <ele>144.8</ele>
        <time>2011-03-06T10:56:04Z</time>
      </trkpt>
      <trkpt lat="43.67446" lon="3.34935">
        <ele>145</ele>
        <time>2011-03-06T10:56:08Z</time>
      </trkpt>
      <trkpt lat="43.67439" lon="3.34941">
        <ele>145.3</ele>
        <time>2011-03-06T10:56:11Z</time>
      </trkpt>
      <trkpt lat="43.67433" lon="3.34947">
        <ele>145.6</ele>
        <time>2011-03-06T10:56:13Z</time>
      </trkpt>
      <trkpt lat="43.67428" lon="3.34953">
        <ele>145.4</ele>
        <time>2011-03-06T10:56:15Z</time>
      </trkpt>
      <trkpt lat="43.67424" lon="3.3496">
        <ele>145.1</ele>
        <time>2011-03-06T10:56:17Z</time>
      </trkpt>
      <trkpt lat="43.67419" lon="3.34969">
        <ele>144.5</ele>
        <time>2011-03-06T10:56:20Z</time>
      </trkpt>
      <trkpt lat="43.67413" lon="3.34978">
        <ele>143.7</ele>
        <time>2011-03-06T10:56:24Z</time>
      </trkpt>
      <trkpt lat="43.67407" lon="3.34985">
        <ele>143.1</ele>
        <time>2011-03-06T10:56:27Z</time>
      </trkpt>
      <trkpt lat="43.67401" lon="3.34993">
        <ele>142.4</ele>
        <time>2011-03-06T10:56:29Z</time>
      </trkpt>
      <trkpt lat="43.67395" lon="3.34996">
        <ele>142.2</ele>
        <time>2011-03-06T10:56:31Z</time>
      </trkpt>
      <trkpt lat="43.6739" lon="3.35003">
        <ele>141.9</ele>
        <time>2011-03-06T10:56:33Z</time>
      </trkpt>
      <trkpt lat="43.67386" lon="3.3501">
        <ele>141.8</ele>
        <time>2011-03-06T10:56:35Z</time>
      </trkpt>
      <trkpt lat="43.67382" lon="3.3502">
        <ele>141.7</ele>
        <time>2011-03-06T10:56:37Z</time>
      </trkpt>
      <trkpt lat="43.67378" lon="3.35023">
        <ele>141.7</ele>
        <time>2011-03-06T10:56:38Z</time>
      </trkpt>
      <trkpt lat="43.67372" lon="3.35025">
        <ele>141.9</ele>
        <time>2011-03-06T10:56:39Z</time>
      </trkpt>
      <trkpt lat="43.67367" lon="3.35026">
        <ele>142</ele>
        <time>2011-03-06T10:56:40Z</time>
      </trkpt>
      <trkpt lat="43.67362" lon="3.35028">
        <ele>142.2</ele>
        <time>2011-03-06T10:56:41Z</time>
      </trkpt>
      <trkpt lat="43.67359" lon="3.35032">
        <ele>142.2</ele>
        <time>2011-03-06T10:56:42Z</time>
      </trkpt>
      <trkpt lat="43.67355" lon="3.35036">
        <ele>142.2</ele>
        <time>2011-03-06T10:56:43Z</time>
      </trkpt>
      <trkpt lat="43.67351" lon="3.3504">
        <ele>142.3</ele>
        <time>2011-03-06T10:56:44Z</time>
      </trkpt>
      <trkpt lat="43.67346" lon="3.35044">
        <ele>142.4</ele>
        <time>2011-03-06T10:56:45Z</time>
      </trkpt>
      <trkpt lat="43.67339" lon="3.35051">
        <ele>142.5</ele>
        <time>2011-03-06T10:56:47Z</time>
      </trkpt>
      <trkpt lat="43.67337" lon="3.35058">
        <ele>142.5</ele>
        <time>2011-03-06T10:56:48Z</time>
      </trkpt>
      <trkpt lat="43.67335" lon="3.35063">
        <ele>142.4</ele>
        <time>2011-03-06T10:56:49Z</time>
      </trkpt>
      <trkpt lat="43.67329" lon="3.35072">
        <ele>142.4</ele>
        <time>2011-03-06T10:56:51Z</time>
      </trkpt>
      <trkpt lat="43.67323" lon="3.3508">
        <ele>142.5</ele>
        <time>2011-03-06T10:56:53Z</time>
      </trkpt>
      <trkpt lat="43.67317" lon="3.35089">
        <ele>142.5</ele>
        <time>2011-03-06T10:56:55Z</time>
      </trkpt>
      <trkpt lat="43.67314" lon="3.35093">
        <ele>142.6</ele>
        <time>2011-03-06T10:56:56Z</time>
      </trkpt>
      <trkpt lat="43.6731" lon="3.35097">
        <ele>142.6</ele>
        <time>2011-03-06T10:56:57Z</time>
      </trkpt>
      <trkpt lat="43.67306" lon="3.351">
        <ele>142.7</ele>
        <time>2011-03-06T10:56:58Z</time>
      </trkpt>
      <trkpt lat="43.67301" lon="3.35103">
        <ele>142.8</ele>
        <time>2011-03-06T10:56:59Z</time>
      </trkpt>
      <trkpt lat="43.67297" lon="3.35108">
        <ele>142.9</ele>
        <time>2011-03-06T10:57:00Z</time>
      </trkpt>
      <trkpt lat="43.67294" lon="3.35113">
        <ele>142.9</ele>
        <time>2011-03-06T10:57:01Z</time>
      </trkpt>
      <trkpt lat="43.67287" lon="3.3512">
        <ele>143</ele>
        <time>2011-03-06T10:57:03Z</time>
      </trkpt>
      <trkpt lat="43.6728" lon="3.35125">
        <ele>143.1</ele>
        <time>2011-03-06T10:57:05Z</time>
      </trkpt>
      <trkpt lat="43.67273" lon="3.35132">
        <ele>143.2</ele>
        <time>2011-03-06T10:57:07Z</time>
      </trkpt>
      <trkpt lat="43.67269" lon="3.35137">
        <ele>143.2</ele>
        <time>2011-03-06T10:57:08Z</time>
      </trkpt>
      <trkpt lat="43.67265" lon="3.3514">
        <ele>143.2</ele>
        <time>2011-03-06T10:57:09Z</time>
      </trkpt>
      <trkpt lat="43.67261" lon="3.35144">
        <ele>143.2</ele>
        <time>2011-03-06T10:57:10Z</time>
      </trkpt>
      <trkpt lat="43.67255" lon="3.35153">
        <ele>143.2</ele>
        <time>2011-03-06T10:57:12Z</time>
      </trkpt>
      <trkpt lat="43.67251" lon="3.35163">
        <ele>143.1</ele>
        <time>2011-03-06T10:57:14Z</time>
      </trkpt>
      <trkpt lat="43.67248" lon="3.35167">
        <ele>143</ele>
        <time>2011-03-06T10:57:15Z</time>
      </trkpt>
      <trkpt lat="43.67245" lon="3.35172">
        <ele>142.9</ele>
        <time>2011-03-06T10:57:16Z</time>
      </trkpt>
      <trkpt lat="43.67242" lon="3.35177">
        <ele>142.7</ele>
        <time>2011-03-06T10:57:17Z</time>
      </trkpt>
      <trkpt lat="43.67238" lon="3.35182">
        <ele>142.6</ele>
        <time>2011-03-06T10:57:18Z</time>
      </trkpt>
      <trkpt lat="43.67234" lon="3.35186">
        <ele>142.6</ele>
        <time>2011-03-06T10:57:19Z</time>
      </trkpt>
      <trkpt lat="43.67231" lon="3.35191">
        <ele>142.5</ele>
        <time>2011-03-06T10:57:20Z</time>
      </trkpt>
      <trkpt lat="43.67223" lon="3.35197">
        <ele>142.5</ele>
        <time>2011-03-06T10:57:22Z</time>
      </trkpt>
      <trkpt lat="43.67219" lon="3.35201">
        <ele>142.4</ele>
        <time>2011-03-06T10:57:23Z</time>
      </trkpt>
      <trkpt lat="43.67212" lon="3.35208">
        <ele>142.4</ele>
        <time>2011-03-06T10:57:25Z</time>
      </trkpt>
      <trkpt lat="43.67206" lon="3.35216">
        <ele>142.4</ele>
        <time>2011-03-06T10:57:27Z</time>
      </trkpt>
      <trkpt lat="43.672" lon="3.35221">
        <ele>142.4</ele>
        <time>2011-03-06T10:57:29Z</time>
      </trkpt>
      <trkpt lat="43.67195" lon="3.35225">
        <ele>142.5</ele>
        <time>2011-03-06T10:57:31Z</time>
      </trkpt>
      <trkpt lat="43.67188" lon="3.35231">
        <ele>142.6</ele>
        <time>2011-03-06T10:57:33Z</time>
      </trkpt>
      <trkpt lat="43.6718" lon="3.35237">
        <ele>142.7</ele>
        <time>2011-03-06T10:57:35Z</time>
      </trkpt>
      <trkpt lat="43.67174" lon="3.35242">
        <ele>142.8</ele>
        <time>2011-03-06T10:57:37Z</time>
      </trkpt>
      <trkpt lat="43.67166" lon="3.3524">
        <ele>143.2</ele>
        <time>2011-03-06T10:57:41Z</time>
      </trkpt>
      <trkpt lat="43.67158" lon="3.35243">
        <ele>143.5</ele>
        <time>2011-03-06T10:57:46Z</time>
      </trkpt>
      <trkpt lat="43.67153" lon="3.35249">
        <ele>143.7</ele>
        <time>2011-03-06T10:57:50Z</time>
      </trkpt>
      <trkpt lat="43.67151" lon="3.35251">
        <ele>143.7</ele>
        <time>2011-03-06T10:57:51Z</time>
      </trkpt>
      <trkpt lat="43.67142" lon="3.35265">
        <ele>143.6</ele>
        <time>2011-03-06T10:57:57Z</time>
      </trkpt>
      <trkpt lat="43.67136" lon="3.3527">
        <ele>143.7</ele>
        <time>2011-03-06T10:58:00Z</time>
      </trkpt>
      <trkpt lat="43.67131" lon="3.35276">
        <ele>143.8</ele>
        <time>2011-03-06T10:58:03Z</time>
      </trkpt>
      <trkpt lat="43.67125" lon="3.35286">
        <ele>143.7</ele>
        <time>2011-03-06T10:58:06Z</time>
      </trkpt>
      <trkpt lat="43.6712" lon="3.35296">
        <ele>143.7</ele>
        <time>2011-03-06T10:58:09Z</time>
      </trkpt>
      <trkpt lat="43.67114" lon="3.35303">
        <ele>143.8</ele>
        <time>2011-03-06T10:58:12Z</time>
      </trkpt>
      <trkpt lat="43.67117" lon="3.35313">
        <ele>143.2</ele>
        <time>2011-03-06T10:58:16Z</time>
      </trkpt>
      <trkpt lat="43.67115" lon="3.35325">
        <ele>143</ele>
        <time>2011-03-06T10:58:23Z</time>
      </trkpt>
      <trkpt lat="43.67108" lon="3.35325">
        <ele>143.5</ele>
        <time>2011-03-06T10:58:27Z</time>
      </trkpt>
      <trkpt lat="43.67109" lon="3.35336">
        <ele>143.2</ele>
        <time>2011-03-06T10:58:44Z</time>
      </trkpt>
      <trkpt lat="43.67106" lon="3.35344">
        <ele>143.4</ele>
        <time>2011-03-06T10:58:46Z</time>
      </trkpt>
      <trkpt lat="43.67103" lon="3.35351">
        <ele>143.5</ele>
        <time>2011-03-06T10:58:47Z</time>
      </trkpt>
      <trkpt lat="43.671" lon="3.35357">
        <ele>143.7</ele>
        <time>2011-03-06T10:58:48Z</time>
      </trkpt>
      <trkpt lat="43.67095" lon="3.3536">
        <ele>143.8</ele>
        <time>2011-03-06T10:58:49Z</time>
      </trkpt>
      <trkpt lat="43.67091" lon="3.35362">
        <ele>144</ele>
        <time>2011-03-06T10:58:50Z</time>
      </trkpt>
      <trkpt lat="43.67082" lon="3.35364">
        <ele>144.2</ele>
        <time>2011-03-06T10:58:52Z</time>
      </trkpt>
      <trkpt lat="43.6708" lon="3.35367">
        <ele>144.1</ele>
        <time>2011-03-06T10:58:53Z</time>
      </trkpt>
      <trkpt lat="43.67084" lon="3.35386">
        <ele>143.7</ele>
        <time>2011-03-06T10:58:59Z</time>
      </trkpt>
      <trkpt lat="43.6708" lon="3.35393">
        <ele>143.5</ele>
        <time>2011-03-06T10:59:01Z</time>
      </trkpt>
      <trkpt lat="43.67075" lon="3.354">
        <ele>143.1</ele>
        <time>2011-03-06T10:59:03Z</time>
      </trkpt>
      <trkpt lat="43.6707" lon="3.35408">
        <ele>142.7</ele>
        <time>2011-03-06T10:59:05Z</time>
      </trkpt>
      <trkpt lat="43.67066" lon="3.35418">
        <ele>142.4</ele>
        <time>2011-03-06T10:59:07Z</time>
      </trkpt>
      <trkpt lat="43.67061" lon="3.35427">
        <ele>142.4</ele>
        <time>2011-03-06T10:59:09Z</time>
      </trkpt>
      <trkpt lat="43.67057" lon="3.35435">
        <ele>142.5</ele>
        <time>2011-03-06T10:59:11Z</time>
      </trkpt>
      <trkpt lat="43.67054" lon="3.35445">
        <ele>142.6</ele>
        <time>2011-03-06T10:59:14Z</time>
      </trkpt>
      <trkpt lat="43.67055" lon="3.35456">
        <ele>142.9</ele>
        <time>2011-03-06T10:59:18Z</time>
      </trkpt>
      <trkpt lat="43.67061" lon="3.35463">
        <ele>143.3</ele>
        <time>2011-03-06T10:59:22Z</time>
      </trkpt>
      <trkpt lat="43.67068" lon="3.3547">
        <ele>143.7</ele>
        <time>2011-03-06T10:59:26Z</time>
      </trkpt>
      <trkpt lat="43.67075" lon="3.35476">
        <ele>144.1</ele>
        <time>2011-03-06T10:59:29Z</time>
      </trkpt>
      <trkpt lat="43.67081" lon="3.35483">
        <ele>144.5</ele>
        <time>2011-03-06T10:59:32Z</time>
      </trkpt>
      <trkpt lat="43.67088" lon="3.35488">
        <ele>145.1</ele>
        <time>2011-03-06T10:59:35Z</time>
      </trkpt>
      <trkpt lat="43.67095" lon="3.35494">
        <ele>145.8</ele>
        <time>2011-03-06T10:59:38Z</time>
      </trkpt>
      <trkpt lat="43.67101" lon="3.35503">
        <ele>146.5</ele>
        <time>2011-03-06T10:59:41Z</time>
      </trkpt>
      <trkpt lat="43.67101" lon="3.35512">
        <ele>146.7</ele>
        <time>2011-03-06T10:59:43Z</time>
      </trkpt>
      <trkpt lat="43.67098" lon="3.35522">
        <ele>146.8</ele>
        <time>2011-03-06T10:59:45Z</time>
      </trkpt>
      <trkpt lat="43.67095" lon="3.35532">
        <ele>146.7</ele>
        <time>2011-03-06T10:59:47Z</time>
      </trkpt>
      <trkpt lat="43.67092" lon="3.35542">
        <ele>146.7</ele>
        <time>2011-03-06T10:59:49Z</time>
      </trkpt>
      <trkpt lat="43.67089" lon="3.35553">
        <ele>146.7</ele>
        <time>2011-03-06T10:59:52Z</time>
      </trkpt>
      <trkpt lat="43.67082" lon="3.3556">
        <ele>146.4</ele>
        <time>2011-03-06T10:59:56Z</time>
      </trkpt>
      <trkpt lat="43.67081" lon="3.35559">
        <ele>146.3</ele>
        <time>2011-03-06T10:59:57Z</time>
      </trkpt>
      <trkpt lat="43.67092" lon="3.35541">
        <ele>146.7</ele>
        <time>2011-03-06T11:00:44Z</time>
      </trkpt>
      <trkpt lat="43.67096" lon="3.35549">
        <ele>147.3</ele>
        <time>2011-03-06T11:02:45Z</time>
      </trkpt>
      <trkpt lat="43.67097" lon="3.35553">
        <ele>147.4</ele>
        <time>2011-03-06T11:02:46Z</time>
      </trkpt>
      <trkpt lat="43.67103" lon="3.35571">
        <ele>148.3</ele>
        <time>2011-03-06T11:02:51Z</time>
      </trkpt>
      <trkpt lat="43.67107" lon="3.35581">
        <ele>148.9</ele>
        <time>2011-03-06T11:02:54Z</time>
      </trkpt>
      <trkpt lat="43.67113" lon="3.35589">
        <ele>149.9</ele>
        <time>2011-03-06T11:02:57Z</time>
      </trkpt>
      <trkpt lat="43.6712" lon="3.35597">
        <ele>150.9</ele>
        <time>2011-03-06T11:03:00Z</time>
      </trkpt>
      <trkpt lat="43.67125" lon="3.35605">
        <ele>151.8</ele>
        <time>2011-03-06T11:03:03Z</time>
      </trkpt>
      <trkpt lat="43.67131" lon="3.35613">
        <ele>152.7</ele>
        <time>2011-03-06T11:03:06Z</time>
      </trkpt>
      <trkpt lat="43.67137" lon="3.35621">
        <ele>153.6</ele>
        <time>2011-03-06T11:03:09Z</time>
      </trkpt>
      <trkpt lat="43.67143" lon="3.3563">
        <ele>154.5</ele>
        <time>2011-03-06T11:03:12Z</time>
      </trkpt>
      <trkpt lat="43.67148" lon="3.35638">
        <ele>155.3</ele>
        <time>2011-03-06T11:03:15Z</time>
      </trkpt>
      <trkpt lat="43.67152" lon="3.35647">
        <ele>156.1</ele>
        <time>2011-03-06T11:03:19Z</time>
      </trkpt>
      <trkpt lat="43.67154" lon="3.35659">
        <ele>156.8</ele>
        <time>2011-03-06T11:03:24Z</time>
      </trkpt>
      <trkpt lat="43.67152" lon="3.35669">
        <ele>157.3</ele>
        <time>2011-03-06T11:03:29Z</time>
      </trkpt>
      <trkpt lat="43.67147" lon="3.35679">
        <ele>157.7</ele>
        <time>2011-03-06T11:03:35Z</time>
      </trkpt>
      <trkpt lat="43.67144" lon="3.35689">
        <ele>158.1</ele>
        <time>2011-03-06T11:03:41Z</time>
      </trkpt>
      <trkpt lat="43.6714" lon="3.357">
        <ele>158.5</ele>
        <time>2011-03-06T11:03:47Z</time>
      </trkpt>
      <trkpt lat="43.67139" lon="3.35702">
        <ele>158.6</ele>
        <time>2011-03-06T11:03:48Z</time>
      </trkpt>
      <trkpt lat="43.67137" lon="3.35723">
        <ele>159.8</ele>
        <time>2011-03-06T11:03:56Z</time>
      </trkpt>
      <trkpt lat="43.67136" lon="3.35734">
        <ele>160.5</ele>
        <time>2011-03-06T11:03:59Z</time>
      </trkpt>
      <trkpt lat="43.67135" lon="3.35746">
        <ele>161.1</ele>
        <time>2011-03-06T11:04:01Z</time>
      </trkpt>
      <trkpt lat="43.67135" lon="3.35752">
        <ele>161.5</ele>
        <time>2011-03-06T11:04:02Z</time>
      </trkpt>
      <trkpt lat="43.67135" lon="3.3576">
        <ele>162.1</ele>
        <time>2011-03-06T11:04:03Z</time>
      </trkpt>
      <trkpt lat="43.67134" lon="3.35767">
        <ele>162.7</ele>
        <time>2011-03-06T11:04:04Z</time>
      </trkpt>
      <trkpt lat="43.67131" lon="3.35778">
        <ele>163.5</ele>
        <time>2011-03-06T11:04:06Z</time>
      </trkpt>
      <trkpt lat="43.67128" lon="3.35789">
        <ele>164.2</ele>
        <time>2011-03-06T11:04:09Z</time>
      </trkpt>
      <trkpt lat="43.67121" lon="3.35797">
        <ele>164.5</ele>
        <time>2011-03-06T11:04:14Z</time>
      </trkpt>
      <trkpt lat="43.67114" lon="3.35795">
        <ele>163.8</ele>
        <time>2011-03-06T11:04:18Z</time>
      </trkpt>
      <trkpt lat="43.67109" lon="3.35788">
        <ele>162.8</ele>
        <time>2011-03-06T11:04:20Z</time>
      </trkpt>
      <trkpt lat="43.67104" lon="3.35782">
        <ele>161.9</ele>
        <time>2011-03-06T11:04:22Z</time>
      </trkpt>
      <trkpt lat="43.67096" lon="3.3578">
        <ele>161.1</ele>
        <time>2011-03-06T11:04:24Z</time>
      </trkpt>
      <trkpt lat="43.6709" lon="3.35781">
        <ele>160.8</ele>
        <time>2011-03-06T11:04:25Z</time>
      </trkpt>
      <trkpt lat="43.67085" lon="3.35782">
        <ele>160.6</ele>
        <time>2011-03-06T11:04:26Z</time>
      </trkpt>
      <trkpt lat="43.67079" lon="3.35783">
        <ele>160.3</ele>
        <time>2011-03-06T11:04:27Z</time>
      </trkpt>
      <trkpt lat="43.67073" lon="3.35782">
        <ele>159.9</ele>
        <time>2011-03-06T11:04:28Z</time>
      </trkpt>
      <trkpt lat="43.67068" lon="3.35781">
        <ele>159.4</ele>
        <time>2011-03-06T11:04:29Z</time>
      </trkpt>
      <trkpt lat="43.67063" lon="3.3578">
        <ele>159</ele>
        <time>2011-03-06T11:04:30Z</time>
      </trkpt>
      <trkpt lat="43.67055" lon="3.3578">
        <ele>158.6</ele>
        <time>2011-03-06T11:04:32Z</time>
      </trkpt>
      <trkpt lat="43.67049" lon="3.35786">
        <ele>158.9</ele>
        <time>2011-03-06T11:04:36Z</time>
      </trkpt>
      <trkpt lat="43.67045" lon="3.35797">
        <ele>159.7</ele>
        <time>2011-03-06T11:04:40Z</time>
      </trkpt>
      <trkpt lat="43.67041" lon="3.35802">
        <ele>159.9</ele>
        <time>2011-03-06T11:04:42Z</time>
      </trkpt>
      <trkpt lat="43.67033" lon="3.35806">
        <ele>159.8</ele>
        <time>2011-03-06T11:04:44Z</time>
      </trkpt>
      <trkpt lat="43.67028" lon="3.35809">
        <ele>159.8</ele>
        <time>2011-03-06T11:04:45Z</time>
      </trkpt>
      <trkpt lat="43.67021" lon="3.35815">
        <ele>159.8</ele>
        <time>2011-03-06T11:04:47Z</time>
      </trkpt>
      <trkpt lat="43.67015" lon="3.3582">
        <ele>159.9</ele>
        <time>2011-03-06T11:04:49Z</time>
      </trkpt>
      <trkpt lat="43.67013" lon="3.35823">
        <ele>160</ele>
        <time>2011-03-06T11:04:50Z</time>
      </trkpt>
      <trkpt lat="43.67005" lon="3.3583">
        <ele>160.1</ele>
        <time>2011-03-06T11:04:52Z</time>
      </trkpt>
      <trkpt lat="43.66997" lon="3.35835">
        <ele>160.1</ele>
        <time>2011-03-06T11:04:54Z</time>
      </trkpt>
      <trkpt lat="43.6699" lon="3.35839">
        <ele>160.4</ele>
        <time>2011-03-06T11:04:56Z</time>
      </trkpt>
      <trkpt lat="43.66983" lon="3.35837">
        <ele>159.9</ele>
        <time>2011-03-06T11:04:58Z</time>
      </trkpt>
      <trkpt lat="43.66974" lon="3.35835">
        <ele>159.3</ele>
        <time>2011-03-06T11:05:00Z</time>
      </trkpt>
      <trkpt lat="43.6697" lon="3.35834">
        <ele>159</ele>
        <time>2011-03-06T11:05:01Z</time>
      </trkpt>
      <trkpt lat="43.66964" lon="3.35834">
        <ele>158.8</ele>
        <time>2011-03-06T11:05:02Z</time>
      </trkpt>
      <trkpt lat="43.66959" lon="3.35833">
        <ele>158.5</ele>
        <time>2011-03-06T11:05:03Z</time>
      </trkpt>
      <trkpt lat="43.66954" lon="3.35832">
        <ele>158.2</ele>
        <time>2011-03-06T11:05:04Z</time>
      </trkpt>
      <trkpt lat="43.66948" lon="3.35829">
        <ele>157.8</ele>
        <time>2011-03-06T11:05:05Z</time>
      </trkpt>
      <trkpt lat="43.66942" lon="3.35827">
        <ele>157.3</ele>
        <time>2011-03-06T11:05:06Z</time>
      </trkpt>
      <trkpt lat="43.66935" lon="3.35824">
        <ele>156.9</ele>
        <time>2011-03-06T11:05:07Z</time>
      </trkpt>
      <trkpt lat="43.66929" lon="3.35821">
        <ele>156.4</ele>
        <time>2011-03-06T11:05:08Z</time>
      </trkpt>
      <trkpt lat="43.66922" lon="3.3582">
        <ele>156.1</ele>
        <time>2011-03-06T11:05:09Z</time>
      </trkpt>
      <trkpt lat="43.66916" lon="3.35819">
        <ele>155.8</ele>
        <time>2011-03-06T11:05:10Z</time>
      </trkpt>
      <trkpt lat="43.66911" lon="3.35816">
        <ele>154.9</ele>
        <time>2011-03-06T11:05:11Z</time>
      </trkpt>
      <trkpt lat="43.66905" lon="3.35813">
        <ele>154</ele>
        <time>2011-03-06T11:05:12Z</time>
      </trkpt>
      <trkpt lat="43.66898" lon="3.35811">
        <ele>153.2</ele>
        <time>2011-03-06T11:05:13Z</time>
      </trkpt>
      <trkpt lat="43.66892" lon="3.35811">
        <ele>152.4</ele>
        <time>2011-03-06T11:05:14Z</time>
      </trkpt>
      <trkpt lat="43.66885" lon="3.35812">
        <ele>151.7</ele>
        <time>2011-03-06T11:05:15Z</time>
      </trkpt>
      <trkpt lat="43.66878" lon="3.3581">
        <ele>150.9</ele>
        <time>2011-03-06T11:05:16Z</time>
      </trkpt>
      <trkpt lat="43.66872" lon="3.35805">
        <ele>149.8</ele>
        <time>2011-03-06T11:05:17Z</time>
      </trkpt>
      <trkpt lat="43.66866" lon="3.358">
        <ele>148.7</ele>
        <time>2011-03-06T11:05:18Z</time>
      </trkpt>
      <trkpt lat="43.6686" lon="3.35796">
        <ele>147.7</ele>
        <time>2011-03-06T11:05:19Z</time>
      </trkpt>
      <trkpt lat="43.66853" lon="3.35792">
        <ele>146.7</ele>
        <time>2011-03-06T11:05:20Z</time>
      </trkpt>
      <trkpt lat="43.66847" lon="3.3579">
        <ele>145.8</ele>
        <time>2011-03-06T11:05:21Z</time>
      </trkpt>
      <trkpt lat="43.66841" lon="3.35789">
        <ele>145</ele>
        <time>2011-03-06T11:05:22Z</time>
      </trkpt>
      <trkpt lat="43.66834" lon="3.3579">
        <ele>144.4</ele>
        <time>2011-03-06T11:05:23Z</time>
      </trkpt>
      <trkpt lat="43.66827" lon="3.35792">
        <ele>144.1</ele>
        <time>2011-03-06T11:05:24Z</time>
      </trkpt>
      <trkpt lat="43.66821" lon="3.35796">
        <ele>144</ele>
        <time>2011-03-06T11:05:25Z</time>
      </trkpt>
      <trkpt lat="43.66814" lon="3.358">
        <ele>143.9</ele>
        <time>2011-03-06T11:05:26Z</time>
      </trkpt>
      <trkpt lat="43.66808" lon="3.35803">
        <ele>143.6</ele>
        <time>2011-03-06T11:05:27Z</time>
      </trkpt>
      <trkpt lat="43.66801" lon="3.35804">
        <ele>143.2</ele>
        <time>2011-03-06T11:05:28Z</time>
      </trkpt>
      <trkpt lat="43.66795" lon="3.35802">
        <ele>142.7</ele>
        <time>2011-03-06T11:05:29Z</time>
      </trkpt>
      <trkpt lat="43.6679" lon="3.35799">
        <ele>142.1</ele>
        <time>2011-03-06T11:05:30Z</time>
      </trkpt>
      <trkpt lat="43.66784" lon="3.35797">
        <ele>141.6</ele>
        <time>2011-03-06T11:05:31Z</time>
      </trkpt>
      <trkpt lat="43.66779" lon="3.35794">
        <ele>141.1</ele>
        <time>2011-03-06T11:05:32Z</time>
      </trkpt>
      <trkpt lat="43.66771" lon="3.35793">
        <ele>140.5</ele>
        <time>2011-03-06T11:05:35Z</time>
      </trkpt>
      <trkpt lat="43.66762" lon="3.35792">
        <ele>139.8</ele>
        <time>2011-03-06T11:06:05Z</time>
      </trkpt>
      <trkpt lat="43.6676" lon="3.35792">
        <ele>139.7</ele>
        <time>2011-03-06T11:06:06Z</time>
      </trkpt>
      <trkpt lat="43.66752" lon="3.35794">
        <ele>139.3</ele>
        <time>2011-03-06T11:06:08Z</time>
      </trkpt>
      <trkpt lat="43.66747" lon="3.35795">
        <ele>139.1</ele>
        <time>2011-03-06T11:06:09Z</time>
      </trkpt>
      <trkpt lat="43.66741" lon="3.35797">
        <ele>139.1</ele>
        <time>2011-03-06T11:06:10Z</time>
      </trkpt>
      <trkpt lat="43.66734" lon="3.35801">
        <ele>139.2</ele>
        <time>2011-03-06T11:06:11Z</time>
      </trkpt>
      <trkpt lat="43.66729" lon="3.35808">
        <ele>139.4</ele>
        <time>2011-03-06T11:06:12Z</time>
      </trkpt>
      <trkpt lat="43.66724" lon="3.35814">
        <ele>139.6</ele>
        <time>2011-03-06T11:06:13Z</time>
      </trkpt>
      <trkpt lat="43.6672" lon="3.3582">
        <ele>139.7</ele>
        <time>2011-03-06T11:06:14Z</time>
      </trkpt>
      <trkpt lat="43.66717" lon="3.35825">
        <ele>139.9</ele>
        <time>2011-03-06T11:06:15Z</time>
      </trkpt>
      <trkpt lat="43.66711" lon="3.35831">
        <ele>140</ele>
        <time>2011-03-06T11:06:17Z</time>
      </trkpt>
      <trkpt lat="43.66706" lon="3.35838">
        <ele>140.1</ele>
        <time>2011-03-06T11:06:19Z</time>
      </trkpt>
      <trkpt lat="43.667" lon="3.35845">
        <ele>140.2</ele>
        <time>2011-03-06T11:06:23Z</time>
      </trkpt>
      <trkpt lat="43.66693" lon="3.35852">
        <ele>140.1</ele>
        <time>2011-03-06T11:06:27Z</time>
      </trkpt>
      <trkpt lat="43.66687" lon="3.35859">
        <ele>140</ele>
        <time>2011-03-06T11:06:33Z</time>
      </trkpt>
      <trkpt lat="43.66681" lon="3.35865">
        <ele>139.8</ele>
        <time>2011-03-06T11:06:37Z</time>
      </trkpt>
      <trkpt lat="43.66677" lon="3.35871">
        <ele>139.6</ele>
        <time>2011-03-06T11:06:40Z</time>
      </trkpt>
      <trkpt lat="43.66673" lon="3.35877">
        <ele>139.4</ele>
        <time>2011-03-06T11:06:42Z</time>
      </trkpt>
      <trkpt lat="43.66668" lon="3.35884">
        <ele>139.1</ele>
        <time>2011-03-06T11:06:44Z</time>
      </trkpt>
      <trkpt lat="43.66663" lon="3.35891">
        <ele>138.9</ele>
        <time>2011-03-06T11:06:46Z</time>
      </trkpt>
      <trkpt lat="43.66658" lon="3.35898">
        <ele>138.8</ele>
        <time>2011-03-06T11:06:49Z</time>
      </trkpt>
      <trkpt lat="43.66651" lon="3.35903">
        <ele>138.6</ele>
        <time>2011-03-06T11:06:53Z</time>
      </trkpt>
      <trkpt lat="43.66646" lon="3.35908">
        <ele>138.5</ele>
        <time>2011-03-06T11:06:55Z</time>
      </trkpt>
      <trkpt lat="43.66642" lon="3.35918">
        <ele>138.4</ele>
        <time>2011-03-06T11:06:57Z</time>
      </trkpt>
      <trkpt lat="43.66637" lon="3.35926">
        <ele>138.7</ele>
        <time>2011-03-06T11:06:59Z</time>
      </trkpt>
      <trkpt lat="43.66632" lon="3.35934">
        <ele>138.9</ele>
        <time>2011-03-06T11:07:01Z</time>
      </trkpt>
      <trkpt lat="43.66629" lon="3.35943">
        <ele>139.1</ele>
        <time>2011-03-06T11:07:03Z</time>
      </trkpt>
      <trkpt lat="43.66627" lon="3.35952">
        <ele>139.4</ele>
        <time>2011-03-06T11:07:05Z</time>
      </trkpt>
      <trkpt lat="43.66625" lon="3.35961">
        <ele>139.6</ele>
        <time>2011-03-06T11:07:07Z</time>
      </trkpt>
      <trkpt lat="43.66622" lon="3.35965">
        <ele>139.6</ele>
        <time>2011-03-06T11:07:08Z</time>
      </trkpt>
      <trkpt lat="43.66619" lon="3.3597">
        <ele>139.6</ele>
        <time>2011-03-06T11:07:09Z</time>
      </trkpt>
      <trkpt lat="43.66616" lon="3.35975">
        <ele>139.6</ele>
        <time>2011-03-06T11:07:10Z</time>
      </trkpt>
      <trkpt lat="43.66613" lon="3.3598">
        <ele>139.6</ele>
        <time>2011-03-06T11:07:11Z</time>
      </trkpt>
      <trkpt lat="43.66611" lon="3.35985">
        <ele>139.5</ele>
        <time>2011-03-06T11:07:12Z</time>
      </trkpt>
      <trkpt lat="43.66608" lon="3.3599">
        <ele>139.5</ele>
        <time>2011-03-06T11:07:13Z</time>
      </trkpt>
      <trkpt lat="43.66604" lon="3.35995">
        <ele>139.4</ele>
        <time>2011-03-06T11:07:14Z</time>
      </trkpt>
      <trkpt lat="43.666" lon="3.35999">
        <ele>139.2</ele>
        <time>2011-03-06T11:07:15Z</time>
      </trkpt>
      <trkpt lat="43.66593" lon="3.36005">
        <ele>138.7</ele>
        <time>2011-03-06T11:07:17Z</time>
      </trkpt>
      <trkpt lat="43.66588" lon="3.36011">
        <ele>138.3</ele>
        <time>2011-03-06T11:07:19Z</time>
      </trkpt>
      <trkpt lat="43.66583" lon="3.36019">
        <ele>138</ele>
        <time>2011-03-06T11:07:21Z</time>
      </trkpt>
      <trkpt lat="43.66582" lon="3.3603">
        <ele>138</ele>
        <time>2011-03-06T11:07:23Z</time>
      </trkpt>
      <trkpt lat="43.66584" lon="3.36041">
        <ele>138</ele>
        <time>2011-03-06T11:07:25Z</time>
      </trkpt>
      <trkpt lat="43.66586" lon="3.36051">
        <ele>138.2</ele>
        <time>2011-03-06T11:07:27Z</time>
      </trkpt>
      <trkpt lat="43.66591" lon="3.36059">
        <ele>138.6</ele>
        <time>2011-03-06T11:07:29Z</time>
      </trkpt>
      <trkpt lat="43.66596" lon="3.36064">
        <ele>139</ele>
        <time>2011-03-06T11:07:31Z</time>
      </trkpt>
      <trkpt lat="43.66601" lon="3.36069">
        <ele>139.4</ele>
        <time>2011-03-06T11:07:33Z</time>
      </trkpt>
      <trkpt lat="43.66606" lon="3.36074">
        <ele>139.8</ele>
        <time>2011-03-06T11:07:35Z</time>
      </trkpt>
      <trkpt lat="43.6661" lon="3.36082">
        <ele>140.2</ele>
        <time>2011-03-06T11:07:37Z</time>
      </trkpt>
      <trkpt lat="43.66612" lon="3.36088">
        <ele>140.4</ele>
        <time>2011-03-06T11:07:38Z</time>
      </trkpt>
      <trkpt lat="43.66617" lon="3.36098">
        <ele>141</ele>
        <time>2011-03-06T11:07:40Z</time>
      </trkpt>
      <trkpt lat="43.66619" lon="3.36103">
        <ele>141.2</ele>
        <time>2011-03-06T11:07:41Z</time>
      </trkpt>
      <trkpt lat="43.6662" lon="3.3611">
        <ele>141.4</ele>
        <time>2011-03-06T11:07:42Z</time>
      </trkpt>
      <trkpt lat="43.66622" lon="3.36116">
        <ele>141.6</ele>
        <time>2011-03-06T11:07:43Z</time>
      </trkpt>
      <trkpt lat="43.66624" lon="3.36122">
        <ele>141.9</ele>
        <time>2011-03-06T11:07:44Z</time>
      </trkpt>
      <trkpt lat="43.66626" lon="3.36128">
        <ele>142.1</ele>
        <time>2011-03-06T11:07:45Z</time>
      </trkpt>
      <trkpt lat="43.66626" lon="3.36135">
        <ele>142.2</ele>
        <time>2011-03-06T11:07:46Z</time>
      </trkpt>
      <trkpt lat="43.66623" lon="3.36145">
        <ele>142</ele>
        <time>2011-03-06T11:07:48Z</time>
      </trkpt>
      <trkpt lat="43.66618" lon="3.36153">
        <ele>141.6</ele>
        <time>2011-03-06T11:07:52Z</time>
      </trkpt>
      <trkpt lat="43.66616" lon="3.36163">
        <ele>141.5</ele>
        <time>2011-03-06T11:07:55Z</time>
      </trkpt>
      <trkpt lat="43.66616" lon="3.36173">
        <ele>141.6</ele>
        <time>2011-03-06T11:07:57Z</time>
      </trkpt>
      <trkpt lat="43.66617" lon="3.3618">
        <ele>141.8</ele>
        <time>2011-03-06T11:07:58Z</time>
      </trkpt>
      <trkpt lat="43.66618" lon="3.36191">
        <ele>142.1</ele>
        <time>2011-03-06T11:08:00Z</time>
      </trkpt>
      <trkpt lat="43.66622" lon="3.36202">
        <ele>142.6</ele>
        <time>2011-03-06T11:08:02Z</time>
      </trkpt>
      <trkpt lat="43.66627" lon="3.36209">
        <ele>143.2</ele>
        <time>2011-03-06T11:08:04Z</time>
      </trkpt>
      <trkpt lat="43.66631" lon="3.36217">
        <ele>143.6</ele>
        <time>2011-03-06T11:08:06Z</time>
      </trkpt>
      <trkpt lat="43.66632" lon="3.36227">
        <ele>143.9</ele>
        <time>2011-03-06T11:08:08Z</time>
      </trkpt>
      <trkpt lat="43.66632" lon="3.36232">
        <ele>143.9</ele>
        <time>2011-03-06T11:08:09Z</time>
      </trkpt>
      <trkpt lat="43.66633" lon="3.36247">
        <ele>144.1</ele>
        <time>2011-03-06T11:08:12Z</time>
      </trkpt>
      <trkpt lat="43.66632" lon="3.36259">
        <ele>144.6</ele>
        <time>2011-03-06T11:08:15Z</time>
      </trkpt>
      <trkpt lat="43.66626" lon="3.36268">
        <ele>144.6</ele>
        <time>2011-03-06T11:08:18Z</time>
      </trkpt>
      <trkpt lat="43.66619" lon="3.36269">
        <ele>144.2</ele>
        <time>2011-03-06T11:08:21Z</time>
      </trkpt>
      <trkpt lat="43.66611" lon="3.36272">
        <ele>143.6</ele>
        <time>2011-03-06T11:08:24Z</time>
      </trkpt>
      <trkpt lat="43.66602" lon="3.36272">
        <ele>142.9</ele>
        <time>2011-03-06T11:08:28Z</time>
      </trkpt>
      <trkpt lat="43.66594" lon="3.36273">
        <ele>142.3</ele>
        <time>2011-03-06T11:08:31Z</time>
      </trkpt>
      <trkpt lat="43.66587" lon="3.36279">
        <ele>142</ele>
        <time>2011-03-06T11:08:34Z</time>
      </trkpt>
      <trkpt lat="43.6658" lon="3.36287">
        <ele>142</ele>
        <time>2011-03-06T11:08:37Z</time>
      </trkpt>
      <trkpt lat="43.66572" lon="3.36288">
        <ele>141.7</ele>
        <time>2011-03-06T11:08:39Z</time>
      </trkpt>
      <trkpt lat="43.66566" lon="3.36287">
        <ele>141.3</ele>
        <time>2011-03-06T11:08:41Z</time>
      </trkpt>
      <trkpt lat="43.66558" lon="3.36292">
        <ele>141.2</ele>
        <time>2011-03-06T11:08:44Z</time>
      </trkpt>
      <trkpt lat="43.66552" lon="3.36301">
        <ele>141.2</ele>
        <time>2011-03-06T11:08:47Z</time>
      </trkpt>
      <trkpt lat="43.66548" lon="3.36308">
        <ele>141.4</ele>
        <time>2011-03-06T11:08:49Z</time>
      </trkpt>
      <trkpt lat="43.66545" lon="3.36317">
        <ele>141.6</ele>
        <time>2011-03-06T11:08:51Z</time>
      </trkpt>
      <trkpt lat="43.66543" lon="3.36326">
        <ele>141.8</ele>
        <time>2011-03-06T11:08:53Z</time>
      </trkpt>
      <trkpt lat="43.66542" lon="3.36338">
        <ele>142</ele>
        <time>2011-03-06T11:08:56Z</time>
      </trkpt>
      <trkpt lat="43.66543" lon="3.36348">
        <ele>142</ele>
        <time>2011-03-06T11:08:59Z</time>
      </trkpt>
      <trkpt lat="43.66542" lon="3.36356">
        <ele>141.9</ele>
        <time>2011-03-06T11:09:01Z</time>
      </trkpt>
      <trkpt lat="43.66543" lon="3.36366">
        <ele>141.9</ele>
        <time>2011-03-06T11:09:03Z</time>
      </trkpt>
      <trkpt lat="43.66545" lon="3.36376">
        <ele>142</ele>
        <time>2011-03-06T11:09:05Z</time>
      </trkpt>
      <trkpt lat="43.66547" lon="3.36388">
        <ele>142</ele>
        <time>2011-03-06T11:09:07Z</time>
      </trkpt>
      <trkpt lat="43.66549" lon="3.36394">
        <ele>142.1</ele>
        <time>2011-03-06T11:09:08Z</time>
      </trkpt>
      <trkpt lat="43.6655" lon="3.36401">
        <ele>142.1</ele>
        <time>2011-03-06T11:09:09Z</time>
      </trkpt>
      <trkpt lat="43.6655" lon="3.36408">
        <ele>142.1</ele>
        <time>2011-03-06T11:09:10Z</time>
      </trkpt>
      <trkpt lat="43.66551" lon="3.36414">
        <ele>142</ele>
        <time>2011-03-06T11:09:11Z</time>
      </trkpt>
      <trkpt lat="43.66551" lon="3.36421">
        <ele>142.4</ele>
        <time>2011-03-06T11:09:12Z</time>
      </trkpt>
      <trkpt lat="43.66549" lon="3.36428">
        <ele>142.9</ele>
        <time>2011-03-06T11:09:13Z</time>
      </trkpt>
      <trkpt lat="43.66547" lon="3.36435">
        <ele>143.3</ele>
        <time>2011-03-06T11:09:14Z</time>
      </trkpt>
      <trkpt lat="43.66545" lon="3.36442">
        <ele>143.7</ele>
        <time>2011-03-06T11:09:15Z</time>
      </trkpt>
      <trkpt lat="43.66542" lon="3.36449">
        <ele>144</ele>
        <time>2011-03-06T11:09:16Z</time>
      </trkpt>
      <trkpt lat="43.66538" lon="3.36455">
        <ele>144.2</ele>
        <time>2011-03-06T11:09:17Z</time>
      </trkpt>
      <trkpt lat="43.66534" lon="3.36461">
        <ele>144.2</ele>
        <time>2011-03-06T11:09:18Z</time>
      </trkpt>
      <trkpt lat="43.66531" lon="3.36466">
        <ele>144.4</ele>
        <time>2011-03-06T11:09:19Z</time>
      </trkpt>
      <trkpt lat="43.66529" lon="3.36473">
        <ele>144.6</ele>
        <time>2011-03-06T11:09:20Z</time>
      </trkpt>
      <trkpt lat="43.66527" lon="3.36479">
        <ele>144.8</ele>
        <time>2011-03-06T11:09:21Z</time>
      </trkpt>
      <trkpt lat="43.66525" lon="3.36485">
        <ele>145</ele>
        <time>2011-03-06T11:09:22Z</time>
      </trkpt>
      <trkpt lat="43.66522" lon="3.36489">
        <ele>144.9</ele>
        <time>2011-03-06T11:09:23Z</time>
      </trkpt>
      <trkpt lat="43.66516" lon="3.36498">
        <ele>144.8</ele>
        <time>2011-03-06T11:09:25Z</time>
      </trkpt>
      <trkpt lat="43.66513" lon="3.36503">
        <ele>144.6</ele>
        <time>2011-03-06T11:09:26Z</time>
      </trkpt>
      <trkpt lat="43.66509" lon="3.36507">
        <ele>144.3</ele>
        <time>2011-03-06T11:09:27Z</time>
      </trkpt>
      <trkpt lat="43.66506" lon="3.36511">
        <ele>143.9</ele>
        <time>2011-03-06T11:09:28Z</time>
      </trkpt>
      <trkpt lat="43.66503" lon="3.36516">
        <ele>143.6</ele>
        <time>2011-03-06T11:09:29Z</time>
      </trkpt>
      <trkpt lat="43.665" lon="3.36521">
        <ele>143.2</ele>
        <time>2011-03-06T11:09:30Z</time>
      </trkpt>
      <trkpt lat="43.66496" lon="3.36527">
        <ele>143</ele>
        <time>2011-03-06T11:09:31Z</time>
      </trkpt>
      <trkpt lat="43.66493" lon="3.36533">
        <ele>142.8</ele>
        <time>2011-03-06T11:09:32Z</time>
      </trkpt>
      <trkpt lat="43.66492" lon="3.36539">
        <ele>142.8</ele>
        <time>2011-03-06T11:09:33Z</time>
      </trkpt>
      <trkpt lat="43.6649" lon="3.36546">
        <ele>142.7</ele>
        <time>2011-03-06T11:09:34Z</time>
      </trkpt>
      <trkpt lat="43.6649" lon="3.36552">
        <ele>142.7</ele>
        <time>2011-03-06T11:09:35Z</time>
      </trkpt>
      <trkpt lat="43.66489" lon="3.36558">
        <ele>142.8</ele>
        <time>2011-03-06T11:09:36Z</time>
      </trkpt>
      <trkpt lat="43.66488" lon="3.36565">
        <ele>142.8</ele>
        <time>2011-03-06T11:09:37Z</time>
      </trkpt>
      <trkpt lat="43.66488" lon="3.36572">
        <ele>142.8</ele>
        <time>2011-03-06T11:09:38Z</time>
      </trkpt>
      <trkpt lat="43.66487" lon="3.3658">
        <ele>142.9</ele>
        <time>2011-03-06T11:09:39Z</time>
      </trkpt>
      <trkpt lat="43.66487" lon="3.36588">
        <ele>143.2</ele>
        <time>2011-03-06T11:09:40Z</time>
      </trkpt>
      <trkpt lat="43.66483" lon="3.36595">
        <ele>143.6</ele>
        <time>2011-03-06T11:09:41Z</time>
      </trkpt>
      <trkpt lat="43.66479" lon="3.366">
        <ele>143.6</ele>
        <time>2011-03-06T11:09:42Z</time>
      </trkpt>
      <trkpt lat="43.66473" lon="3.36604">
        <ele>143.3</ele>
        <time>2011-03-06T11:09:44Z</time>
      </trkpt>
      <trkpt lat="43.66468" lon="3.3661">
        <ele>143.2</ele>
        <time>2011-03-06T11:09:46Z</time>
      </trkpt>
      <trkpt lat="43.66465" lon="3.36619">
        <ele>143.6</ele>
        <time>2011-03-06T11:09:48Z</time>
      </trkpt>
      <trkpt lat="43.66463" lon="3.36628">
        <ele>143.9</ele>
        <time>2011-03-06T11:09:50Z</time>
      </trkpt>
      <trkpt lat="43.6646" lon="3.36637">
        <ele>144.2</ele>
        <time>2011-03-06T11:09:52Z</time>
      </trkpt>
      <trkpt lat="43.66456" lon="3.36646">
        <ele>144.4</ele>
        <time>2011-03-06T11:09:54Z</time>
      </trkpt>
      <trkpt lat="43.66454" lon="3.36654">
        <ele>144.6</ele>
        <time>2011-03-06T11:09:56Z</time>
      </trkpt>
      <trkpt lat="43.66453" lon="3.36666">
        <ele>145.1</ele>
        <time>2011-03-06T11:09:59Z</time>
      </trkpt>
      <trkpt lat="43.66452" lon="3.36674">
        <ele>145.5</ele>
        <time>2011-03-06T11:10:01Z</time>
      </trkpt>
      <trkpt lat="43.6645" lon="3.36683">
        <ele>145.9</ele>
        <time>2011-03-06T11:10:03Z</time>
      </trkpt>
      <trkpt lat="43.66447" lon="3.36692">
        <ele>145.9</ele>
        <time>2011-03-06T11:10:05Z</time>
      </trkpt>
      <trkpt lat="43.66442" lon="3.36699">
        <ele>145.5</ele>
        <time>2011-03-06T11:10:07Z</time>
      </trkpt>
      <trkpt lat="43.66439" lon="3.36707">
        <ele>145.4</ele>
        <time>2011-03-06T11:10:09Z</time>
      </trkpt>
      <trkpt lat="43.66435" lon="3.36716">
        <ele>145.3</ele>
        <time>2011-03-06T11:10:11Z</time>
      </trkpt>
      <trkpt lat="43.66435" lon="3.36722">
        <ele>145.4</ele>
        <time>2011-03-06T11:10:12Z</time>
      </trkpt>
      <trkpt lat="43.66432" lon="3.36738">
        <ele>145.6</ele>
        <time>2011-03-06T11:10:15Z</time>
      </trkpt>
      <trkpt lat="43.66428" lon="3.36749">
        <ele>145.5</ele>
        <time>2011-03-06T11:10:17Z</time>
      </trkpt>
      <trkpt lat="43.66426" lon="3.3676">
        <ele>145.3</ele>
        <time>2011-03-06T11:10:19Z</time>
      </trkpt>
      <trkpt lat="43.66424" lon="3.3677">
        <ele>145.2</ele>
        <time>2011-03-06T11:10:21Z</time>
      </trkpt>
      <trkpt lat="43.66423" lon="3.36782">
        <ele>145.2</ele>
        <time>2011-03-06T11:10:23Z</time>
      </trkpt>
      <trkpt lat="43.66422" lon="3.36789">
        <ele>145.3</ele>
        <time>2011-03-06T11:10:24Z</time>
      </trkpt>
      <trkpt lat="43.66422" lon="3.36797">
        <ele>145.5</ele>
        <time>2011-03-06T11:10:25Z</time>
      </trkpt>
      <trkpt lat="43.66423" lon="3.36805">
        <ele>145.8</ele>
        <time>2011-03-06T11:10:26Z</time>
      </trkpt>
      <trkpt lat="43.66422" lon="3.36813">
        <ele>146</ele>
        <time>2011-03-06T11:10:27Z</time>
      </trkpt>
      <trkpt lat="43.66422" lon="3.36821">
        <ele>146</ele>
        <time>2011-03-06T11:10:28Z</time>
      </trkpt>
      <trkpt lat="43.66421" lon="3.36829">
        <ele>146.2</ele>
        <time>2011-03-06T11:10:29Z</time>
      </trkpt>
      <trkpt lat="43.6642" lon="3.36837">
        <ele>146.2</ele>
        <time>2011-03-06T11:10:30Z</time>
      </trkpt>
      <trkpt lat="43.66418" lon="3.36843">
        <ele>146.1</ele>
        <time>2011-03-06T11:10:31Z</time>
      </trkpt>
      <trkpt lat="43.66414" lon="3.36849">
        <ele>146.1</ele>
        <time>2011-03-06T11:10:32Z</time>
      </trkpt>
      <trkpt lat="43.66411" lon="3.36855">
        <ele>146.3</ele>
        <time>2011-03-06T11:10:33Z</time>
      </trkpt>
      <trkpt lat="43.66407" lon="3.36859">
        <ele>146.3</ele>
        <time>2011-03-06T11:10:34Z</time>
      </trkpt>
      <trkpt lat="43.66403" lon="3.36864">
        <ele>146.3</ele>
        <time>2011-03-06T11:10:35Z</time>
      </trkpt>
      <trkpt lat="43.664" lon="3.3687">
        <ele>146.5</ele>
        <time>2011-03-06T11:10:36Z</time>
      </trkpt>
      <trkpt lat="43.66398" lon="3.36876">
        <ele>146.6</ele>
        <time>2011-03-06T11:10:37Z</time>
      </trkpt>
      <trkpt lat="43.66394" lon="3.36886">
        <ele>146.9</ele>
        <time>2011-03-06T11:10:39Z</time>
      </trkpt>
      <trkpt lat="43.66391" lon="3.36891">
        <ele>147</ele>
        <time>2011-03-06T11:10:40Z</time>
      </trkpt>
      <trkpt lat="43.66389" lon="3.36897">
        <ele>147.1</ele>
        <time>2011-03-06T11:10:41Z</time>
      </trkpt>
      <trkpt lat="43.66386" lon="3.36903">
        <ele>147.1</ele>
        <time>2011-03-06T11:10:42Z</time>
      </trkpt>
      <trkpt lat="43.66383" lon="3.36908">
        <ele>147</ele>
        <time>2011-03-06T11:10:43Z</time>
      </trkpt>
      <trkpt lat="43.66377" lon="3.36916">
        <ele>146.8</ele>
        <time>2011-03-06T11:10:45Z</time>
      </trkpt>
      <trkpt lat="43.66372" lon="3.36926">
        <ele>146.3</ele>
        <time>2011-03-06T11:10:48Z</time>
      </trkpt>
      <trkpt lat="43.66369" lon="3.36934">
        <ele>145.9</ele>
        <time>2011-03-06T11:10:50Z</time>
      </trkpt>
      <trkpt lat="43.66366" lon="3.36944">
        <ele>145.6</ele>
        <time>2011-03-06T11:10:52Z</time>
      </trkpt>
      <trkpt lat="43.66363" lon="3.36953">
        <ele>145.3</ele>
        <time>2011-03-06T11:10:54Z</time>
      </trkpt>
      <trkpt lat="43.66361" lon="3.36963">
        <ele>145.1</ele>
        <time>2011-03-06T11:10:56Z</time>
      </trkpt>
      <trkpt lat="43.66359" lon="3.36975">
        <ele>145.1</ele>
        <time>2011-03-06T11:11:04Z</time>
      </trkpt>
      <trkpt lat="43.66356" lon="3.36984">
        <ele>144.8</ele>
        <time>2011-03-06T11:11:08Z</time>
      </trkpt>
      <trkpt lat="43.66352" lon="3.36994">
        <ele>144.4</ele>
        <time>2011-03-06T11:11:11Z</time>
      </trkpt>
      <trkpt lat="43.66348" lon="3.37003">
        <ele>143.9</ele>
        <time>2011-03-06T11:11:39Z</time>
      </trkpt>
      <trkpt lat="43.66346" lon="3.37005">
        <ele>143.7</ele>
        <time>2011-03-06T11:11:40Z</time>
      </trkpt>
      <trkpt lat="43.66335" lon="3.37017">
        <ele>142.6</ele>
        <time>2011-03-06T11:11:44Z</time>
      </trkpt>
      <trkpt lat="43.6633" lon="3.37024">
        <ele>142.5</ele>
        <time>2011-03-06T11:11:46Z</time>
      </trkpt>
      <trkpt lat="43.66325" lon="3.37033">
        <ele>142.6</ele>
        <time>2011-03-06T11:11:48Z</time>
      </trkpt>
      <trkpt lat="43.66319" lon="3.37042">
        <ele>142.7</ele>
        <time>2011-03-06T11:11:51Z</time>
      </trkpt>
      <trkpt lat="43.66311" lon="3.37047">
        <ele>142.6</ele>
        <time>2011-03-06T11:11:54Z</time>
      </trkpt>
      <trkpt lat="43.66305" lon="3.37054">
        <ele>142.6</ele>
        <time>2011-03-06T11:11:56Z</time>
      </trkpt>
      <trkpt lat="43.66299" lon="3.37062">
        <ele>142.7</ele>
        <time>2011-03-06T11:11:58Z</time>
      </trkpt>
      <trkpt lat="43.66294" lon="3.3707">
        <ele>142.7</ele>
        <time>2011-03-06T11:12:00Z</time>
      </trkpt>
      <trkpt lat="43.66288" lon="3.3708">
        <ele>142.8</ele>
        <time>2011-03-06T11:12:03Z</time>
      </trkpt>
      <trkpt lat="43.66284" lon="3.37089">
        <ele>142.8</ele>
        <time>2011-03-06T11:12:06Z</time>
      </trkpt>
      <trkpt lat="43.66281" lon="3.371">
        <ele>142.6</ele>
        <time>2011-03-06T11:12:09Z</time>
      </trkpt>
      <trkpt lat="43.6628" lon="3.37108">
        <ele>142.6</ele>
        <time>2011-03-06T11:12:11Z</time>
      </trkpt>
      <trkpt lat="43.66281" lon="3.37118">
        <ele>142.5</ele>
        <time>2011-03-06T11:12:13Z</time>
      </trkpt>
      <trkpt lat="43.66282" lon="3.37127">
        <ele>142.5</ele>
        <time>2011-03-06T11:12:15Z</time>
      </trkpt>
      <trkpt lat="43.66282" lon="3.37136">
        <ele>142.5</ele>
        <time>2011-03-06T11:12:17Z</time>
      </trkpt>
      <trkpt lat="43.66284" lon="3.37144">
        <ele>142.5</ele>
        <time>2011-03-06T11:12:19Z</time>
      </trkpt>
      <trkpt lat="43.66286" lon="3.37152">
        <ele>142.6</ele>
        <time>2011-03-06T11:12:21Z</time>
      </trkpt>
      <trkpt lat="43.66288" lon="3.37163">
        <ele>142.7</ele>
        <time>2011-03-06T11:12:24Z</time>
      </trkpt>
      <trkpt lat="43.66287" lon="3.37175">
        <ele>142.6</ele>
        <time>2011-03-06T11:12:29Z</time>
      </trkpt>
      <trkpt lat="43.66286" lon="3.37186">
        <ele>142.4</ele>
        <time>2011-03-06T11:12:33Z</time>
      </trkpt>
      <trkpt lat="43.66284" lon="3.37198">
        <ele>142.1</ele>
        <time>2011-03-06T11:12:37Z</time>
      </trkpt>
      <trkpt lat="43.66282" lon="3.37209">
        <ele>141.8</ele>
        <time>2011-03-06T11:12:44Z</time>
      </trkpt>
      <trkpt lat="43.66281" lon="3.37211">
        <ele>141.7</ele>
        <time>2011-03-06T11:12:45Z</time>
      </trkpt>
      <trkpt lat="43.66279" lon="3.3723">
        <ele>141.3</ele>
        <time>2011-03-06T11:12:50Z</time>
      </trkpt>
      <trkpt lat="43.66277" lon="3.37237">
        <ele>141.1</ele>
        <time>2011-03-06T11:12:51Z</time>
      </trkpt>
      <trkpt lat="43.66276" lon="3.37243">
        <ele>141</ele>
        <time>2011-03-06T11:12:52Z</time>
      </trkpt>
      <trkpt lat="43.66275" lon="3.3725">
        <ele>140.8</ele>
        <time>2011-03-06T11:12:53Z</time>
      </trkpt>
      <trkpt lat="43.66272" lon="3.37261">
        <ele>140.9</ele>
        <time>2011-03-06T11:12:55Z</time>
      </trkpt>
      <trkpt lat="43.66268" lon="3.37267">
        <ele>140.9</ele>
        <time>2011-03-06T11:12:57Z</time>
      </trkpt>
      <trkpt lat="43.66264" lon="3.37277">
        <ele>140.9</ele>
        <time>2011-03-06T11:12:59Z</time>
      </trkpt>
      <trkpt lat="43.66263" lon="3.37282">
        <ele>141</ele>
        <time>2011-03-06T11:13:00Z</time>
      </trkpt>
      <trkpt lat="43.66262" lon="3.37289">
        <ele>141.2</ele>
        <time>2011-03-06T11:13:01Z</time>
      </trkpt>
      <trkpt lat="43.66261" lon="3.37295">
        <ele>141.4</ele>
        <time>2011-03-06T11:13:02Z</time>
      </trkpt>
      <trkpt lat="43.66261" lon="3.37302">
        <ele>141.6</ele>
        <time>2011-03-06T11:13:03Z</time>
      </trkpt>
      <trkpt lat="43.66262" lon="3.37314">
        <ele>142</ele>
        <time>2011-03-06T11:13:05Z</time>
      </trkpt>
      <trkpt lat="43.66266" lon="3.37325">
        <ele>142.7</ele>
        <time>2011-03-06T11:13:07Z</time>
      </trkpt>
      <trkpt lat="43.66266" lon="3.37332">
        <ele>142.9</ele>
        <time>2011-03-06T11:13:08Z</time>
      </trkpt>
      <trkpt lat="43.66264" lon="3.37338">
        <ele>142.8</ele>
        <time>2011-03-06T11:13:09Z</time>
      </trkpt>
      <trkpt lat="43.66262" lon="3.37349">
        <ele>142.5</ele>
        <time>2011-03-06T11:13:11Z</time>
      </trkpt>
      <trkpt lat="43.66258" lon="3.3736">
        <ele>142</ele>
        <time>2011-03-06T11:13:14Z</time>
      </trkpt>
      <trkpt lat="43.66255" lon="3.37368">
        <ele>141.6</ele>
        <time>2011-03-06T11:13:16Z</time>
      </trkpt>
      <trkpt lat="43.66252" lon="3.37378">
        <ele>141.2</ele>
        <time>2011-03-06T11:13:18Z</time>
      </trkpt>
      <trkpt lat="43.66251" lon="3.3739">
        <ele>140.8</ele>
        <time>2011-03-06T11:13:20Z</time>
      </trkpt>
      <trkpt lat="43.66252" lon="3.37396">
        <ele>140.7</ele>
        <time>2011-03-06T11:13:21Z</time>
      </trkpt>
      <trkpt lat="43.66253" lon="3.37403">
        <ele>140.7</ele>
        <time>2011-03-06T11:13:22Z</time>
      </trkpt>
      <trkpt lat="43.66254" lon="3.37409">
        <ele>140.7</ele>
        <time>2011-03-06T11:13:23Z</time>
      </trkpt>
      <trkpt lat="43.66255" lon="3.37416">
        <ele>140.7</ele>
        <time>2011-03-06T11:13:24Z</time>
      </trkpt>
      <trkpt lat="43.66256" lon="3.37422">
        <ele>140.6</ele>
        <time>2011-03-06T11:13:25Z</time>
      </trkpt>
      <trkpt lat="43.66258" lon="3.37434">
        <ele>140.5</ele>
        <time>2011-03-06T11:13:27Z</time>
      </trkpt>
      <trkpt lat="43.66262" lon="3.37444">
        <ele>140.7</ele>
        <time>2011-03-06T11:13:29Z</time>
      </trkpt>
      <trkpt lat="43.66267" lon="3.37452">
        <ele>141.2</ele>
        <time>2011-03-06T11:13:31Z</time>
      </trkpt>
      <trkpt lat="43.6627" lon="3.37459">
        <ele>141.5</ele>
        <time>2011-03-06T11:13:33Z</time>
      </trkpt>
      <trkpt lat="43.66271" lon="3.37469">
        <ele>141.4</ele>
        <time>2011-03-06T11:13:35Z</time>
      </trkpt>
      <trkpt lat="43.6627" lon="3.3748">
        <ele>141</ele>
        <time>2011-03-06T11:13:37Z</time>
      </trkpt>
      <trkpt lat="43.6627" lon="3.3749">
        <ele>140.6</ele>
        <time>2011-03-06T11:13:39Z</time>
      </trkpt>
      <trkpt lat="43.66269" lon="3.37502">
        <ele>140.2</ele>
        <time>2011-03-06T11:13:42Z</time>
      </trkpt>
      <trkpt lat="43.66268" lon="3.37512">
        <ele>140.2</ele>
        <time>2011-03-06T11:13:44Z</time>
      </trkpt>
      <trkpt lat="43.66269" lon="3.37523">
        <ele>140.7</ele>
        <time>2011-03-06T11:13:46Z</time>
      </trkpt>
      <trkpt lat="43.66271" lon="3.37529">
        <ele>141.1</ele>
        <time>2011-03-06T11:13:47Z</time>
      </trkpt>
      <trkpt lat="43.66277" lon="3.37542">
        <ele>142.5</ele>
        <time>2011-03-06T11:13:50Z</time>
      </trkpt>
      <trkpt lat="43.6628" lon="3.37551">
        <ele>143.2</ele>
        <time>2011-03-06T11:13:52Z</time>
      </trkpt>
      <trkpt lat="43.66282" lon="3.37561">
        <ele>144</ele>
        <time>2011-03-06T11:13:54Z</time>
      </trkpt>
      <trkpt lat="43.66283" lon="3.37571">
        <ele>144.5</ele>
        <time>2011-03-06T11:13:56Z</time>
      </trkpt>
      <trkpt lat="43.66282" lon="3.3758">
        <ele>144.5</ele>
        <time>2011-03-06T11:13:58Z</time>
      </trkpt>
      <trkpt lat="43.66281" lon="3.3759">
        <ele>144.4</ele>
        <time>2011-03-06T11:14:00Z</time>
      </trkpt>
      <trkpt lat="43.66279" lon="3.37601">
        <ele>144.1</ele>
        <time>2011-03-06T11:14:02Z</time>
      </trkpt>
      <trkpt lat="43.66277" lon="3.37612">
        <ele>143.9</ele>
        <time>2011-03-06T11:14:04Z</time>
      </trkpt>
      <trkpt lat="43.66274" lon="3.37623">
        <ele>143.4</ele>
        <time>2011-03-06T11:14:06Z</time>
      </trkpt>
      <trkpt lat="43.66272" lon="3.37629">
        <ele>143</ele>
        <time>2011-03-06T11:14:07Z</time>
      </trkpt>
      <trkpt lat="43.6627" lon="3.3764">
        <ele>142.7</ele>
        <time>2011-03-06T11:14:09Z</time>
      </trkpt>
      <trkpt lat="43.6627" lon="3.3765">
        <ele>142.9</ele>
        <time>2011-03-06T11:14:11Z</time>
      </trkpt>
      <trkpt lat="43.66272" lon="3.3766">
        <ele>143.3</ele>
        <time>2011-03-06T11:14:13Z</time>
      </trkpt>
      <trkpt lat="43.66274" lon="3.3767">
        <ele>144</ele>
        <time>2011-03-06T11:14:15Z</time>
      </trkpt>
      <trkpt lat="43.66278" lon="3.37678">
        <ele>144.9</ele>
        <time>2011-03-06T11:14:17Z</time>
      </trkpt>
      <trkpt lat="43.66276" lon="3.37688">
        <ele>144.8</ele>
        <time>2011-03-06T11:14:20Z</time>
      </trkpt>
      <trkpt lat="43.66272" lon="3.37697">
        <ele>144.2</ele>
        <time>2011-03-06T11:14:23Z</time>
      </trkpt>
      <trkpt lat="43.6627" lon="3.37708">
        <ele>144.2</ele>
        <time>2011-03-06T11:14:26Z</time>
      </trkpt>
      <trkpt lat="43.66267" lon="3.37716">
        <ele>143.9</ele>
        <time>2011-03-06T11:14:28Z</time>
      </trkpt>
      <trkpt lat="43.66262" lon="3.37722">
        <ele>143.2</ele>
        <time>2011-03-06T11:14:30Z</time>
      </trkpt>
      <trkpt lat="43.66259" lon="3.37731">
        <ele>142.9</ele>
        <time>2011-03-06T11:14:32Z</time>
      </trkpt>
      <trkpt lat="43.66258" lon="3.37742">
        <ele>143.1</ele>
        <time>2011-03-06T11:14:35Z</time>
      </trkpt>
      <trkpt lat="43.66259" lon="3.37754">
        <ele>143.7</ele>
        <time>2011-03-06T11:14:39Z</time>
      </trkpt>
      <trkpt lat="43.66256" lon="3.37763">
        <ele>143.4</ele>
        <time>2011-03-06T11:14:42Z</time>
      </trkpt>
      <trkpt lat="43.66253" lon="3.37774">
        <ele>143.4</ele>
        <time>2011-03-06T11:14:51Z</time>
      </trkpt>
      <trkpt lat="43.66253" lon="3.37775">
        <ele>143.3</ele>
        <time>2011-03-06T11:14:52Z</time>
      </trkpt>
      <trkpt lat="43.66243" lon="3.3779">
        <ele>142.9</ele>
        <time>2011-03-06T11:15:08Z</time>
      </trkpt>
      <trkpt lat="43.66237" lon="3.378">
        <ele>142.8</ele>
        <time>2011-03-06T11:15:17Z</time>
      </trkpt>
      <trkpt lat="43.66231" lon="3.37806">
        <ele>142.4</ele>
        <time>2011-03-06T11:15:24Z</time>
      </trkpt>
      <trkpt lat="43.66228" lon="3.37816">
        <ele>142.4</ele>
        <time>2011-03-06T11:15:34Z</time>
      </trkpt>
      <trkpt lat="43.66223" lon="3.37826">
        <ele>142.2</ele>
        <time>2011-03-06T11:15:37Z</time>
      </trkpt>
      <trkpt lat="43.66217" lon="3.37833">
        <ele>141.8</ele>
        <time>2011-03-06T11:15:40Z</time>
      </trkpt>
      <trkpt lat="43.66213" lon="3.37841">
        <ele>142</ele>
        <time>2011-03-06T11:15:42Z</time>
      </trkpt>
      <trkpt lat="43.6621" lon="3.3785">
        <ele>142.4</ele>
        <time>2011-03-06T11:15:44Z</time>
      </trkpt>
      <trkpt lat="43.66207" lon="3.37859">
        <ele>142.7</ele>
        <time>2011-03-06T11:15:46Z</time>
      </trkpt>
      <trkpt lat="43.66207" lon="3.3787">
        <ele>143.4</ele>
        <time>2011-03-06T11:15:48Z</time>
      </trkpt>
      <trkpt lat="43.66208" lon="3.3788">
        <ele>144.3</ele>
        <time>2011-03-06T11:15:50Z</time>
      </trkpt>
      <trkpt lat="43.66208" lon="3.37892">
        <ele>145.1</ele>
        <time>2011-03-06T11:15:52Z</time>
      </trkpt>
      <trkpt lat="43.66207" lon="3.37898">
        <ele>145.4</ele>
        <time>2011-03-06T11:15:53Z</time>
      </trkpt>
      <trkpt lat="43.66205" lon="3.37905">
        <ele>145.6</ele>
        <time>2011-03-06T11:15:54Z</time>
      </trkpt>
      <trkpt lat="43.66204" lon="3.37912">
        <ele>145.9</ele>
        <time>2011-03-06T11:15:55Z</time>
      </trkpt>
      <trkpt lat="43.66205" lon="3.37924">
        <ele>147.1</ele>
        <time>2011-03-06T11:15:57Z</time>
      </trkpt>
      <trkpt lat="43.662" lon="3.37932">
        <ele>147.2</ele>
        <time>2011-03-06T11:16:03Z</time>
      </trkpt>
      <trkpt lat="43.66192" lon="3.37929">
        <ele>145.2</ele>
        <time>2011-03-06T11:16:06Z</time>
      </trkpt>
      <trkpt lat="43.66185" lon="3.37934">
        <ele>144.4</ele>
        <time>2011-03-06T11:16:09Z</time>
      </trkpt>
      <trkpt lat="43.6618" lon="3.37941">
        <ele>144.2</ele>
        <time>2011-03-06T11:16:12Z</time>
      </trkpt>
      <trkpt lat="43.66176" lon="3.37951">
        <ele>144.4</ele>
        <time>2011-03-06T11:16:15Z</time>
      </trkpt>
      <trkpt lat="43.66174" lon="3.37959">
        <ele>144.9</ele>
        <time>2011-03-06T11:16:17Z</time>
      </trkpt>
      <trkpt lat="43.66171" lon="3.3797">
        <ele>145.7</ele>
        <time>2011-03-06T11:16:20Z</time>
      </trkpt>
      <trkpt lat="43.66169" lon="3.37982">
        <ele>146.4</ele>
        <time>2011-03-06T11:16:26Z</time>
      </trkpt>
      <trkpt lat="43.66165" lon="3.37991">
        <ele>146.9</ele>
        <time>2011-03-06T11:16:29Z</time>
      </trkpt>
      <trkpt lat="43.66163" lon="3.37999">
        <ele>147.5</ele>
        <time>2011-03-06T11:16:31Z</time>
      </trkpt>
      <trkpt lat="43.66162" lon="3.38007">
        <ele>147.9</ele>
        <time>2011-03-06T11:16:33Z</time>
      </trkpt>
      <trkpt lat="43.66163" lon="3.38017">
        <ele>148.6</ele>
        <time>2011-03-06T11:16:35Z</time>
      </trkpt>
      <trkpt lat="43.66165" lon="3.38027">
        <ele>149.4</ele>
        <time>2011-03-06T11:16:38Z</time>
      </trkpt>
      <trkpt lat="43.66167" lon="3.38038">
        <ele>150.2</ele>
        <time>2011-03-06T11:16:41Z</time>
      </trkpt>
      <trkpt lat="43.6617" lon="3.38048">
        <ele>151.8</ele>
        <time>2011-03-06T11:16:45Z</time>
      </trkpt>
      <trkpt lat="43.66175" lon="3.38058">
        <ele>153.6</ele>
        <time>2011-03-06T11:16:51Z</time>
      </trkpt>
      <trkpt lat="43.66177" lon="3.38066">
        <ele>154.7</ele>
        <time>2011-03-06T11:16:54Z</time>
      </trkpt>
      <trkpt lat="43.66177" lon="3.38071">
        <ele>154.9</ele>
        <time>2011-03-06T11:16:55Z</time>
      </trkpt>
      <trkpt lat="43.66177" lon="3.38087">
        <ele>155.9</ele>
        <time>2011-03-06T11:16:59Z</time>
      </trkpt>
      <trkpt lat="43.66178" lon="3.38096">
        <ele>156.9</ele>
        <time>2011-03-06T11:17:02Z</time>
      </trkpt>
      <trkpt lat="43.6618" lon="3.38106">
        <ele>158</ele>
        <time>2011-03-06T11:17:05Z</time>
      </trkpt>
      <trkpt lat="43.66183" lon="3.38114">
        <ele>159.4</ele>
        <time>2011-03-06T11:17:07Z</time>
      </trkpt>
      <trkpt lat="43.66179" lon="3.38125">
        <ele>158.8</ele>
        <time>2011-03-06T11:17:12Z</time>
      </trkpt>
      <trkpt lat="43.66175" lon="3.38135">
        <ele>158.1</ele>
        <time>2011-03-06T11:17:21Z</time>
      </trkpt>
      <trkpt lat="43.6617" lon="3.38144">
        <ele>156.9</ele>
        <time>2011-03-06T11:17:26Z</time>
      </trkpt>
      <trkpt lat="43.66165" lon="3.38153">
        <ele>155.9</ele>
        <time>2011-03-06T11:17:30Z</time>
      </trkpt>
      <trkpt lat="43.66159" lon="3.38161">
        <ele>154.8</ele>
        <time>2011-03-06T11:17:33Z</time>
      </trkpt>
      <trkpt lat="43.66155" lon="3.3817">
        <ele>154.3</ele>
        <time>2011-03-06T11:17:36Z</time>
      </trkpt>
      <trkpt lat="43.66152" lon="3.38179">
        <ele>153.7</ele>
        <time>2011-03-06T11:17:39Z</time>
      </trkpt>
      <trkpt lat="43.66149" lon="3.38187">
        <ele>153.3</ele>
        <time>2011-03-06T11:17:41Z</time>
      </trkpt>
      <trkpt lat="43.66149" lon="3.38196">
        <ele>153.5</ele>
        <time>2011-03-06T11:17:43Z</time>
      </trkpt>
      <trkpt lat="43.6615" lon="3.38207">
        <ele>154</ele>
        <time>2011-03-06T11:17:46Z</time>
      </trkpt>
      <trkpt lat="43.66151" lon="3.38219">
        <ele>154.5</ele>
        <time>2011-03-06T11:17:49Z</time>
      </trkpt>
      <trkpt lat="43.66153" lon="3.38229">
        <ele>155.3</ele>
        <time>2011-03-06T11:17:52Z</time>
      </trkpt>
      <trkpt lat="43.66153" lon="3.38241">
        <ele>155.6</ele>
        <time>2011-03-06T11:17:55Z</time>
      </trkpt>
      <trkpt lat="43.66153" lon="3.38246">
        <ele>155.7</ele>
        <time>2011-03-06T11:17:56Z</time>
      </trkpt>
      <trkpt lat="43.6615" lon="3.38262">
        <ele>155</ele>
        <time>2011-03-06T11:17:59Z</time>
      </trkpt>
      <trkpt lat="43.66147" lon="3.38272">
        <ele>154</ele>
        <time>2011-03-06T11:18:02Z</time>
      </trkpt>
      <trkpt lat="43.66144" lon="3.3828">
        <ele>153.3</ele>
        <time>2011-03-06T11:18:04Z</time>
      </trkpt>
      <trkpt lat="43.66142" lon="3.38289">
        <ele>152.7</ele>
        <time>2011-03-06T11:18:06Z</time>
      </trkpt>
      <trkpt lat="43.66143" lon="3.38297">
        <ele>152.6</ele>
        <time>2011-03-06T11:18:08Z</time>
      </trkpt>
      <trkpt lat="43.66143" lon="3.38307">
        <ele>152.5</ele>
        <time>2011-03-06T11:18:10Z</time>
      </trkpt>
      <trkpt lat="43.6614" lon="3.38318">
        <ele>151.7</ele>
        <time>2011-03-06T11:18:12Z</time>
      </trkpt>
      <trkpt lat="43.66139" lon="3.38325">
        <ele>151.5</ele>
        <time>2011-03-06T11:18:13Z</time>
      </trkpt>
      <trkpt lat="43.66138" lon="3.38332">
        <ele>151.2</ele>
        <time>2011-03-06T11:18:14Z</time>
      </trkpt>
      <trkpt lat="43.66137" lon="3.38339">
        <ele>151.1</ele>
        <time>2011-03-06T11:18:15Z</time>
      </trkpt>
      <trkpt lat="43.66138" lon="3.38346">
        <ele>151.3</ele>
        <time>2011-03-06T11:18:16Z</time>
      </trkpt>
      <trkpt lat="43.66138" lon="3.38353">
        <ele>151.4</ele>
        <time>2011-03-06T11:18:17Z</time>
      </trkpt>
      <trkpt lat="43.66135" lon="3.38365">
        <ele>151.1</ele>
        <time>2011-03-06T11:18:19Z</time>
      </trkpt>
      <trkpt lat="43.66128" lon="3.3837">
        <ele>150.1</ele>
        <time>2011-03-06T11:18:21Z</time>
      </trkpt>
      <trkpt lat="43.66122" lon="3.38378">
        <ele>149.3</ele>
        <time>2011-03-06T11:18:23Z</time>
      </trkpt>
      <trkpt lat="43.66116" lon="3.38384">
        <ele>148.5</ele>
        <time>2011-03-06T11:18:26Z</time>
      </trkpt>
      <trkpt lat="43.66113" lon="3.38394">
        <ele>148.4</ele>
        <time>2011-03-06T11:18:28Z</time>
      </trkpt>
      <trkpt lat="43.66111" lon="3.38404">
        <ele>148.3</ele>
        <time>2011-03-06T11:18:41Z</time>
      </trkpt>
      <trkpt lat="43.66109" lon="3.38414">
        <ele>148.2</ele>
        <time>2011-03-06T11:18:45Z</time>
      </trkpt>
      <trkpt lat="43.66103" lon="3.38423">
        <ele>147.7</ele>
        <time>2011-03-06T11:18:48Z</time>
      </trkpt>
      <trkpt lat="43.661" lon="3.38434">
        <ele>147.2</ele>
        <time>2011-03-06T11:20:34Z</time>
      </trkpt>
      <trkpt lat="43.66099" lon="3.38437">
        <ele>147.2</ele>
        <time>2011-03-06T11:20:35Z</time>
      </trkpt>
      <trkpt lat="43.66098" lon="3.38454">
        <ele>146.9</ele>
        <time>2011-03-06T11:20:38Z</time>
      </trkpt>
      <trkpt lat="43.66098" lon="3.38466">
        <ele>147</ele>
        <time>2011-03-06T11:20:40Z</time>
      </trkpt>
      <trkpt lat="43.661" lon="3.38477">
        <ele>147.3</ele>
        <time>2011-03-06T11:20:42Z</time>
      </trkpt>
      <trkpt lat="43.661" lon="3.38488">
        <ele>147.4</ele>
        <time>2011-03-06T11:20:44Z</time>
      </trkpt>
      <trkpt lat="43.66101" lon="3.38498">
        <ele>147.6</ele>
        <time>2011-03-06T11:20:46Z</time>
      </trkpt>
      <trkpt lat="43.66104" lon="3.38508">
        <ele>148.1</ele>
        <time>2011-03-06T11:20:48Z</time>
      </trkpt>
      <trkpt lat="43.66103" lon="3.38517">
        <ele>147.6</ele>
        <time>2011-03-06T11:20:50Z</time>
      </trkpt>
      <trkpt lat="43.661" lon="3.38524">
        <ele>146.8</ele>
        <time>2011-03-06T11:20:52Z</time>
      </trkpt>
      <trkpt lat="43.66097" lon="3.38534">
        <ele>145.9</ele>
        <time>2011-03-06T11:20:54Z</time>
      </trkpt>
      <trkpt lat="43.66096" lon="3.38545">
        <ele>145.2</ele>
        <time>2011-03-06T11:20:56Z</time>
      </trkpt>
      <trkpt lat="43.66094" lon="3.38556">
        <ele>144.6</ele>
        <time>2011-03-06T11:20:58Z</time>
      </trkpt>
      <trkpt lat="43.66092" lon="3.38566">
        <ele>143.7</ele>
        <time>2011-03-06T11:21:00Z</time>
      </trkpt>
      <trkpt lat="43.66091" lon="3.38572">
        <ele>143.2</ele>
        <time>2011-03-06T11:21:01Z</time>
      </trkpt>
      <trkpt lat="43.66089" lon="3.38578">
        <ele>142.6</ele>
        <time>2011-03-06T11:21:02Z</time>
      </trkpt>
      <trkpt lat="43.66088" lon="3.38585">
        <ele>142.3</ele>
        <time>2011-03-06T11:21:03Z</time>
      </trkpt>
      <trkpt lat="43.66087" lon="3.38592">
        <ele>142.2</ele>
        <time>2011-03-06T11:21:04Z</time>
      </trkpt>
      <trkpt lat="43.66086" lon="3.38598">
        <ele>142</ele>
        <time>2011-03-06T11:21:05Z</time>
      </trkpt>
      <trkpt lat="43.66085" lon="3.38605">
        <ele>141.8</ele>
        <time>2011-03-06T11:21:06Z</time>
      </trkpt>
      <trkpt lat="43.66082" lon="3.38617">
        <ele>141.7</ele>
        <time>2011-03-06T11:21:08Z</time>
      </trkpt>
      <trkpt lat="43.66081" lon="3.38623">
        <ele>141.8</ele>
        <time>2011-03-06T11:21:09Z</time>
      </trkpt>
      <trkpt lat="43.66081" lon="3.38629">
        <ele>142</ele>
        <time>2011-03-06T11:21:10Z</time>
      </trkpt>
      <trkpt lat="43.6608" lon="3.38636">
        <ele>142.1</ele>
        <time>2011-03-06T11:21:11Z</time>
      </trkpt>
      <trkpt lat="43.6608" lon="3.38643">
        <ele>142.2</ele>
        <time>2011-03-06T11:21:12Z</time>
      </trkpt>
      <trkpt lat="43.66079" lon="3.3865">
        <ele>142.4</ele>
        <time>2011-03-06T11:21:13Z</time>
      </trkpt>
      <trkpt lat="43.6608" lon="3.38656">
        <ele>142.6</ele>
        <time>2011-03-06T11:21:14Z</time>
      </trkpt>
      <trkpt lat="43.66081" lon="3.38669">
        <ele>143.1</ele>
        <time>2011-03-06T11:21:16Z</time>
      </trkpt>
      <trkpt lat="43.66078" lon="3.38679">
        <ele>144</ele>
        <time>2011-03-06T11:21:18Z</time>
      </trkpt>
      <trkpt lat="43.66076" lon="3.3869">
        <ele>145</ele>
        <time>2011-03-06T11:21:20Z</time>
      </trkpt>
      <trkpt lat="43.66074" lon="3.38701">
        <ele>145.9</ele>
        <time>2011-03-06T11:21:22Z</time>
      </trkpt>
      <trkpt lat="43.6607" lon="3.3871">
        <ele>146.6</ele>
        <time>2011-03-06T11:21:24Z</time>
      </trkpt>
      <trkpt lat="43.66066" lon="3.3872">
        <ele>147.3</ele>
        <time>2011-03-06T11:21:26Z</time>
      </trkpt>
      <trkpt lat="43.66066" lon="3.38731">
        <ele>148.3</ele>
        <time>2011-03-06T11:21:28Z</time>
      </trkpt>
      <trkpt lat="43.66066" lon="3.3874">
        <ele>149.2</ele>
        <time>2011-03-06T11:21:30Z</time>
      </trkpt>
      <trkpt lat="43.66067" lon="3.38751">
        <ele>150.3</ele>
        <time>2011-03-06T11:21:33Z</time>
      </trkpt>
      <trkpt lat="43.66069" lon="3.3876">
        <ele>151</ele>
        <time>2011-03-06T11:21:36Z</time>
      </trkpt>
      <trkpt lat="43.6607" lon="3.38763">
        <ele>151.2</ele>
        <time>2011-03-06T11:21:37Z</time>
      </trkpt>
      <trkpt lat="43.66066" lon="3.38788">
        <ele>151.9</ele>
        <time>2011-03-06T11:21:46Z</time>
      </trkpt>
      <trkpt lat="43.66076" lon="3.38789">
        <ele>153.3</ele>
        <time>2011-03-06T11:21:54Z</time>
      </trkpt>
      <trkpt lat="43.66088" lon="3.38779">
        <ele>154.6</ele>
        <time>2011-03-06T11:22:02Z</time>
      </trkpt>
      <trkpt lat="43.66093" lon="3.38772">
        <ele>155.4</ele>
        <time>2011-03-06T11:22:06Z</time>
      </trkpt>
      <trkpt lat="43.661" lon="3.38766">
        <ele>156.4</ele>
        <time>2011-03-06T11:22:10Z</time>
      </trkpt>
      <trkpt lat="43.66106" lon="3.3876">
        <ele>157.4</ele>
        <time>2011-03-06T11:22:14Z</time>
      </trkpt>
      <trkpt lat="43.66113" lon="3.38754">
        <ele>158.4</ele>
        <time>2011-03-06T11:22:18Z</time>
      </trkpt>
      <trkpt lat="43.66119" lon="3.38748">
        <ele>159.1</ele>
        <time>2011-03-06T11:22:22Z</time>
      </trkpt>
      <trkpt lat="43.66125" lon="3.38742">
        <ele>159.8</ele>
        <time>2011-03-06T11:22:26Z</time>
      </trkpt>
      <trkpt lat="43.66131" lon="3.3875">
        <ele>161.7</ele>
        <time>2011-03-06T11:22:41Z</time>
      </trkpt>
      <trkpt lat="43.66131" lon="3.38751">
        <ele>161.8</ele>
        <time>2011-03-06T11:22:42Z</time>
      </trkpt>
      <trkpt lat="43.66125" lon="3.38777">
        <ele>162.6</ele>
        <time>2011-03-06T11:22:59Z</time>
      </trkpt>
      <trkpt lat="43.66122" lon="3.38791">
        <ele>162.9</ele>
        <time>2011-03-06T11:23:05Z</time>
      </trkpt>
      <trkpt lat="43.6612" lon="3.38801">
        <ele>163.4</ele>
        <time>2011-03-06T11:23:09Z</time>
      </trkpt>
      <trkpt lat="43.6612" lon="3.38812">
        <ele>164.1</ele>
        <time>2011-03-06T11:23:13Z</time>
      </trkpt>
      <trkpt lat="43.66119" lon="3.38822">
        <ele>164.7</ele>
        <time>2011-03-06T11:23:17Z</time>
      </trkpt>
      <trkpt lat="43.66118" lon="3.38832">
        <ele>165.2</ele>
        <time>2011-03-06T11:23:21Z</time>
      </trkpt>
      <trkpt lat="43.66116" lon="3.38842">
        <ele>165.7</ele>
        <time>2011-03-06T11:23:25Z</time>
      </trkpt>
      <trkpt lat="43.66115" lon="3.38853">
        <ele>166.5</ele>
        <time>2011-03-06T11:23:29Z</time>
      </trkpt>
      <trkpt lat="43.66114" lon="3.38862">
        <ele>167.3</ele>
        <time>2011-03-06T11:23:32Z</time>
      </trkpt>
      <trkpt lat="43.66114" lon="3.38873">
        <ele>168.3</ele>
        <time>2011-03-06T11:23:35Z</time>
      </trkpt>
      <trkpt lat="43.66114" lon="3.38884">
        <ele>169.5</ele>
        <time>2011-03-06T11:23:38Z</time>
      </trkpt>
      <trkpt lat="43.66114" lon="3.38895">
        <ele>170.6</ele>
        <time>2011-03-06T11:23:41Z</time>
      </trkpt>
      <trkpt lat="43.66113" lon="3.38906">
        <ele>171.3</ele>
        <time>2011-03-06T11:23:44Z</time>
      </trkpt>
      <trkpt lat="43.66113" lon="3.3891">
        <ele>171.6</ele>
        <time>2011-03-06T11:23:45Z</time>
      </trkpt>
      <trkpt lat="43.66106" lon="3.38926">
        <ele>171.3</ele>
        <time>2011-03-06T11:23:50Z</time>
      </trkpt>
      <trkpt lat="43.66101" lon="3.38934">
        <ele>170.7</ele>
        <time>2011-03-06T11:23:53Z</time>
      </trkpt>
      <trkpt lat="43.66095" lon="3.38943">
        <ele>169.9</ele>
        <time>2011-03-06T11:23:57Z</time>
      </trkpt>
      <trkpt lat="43.66091" lon="3.38952">
        <ele>169.6</ele>
        <time>2011-03-06T11:24:01Z</time>
      </trkpt>
      <trkpt lat="43.66088" lon="3.38962">
        <ele>170.3</ele>
        <time>2011-03-06T11:24:05Z</time>
      </trkpt>
      <trkpt lat="43.66087" lon="3.38973">
        <ele>171.4</ele>
        <time>2011-03-06T11:24:09Z</time>
      </trkpt>
      <trkpt lat="43.66087" lon="3.38985">
        <ele>173.2</ele>
        <time>2011-03-06T11:24:14Z</time>
      </trkpt>
      <trkpt lat="43.66087" lon="3.38997">
        <ele>175</ele>
        <time>2011-03-06T11:24:19Z</time>
      </trkpt>
      <trkpt lat="43.66087" lon="3.39007">
        <ele>175.7</ele>
        <time>2011-03-06T11:24:23Z</time>
      </trkpt>
      <trkpt lat="43.66088" lon="3.39017">
        <ele>176.9</ele>
        <time>2011-03-06T11:24:27Z</time>
      </trkpt>
      <trkpt lat="43.66088" lon="3.39029">
        <ele>177.5</ele>
        <time>2011-03-06T11:24:32Z</time>
      </trkpt>
      <trkpt lat="43.66087" lon="3.39041">
        <ele>177.7</ele>
        <time>2011-03-06T11:24:37Z</time>
      </trkpt>
      <trkpt lat="43.66086" lon="3.39051">
        <ele>177.9</ele>
        <time>2011-03-06T11:24:41Z</time>
      </trkpt>
      <trkpt lat="43.66087" lon="3.39063">
        <ele>179.2</ele>
        <time>2011-03-06T11:24:46Z</time>
      </trkpt>
      <trkpt lat="43.66087" lon="3.39065">
        <ele>179.6</ele>
        <time>2011-03-06T11:24:47Z</time>
      </trkpt>
      <trkpt lat="43.66092" lon="3.39084">
        <ele>182.6</ele>
        <time>2011-03-06T11:24:56Z</time>
      </trkpt>
      <trkpt lat="43.66092" lon="3.39096">
        <ele>183.3</ele>
        <time>2011-03-06T11:25:02Z</time>
      </trkpt>
      <trkpt lat="43.66094" lon="3.39107">
        <ele>184.6</ele>
        <time>2011-03-06T11:25:09Z</time>
      </trkpt>
      <trkpt lat="43.66093" lon="3.39119">
        <ele>184.5</ele>
        <time>2011-03-06T11:25:18Z</time>
      </trkpt>
      <trkpt lat="43.66095" lon="3.39129">
        <ele>186.1</ele>
        <time>2011-03-06T11:25:24Z</time>
      </trkpt>
      <trkpt lat="43.66095" lon="3.3914">
        <ele>186.4</ele>
        <time>2011-03-06T11:25:31Z</time>
      </trkpt>
      <trkpt lat="43.66097" lon="3.39151">
        <ele>187.6</ele>
        <time>2011-03-06T11:25:37Z</time>
      </trkpt>
      <trkpt lat="43.66099" lon="3.39162">
        <ele>189.1</ele>
        <time>2011-03-06T11:25:43Z</time>
      </trkpt>
      <trkpt lat="43.66103" lon="3.39171">
        <ele>191.2</ele>
        <time>2011-03-06T11:25:48Z</time>
      </trkpt>
      <trkpt lat="43.66104" lon="3.39173">
        <ele>191.8</ele>
        <time>2011-03-06T11:25:49Z</time>
      </trkpt>
      <trkpt lat="43.66111" lon="3.39192">
        <ele>195.9</ele>
        <time>2011-03-06T11:25:58Z</time>
      </trkpt>
      <trkpt lat="43.66113" lon="3.39204">
        <ele>197.6</ele>
        <time>2011-03-06T11:26:03Z</time>
      </trkpt>
      <trkpt lat="43.66111" lon="3.39214">
        <ele>197.8</ele>
        <time>2011-03-06T11:26:07Z</time>
      </trkpt>
      <trkpt lat="43.66111" lon="3.39225">
        <ele>198.9</ele>
        <time>2011-03-06T11:26:11Z</time>
      </trkpt>
      <trkpt lat="43.66109" lon="3.39237">
        <ele>199.3</ele>
        <time>2011-03-06T11:26:16Z</time>
      </trkpt>
      <trkpt lat="43.66106" lon="3.39247">
        <ele>198.9</ele>
        <time>2011-03-06T11:26:21Z</time>
      </trkpt>
      <trkpt lat="43.66103" lon="3.39258">
        <ele>199.7</ele>
        <time>2011-03-06T11:26:26Z</time>
      </trkpt>
      <trkpt lat="43.66102" lon="3.39269">
        <ele>201.3</ele>
        <time>2011-03-06T11:26:31Z</time>
      </trkpt>
      <trkpt lat="43.66107" lon="3.3928">
        <ele>204.4</ele>
        <time>2011-03-06T11:26:38Z</time>
      </trkpt>
      <trkpt lat="43.66114" lon="3.39278">
        <ele>206.4</ele>
        <time>2011-03-06T11:26:43Z</time>
      </trkpt>
      <trkpt lat="43.66121" lon="3.3927">
        <ele>207.4</ele>
        <time>2011-03-06T11:26:48Z</time>
      </trkpt>
      <trkpt lat="43.66127" lon="3.39262">
        <ele>208</ele>
        <time>2011-03-06T11:26:52Z</time>
      </trkpt>
      <trkpt lat="43.66129" lon="3.39259">
        <ele>208.1</ele>
        <time>2011-03-06T11:26:53Z</time>
      </trkpt>
      <trkpt lat="43.66134" lon="3.39247">
        <ele>208.3</ele>
        <time>2011-03-06T11:26:56Z</time>
      </trkpt>
      <trkpt lat="43.66137" lon="3.39239">
        <ele>208.6</ele>
        <time>2011-03-06T11:26:58Z</time>
      </trkpt>
      <trkpt lat="43.6614" lon="3.39228">
        <ele>209.1</ele>
        <time>2011-03-06T11:27:01Z</time>
      </trkpt>
      <trkpt lat="43.66141" lon="3.39218">
        <ele>208.9</ele>
        <time>2011-03-06T11:27:04Z</time>
      </trkpt>
      <trkpt lat="43.66141" lon="3.39205">
        <ele>208</ele>
        <time>2011-03-06T11:27:07Z</time>
      </trkpt>
      <trkpt lat="43.66139" lon="3.39194">
        <ele>206.6</ele>
        <time>2011-03-06T11:27:10Z</time>
      </trkpt>
      <trkpt lat="43.66139" lon="3.39181">
        <ele>205.7</ele>
        <time>2011-03-06T11:27:13Z</time>
      </trkpt>
      <trkpt lat="43.66139" lon="3.39169">
        <ele>205</ele>
        <time>2011-03-06T11:27:16Z</time>
      </trkpt>
      <trkpt lat="43.6614" lon="3.39157">
        <ele>205</ele>
        <time>2011-03-06T11:27:19Z</time>
      </trkpt>
      <trkpt lat="43.66142" lon="3.3915">
        <ele>205.6</ele>
        <time>2011-03-06T11:27:21Z</time>
      </trkpt>
      <trkpt lat="43.66143" lon="3.39142">
        <ele>206</ele>
        <time>2011-03-06T11:27:23Z</time>
      </trkpt>
      <trkpt lat="43.66145" lon="3.39133">
        <ele>206.4</ele>
        <time>2011-03-06T11:27:25Z</time>
      </trkpt>
      <trkpt lat="43.66147" lon="3.39125">
        <ele>206.9</ele>
        <time>2011-03-06T11:27:27Z</time>
      </trkpt>
      <trkpt lat="43.66149" lon="3.39117">
        <ele>207.5</ele>
        <time>2011-03-06T11:27:29Z</time>
      </trkpt>
      <trkpt lat="43.66152" lon="3.39106">
        <ele>208.3</ele>
        <time>2011-03-06T11:27:32Z</time>
      </trkpt>
      <trkpt lat="43.66156" lon="3.39096">
        <ele>210</ele>
        <time>2011-03-06T11:27:35Z</time>
      </trkpt>
      <trkpt lat="43.6616" lon="3.39084">
        <ele>211</ele>
        <time>2011-03-06T11:27:38Z</time>
      </trkpt>
      <trkpt lat="43.66162" lon="3.39075">
        <ele>210.8</ele>
        <time>2011-03-06T11:27:41Z</time>
      </trkpt>
      <trkpt lat="43.66169" lon="3.39069">
        <ele>213</ele>
        <time>2011-03-06T11:27:45Z</time>
      </trkpt>
      <trkpt lat="43.6617" lon="3.3908">
        <ele>214.5</ele>
        <time>2011-03-06T11:27:50Z</time>
      </trkpt>
      <trkpt lat="43.66167" lon="3.39091">
        <ele>214.3</ele>
        <time>2011-03-06T11:27:55Z</time>
      </trkpt>
      <trkpt lat="43.66166" lon="3.39093">
        <ele>214</ele>
        <time>2011-03-06T11:27:56Z</time>
      </trkpt>
      <trkpt lat="43.66172" lon="3.39068">
        <ele>213.8</ele>
        <time>2011-03-06T11:28:12Z</time>
      </trkpt>
      <trkpt lat="43.66171" lon="3.3908">
        <ele>214.9</ele>
        <time>2011-03-06T11:28:29Z</time>
      </trkpt>
      <trkpt lat="43.66169" lon="3.39068">
        <ele>212.9</ele>
        <time>2011-03-06T11:28:45Z</time>
      </trkpt>
      <trkpt lat="43.6617" lon="3.3908">
        <ele>214.5</ele>
        <time>2011-03-06T11:29:00Z</time>
      </trkpt>
      <trkpt lat="43.66169" lon="3.39082">
        <ele>214.5</ele>
        <time>2011-03-06T11:29:01Z</time>
      </trkpt>
      <trkpt lat="43.6616" lon="3.39099">
        <ele>211.7</ele>
        <time>2011-03-06T11:31:56Z</time>
      </trkpt>
      <trkpt lat="43.6616" lon="3.39101">
        <ele>211.7</ele>
        <time>2011-03-06T11:31:57Z</time>
      </trkpt>
      <trkpt lat="43.66158" lon="3.39121">
        <ele>211.4</ele>
        <time>2011-03-06T11:32:03Z</time>
      </trkpt>
      <trkpt lat="43.66157" lon="3.39133">
        <ele>211.2</ele>
        <time>2011-03-06T11:32:06Z</time>
      </trkpt>
      <trkpt lat="43.66155" lon="3.39145">
        <ele>210.9</ele>
        <time>2011-03-06T11:32:09Z</time>
      </trkpt>
      <trkpt lat="43.66154" lon="3.39155">
        <ele>210.7</ele>
        <time>2011-03-06T11:32:12Z</time>
      </trkpt>
      <trkpt lat="43.66154" lon="3.39167">
        <ele>210.8</ele>
        <time>2011-03-06T11:32:15Z</time>
      </trkpt>
      <trkpt lat="43.66155" lon="3.39177">
        <ele>211.7</ele>
        <time>2011-03-06T11:32:17Z</time>
      </trkpt>
      <trkpt lat="43.66157" lon="3.39186">
        <ele>212.8</ele>
        <time>2011-03-06T11:32:19Z</time>
      </trkpt>
      <trkpt lat="43.66159" lon="3.39195">
        <ele>214</ele>
        <time>2011-03-06T11:32:21Z</time>
      </trkpt>
      <trkpt lat="43.66161" lon="3.39203">
        <ele>215.2</ele>
        <time>2011-03-06T11:32:23Z</time>
      </trkpt>
      <trkpt lat="43.66163" lon="3.39212">
        <ele>216.3</ele>
        <time>2011-03-06T11:32:25Z</time>
      </trkpt>
      <trkpt lat="43.66165" lon="3.39221">
        <ele>217.4</ele>
        <time>2011-03-06T11:32:27Z</time>
      </trkpt>
      <trkpt lat="43.66168" lon="3.39232">
        <ele>218.5</ele>
        <time>2011-03-06T11:32:30Z</time>
      </trkpt>
      <trkpt lat="43.66169" lon="3.39244">
        <ele>219.2</ele>
        <time>2011-03-06T11:32:33Z</time>
      </trkpt>
      <trkpt lat="43.66168" lon="3.39256">
        <ele>219.9</ele>
        <time>2011-03-06T11:32:36Z</time>
      </trkpt>
      <trkpt lat="43.66165" lon="3.39267">
        <ele>220.7</ele>
        <time>2011-03-06T11:32:39Z</time>
      </trkpt>
      <trkpt lat="43.66162" lon="3.39279">
        <ele>221</ele>
        <time>2011-03-06T11:32:42Z</time>
      </trkpt>
      <trkpt lat="43.66158" lon="3.3929">
        <ele>221.2</ele>
        <time>2011-03-06T11:32:45Z</time>
      </trkpt>
      <trkpt lat="43.66153" lon="3.393">
        <ele>221.2</ele>
        <time>2011-03-06T11:32:48Z</time>
      </trkpt>
      <trkpt lat="43.66149" lon="3.39311">
        <ele>221.2</ele>
        <time>2011-03-06T11:32:51Z</time>
      </trkpt>
      <trkpt lat="43.66145" lon="3.39318">
        <ele>221.1</ele>
        <time>2011-03-06T11:32:53Z</time>
      </trkpt>
      <trkpt lat="43.66141" lon="3.39324">
        <ele>221</ele>
        <time>2011-03-06T11:32:55Z</time>
      </trkpt>
      <trkpt lat="43.66138" lon="3.39332">
        <ele>221.1</ele>
        <time>2011-03-06T11:32:57Z</time>
      </trkpt>
      <trkpt lat="43.66135" lon="3.39339">
        <ele>221</ele>
        <time>2011-03-06T11:32:59Z</time>
      </trkpt>
      <trkpt lat="43.66133" lon="3.39343">
        <ele>220.9</ele>
        <time>2011-03-06T11:33:00Z</time>
      </trkpt>
      <trkpt lat="43.66128" lon="3.39355">
        <ele>220.8</ele>
        <time>2011-03-06T11:33:03Z</time>
      </trkpt>
      <trkpt lat="43.66124" lon="3.39364">
        <ele>220.9</ele>
        <time>2011-03-06T11:33:05Z</time>
      </trkpt>
      <trkpt lat="43.6612" lon="3.39372">
        <ele>220.9</ele>
        <time>2011-03-06T11:33:07Z</time>
      </trkpt>
      <trkpt lat="43.66116" lon="3.3938">
        <ele>220.9</ele>
        <time>2011-03-06T11:33:09Z</time>
      </trkpt>
      <trkpt lat="43.66112" lon="3.39387">
        <ele>220.9</ele>
        <time>2011-03-06T11:33:11Z</time>
      </trkpt>
      <trkpt lat="43.66107" lon="3.39394">
        <ele>220.9</ele>
        <time>2011-03-06T11:33:13Z</time>
      </trkpt>
      <trkpt lat="43.66103" lon="3.39401">
        <ele>221</ele>
        <time>2011-03-06T11:33:15Z</time>
      </trkpt>
      <trkpt lat="43.66099" lon="3.39409">
        <ele>221.3</ele>
        <time>2011-03-06T11:33:17Z</time>
      </trkpt>
      <trkpt lat="43.66095" lon="3.39416">
        <ele>221.8</ele>
        <time>2011-03-06T11:33:19Z</time>
      </trkpt>
      <trkpt lat="43.66095" lon="3.39428">
        <ele>221.1</ele>
        <time>2011-03-06T11:33:22Z</time>
      </trkpt>
      <trkpt lat="43.66099" lon="3.39439">
        <ele>221</ele>
        <time>2011-03-06T11:33:25Z</time>
      </trkpt>
      <trkpt lat="43.66104" lon="3.39446">
        <ele>221.1</ele>
        <time>2011-03-06T11:33:27Z</time>
      </trkpt>
      <trkpt lat="43.6611" lon="3.39453">
        <ele>221.3</ele>
        <time>2011-03-06T11:33:29Z</time>
      </trkpt>
      <trkpt lat="43.66117" lon="3.3946">
        <ele>221.4</ele>
        <time>2011-03-06T11:33:31Z</time>
      </trkpt>
      <trkpt lat="43.6612" lon="3.39463">
        <ele>221.5</ele>
        <time>2011-03-06T11:33:32Z</time>
      </trkpt>
      <trkpt lat="43.66124" lon="3.39467">
        <ele>221.6</ele>
        <time>2011-03-06T11:33:33Z</time>
      </trkpt>
      <trkpt lat="43.66128" lon="3.3947">
        <ele>221.7</ele>
        <time>2011-03-06T11:33:34Z</time>
      </trkpt>
      <trkpt lat="43.66133" lon="3.39473">
        <ele>221.7</ele>
        <time>2011-03-06T11:33:35Z</time>
      </trkpt>
      <trkpt lat="43.66137" lon="3.39477">
        <ele>221.8</ele>
        <time>2011-03-06T11:33:36Z</time>
      </trkpt>
      <trkpt lat="43.66142" lon="3.39479">
        <ele>222</ele>
        <time>2011-03-06T11:33:37Z</time>
      </trkpt>
      <trkpt lat="43.66147" lon="3.39481">
        <ele>222.2</ele>
        <time>2011-03-06T11:33:38Z</time>
      </trkpt>
      <trkpt lat="43.66153" lon="3.39483">
        <ele>222.4</ele>
        <time>2011-03-06T11:33:39Z</time>
      </trkpt>
      <trkpt lat="43.66158" lon="3.39484">
        <ele>222.7</ele>
        <time>2011-03-06T11:33:40Z</time>
      </trkpt>
      <trkpt lat="43.66164" lon="3.39484">
        <ele>223.1</ele>
        <time>2011-03-06T11:33:41Z</time>
      </trkpt>
      <trkpt lat="43.6617" lon="3.39485">
        <ele>223.1</ele>
        <time>2011-03-06T11:33:42Z</time>
      </trkpt>
      <trkpt lat="43.66176" lon="3.39485">
        <ele>222.8</ele>
        <time>2011-03-06T11:33:43Z</time>
      </trkpt>
      <trkpt lat="43.66183" lon="3.39486">
        <ele>222.4</ele>
        <time>2011-03-06T11:33:44Z</time>
      </trkpt>
      <trkpt lat="43.66189" lon="3.39488">
        <ele>221.9</ele>
        <time>2011-03-06T11:33:45Z</time>
      </trkpt>
      <trkpt lat="43.66196" lon="3.39489">
        <ele>221.5</ele>
        <time>2011-03-06T11:33:46Z</time>
      </trkpt>
      <trkpt lat="43.66203" lon="3.39491">
        <ele>221</ele>
        <time>2011-03-06T11:33:47Z</time>
      </trkpt>
      <trkpt lat="43.6621" lon="3.39493">
        <ele>220.5</ele>
        <time>2011-03-06T11:33:48Z</time>
      </trkpt>
      <trkpt lat="43.66218" lon="3.39495">
        <ele>220</ele>
        <time>2011-03-06T11:33:49Z</time>
      </trkpt>
      <trkpt lat="43.66225" lon="3.39496">
        <ele>219.4</ele>
        <time>2011-03-06T11:33:50Z</time>
      </trkpt>
      <trkpt lat="43.66233" lon="3.39498">
        <ele>218.9</ele>
        <time>2011-03-06T11:33:51Z</time>
      </trkpt>
      <trkpt lat="43.66241" lon="3.39501">
        <ele>218.2</ele>
        <time>2011-03-06T11:33:52Z</time>
      </trkpt>
      <trkpt lat="43.66249" lon="3.39504">
        <ele>217.6</ele>
        <time>2011-03-06T11:33:53Z</time>
      </trkpt>
      <trkpt lat="43.66258" lon="3.39507">
        <ele>217.5</ele>
        <time>2011-03-06T11:33:54Z</time>
      </trkpt>
      <trkpt lat="43.66266" lon="3.39511">
        <ele>217.5</ele>
        <time>2011-03-06T11:33:55Z</time>
      </trkpt>
      <trkpt lat="43.66275" lon="3.39515">
        <ele>217.6</ele>
        <time>2011-03-06T11:33:56Z</time>
      </trkpt>
      <trkpt lat="43.66283" lon="3.39519">
        <ele>217.7</ele>
        <time>2011-03-06T11:33:57Z</time>
      </trkpt>
      <trkpt lat="43.66292" lon="3.39522">
        <ele>217.9</ele>
        <time>2011-03-06T11:33:58Z</time>
      </trkpt>
      <trkpt lat="43.66301" lon="3.39526">
        <ele>218.2</ele>
        <time>2011-03-06T11:33:59Z</time>
      </trkpt>
      <trkpt lat="43.6631" lon="3.39527">
        <ele>218.6</ele>
        <time>2011-03-06T11:34:00Z</time>
      </trkpt>
      <trkpt lat="43.66319" lon="3.39527">
        <ele>219.1</ele>
        <time>2011-03-06T11:34:01Z</time>
      </trkpt>
      <trkpt lat="43.66328" lon="3.39526">
        <ele>219.7</ele>
        <time>2011-03-06T11:34:02Z</time>
      </trkpt>
      <trkpt lat="43.66337" lon="3.39524">
        <ele>220.3</ele>
        <time>2011-03-06T11:34:03Z</time>
      </trkpt>
      <trkpt lat="43.66346" lon="3.3952">
        <ele>220.7</ele>
        <time>2011-03-06T11:34:04Z</time>
      </trkpt>
      <trkpt lat="43.66355" lon="3.39517">
        <ele>221</ele>
        <time>2011-03-06T11:34:05Z</time>
      </trkpt>
      <trkpt lat="43.66363" lon="3.39515">
        <ele>221.2</ele>
        <time>2011-03-06T11:34:06Z</time>
      </trkpt>
      <trkpt lat="43.66371" lon="3.39516">
        <ele>221.4</ele>
        <time>2011-03-06T11:34:07Z</time>
      </trkpt>
      <trkpt lat="43.66377" lon="3.39519">
        <ele>221.6</ele>
        <time>2011-03-06T11:34:08Z</time>
      </trkpt>
      <trkpt lat="43.66381" lon="3.39528">
        <ele>222.1</ele>
        <time>2011-03-06T11:34:10Z</time>
      </trkpt>
      <trkpt lat="43.66377" lon="3.39534">
        <ele>222.1</ele>
        <time>2011-03-06T11:34:12Z</time>
      </trkpt>
      <trkpt lat="43.66371" lon="3.39539">
        <ele>221.9</ele>
        <time>2011-03-06T11:34:14Z</time>
      </trkpt>
      <trkpt lat="43.66363" lon="3.39544">
        <ele>221.5</ele>
        <time>2011-03-06T11:34:16Z</time>
      </trkpt>
      <trkpt lat="43.66355" lon="3.39548">
        <ele>220.9</ele>
        <time>2011-03-06T11:34:18Z</time>
      </trkpt>
      <trkpt lat="43.66348" lon="3.39555">
        <ele>220.3</ele>
        <time>2011-03-06T11:34:20Z</time>
      </trkpt>
      <trkpt lat="43.66343" lon="3.39565">
        <ele>219.7</ele>
        <time>2011-03-06T11:34:22Z</time>
      </trkpt>
      <trkpt lat="43.66342" lon="3.39571">
        <ele>219.4</ele>
        <time>2011-03-06T11:34:23Z</time>
      </trkpt>
      <trkpt lat="43.6634" lon="3.39576">
        <ele>219</ele>
        <time>2011-03-06T11:34:24Z</time>
      </trkpt>
      <trkpt lat="43.66337" lon="3.39582">
        <ele>218.6</ele>
        <time>2011-03-06T11:34:25Z</time>
      </trkpt>
      <trkpt lat="43.66335" lon="3.39588">
        <ele>218.6</ele>
        <time>2011-03-06T11:34:26Z</time>
      </trkpt>
      <trkpt lat="43.66332" lon="3.39593">
        <ele>218.8</ele>
        <time>2011-03-06T11:34:27Z</time>
      </trkpt>
      <trkpt lat="43.66328" lon="3.39597">
        <ele>218.8</ele>
        <time>2011-03-06T11:34:28Z</time>
      </trkpt>
      <trkpt lat="43.66324" lon="3.396">
        <ele>218.6</ele>
        <time>2011-03-06T11:34:29Z</time>
      </trkpt>
      <trkpt lat="43.6632" lon="3.39602">
        <ele>218.4</ele>
        <time>2011-03-06T11:34:30Z</time>
      </trkpt>
      <trkpt lat="43.66311" lon="3.39604">
        <ele>217.7</ele>
        <time>2011-03-06T11:34:32Z</time>
      </trkpt>
      <trkpt lat="43.66303" lon="3.39606">
        <ele>217</ele>
        <time>2011-03-06T11:34:34Z</time>
      </trkpt>
      <trkpt lat="43.66295" lon="3.39608">
        <ele>216.5</ele>
        <time>2011-03-06T11:34:36Z</time>
      </trkpt>
      <trkpt lat="43.66287" lon="3.39612">
        <ele>216.1</ele>
        <time>2011-03-06T11:34:38Z</time>
      </trkpt>
      <trkpt lat="43.66279" lon="3.39617">
        <ele>215.9</ele>
        <time>2011-03-06T11:34:40Z</time>
      </trkpt>
      <trkpt lat="43.66272" lon="3.39623">
        <ele>215.8</ele>
        <time>2011-03-06T11:34:42Z</time>
      </trkpt>
      <trkpt lat="43.66268" lon="3.39626">
        <ele>215.8</ele>
        <time>2011-03-06T11:34:43Z</time>
      </trkpt>
      <trkpt lat="43.66263" lon="3.39629">
        <ele>215.7</ele>
        <time>2011-03-06T11:34:44Z</time>
      </trkpt>
      <trkpt lat="43.66259" lon="3.39631">
        <ele>215.6</ele>
        <time>2011-03-06T11:34:45Z</time>
      </trkpt>
      <trkpt lat="43.66251" lon="3.39635">
        <ele>215.2</ele>
        <time>2011-03-06T11:34:47Z</time>
      </trkpt>
      <trkpt lat="43.66243" lon="3.39637">
        <ele>214.2</ele>
        <time>2011-03-06T11:34:49Z</time>
      </trkpt>
      <trkpt lat="43.66235" lon="3.3964">
        <ele>213.2</ele>
        <time>2011-03-06T11:34:51Z</time>
      </trkpt>
      <trkpt lat="43.66231" lon="3.39643">
        <ele>212.8</ele>
        <time>2011-03-06T11:34:52Z</time>
      </trkpt>
      <trkpt lat="43.66227" lon="3.39648">
        <ele>212.5</ele>
        <time>2011-03-06T11:34:53Z</time>
      </trkpt>
      <trkpt lat="43.66224" lon="3.39654">
        <ele>212.4</ele>
        <time>2011-03-06T11:34:54Z</time>
      </trkpt>
      <trkpt lat="43.66222" lon="3.3966">
        <ele>212.4</ele>
        <time>2011-03-06T11:34:55Z</time>
      </trkpt>
      <trkpt lat="43.66219" lon="3.39667">
        <ele>212.4</ele>
        <time>2011-03-06T11:34:56Z</time>
      </trkpt>
      <trkpt lat="43.66217" lon="3.39674">
        <ele>212.9</ele>
        <time>2011-03-06T11:34:57Z</time>
      </trkpt>
      <trkpt lat="43.66214" lon="3.3968">
        <ele>213.3</ele>
        <time>2011-03-06T11:34:58Z</time>
      </trkpt>
      <trkpt lat="43.6621" lon="3.39685">
        <ele>213.6</ele>
        <time>2011-03-06T11:34:59Z</time>
      </trkpt>
      <trkpt lat="43.66207" lon="3.39689">
        <ele>213.6</ele>
        <time>2011-03-06T11:35:00Z</time>
      </trkpt>
      <trkpt lat="43.66199" lon="3.39696">
        <ele>213.5</ele>
        <time>2011-03-06T11:35:02Z</time>
      </trkpt>
      <trkpt lat="43.66192" lon="3.39702">
        <ele>213.4</ele>
        <time>2011-03-06T11:35:04Z</time>
      </trkpt>
      <trkpt lat="43.66189" lon="3.39705">
        <ele>213.6</ele>
        <time>2011-03-06T11:35:05Z</time>
      </trkpt>
      <trkpt lat="43.66177" lon="3.39714">
        <ele>213.7</ele>
        <time>2011-03-06T11:35:08Z</time>
      </trkpt>
      <trkpt lat="43.66173" lon="3.39716">
        <ele>213.5</ele>
        <time>2011-03-06T11:35:09Z</time>
      </trkpt>
      <trkpt lat="43.66168" lon="3.39716">
        <ele>213.1</ele>
        <time>2011-03-06T11:35:10Z</time>
      </trkpt>
      <trkpt lat="43.66163" lon="3.39716">
        <ele>212.2</ele>
        <time>2011-03-06T11:35:11Z</time>
      </trkpt>
      <trkpt lat="43.66155" lon="3.39714">
        <ele>209.8</ele>
        <time>2011-03-06T11:35:13Z</time>
      </trkpt>
      <trkpt lat="43.66146" lon="3.39712">
        <ele>207.5</ele>
        <time>2011-03-06T11:35:15Z</time>
      </trkpt>
      <trkpt lat="43.66138" lon="3.39713">
        <ele>206</ele>
        <time>2011-03-06T11:35:17Z</time>
      </trkpt>
      <trkpt lat="43.66129" lon="3.39717">
        <ele>205.2</ele>
        <time>2011-03-06T11:35:19Z</time>
      </trkpt>
      <trkpt lat="43.66122" lon="3.39723">
        <ele>205.2</ele>
        <time>2011-03-06T11:35:21Z</time>
      </trkpt>
      <trkpt lat="43.66118" lon="3.39727">
        <ele>205.4</ele>
        <time>2011-03-06T11:35:22Z</time>
      </trkpt>
      <trkpt lat="43.66114" lon="3.39731">
        <ele>205.7</ele>
        <time>2011-03-06T11:35:23Z</time>
      </trkpt>
      <trkpt lat="43.66111" lon="3.39735">
        <ele>206.2</ele>
        <time>2011-03-06T11:35:24Z</time>
      </trkpt>
      <trkpt lat="43.66107" lon="3.3974">
        <ele>206.9</ele>
        <time>2011-03-06T11:35:25Z</time>
      </trkpt>
      <trkpt lat="43.66104" lon="3.39746">
        <ele>207.8</ele>
        <time>2011-03-06T11:35:26Z</time>
      </trkpt>
      <trkpt lat="43.66101" lon="3.39751">
        <ele>208.7</ele>
        <time>2011-03-06T11:35:27Z</time>
      </trkpt>
      <trkpt lat="43.66099" lon="3.39758">
        <ele>209.4</ele>
        <time>2011-03-06T11:35:28Z</time>
      </trkpt>
      <trkpt lat="43.66095" lon="3.39764">
        <ele>210.1</ele>
        <time>2011-03-06T11:35:29Z</time>
      </trkpt>
      <trkpt lat="43.66092" lon="3.3977">
        <ele>210.7</ele>
        <time>2011-03-06T11:35:30Z</time>
      </trkpt>
      <trkpt lat="43.66087" lon="3.39776">
        <ele>211.1</ele>
        <time>2011-03-06T11:35:31Z</time>
      </trkpt>
      <trkpt lat="43.66082" lon="3.3978">
        <ele>211.2</ele>
        <time>2011-03-06T11:35:32Z</time>
      </trkpt>
      <trkpt lat="43.66077" lon="3.39783">
        <ele>210.8</ele>
        <time>2011-03-06T11:35:33Z</time>
      </trkpt>
      <trkpt lat="43.66072" lon="3.39786">
        <ele>210.5</ele>
        <time>2011-03-06T11:35:34Z</time>
      </trkpt>
      <trkpt lat="43.66068" lon="3.39789">
        <ele>210.3</ele>
        <time>2011-03-06T11:35:35Z</time>
      </trkpt>
      <trkpt lat="43.66063" lon="3.39792">
        <ele>210.2</ele>
        <time>2011-03-06T11:35:36Z</time>
      </trkpt>
      <trkpt lat="43.66058" lon="3.39795">
        <ele>210.3</ele>
        <time>2011-03-06T11:35:37Z</time>
      </trkpt>
      <trkpt lat="43.66054" lon="3.39799">
        <ele>210.5</ele>
        <time>2011-03-06T11:35:38Z</time>
      </trkpt>
      <trkpt lat="43.6605" lon="3.39803">
        <ele>210.9</ele>
        <time>2011-03-06T11:35:39Z</time>
      </trkpt>
      <trkpt lat="43.66046" lon="3.39807">
        <ele>211.4</ele>
        <time>2011-03-06T11:35:40Z</time>
      </trkpt>
      <trkpt lat="43.66042" lon="3.39811">
        <ele>212</ele>
        <time>2011-03-06T11:35:41Z</time>
      </trkpt>
      <trkpt lat="43.66038" lon="3.39816">
        <ele>212.8</ele>
        <time>2011-03-06T11:35:42Z</time>
      </trkpt>
      <trkpt lat="43.66034" lon="3.3982">
        <ele>213.7</ele>
        <time>2011-03-06T11:35:43Z</time>
      </trkpt>
      <trkpt lat="43.6603" lon="3.39825">
        <ele>214.6</ele>
        <time>2011-03-06T11:35:44Z</time>
      </trkpt>
      <trkpt lat="43.66026" lon="3.39829">
        <ele>215.5</ele>
        <time>2011-03-06T11:35:45Z</time>
      </trkpt>
      <trkpt lat="43.66022" lon="3.39834">
        <ele>216.4</ele>
        <time>2011-03-06T11:35:46Z</time>
      </trkpt>
      <trkpt lat="43.66017" lon="3.39838">
        <ele>216.5</ele>
        <time>2011-03-06T11:35:47Z</time>
      </trkpt>
      <trkpt lat="43.66013" lon="3.39841">
        <ele>216.6</ele>
        <time>2011-03-06T11:35:48Z</time>
      </trkpt>
      <trkpt lat="43.66009" lon="3.39844">
        <ele>216.7</ele>
        <time>2011-03-06T11:35:49Z</time>
      </trkpt>
      <trkpt lat="43.66004" lon="3.39846">
        <ele>216.7</ele>
        <time>2011-03-06T11:35:50Z</time>
      </trkpt>
      <trkpt lat="43.66" lon="3.39848">
        <ele>216.5</ele>
        <time>2011-03-06T11:35:51Z</time>
      </trkpt>
      <trkpt lat="43.65995" lon="3.3985">
        <ele>216.1</ele>
        <time>2011-03-06T11:35:52Z</time>
      </trkpt>
      <trkpt lat="43.65991" lon="3.39853">
        <ele>215.8</ele>
        <time>2011-03-06T11:35:53Z</time>
      </trkpt>
      <trkpt lat="43.65986" lon="3.39855">
        <ele>215.5</ele>
        <time>2011-03-06T11:35:54Z</time>
      </trkpt>
      <trkpt lat="43.65982" lon="3.39858">
        <ele>215.3</ele>
        <time>2011-03-06T11:35:55Z</time>
      </trkpt>
      <trkpt lat="43.65978" lon="3.39861">
        <ele>215.2</ele>
        <time>2011-03-06T11:35:56Z</time>
      </trkpt>
      <trkpt lat="43.65974" lon="3.39865">
        <ele>215.2</ele>
        <time>2011-03-06T11:35:57Z</time>
      </trkpt>
      <trkpt lat="43.6597" lon="3.39868">
        <ele>215.2</ele>
        <time>2011-03-06T11:35:58Z</time>
      </trkpt>
      <trkpt lat="43.65966" lon="3.39872">
        <ele>215.3</ele>
        <time>2011-03-06T11:35:59Z</time>
      </trkpt>
      <trkpt lat="43.65962" lon="3.39876">
        <ele>215.3</ele>
        <time>2011-03-06T11:36:00Z</time>
      </trkpt>
      <trkpt lat="43.65958" lon="3.39879">
        <ele>215.2</ele>
        <time>2011-03-06T11:36:01Z</time>
      </trkpt>
      <trkpt lat="43.65954" lon="3.39882">
        <ele>215</ele>
        <time>2011-03-06T11:36:02Z</time>
      </trkpt>
      <trkpt lat="43.65949" lon="3.39884">
        <ele>214.9</ele>
        <time>2011-03-06T11:36:03Z</time>
      </trkpt>
      <trkpt lat="43.65945" lon="3.39886">
        <ele>214.7</ele>
        <time>2011-03-06T11:36:04Z</time>
      </trkpt>
      <trkpt lat="43.65937" lon="3.3989">
        <ele>214.1</ele>
        <time>2011-03-06T11:36:06Z</time>
      </trkpt>
      <trkpt lat="43.65932" lon="3.39892">
        <ele>213.9</ele>
        <time>2011-03-06T11:36:07Z</time>
      </trkpt>
      <trkpt lat="43.65921" lon="3.39901">
        <ele>214</ele>
        <time>2011-03-06T11:36:10Z</time>
      </trkpt>
      <trkpt lat="43.65914" lon="3.39907">
        <ele>214.3</ele>
        <time>2011-03-06T11:36:12Z</time>
      </trkpt>
      <trkpt lat="43.65908" lon="3.39915">
        <ele>214.4</ele>
        <time>2011-03-06T11:36:14Z</time>
      </trkpt>
      <trkpt lat="43.65902" lon="3.39924">
        <ele>213.6</ele>
        <time>2011-03-06T11:36:16Z</time>
      </trkpt>
      <trkpt lat="43.65896" lon="3.39932">
        <ele>212.6</ele>
        <time>2011-03-06T11:36:19Z</time>
      </trkpt>
      <trkpt lat="43.65892" lon="3.39941">
        <ele>211.9</ele>
        <time>2011-03-06T11:36:24Z</time>
      </trkpt>
      <trkpt lat="43.65889" lon="3.39953">
        <ele>211.9</ele>
        <time>2011-03-06T11:36:31Z</time>
      </trkpt>
      <trkpt lat="43.6589" lon="3.39961">
        <ele>212.6</ele>
        <time>2011-03-06T11:36:34Z</time>
      </trkpt>
      <trkpt lat="43.6589" lon="3.39973">
        <ele>213.1</ele>
        <time>2011-03-06T11:36:37Z</time>
      </trkpt>
      <trkpt lat="43.65891" lon="3.39982">
        <ele>213.9</ele>
        <time>2011-03-06T11:36:39Z</time>
      </trkpt>
      <trkpt lat="43.65893" lon="3.39992">
        <ele>214.9</ele>
        <time>2011-03-06T11:36:41Z</time>
      </trkpt>
      <trkpt lat="43.65895" lon="3.40002">
        <ele>216</ele>
        <time>2011-03-06T11:36:43Z</time>
      </trkpt>
      <trkpt lat="43.65897" lon="3.40013">
        <ele>215.7</ele>
        <time>2011-03-06T11:36:45Z</time>
      </trkpt>
      <trkpt lat="43.65899" lon="3.40024">
        <ele>215.6</ele>
        <time>2011-03-06T11:36:47Z</time>
      </trkpt>
      <trkpt lat="43.65902" lon="3.40035">
        <ele>215.7</ele>
        <time>2011-03-06T11:36:49Z</time>
      </trkpt>
      <trkpt lat="43.65904" lon="3.40041">
        <ele>215.8</ele>
        <time>2011-03-06T11:36:50Z</time>
      </trkpt>
      <trkpt lat="43.65906" lon="3.40047">
        <ele>215.9</ele>
        <time>2011-03-06T11:36:51Z</time>
      </trkpt>
      <trkpt lat="43.65908" lon="3.40053">
        <ele>216.2</ele>
        <time>2011-03-06T11:36:52Z</time>
      </trkpt>
      <trkpt lat="43.65911" lon="3.40058">
        <ele>216.7</ele>
        <time>2011-03-06T11:36:53Z</time>
      </trkpt>
      <trkpt lat="43.65914" lon="3.40064">
        <ele>217.3</ele>
        <time>2011-03-06T11:36:54Z</time>
      </trkpt>
      <trkpt lat="43.65917" lon="3.4007">
        <ele>217.9</ele>
        <time>2011-03-06T11:36:55Z</time>
      </trkpt>
      <trkpt lat="43.65921" lon="3.40076">
        <ele>217.9</ele>
        <time>2011-03-06T11:36:56Z</time>
      </trkpt>
      <trkpt lat="43.65925" lon="3.40082">
        <ele>218</ele>
        <time>2011-03-06T11:36:57Z</time>
      </trkpt>
      <trkpt lat="43.65929" lon="3.40088">
        <ele>217.7</ele>
        <time>2011-03-06T11:36:58Z</time>
      </trkpt>
      <trkpt lat="43.65933" lon="3.40094">
        <ele>217.4</ele>
        <time>2011-03-06T11:36:59Z</time>
      </trkpt>
      <trkpt lat="43.65938" lon="3.401">
        <ele>217.2</ele>
        <time>2011-03-06T11:37:00Z</time>
      </trkpt>
      <trkpt lat="43.65942" lon="3.40105">
        <ele>217.1</ele>
        <time>2011-03-06T11:37:01Z</time>
      </trkpt>
      <trkpt lat="43.65947" lon="3.40111">
        <ele>217</ele>
        <time>2011-03-06T11:37:02Z</time>
      </trkpt>
      <trkpt lat="43.65951" lon="3.40116">
        <ele>217.1</ele>
        <time>2011-03-06T11:37:03Z</time>
      </trkpt>
      <trkpt lat="43.65956" lon="3.40122">
        <ele>217.3</ele>
        <time>2011-03-06T11:37:04Z</time>
      </trkpt>
      <trkpt lat="43.65961" lon="3.40127">
        <ele>217.5</ele>
        <time>2011-03-06T11:37:05Z</time>
      </trkpt>
      <trkpt lat="43.65966" lon="3.40133">
        <ele>217.7</ele>
        <time>2011-03-06T11:37:06Z</time>
      </trkpt>
      <trkpt lat="43.65971" lon="3.4014">
        <ele>218</ele>
        <time>2011-03-06T11:37:07Z</time>
      </trkpt>
      <trkpt lat="43.65975" lon="3.40147">
        <ele>218.1</ele>
        <time>2011-03-06T11:37:08Z</time>
      </trkpt>
      <trkpt lat="43.65979" lon="3.40155">
        <ele>218.3</ele>
        <time>2011-03-06T11:37:09Z</time>
      </trkpt>
      <trkpt lat="43.65983" lon="3.40163">
        <ele>218.4</ele>
        <time>2011-03-06T11:37:10Z</time>
      </trkpt>
      <trkpt lat="43.65986" lon="3.40171">
        <ele>218.2</ele>
        <time>2011-03-06T11:37:11Z</time>
      </trkpt>
      <trkpt lat="43.65988" lon="3.4018">
        <ele>217.8</ele>
        <time>2011-03-06T11:37:12Z</time>
      </trkpt>
      <trkpt lat="43.6599" lon="3.40189">
        <ele>217.3</ele>
        <time>2011-03-06T11:37:13Z</time>
      </trkpt>
      <trkpt lat="43.65992" lon="3.40198">
        <ele>216.6</ele>
        <time>2011-03-06T11:37:14Z</time>
      </trkpt>
      <trkpt lat="43.65993" lon="3.40207">
        <ele>215.9</ele>
        <time>2011-03-06T11:37:15Z</time>
      </trkpt>
      <trkpt lat="43.65994" lon="3.40215">
        <ele>215.3</ele>
        <time>2011-03-06T11:37:16Z</time>
      </trkpt>
      <trkpt lat="43.65996" lon="3.40224">
        <ele>214.8</ele>
        <time>2011-03-06T11:37:17Z</time>
      </trkpt>
      <trkpt lat="43.65999" lon="3.40232">
        <ele>214.6</ele>
        <time>2011-03-06T11:37:18Z</time>
      </trkpt>
      <trkpt lat="43.66001" lon="3.4024">
        <ele>214.1</ele>
        <time>2011-03-06T11:37:19Z</time>
      </trkpt>
      <trkpt lat="43.66003" lon="3.40249">
        <ele>213.6</ele>
        <time>2011-03-06T11:37:20Z</time>
      </trkpt>
      <trkpt lat="43.66006" lon="3.40257">
        <ele>213.5</ele>
        <time>2011-03-06T11:37:21Z</time>
      </trkpt>
      <trkpt lat="43.66009" lon="3.40265">
        <ele>213.4</ele>
        <time>2011-03-06T11:37:22Z</time>
      </trkpt>
      <trkpt lat="43.66012" lon="3.40273">
        <ele>213.2</ele>
        <time>2011-03-06T11:37:23Z</time>
      </trkpt>
      <trkpt lat="43.66014" lon="3.40282">
        <ele>213.1</ele>
        <time>2011-03-06T11:37:24Z</time>
      </trkpt>
      <trkpt lat="43.66016" lon="3.4029">
        <ele>212.9</ele>
        <time>2011-03-06T11:37:25Z</time>
      </trkpt>
      <trkpt lat="43.66018" lon="3.40299">
        <ele>212.7</ele>
        <time>2011-03-06T11:37:26Z</time>
      </trkpt>
      <trkpt lat="43.6602" lon="3.40308">
        <ele>212.4</ele>
        <time>2011-03-06T11:37:27Z</time>
      </trkpt>
      <trkpt lat="43.66021" lon="3.40317">
        <ele>212</ele>
        <time>2011-03-06T11:37:28Z</time>
      </trkpt>
      <trkpt lat="43.66021" lon="3.40326">
        <ele>211.5</ele>
        <time>2011-03-06T11:37:29Z</time>
      </trkpt>
      <trkpt lat="43.66022" lon="3.40336">
        <ele>211.1</ele>
        <time>2011-03-06T11:37:30Z</time>
      </trkpt>
      <trkpt lat="43.66022" lon="3.40345">
        <ele>210.6</ele>
        <time>2011-03-06T11:37:31Z</time>
      </trkpt>
      <trkpt lat="43.66022" lon="3.40354">
        <ele>210.1</ele>
        <time>2011-03-06T11:37:32Z</time>
      </trkpt>
      <trkpt lat="43.66023" lon="3.40363">
        <ele>209.6</ele>
        <time>2011-03-06T11:37:33Z</time>
      </trkpt>
      <trkpt lat="43.66023" lon="3.40373">
        <ele>209.2</ele>
        <time>2011-03-06T11:37:34Z</time>
      </trkpt>
      <trkpt lat="43.66024" lon="3.40382">
        <ele>208.8</ele>
        <time>2011-03-06T11:37:35Z</time>
      </trkpt>
      <trkpt lat="43.66026" lon="3.4039">
        <ele>208.6</ele>
        <time>2011-03-06T11:37:36Z</time>
      </trkpt>
      <trkpt lat="43.66027" lon="3.40399">
        <ele>208.4</ele>
        <time>2011-03-06T11:37:37Z</time>
      </trkpt>
      <trkpt lat="43.66029" lon="3.40408">
        <ele>208.1</ele>
        <time>2011-03-06T11:37:38Z</time>
      </trkpt>
      <trkpt lat="43.66031" lon="3.40417">
        <ele>207.9</ele>
        <time>2011-03-06T11:37:39Z</time>
      </trkpt>
      <trkpt lat="43.66034" lon="3.40425">
        <ele>207.5</ele>
        <time>2011-03-06T11:37:40Z</time>
      </trkpt>
      <trkpt lat="43.66037" lon="3.40432">
        <ele>207.4</ele>
        <time>2011-03-06T11:37:41Z</time>
      </trkpt>
      <trkpt lat="43.6604" lon="3.4044">
        <ele>207.1</ele>
        <time>2011-03-06T11:37:42Z</time>
      </trkpt>
      <trkpt lat="43.66043" lon="3.40448">
        <ele>207</ele>
        <time>2011-03-06T11:37:43Z</time>
      </trkpt>
      <trkpt lat="43.66047" lon="3.40455">
        <ele>207</ele>
        <time>2011-03-06T11:37:44Z</time>
      </trkpt>
      <trkpt lat="43.66052" lon="3.40461">
        <ele>207.3</ele>
        <time>2011-03-06T11:37:45Z</time>
      </trkpt>
      <trkpt lat="43.66057" lon="3.40466">
        <ele>207.8</ele>
        <time>2011-03-06T11:37:46Z</time>
      </trkpt>
      <trkpt lat="43.66063" lon="3.4047">
        <ele>208.5</ele>
        <time>2011-03-06T11:37:47Z</time>
      </trkpt>
      <trkpt lat="43.66068" lon="3.40473">
        <ele>209.4</ele>
        <time>2011-03-06T11:37:48Z</time>
      </trkpt>
      <trkpt lat="43.66074" lon="3.40474">
        <ele>210.4</ele>
        <time>2011-03-06T11:37:49Z</time>
      </trkpt>
      <trkpt lat="43.66082" lon="3.40473">
        <ele>212.2</ele>
        <time>2011-03-06T11:37:51Z</time>
      </trkpt>
      <trkpt lat="43.6609" lon="3.40477">
        <ele>211.3</ele>
        <time>2011-03-06T11:38:09Z</time>
      </trkpt>
      <trkpt lat="43.66091" lon="3.40489">
        <ele>209.9</ele>
        <time>2011-03-06T11:38:13Z</time>
      </trkpt>
      <trkpt lat="43.66091" lon="3.40493">
        <ele>209.6</ele>
        <time>2011-03-06T11:38:14Z</time>
      </trkpt>
      <trkpt lat="43.66092" lon="3.40511">
        <ele>205.5</ele>
        <time>2011-03-06T11:38:19Z</time>
      </trkpt>
      <trkpt lat="43.66091" lon="3.40521">
        <ele>203.1</ele>
        <time>2011-03-06T11:38:21Z</time>
      </trkpt>
      <trkpt lat="43.66087" lon="3.4053">
        <ele>201.2</ele>
        <time>2011-03-06T11:38:23Z</time>
      </trkpt>
      <trkpt lat="43.66082" lon="3.40535">
        <ele>199.9</ele>
        <time>2011-03-06T11:38:25Z</time>
      </trkpt>
      <trkpt lat="43.66076" lon="3.40542">
        <ele>197.2</ele>
        <time>2011-03-06T11:38:28Z</time>
      </trkpt>
      <trkpt lat="43.66068" lon="3.40546">
        <ele>194.9</ele>
        <time>2011-03-06T11:38:31Z</time>
      </trkpt>
      <trkpt lat="43.66062" lon="3.40542">
        <ele>194.9</ele>
        <time>2011-03-06T11:38:33Z</time>
      </trkpt>
      <trkpt lat="43.66055" lon="3.40535">
        <ele>195.6</ele>
        <time>2011-03-06T11:38:37Z</time>
      </trkpt>
      <trkpt lat="43.66048" lon="3.40531">
        <ele>195.2</ele>
        <time>2011-03-06T11:38:43Z</time>
      </trkpt>
      <trkpt lat="43.66041" lon="3.40527">
        <ele>195</ele>
        <time>2011-03-06T11:38:48Z</time>
      </trkpt>
      <trkpt lat="43.66036" lon="3.40521">
        <ele>195.2</ele>
        <time>2011-03-06T11:38:51Z</time>
      </trkpt>
      <trkpt lat="43.66031" lon="3.40512">
        <ele>196.2</ele>
        <time>2011-03-06T11:38:54Z</time>
      </trkpt>
      <trkpt lat="43.66026" lon="3.40503">
        <ele>197</ele>
        <time>2011-03-06T11:38:57Z</time>
      </trkpt>
      <trkpt lat="43.66021" lon="3.40496">
        <ele>196.9</ele>
        <time>2011-03-06T11:39:00Z</time>
      </trkpt>
      <trkpt lat="43.66017" lon="3.40507">
        <ele>194.4</ele>
        <time>2011-03-06T11:39:15Z</time>
      </trkpt>
      <trkpt lat="43.66017" lon="3.4051">
        <ele>193.7</ele>
        <time>2011-03-06T11:39:16Z</time>
      </trkpt>
      <trkpt lat="43.66011" lon="3.40525">
        <ele>189.7</ele>
        <time>2011-03-06T11:39:23Z</time>
      </trkpt>
      <trkpt lat="43.66009" lon="3.40534">
        <ele>187.8</ele>
        <time>2011-03-06T11:39:26Z</time>
      </trkpt>
      <trkpt lat="43.66008" lon="3.40547">
        <ele>185.4</ele>
        <time>2011-03-06T11:39:32Z</time>
      </trkpt>
      <trkpt lat="43.66003" lon="3.40555">
        <ele>183.1</ele>
        <time>2011-03-06T11:39:46Z</time>
      </trkpt>
      <trkpt lat="43.65995" lon="3.40557">
        <ele>180.6</ele>
        <time>2011-03-06T11:39:51Z</time>
      </trkpt>
      <trkpt lat="43.65987" lon="3.40561">
        <ele>177.1</ele>
        <time>2011-03-06T11:40:05Z</time>
      </trkpt>
      <trkpt lat="43.65985" lon="3.40571">
        <ele>174.9</ele>
        <time>2011-03-06T11:40:09Z</time>
      </trkpt>
      <trkpt lat="43.65981" lon="3.40579">
        <ele>172</ele>
        <time>2011-03-06T11:40:13Z</time>
      </trkpt>
      <trkpt lat="43.65978" lon="3.40589">
        <ele>169.1</ele>
        <time>2011-03-06T11:40:17Z</time>
      </trkpt>
      <trkpt lat="43.65977" lon="3.40592">
        <ele>168</ele>
        <time>2011-03-06T11:40:18Z</time>
      </trkpt>
      <trkpt lat="43.65977" lon="3.4061">
        <ele>164</ele>
        <time>2011-03-06T11:40:24Z</time>
      </trkpt>
      <trkpt lat="43.65973" lon="3.40621">
        <ele>160.4</ele>
        <time>2011-03-06T11:40:43Z</time>
      </trkpt>
      <trkpt lat="43.65973" lon="3.40629">
        <ele>158.6</ele>
        <time>2011-03-06T11:40:46Z</time>
      </trkpt>
      <trkpt lat="43.65978" lon="3.40638">
        <ele>157.9</ele>
        <time>2011-03-06T11:40:49Z</time>
      </trkpt>
      <trkpt lat="43.65984" lon="3.40648">
        <ele>157.2</ele>
        <time>2011-03-06T11:40:54Z</time>
      </trkpt>
      <trkpt lat="43.65989" lon="3.40657">
        <ele>156.5</ele>
        <time>2011-03-06T11:40:59Z</time>
      </trkpt>
      <trkpt lat="43.65994" lon="3.40663">
        <ele>156.4</ele>
        <time>2011-03-06T11:41:01Z</time>
      </trkpt>
      <trkpt lat="43.66" lon="3.40668">
        <ele>156.5</ele>
        <time>2011-03-06T11:41:03Z</time>
      </trkpt>
      <trkpt lat="43.66006" lon="3.40673">
        <ele>155.9</ele>
        <time>2011-03-06T11:41:05Z</time>
      </trkpt>
      <trkpt lat="43.66013" lon="3.40679">
        <ele>155</ele>
        <time>2011-03-06T11:41:08Z</time>
      </trkpt>
      <trkpt lat="43.66015" lon="3.40689">
        <ele>152.7</ele>
        <time>2011-03-06T11:41:11Z</time>
      </trkpt>
      <trkpt lat="43.66023" lon="3.40695">
        <ele>151.9</ele>
        <time>2011-03-06T11:41:14Z</time>
      </trkpt>
      <trkpt lat="43.66028" lon="3.407">
        <ele>151</ele>
        <time>2011-03-06T11:41:16Z</time>
      </trkpt>
      <trkpt lat="43.66034" lon="3.4071">
        <ele>149.1</ele>
        <time>2011-03-06T11:41:19Z</time>
      </trkpt>
      <trkpt lat="43.66034" lon="3.40714">
        <ele>148</ele>
        <time>2011-03-06T11:41:20Z</time>
      </trkpt>
      <trkpt lat="43.66034" lon="3.40731">
        <ele>144.1</ele>
        <time>2011-03-06T11:41:24Z</time>
      </trkpt>
      <trkpt lat="43.66039" lon="3.40741">
        <ele>142.1</ele>
        <time>2011-03-06T11:41:27Z</time>
      </trkpt>
      <trkpt lat="43.66042" lon="3.40746">
        <ele>141</ele>
        <time>2011-03-06T11:41:28Z</time>
      </trkpt>
      <trkpt lat="43.66044" lon="3.40752">
        <ele>139.9</ele>
        <time>2011-03-06T11:41:29Z</time>
      </trkpt>
      <trkpt lat="43.66047" lon="3.40763">
        <ele>138.1</ele>
        <time>2011-03-06T11:41:31Z</time>
      </trkpt>
      <trkpt lat="43.66048" lon="3.40775">
        <ele>136.3</ele>
        <time>2011-03-06T11:41:33Z</time>
      </trkpt>
      <trkpt lat="43.66046" lon="3.40787">
        <ele>134.2</ele>
        <time>2011-03-06T11:41:35Z</time>
      </trkpt>
      <trkpt lat="43.66045" lon="3.40799">
        <ele>132</ele>
        <time>2011-03-06T11:41:37Z</time>
      </trkpt>
      <trkpt lat="43.66043" lon="3.4081">
        <ele>130</ele>
        <time>2011-03-06T11:41:39Z</time>
      </trkpt>
      <trkpt lat="43.66038" lon="3.40821">
        <ele>127.8</ele>
        <time>2011-03-06T11:41:42Z</time>
      </trkpt>
      <trkpt lat="43.66037" lon="3.40828">
        <ele>126.4</ele>
        <time>2011-03-06T11:41:44Z</time>
      </trkpt>
      <trkpt lat="43.66037" lon="3.40839">
        <ele>124.7</ele>
        <time>2011-03-06T11:41:46Z</time>
      </trkpt>
      <trkpt lat="43.66033" lon="3.40847">
        <ele>123.3</ele>
        <time>2011-03-06T11:41:48Z</time>
      </trkpt>
      <trkpt lat="43.66027" lon="3.40854">
        <ele>121.7</ele>
        <time>2011-03-06T11:41:50Z</time>
      </trkpt>
      <trkpt lat="43.66023" lon="3.40863">
        <ele>120.1</ele>
        <time>2011-03-06T11:41:52Z</time>
      </trkpt>
      <trkpt lat="43.66016" lon="3.40862">
        <ele>119.6</ele>
        <time>2011-03-06T11:41:55Z</time>
      </trkpt>
      <trkpt lat="43.66008" lon="3.40863">
        <ele>118.8</ele>
        <time>2011-03-06T11:41:58Z</time>
      </trkpt>
      <trkpt lat="43.66005" lon="3.40854">
        <ele>119.7</ele>
        <time>2011-03-06T11:42:02Z</time>
      </trkpt>
      <trkpt lat="43.66005" lon="3.40844">
        <ele>121</ele>
        <time>2011-03-06T11:42:04Z</time>
      </trkpt>
      <trkpt lat="43.66006" lon="3.40833">
        <ele>122.5</ele>
        <time>2011-03-06T11:42:06Z</time>
      </trkpt>
      <trkpt lat="43.66" lon="3.40827">
        <ele>123.2</ele>
        <time>2011-03-06T11:42:10Z</time>
      </trkpt>
      <trkpt lat="43.65993" lon="3.40831">
        <ele>121.9</ele>
        <time>2011-03-06T11:42:13Z</time>
      </trkpt>
      <trkpt lat="43.65984" lon="3.40833">
        <ele>120.8</ele>
        <time>2011-03-06T11:42:18Z</time>
      </trkpt>
      <trkpt lat="43.65976" lon="3.4083">
        <ele>120.6</ele>
        <time>2011-03-06T11:45:42Z</time>
      </trkpt>
      <trkpt lat="43.65974" lon="3.40829">
        <ele>120.5</ele>
        <time>2011-03-06T11:45:43Z</time>
      </trkpt>
      <trkpt lat="43.65962" lon="3.40823">
        <ele>120.2</ele>
        <time>2011-03-06T11:45:49Z</time>
      </trkpt>
      <trkpt lat="43.65956" lon="3.40815">
        <ele>120.7</ele>
        <time>2011-03-06T11:45:52Z</time>
      </trkpt>
      <trkpt lat="43.65952" lon="3.40805">
        <ele>121.7</ele>
        <time>2011-03-06T11:45:55Z</time>
      </trkpt>
      <trkpt lat="43.6595" lon="3.40795">
        <ele>122.7</ele>
        <time>2011-03-06T11:45:58Z</time>
      </trkpt>
      <trkpt lat="43.65947" lon="3.40786">
        <ele>123.6</ele>
        <time>2011-03-06T11:46:01Z</time>
      </trkpt>
      <trkpt lat="43.65944" lon="3.40776">
        <ele>124.4</ele>
        <time>2011-03-06T11:46:04Z</time>
      </trkpt>
      <trkpt lat="43.65938" lon="3.40766">
        <ele>124.7</ele>
        <time>2011-03-06T11:46:08Z</time>
      </trkpt>
      <trkpt lat="43.65934" lon="3.40758">
        <ele>124.9</ele>
        <time>2011-03-06T11:46:11Z</time>
      </trkpt>
      <trkpt lat="43.65928" lon="3.40749">
        <ele>125.1</ele>
        <time>2011-03-06T11:46:14Z</time>
      </trkpt>
      <trkpt lat="43.65924" lon="3.4074">
        <ele>125.9</ele>
        <time>2011-03-06T11:46:17Z</time>
      </trkpt>
      <trkpt lat="43.65921" lon="3.4073">
        <ele>127</ele>
        <time>2011-03-06T11:46:20Z</time>
      </trkpt>
      <trkpt lat="43.65919" lon="3.40719">
        <ele>128.3</ele>
        <time>2011-03-06T11:46:23Z</time>
      </trkpt>
      <trkpt lat="43.65918" lon="3.40709">
        <ele>129.6</ele>
        <time>2011-03-06T11:46:26Z</time>
      </trkpt>
      <trkpt lat="43.65917" lon="3.40697">
        <ele>131.3</ele>
        <time>2011-03-06T11:46:29Z</time>
      </trkpt>
      <trkpt lat="43.65915" lon="3.40686">
        <ele>132.6</ele>
        <time>2011-03-06T11:46:32Z</time>
      </trkpt>
      <trkpt lat="43.65911" lon="3.40676">
        <ele>133.4</ele>
        <time>2011-03-06T11:46:35Z</time>
      </trkpt>
      <trkpt lat="43.65907" lon="3.40668">
        <ele>133.8</ele>
        <time>2011-03-06T11:46:38Z</time>
      </trkpt>
      <trkpt lat="43.65901" lon="3.40659">
        <ele>133.9</ele>
        <time>2011-03-06T11:46:42Z</time>
      </trkpt>
      <trkpt lat="43.65894" lon="3.40651">
        <ele>133.7</ele>
        <time>2011-03-06T11:46:46Z</time>
      </trkpt>
      <trkpt lat="43.65893" lon="3.40649">
        <ele>133.6</ele>
        <time>2011-03-06T11:46:47Z</time>
      </trkpt>
      <trkpt lat="43.65881" lon="3.40636">
        <ele>132.9</ele>
        <time>2011-03-06T11:46:54Z</time>
      </trkpt>
      <trkpt lat="43.65874" lon="3.4063">
        <ele>132</ele>
        <time>2011-03-06T11:46:58Z</time>
      </trkpt>
      <trkpt lat="43.65868" lon="3.40622">
        <ele>131.8</ele>
        <time>2011-03-06T11:47:02Z</time>
      </trkpt>
      <trkpt lat="43.65866" lon="3.4061">
        <ele>132.8</ele>
        <time>2011-03-06T11:47:06Z</time>
      </trkpt>
      <trkpt lat="43.65867" lon="3.40599">
        <ele>134.4</ele>
        <time>2011-03-06T11:47:10Z</time>
      </trkpt>
      <trkpt lat="43.65867" lon="3.40587">
        <ele>135.9</ele>
        <time>2011-03-06T11:47:14Z</time>
      </trkpt>
      <trkpt lat="43.65867" lon="3.40576">
        <ele>136.9</ele>
        <time>2011-03-06T11:47:18Z</time>
      </trkpt>
      <trkpt lat="43.65867" lon="3.40564">
        <ele>137.5</ele>
        <time>2011-03-06T11:47:22Z</time>
      </trkpt>
      <trkpt lat="43.65865" lon="3.40553">
        <ele>137.6</ele>
        <time>2011-03-06T11:47:26Z</time>
      </trkpt>
      <trkpt lat="43.65864" lon="3.40541">
        <ele>137.9</ele>
        <time>2011-03-06T11:47:30Z</time>
      </trkpt>
      <trkpt lat="43.65863" lon="3.40532">
        <ele>138.2</ele>
        <time>2011-03-06T11:47:33Z</time>
      </trkpt>
      <trkpt lat="43.65863" lon="3.40522">
        <ele>138.5</ele>
        <time>2011-03-06T11:47:36Z</time>
      </trkpt>
      <trkpt lat="43.65862" lon="3.40512">
        <ele>138.6</ele>
        <time>2011-03-06T11:47:39Z</time>
      </trkpt>
      <trkpt lat="43.65861" lon="3.40501">
        <ele>138.7</ele>
        <time>2011-03-06T11:47:42Z</time>
      </trkpt>
      <trkpt lat="43.6586" lon="3.40491">
        <ele>139.2</ele>
        <time>2011-03-06T11:47:45Z</time>
      </trkpt>
      <trkpt lat="43.65859" lon="3.4048">
        <ele>139.8</ele>
        <time>2011-03-06T11:47:48Z</time>
      </trkpt>
      <trkpt lat="43.65859" lon="3.40476">
        <ele>140</ele>
        <time>2011-03-06T11:47:49Z</time>
      </trkpt>
      <trkpt lat="43.65858" lon="3.40457">
        <ele>141.2</ele>
        <time>2011-03-06T11:47:54Z</time>
      </trkpt>
      <trkpt lat="43.65857" lon="3.40445">
        <ele>141.7</ele>
        <time>2011-03-06T11:47:57Z</time>
      </trkpt>
      <trkpt lat="43.65857" lon="3.40433">
        <ele>142.5</ele>
        <time>2011-03-06T11:48:00Z</time>
      </trkpt>
      <trkpt lat="43.65856" lon="3.40421">
        <ele>143</ele>
        <time>2011-03-06T11:48:03Z</time>
      </trkpt>
      <trkpt lat="43.65855" lon="3.4041">
        <ele>143.7</ele>
        <time>2011-03-06T11:48:06Z</time>
      </trkpt>
      <trkpt lat="43.65853" lon="3.40398">
        <ele>144.5</ele>
        <time>2011-03-06T11:48:09Z</time>
      </trkpt>
      <trkpt lat="43.65851" lon="3.40386">
        <ele>145</ele>
        <time>2011-03-06T11:48:12Z</time>
      </trkpt>
      <trkpt lat="43.65848" lon="3.40374">
        <ele>145</ele>
        <time>2011-03-06T11:48:15Z</time>
      </trkpt>
      <trkpt lat="43.65846" lon="3.40367">
        <ele>144.9</ele>
        <time>2011-03-06T11:48:17Z</time>
      </trkpt>
      <trkpt lat="43.65844" lon="3.40358">
        <ele>145</ele>
        <time>2011-03-06T11:48:19Z</time>
      </trkpt>
      <trkpt lat="43.65841" lon="3.40347">
        <ele>144.7</ele>
        <time>2011-03-06T11:48:22Z</time>
      </trkpt>
      <trkpt lat="43.65837" lon="3.40336">
        <ele>144.4</ele>
        <time>2011-03-06T11:48:25Z</time>
      </trkpt>
      <trkpt lat="43.65835" lon="3.40325">
        <ele>145.3</ele>
        <time>2011-03-06T11:48:28Z</time>
      </trkpt>
      <trkpt lat="43.65833" lon="3.40313">
        <ele>146.9</ele>
        <time>2011-03-06T11:48:31Z</time>
      </trkpt>
      <trkpt lat="43.65831" lon="3.40302">
        <ele>148</ele>
        <time>2011-03-06T11:48:34Z</time>
      </trkpt>
      <trkpt lat="43.65829" lon="3.40291">
        <ele>148.9</ele>
        <time>2011-03-06T11:48:37Z</time>
      </trkpt>
      <trkpt lat="43.65826" lon="3.4028">
        <ele>149.9</ele>
        <time>2011-03-06T11:48:40Z</time>
      </trkpt>
      <trkpt lat="43.65823" lon="3.40268">
        <ele>150.6</ele>
        <time>2011-03-06T11:48:43Z</time>
      </trkpt>
      <trkpt lat="43.65819" lon="3.40258">
        <ele>150.9</ele>
        <time>2011-03-06T11:48:46Z</time>
      </trkpt>
      <trkpt lat="43.65816" lon="3.40247">
        <ele>151.5</ele>
        <time>2011-03-06T11:48:49Z</time>
      </trkpt>
      <trkpt lat="43.65813" lon="3.40237">
        <ele>152.2</ele>
        <time>2011-03-06T11:48:52Z</time>
      </trkpt>
      <trkpt lat="43.65812" lon="3.40233">
        <ele>152.5</ele>
        <time>2011-03-06T11:48:53Z</time>
      </trkpt>
      <trkpt lat="43.65806" lon="3.40214">
        <ele>154</ele>
        <time>2011-03-06T11:48:58Z</time>
      </trkpt>
      <trkpt lat="43.65804" lon="3.40206">
        <ele>154.8</ele>
        <time>2011-03-06T11:49:00Z</time>
      </trkpt>
      <trkpt lat="43.65802" lon="3.40198">
        <ele>155.5</ele>
        <time>2011-03-06T11:49:02Z</time>
      </trkpt>
      <trkpt lat="43.658" lon="3.40189">
        <ele>156.3</ele>
        <time>2011-03-06T11:49:04Z</time>
      </trkpt>
      <trkpt lat="43.65797" lon="3.40181">
        <ele>156.9</ele>
        <time>2011-03-06T11:49:06Z</time>
      </trkpt>
      <trkpt lat="43.65794" lon="3.40174">
        <ele>157.1</ele>
        <time>2011-03-06T11:49:08Z</time>
      </trkpt>
      <trkpt lat="43.6579" lon="3.40167">
        <ele>156.9</ele>
        <time>2011-03-06T11:49:10Z</time>
      </trkpt>
      <trkpt lat="43.65786" lon="3.40159">
        <ele>156.4</ele>
        <time>2011-03-06T11:49:12Z</time>
      </trkpt>
      <trkpt lat="43.65782" lon="3.40152">
        <ele>156.1</ele>
        <time>2011-03-06T11:49:14Z</time>
      </trkpt>
      <trkpt lat="43.65779" lon="3.40143">
        <ele>155.9</ele>
        <time>2011-03-06T11:49:16Z</time>
      </trkpt>
      <trkpt lat="43.65775" lon="3.40135">
        <ele>155.8</ele>
        <time>2011-03-06T11:49:18Z</time>
      </trkpt>
      <trkpt lat="43.65772" lon="3.40126">
        <ele>155.8</ele>
        <time>2011-03-06T11:49:20Z</time>
      </trkpt>
      <trkpt lat="43.65769" lon="3.40117">
        <ele>155.9</ele>
        <time>2011-03-06T11:49:22Z</time>
      </trkpt>
      <trkpt lat="43.65766" lon="3.40108">
        <ele>156.3</ele>
        <time>2011-03-06T11:49:24Z</time>
      </trkpt>
      <trkpt lat="43.65764" lon="3.40098">
        <ele>157</ele>
        <time>2011-03-06T11:49:26Z</time>
      </trkpt>
      <trkpt lat="43.65762" lon="3.40087">
        <ele>157.9</ele>
        <time>2011-03-06T11:49:28Z</time>
      </trkpt>
      <trkpt lat="43.6576" lon="3.40077">
        <ele>158.3</ele>
        <time>2011-03-06T11:49:30Z</time>
      </trkpt>
      <trkpt lat="43.65758" lon="3.40067">
        <ele>158.7</ele>
        <time>2011-03-06T11:49:32Z</time>
      </trkpt>
      <trkpt lat="43.65755" lon="3.40057">
        <ele>158.8</ele>
        <time>2011-03-06T11:49:34Z</time>
      </trkpt>
      <trkpt lat="43.65751" lon="3.40049">
        <ele>158.5</ele>
        <time>2011-03-06T11:49:36Z</time>
      </trkpt>
      <trkpt lat="43.65747" lon="3.40041">
        <ele>158.4</ele>
        <time>2011-03-06T11:49:38Z</time>
      </trkpt>
      <trkpt lat="43.65743" lon="3.40034">
        <ele>158.6</ele>
        <time>2011-03-06T11:49:40Z</time>
      </trkpt>
      <trkpt lat="43.6574" lon="3.40025">
        <ele>158.8</ele>
        <time>2011-03-06T11:49:42Z</time>
      </trkpt>
      <trkpt lat="43.65736" lon="3.40015">
        <ele>159.2</ele>
        <time>2011-03-06T11:49:44Z</time>
      </trkpt>
      <trkpt lat="43.65733" lon="3.40006">
        <ele>159.5</ele>
        <time>2011-03-06T11:49:46Z</time>
      </trkpt>
      <trkpt lat="43.6573" lon="3.39997">
        <ele>159.6</ele>
        <time>2011-03-06T11:49:48Z</time>
      </trkpt>
      <trkpt lat="43.65728" lon="3.39988">
        <ele>159.1</ele>
        <time>2011-03-06T11:49:50Z</time>
      </trkpt>
      <trkpt lat="43.65725" lon="3.39978">
        <ele>158.8</ele>
        <time>2011-03-06T11:49:52Z</time>
      </trkpt>
      <trkpt lat="43.65724" lon="3.39967">
        <ele>158.6</ele>
        <time>2011-03-06T11:49:54Z</time>
      </trkpt>
      <trkpt lat="43.65723" lon="3.39963">
        <ele>158.5</ele>
        <time>2011-03-06T11:49:55Z</time>
      </trkpt>
      <trkpt lat="43.65718" lon="3.39948">
        <ele>157.8</ele>
        <time>2011-03-06T11:50:01Z</time>
      </trkpt>
      <trkpt lat="43.65716" lon="3.3994">
        <ele>157.4</ele>
        <time>2011-03-06T11:50:03Z</time>
      </trkpt>
      <trkpt lat="43.65713" lon="3.3993">
        <ele>156.9</ele>
        <time>2011-03-06T11:50:05Z</time>
      </trkpt>
      <trkpt lat="43.6571" lon="3.39921">
        <ele>156.2</ele>
        <time>2011-03-06T11:50:07Z</time>
      </trkpt>
      <trkpt lat="43.65705" lon="3.39912">
        <ele>155.2</ele>
        <time>2011-03-06T11:50:09Z</time>
      </trkpt>
      <trkpt lat="43.65701" lon="3.39904">
        <ele>154.1</ele>
        <time>2011-03-06T11:50:11Z</time>
      </trkpt>
      <trkpt lat="43.65693" lon="3.39904">
        <ele>152.1</ele>
        <time>2011-03-06T11:50:15Z</time>
      </trkpt>
      <trkpt lat="43.65693" lon="3.39912">
        <ele>151.9</ele>
        <time>2011-03-06T11:50:17Z</time>
      </trkpt>
      <trkpt lat="43.65696" lon="3.39921">
        <ele>152.5</ele>
        <time>2011-03-06T11:50:19Z</time>
      </trkpt>
      <trkpt lat="43.65699" lon="3.39929">
        <ele>153.1</ele>
        <time>2011-03-06T11:50:21Z</time>
      </trkpt>
      <trkpt lat="43.65702" lon="3.39937">
        <ele>153.7</ele>
        <time>2011-03-06T11:50:23Z</time>
      </trkpt>
      <trkpt lat="43.65705" lon="3.39946">
        <ele>154.1</ele>
        <time>2011-03-06T11:50:25Z</time>
      </trkpt>
      <trkpt lat="43.65706" lon="3.39957">
        <ele>154.3</ele>
        <time>2011-03-06T11:50:27Z</time>
      </trkpt>
      <trkpt lat="43.65708" lon="3.39967">
        <ele>154.4</ele>
        <time>2011-03-06T11:50:29Z</time>
      </trkpt>
      <trkpt lat="43.65711" lon="3.39979">
        <ele>154.7</ele>
        <time>2011-03-06T11:50:31Z</time>
      </trkpt>
      <trkpt lat="43.65711" lon="3.39985">
        <ele>154.7</ele>
        <time>2011-03-06T11:50:32Z</time>
      </trkpt>
      <trkpt lat="43.65712" lon="3.39993">
        <ele>154.7</ele>
        <time>2011-03-06T11:50:33Z</time>
      </trkpt>
      <trkpt lat="43.65713" lon="3.4">
        <ele>154.7</ele>
        <time>2011-03-06T11:50:34Z</time>
      </trkpt>
      <trkpt lat="43.65714" lon="3.40009">
        <ele>154.1</ele>
        <time>2011-03-06T11:50:35Z</time>
      </trkpt>
      <trkpt lat="43.65714" lon="3.40018">
        <ele>153.1</ele>
        <time>2011-03-06T11:50:36Z</time>
      </trkpt>
      <trkpt lat="43.65713" lon="3.40028">
        <ele>151.8</ele>
        <time>2011-03-06T11:50:37Z</time>
      </trkpt>
      <trkpt lat="43.6571" lon="3.40037">
        <ele>150</ele>
        <time>2011-03-06T11:50:38Z</time>
      </trkpt>
      <trkpt lat="43.65705" lon="3.40045">
        <ele>148.1</ele>
        <time>2011-03-06T11:50:39Z</time>
      </trkpt>
      <trkpt lat="43.657" lon="3.40053">
        <ele>146.3</ele>
        <time>2011-03-06T11:50:40Z</time>
      </trkpt>
      <trkpt lat="43.65696" lon="3.4006">
        <ele>144.7</ele>
        <time>2011-03-06T11:50:41Z</time>
      </trkpt>
      <trkpt lat="43.65691" lon="3.40067">
        <ele>143.1</ele>
        <time>2011-03-06T11:50:42Z</time>
      </trkpt>
      <trkpt lat="43.65687" lon="3.40073">
        <ele>141.7</ele>
        <time>2011-03-06T11:50:43Z</time>
      </trkpt>
      <trkpt lat="43.65683" lon="3.40079">
        <ele>140.4</ele>
        <time>2011-03-06T11:50:44Z</time>
      </trkpt>
      <trkpt lat="43.65679" lon="3.40085">
        <ele>139</ele>
        <time>2011-03-06T11:50:45Z</time>
      </trkpt>
      <trkpt lat="43.65675" lon="3.4009">
        <ele>137.2</ele>
        <time>2011-03-06T11:50:46Z</time>
      </trkpt>
      <trkpt lat="43.65671" lon="3.40095">
        <ele>135.4</ele>
        <time>2011-03-06T11:50:47Z</time>
      </trkpt>
      <trkpt lat="43.65668" lon="3.401">
        <ele>133.8</ele>
        <time>2011-03-06T11:50:48Z</time>
      </trkpt>
      <trkpt lat="43.65664" lon="3.40105">
        <ele>132.7</ele>
        <time>2011-03-06T11:50:49Z</time>
      </trkpt>
      <trkpt lat="43.65658" lon="3.40114">
        <ele>131.5</ele>
        <time>2011-03-06T11:50:51Z</time>
      </trkpt>
      <trkpt lat="43.65652" lon="3.40122">
        <ele>130.5</ele>
        <time>2011-03-06T11:50:53Z</time>
      </trkpt>
      <trkpt lat="43.65646" lon="3.40131">
        <ele>129.7</ele>
        <time>2011-03-06T11:50:55Z</time>
      </trkpt>
      <trkpt lat="43.65642" lon="3.40136">
        <ele>129.4</ele>
        <time>2011-03-06T11:50:56Z</time>
      </trkpt>
      <trkpt lat="43.65639" lon="3.4014">
        <ele>129.3</ele>
        <time>2011-03-06T11:50:57Z</time>
      </trkpt>
      <trkpt lat="43.65636" lon="3.40145">
        <ele>129.1</ele>
        <time>2011-03-06T11:50:58Z</time>
      </trkpt>
      <trkpt lat="43.65633" lon="3.40149">
        <ele>129</ele>
        <time>2011-03-06T11:50:59Z</time>
      </trkpt>
      <trkpt lat="43.65629" lon="3.40154">
        <ele>129</ele>
        <time>2011-03-06T11:51:00Z</time>
      </trkpt>
      <trkpt lat="43.65626" lon="3.40159">
        <ele>129.1</ele>
        <time>2011-03-06T11:51:01Z</time>
      </trkpt>
      <trkpt lat="43.65623" lon="3.40164">
        <ele>129.3</ele>
        <time>2011-03-06T11:51:02Z</time>
      </trkpt>
      <trkpt lat="43.65619" lon="3.40169">
        <ele>129.4</ele>
        <time>2011-03-06T11:51:03Z</time>
      </trkpt>
      <trkpt lat="43.65616" lon="3.40173">
        <ele>129.3</ele>
        <time>2011-03-06T11:51:04Z</time>
      </trkpt>
      <trkpt lat="43.65612" lon="3.40178">
        <ele>129.3</ele>
        <time>2011-03-06T11:51:05Z</time>
      </trkpt>
      <trkpt lat="43.65609" lon="3.40183">
        <ele>129.4</ele>
        <time>2011-03-06T11:51:06Z</time>
      </trkpt>
      <trkpt lat="43.65606" lon="3.40188">
        <ele>129.4</ele>
        <time>2011-03-06T11:51:07Z</time>
      </trkpt>
      <trkpt lat="43.65602" lon="3.40193">
        <ele>129.6</ele>
        <time>2011-03-06T11:51:08Z</time>
      </trkpt>
      <trkpt lat="43.65599" lon="3.40198">
        <ele>129.7</ele>
        <time>2011-03-06T11:51:09Z</time>
      </trkpt>
      <trkpt lat="43.65595" lon="3.40203">
        <ele>130</ele>
        <time>2011-03-06T11:51:10Z</time>
      </trkpt>
      <trkpt lat="43.65592" lon="3.40207">
        <ele>130.3</ele>
        <time>2011-03-06T11:51:11Z</time>
      </trkpt>
      <trkpt lat="43.65588" lon="3.40213">
        <ele>130.7</ele>
        <time>2011-03-06T11:51:12Z</time>
      </trkpt>
      <trkpt lat="43.65585" lon="3.40218">
        <ele>131</ele>
        <time>2011-03-06T11:51:13Z</time>
      </trkpt>
      <trkpt lat="43.65582" lon="3.40223">
        <ele>131.1</ele>
        <time>2011-03-06T11:51:14Z</time>
      </trkpt>
      <trkpt lat="43.65578" lon="3.40228">
        <ele>130.8</ele>
        <time>2011-03-06T11:51:15Z</time>
      </trkpt>
      <trkpt lat="43.65575" lon="3.40233">
        <ele>130.6</ele>
        <time>2011-03-06T11:51:16Z</time>
      </trkpt>
      <trkpt lat="43.65571" lon="3.40239">
        <ele>130.5</ele>
        <time>2011-03-06T11:51:17Z</time>
      </trkpt>
      <trkpt lat="43.65568" lon="3.40244">
        <ele>130.4</ele>
        <time>2011-03-06T11:51:18Z</time>
      </trkpt>
      <trkpt lat="43.65564" lon="3.40249">
        <ele>130.4</ele>
        <time>2011-03-06T11:51:19Z</time>
      </trkpt>
      <trkpt lat="43.65561" lon="3.40254">
        <ele>130.6</ele>
        <time>2011-03-06T11:51:20Z</time>
      </trkpt>
      <trkpt lat="43.65557" lon="3.40259">
        <ele>130.9</ele>
        <time>2011-03-06T11:51:21Z</time>
      </trkpt>
      <trkpt lat="43.65554" lon="3.40264">
        <ele>131.2</ele>
        <time>2011-03-06T11:51:22Z</time>
      </trkpt>
      <trkpt lat="43.6555" lon="3.40269">
        <ele>131.6</ele>
        <time>2011-03-06T11:51:23Z</time>
      </trkpt>
      <trkpt lat="43.65546" lon="3.40275">
        <ele>132.1</ele>
        <time>2011-03-06T11:51:24Z</time>
      </trkpt>
      <trkpt lat="43.65543" lon="3.4028">
        <ele>132.6</ele>
        <time>2011-03-06T11:51:25Z</time>
      </trkpt>
      <trkpt lat="43.65539" lon="3.40285">
        <ele>133.3</ele>
        <time>2011-03-06T11:51:26Z</time>
      </trkpt>
      <trkpt lat="43.65535" lon="3.4029">
        <ele>134</ele>
        <time>2011-03-06T11:51:27Z</time>
      </trkpt>
      <trkpt lat="43.65532" lon="3.40295">
        <ele>134.8</ele>
        <time>2011-03-06T11:51:28Z</time>
      </trkpt>
      <trkpt lat="43.65528" lon="3.403">
        <ele>135.6</ele>
        <time>2011-03-06T11:51:29Z</time>
      </trkpt>
      <trkpt lat="43.65525" lon="3.40305">
        <ele>136.5</ele>
        <time>2011-03-06T11:51:30Z</time>
      </trkpt>
      <trkpt lat="43.65522" lon="3.4031">
        <ele>137.3</ele>
        <time>2011-03-06T11:51:31Z</time>
      </trkpt>
      <trkpt lat="43.65518" lon="3.40315">
        <ele>138.3</ele>
        <time>2011-03-06T11:51:32Z</time>
      </trkpt>
      <trkpt lat="43.65512" lon="3.40324">
        <ele>140.3</ele>
        <time>2011-03-06T11:51:34Z</time>
      </trkpt>
      <trkpt lat="43.65506" lon="3.40332">
        <ele>142.4</ele>
        <time>2011-03-06T11:51:36Z</time>
      </trkpt>
      <trkpt lat="43.65498" lon="3.40337">
        <ele>145.3</ele>
        <time>2011-03-06T11:51:39Z</time>
      </trkpt>
      <trkpt lat="43.65491" lon="3.40343">
        <ele>148.9</ele>
        <time>2011-03-06T11:51:44Z</time>
      </trkpt>
      <trkpt lat="43.65485" lon="3.40338">
        <ele>149.6</ele>
        <time>2011-03-06T11:51:47Z</time>
      </trkpt>
      <trkpt lat="43.6548" lon="3.40331">
        <ele>150.1</ele>
        <time>2011-03-06T11:51:49Z</time>
      </trkpt>
      <trkpt lat="43.65475" lon="3.40323">
        <ele>150.6</ele>
        <time>2011-03-06T11:51:51Z</time>
      </trkpt>
      <trkpt lat="43.6547" lon="3.40315">
        <ele>150.9</ele>
        <time>2011-03-06T11:51:53Z</time>
      </trkpt>
      <trkpt lat="43.65464" lon="3.40306">
        <ele>151.2</ele>
        <time>2011-03-06T11:51:55Z</time>
      </trkpt>
      <trkpt lat="43.65458" lon="3.40297">
        <ele>151.3</ele>
        <time>2011-03-06T11:51:57Z</time>
      </trkpt>
      <trkpt lat="43.65455" lon="3.40293">
        <ele>151.3</ele>
        <time>2011-03-06T11:51:58Z</time>
      </trkpt>
      <trkpt lat="43.65451" lon="3.40289">
        <ele>151.3</ele>
        <time>2011-03-06T11:51:59Z</time>
      </trkpt>
      <trkpt lat="43.65448" lon="3.40284">
        <ele>151.3</ele>
        <time>2011-03-06T11:52:00Z</time>
      </trkpt>
      <trkpt lat="43.65444" lon="3.4028">
        <ele>151.2</ele>
        <time>2011-03-06T11:52:01Z</time>
      </trkpt>
      <trkpt lat="43.6544" lon="3.40275">
        <ele>151.1</ele>
        <time>2011-03-06T11:52:02Z</time>
      </trkpt>
      <trkpt lat="43.65435" lon="3.40271">
        <ele>151</ele>
        <time>2011-03-06T11:52:03Z</time>
      </trkpt>
      <trkpt lat="43.65431" lon="3.40267">
        <ele>150.9</ele>
        <time>2011-03-06T11:52:04Z</time>
      </trkpt>
      <trkpt lat="43.65427" lon="3.40263">
        <ele>150.7</ele>
        <time>2011-03-06T11:52:05Z</time>
      </trkpt>
      <trkpt lat="43.65423" lon="3.40259">
        <ele>150.4</ele>
        <time>2011-03-06T11:52:06Z</time>
      </trkpt>
      <trkpt lat="43.65419" lon="3.40255">
        <ele>150.1</ele>
        <time>2011-03-06T11:52:07Z</time>
      </trkpt>
      <trkpt lat="43.65414" lon="3.40252">
        <ele>150.1</ele>
        <time>2011-03-06T11:52:08Z</time>
      </trkpt>
      <trkpt lat="43.6541" lon="3.40249">
        <ele>150.4</ele>
        <time>2011-03-06T11:52:09Z</time>
      </trkpt>
      <trkpt lat="43.65406" lon="3.40246">
        <ele>150.9</ele>
        <time>2011-03-06T11:52:10Z</time>
      </trkpt>
      <trkpt lat="43.65402" lon="3.40243">
        <ele>151.4</ele>
        <time>2011-03-06T11:52:11Z</time>
      </trkpt>
      <trkpt lat="43.65398" lon="3.4024">
        <ele>151.9</ele>
        <time>2011-03-06T11:52:12Z</time>
      </trkpt>
      <trkpt lat="43.65394" lon="3.40237">
        <ele>152.4</ele>
        <time>2011-03-06T11:52:13Z</time>
      </trkpt>
      <trkpt lat="43.65385" lon="3.40232">
        <ele>153.2</ele>
        <time>2011-03-06T11:52:15Z</time>
      </trkpt>
      <trkpt lat="43.65378" lon="3.40227">
        <ele>153.8</ele>
        <time>2011-03-06T11:52:17Z</time>
      </trkpt>
      <trkpt lat="43.65371" lon="3.40223">
        <ele>154.3</ele>
        <time>2011-03-06T11:52:19Z</time>
      </trkpt>
      <trkpt lat="43.65365" lon="3.40219">
        <ele>154.8</ele>
        <time>2011-03-06T11:52:21Z</time>
      </trkpt>
      <trkpt lat="43.65358" lon="3.40216">
        <ele>155.2</ele>
        <time>2011-03-06T11:52:23Z</time>
      </trkpt>
      <trkpt lat="43.65352" lon="3.40213">
        <ele>155.7</ele>
        <time>2011-03-06T11:52:25Z</time>
      </trkpt>
      <trkpt lat="43.65345" lon="3.4021">
        <ele>156.3</ele>
        <time>2011-03-06T11:52:27Z</time>
      </trkpt>
      <trkpt lat="43.65339" lon="3.40208">
        <ele>156.9</ele>
        <time>2011-03-06T11:52:29Z</time>
      </trkpt>
      <trkpt lat="43.6533" lon="3.40206">
        <ele>158.3</ele>
        <time>2011-03-06T11:52:32Z</time>
      </trkpt>
      <trkpt lat="43.65324" lon="3.40205">
        <ele>159.9</ele>
        <time>2011-03-06T11:52:34Z</time>
      </trkpt>
      <trkpt lat="43.65318" lon="3.40204">
        <ele>161.4</ele>
        <time>2011-03-06T11:52:36Z</time>
      </trkpt>
      <trkpt lat="43.65312" lon="3.40202">
        <ele>163</ele>
        <time>2011-03-06T11:52:38Z</time>
      </trkpt>
      <trkpt lat="43.65306" lon="3.402">
        <ele>164.4</ele>
        <time>2011-03-06T11:52:40Z</time>
      </trkpt>
      <trkpt lat="43.653" lon="3.40197">
        <ele>165.8</ele>
        <time>2011-03-06T11:52:42Z</time>
      </trkpt>
      <trkpt lat="43.65294" lon="3.40194">
        <ele>167.1</ele>
        <time>2011-03-06T11:52:44Z</time>
      </trkpt>
      <trkpt lat="43.65289" lon="3.40189">
        <ele>167.8</ele>
        <time>2011-03-06T11:52:46Z</time>
      </trkpt>
      <trkpt lat="43.65285" lon="3.40183">
        <ele>168.1</ele>
        <time>2011-03-06T11:52:48Z</time>
      </trkpt>
      <trkpt lat="43.65281" lon="3.40175">
        <ele>168.2</ele>
        <time>2011-03-06T11:52:50Z</time>
      </trkpt>
      <trkpt lat="43.65278" lon="3.40167">
        <ele>167.9</ele>
        <time>2011-03-06T11:52:52Z</time>
      </trkpt>
      <trkpt lat="43.65277" lon="3.40159">
        <ele>168</ele>
        <time>2011-03-06T11:52:54Z</time>
      </trkpt>
      <trkpt lat="43.65276" lon="3.40151">
        <ele>167.9</ele>
        <time>2011-03-06T11:52:56Z</time>
      </trkpt>
      <trkpt lat="43.65275" lon="3.40142">
        <ele>167.7</ele>
        <time>2011-03-06T11:52:58Z</time>
      </trkpt>
      <trkpt lat="43.65275" lon="3.40138">
        <ele>167.6</ele>
        <time>2011-03-06T11:52:59Z</time>
      </trkpt>
      <trkpt lat="43.65274" lon="3.40125">
        <ele>167.4</ele>
        <time>2011-03-06T11:53:02Z</time>
      </trkpt>
      <trkpt lat="43.65274" lon="3.40117">
        <ele>167.1</ele>
        <time>2011-03-06T11:53:04Z</time>
      </trkpt>
      <trkpt lat="43.65273" lon="3.40108">
        <ele>166.9</ele>
        <time>2011-03-06T11:53:06Z</time>
      </trkpt>
      <trkpt lat="43.65272" lon="3.401">
        <ele>166.8</ele>
        <time>2011-03-06T11:53:08Z</time>
      </trkpt>
      <trkpt lat="43.65271" lon="3.40092">
        <ele>166.7</ele>
        <time>2011-03-06T11:53:10Z</time>
      </trkpt>
      <trkpt lat="43.6527" lon="3.40084">
        <ele>167</ele>
        <time>2011-03-06T11:53:12Z</time>
      </trkpt>
      <trkpt lat="43.65267" lon="3.40076">
        <ele>166.5</ele>
        <time>2011-03-06T11:53:14Z</time>
      </trkpt>
      <trkpt lat="43.65265" lon="3.40068">
        <ele>166</ele>
        <time>2011-03-06T11:53:16Z</time>
      </trkpt>
      <trkpt lat="43.65261" lon="3.40061">
        <ele>165.8</ele>
        <time>2011-03-06T11:53:18Z</time>
      </trkpt>
      <trkpt lat="43.65257" lon="3.40054">
        <ele>165.7</ele>
        <time>2011-03-06T11:53:20Z</time>
      </trkpt>
      <trkpt lat="43.65253" lon="3.40047">
        <ele>165.8</ele>
        <time>2011-03-06T11:53:22Z</time>
      </trkpt>
      <trkpt lat="43.65248" lon="3.40041">
        <ele>165.8</ele>
        <time>2011-03-06T11:53:24Z</time>
      </trkpt>
      <trkpt lat="43.65244" lon="3.40035">
        <ele>165.6</ele>
        <time>2011-03-06T11:53:26Z</time>
      </trkpt>
      <trkpt lat="43.65239" lon="3.40029">
        <ele>165.4</ele>
        <time>2011-03-06T11:53:28Z</time>
      </trkpt>
      <trkpt lat="43.65234" lon="3.40022">
        <ele>165</ele>
        <time>2011-03-06T11:53:30Z</time>
      </trkpt>
      <trkpt lat="43.6523" lon="3.40016">
        <ele>164.7</ele>
        <time>2011-03-06T11:53:32Z</time>
      </trkpt>
      <trkpt lat="43.65224" lon="3.4001">
        <ele>164.6</ele>
        <time>2011-03-06T11:53:34Z</time>
      </trkpt>
      <trkpt lat="43.65219" lon="3.40005">
        <ele>164.5</ele>
        <time>2011-03-06T11:53:36Z</time>
      </trkpt>
      <trkpt lat="43.65213" lon="3.4">
        <ele>164.4</ele>
        <time>2011-03-06T11:53:38Z</time>
      </trkpt>
      <trkpt lat="43.65207" lon="3.39996">
        <ele>165.1</ele>
        <time>2011-03-06T11:53:40Z</time>
      </trkpt>
      <trkpt lat="43.65201" lon="3.39993">
        <ele>166.1</ele>
        <time>2011-03-06T11:53:42Z</time>
      </trkpt>
      <trkpt lat="43.65195" lon="3.39991">
        <ele>167.1</ele>
        <time>2011-03-06T11:53:44Z</time>
      </trkpt>
      <trkpt lat="43.65189" lon="3.39989">
        <ele>168.3</ele>
        <time>2011-03-06T11:53:46Z</time>
      </trkpt>
      <trkpt lat="43.65182" lon="3.39988">
        <ele>169.7</ele>
        <time>2011-03-06T11:53:48Z</time>
      </trkpt>
      <trkpt lat="43.65175" lon="3.39987">
        <ele>171.2</ele>
        <time>2011-03-06T11:53:50Z</time>
      </trkpt>
      <trkpt lat="43.65167" lon="3.39985">
        <ele>172.7</ele>
        <time>2011-03-06T11:53:52Z</time>
      </trkpt>
      <trkpt lat="43.65159" lon="3.39983">
        <ele>174.3</ele>
        <time>2011-03-06T11:53:54Z</time>
      </trkpt>
      <trkpt lat="43.65152" lon="3.3998">
        <ele>175.7</ele>
        <time>2011-03-06T11:53:56Z</time>
      </trkpt>
      <trkpt lat="43.65145" lon="3.39975">
        <ele>176.9</ele>
        <time>2011-03-06T11:53:58Z</time>
      </trkpt>
      <trkpt lat="43.65139" lon="3.39968">
        <ele>177.9</ele>
        <time>2011-03-06T11:54:00Z</time>
      </trkpt>
      <trkpt lat="43.65136" lon="3.39964">
        <ele>178.3</ele>
        <time>2011-03-06T11:54:01Z</time>
      </trkpt>
      <trkpt lat="43.65129" lon="3.39951">
        <ele>179</ele>
        <time>2011-03-06T11:54:04Z</time>
      </trkpt>
      <trkpt lat="43.65126" lon="3.39941">
        <ele>179</ele>
        <time>2011-03-06T11:54:06Z</time>
      </trkpt>
      <trkpt lat="43.65125" lon="3.3993">
        <ele>178.6</ele>
        <time>2011-03-06T11:54:08Z</time>
      </trkpt>
      <trkpt lat="43.65126" lon="3.39919">
        <ele>177.5</ele>
        <time>2011-03-06T11:54:10Z</time>
      </trkpt>
      <trkpt lat="43.65128" lon="3.39909">
        <ele>177</ele>
        <time>2011-03-06T11:54:12Z</time>
      </trkpt>
      <trkpt lat="43.65132" lon="3.39899">
        <ele>176.3</ele>
        <time>2011-03-06T11:54:14Z</time>
      </trkpt>
      <trkpt lat="43.65136" lon="3.39889">
        <ele>175.5</ele>
        <time>2011-03-06T11:54:16Z</time>
      </trkpt>
      <trkpt lat="43.65139" lon="3.39883">
        <ele>175.1</ele>
        <time>2011-03-06T11:54:17Z</time>
      </trkpt>
      <trkpt lat="43.65141" lon="3.39877">
        <ele>174.6</ele>
        <time>2011-03-06T11:54:18Z</time>
      </trkpt>
      <trkpt lat="43.65144" lon="3.39871">
        <ele>174.1</ele>
        <time>2011-03-06T11:54:19Z</time>
      </trkpt>
      <trkpt lat="43.65146" lon="3.39865">
        <ele>173.6</ele>
        <time>2011-03-06T11:54:20Z</time>
      </trkpt>
      <trkpt lat="43.65148" lon="3.39859">
        <ele>173.2</ele>
        <time>2011-03-06T11:54:21Z</time>
      </trkpt>
      <trkpt lat="43.6515" lon="3.39852">
        <ele>173</ele>
        <time>2011-03-06T11:54:22Z</time>
      </trkpt>
      <trkpt lat="43.65152" lon="3.39844">
        <ele>172.7</ele>
        <time>2011-03-06T11:54:23Z</time>
      </trkpt>
      <trkpt lat="43.65154" lon="3.39837">
        <ele>172.6</ele>
        <time>2011-03-06T11:54:24Z</time>
      </trkpt>
      <trkpt lat="43.65155" lon="3.39829">
        <ele>172.4</ele>
        <time>2011-03-06T11:54:25Z</time>
      </trkpt>
      <trkpt lat="43.65156" lon="3.39822">
        <ele>172.1</ele>
        <time>2011-03-06T11:54:26Z</time>
      </trkpt>
      <trkpt lat="43.65157" lon="3.39814">
        <ele>171.9</ele>
        <time>2011-03-06T11:54:27Z</time>
      </trkpt>
      <trkpt lat="43.65157" lon="3.39805">
        <ele>171.8</ele>
        <time>2011-03-06T11:54:28Z</time>
      </trkpt>
      <trkpt lat="43.65158" lon="3.39797">
        <ele>171.7</ele>
        <time>2011-03-06T11:54:29Z</time>
      </trkpt>
      <trkpt lat="43.65158" lon="3.39789">
        <ele>171.9</ele>
        <time>2011-03-06T11:54:30Z</time>
      </trkpt>
      <trkpt lat="43.65157" lon="3.39782">
        <ele>172.2</ele>
        <time>2011-03-06T11:54:31Z</time>
      </trkpt>
      <trkpt lat="43.65156" lon="3.39774">
        <ele>172.6</ele>
        <time>2011-03-06T11:54:32Z</time>
      </trkpt>
      <trkpt lat="43.65155" lon="3.39766">
        <ele>173</ele>
        <time>2011-03-06T11:54:33Z</time>
      </trkpt>
      <trkpt lat="43.65154" lon="3.39758">
        <ele>173.4</ele>
        <time>2011-03-06T11:54:34Z</time>
      </trkpt>
      <trkpt lat="43.65154" lon="3.3975">
        <ele>173.7</ele>
        <time>2011-03-06T11:54:35Z</time>
      </trkpt>
      <trkpt lat="43.65153" lon="3.39741">
        <ele>173.9</ele>
        <time>2011-03-06T11:54:36Z</time>
      </trkpt>
      <trkpt lat="43.65152" lon="3.39733">
        <ele>173.9</ele>
        <time>2011-03-06T11:54:37Z</time>
      </trkpt>
      <trkpt lat="43.65151" lon="3.39725">
        <ele>174.1</ele>
        <time>2011-03-06T11:54:38Z</time>
      </trkpt>
      <trkpt lat="43.6515" lon="3.39716">
        <ele>174.3</ele>
        <time>2011-03-06T11:54:39Z</time>
      </trkpt>
      <trkpt lat="43.6515" lon="3.39708">
        <ele>174.4</ele>
        <time>2011-03-06T11:54:40Z</time>
      </trkpt>
      <trkpt lat="43.65149" lon="3.39699">
        <ele>174.5</ele>
        <time>2011-03-06T11:54:41Z</time>
      </trkpt>
      <trkpt lat="43.65148" lon="3.39691">
        <ele>174.7</ele>
        <time>2011-03-06T11:54:42Z</time>
      </trkpt>
      <trkpt lat="43.65147" lon="3.39683">
        <ele>175</ele>
        <time>2011-03-06T11:54:43Z</time>
      </trkpt>
      <trkpt lat="43.65146" lon="3.39674">
        <ele>175.1</ele>
        <time>2011-03-06T11:54:44Z</time>
      </trkpt>
      <trkpt lat="43.65146" lon="3.39666">
        <ele>175.1</ele>
        <time>2011-03-06T11:54:45Z</time>
      </trkpt>
      <trkpt lat="43.65145" lon="3.39657">
        <ele>175.2</ele>
        <time>2011-03-06T11:54:46Z</time>
      </trkpt>
      <trkpt lat="43.65145" lon="3.39649">
        <ele>175.3</ele>
        <time>2011-03-06T11:54:47Z</time>
      </trkpt>
      <trkpt lat="43.65144" lon="3.3964">
        <ele>175.6</ele>
        <time>2011-03-06T11:54:48Z</time>
      </trkpt>
      <trkpt lat="43.65143" lon="3.39632">
        <ele>175.8</ele>
        <time>2011-03-06T11:54:49Z</time>
      </trkpt>
      <trkpt lat="43.65142" lon="3.39623">
        <ele>176</ele>
        <time>2011-03-06T11:54:50Z</time>
      </trkpt>
      <trkpt lat="43.65142" lon="3.39615">
        <ele>176</ele>
        <time>2011-03-06T11:54:51Z</time>
      </trkpt>
      <trkpt lat="43.65142" lon="3.39606">
        <ele>176</ele>
        <time>2011-03-06T11:54:52Z</time>
      </trkpt>
      <trkpt lat="43.65142" lon="3.39597">
        <ele>175.9</ele>
        <time>2011-03-06T11:54:53Z</time>
      </trkpt>
      <trkpt lat="43.65142" lon="3.39589">
        <ele>175.7</ele>
        <time>2011-03-06T11:54:54Z</time>
      </trkpt>
      <trkpt lat="43.65143" lon="3.3958">
        <ele>175.7</ele>
        <time>2011-03-06T11:54:55Z</time>
      </trkpt>
      <trkpt lat="43.65144" lon="3.39571">
        <ele>176</ele>
        <time>2011-03-06T11:54:56Z</time>
      </trkpt>
      <trkpt lat="43.65145" lon="3.39563">
        <ele>176.1</ele>
        <time>2011-03-06T11:54:57Z</time>
      </trkpt>
      <trkpt lat="43.65146" lon="3.39554">
        <ele>176.3</ele>
        <time>2011-03-06T11:54:58Z</time>
      </trkpt>
      <trkpt lat="43.65147" lon="3.39546">
        <ele>176.3</ele>
        <time>2011-03-06T11:54:59Z</time>
      </trkpt>
      <trkpt lat="43.65149" lon="3.39537">
        <ele>176.4</ele>
        <time>2011-03-06T11:55:00Z</time>
      </trkpt>
      <trkpt lat="43.65151" lon="3.39529">
        <ele>176.5</ele>
        <time>2011-03-06T11:55:01Z</time>
      </trkpt>
      <trkpt lat="43.65152" lon="3.3952">
        <ele>176.7</ele>
        <time>2011-03-06T11:55:02Z</time>
      </trkpt>
      <trkpt lat="43.65153" lon="3.39512">
        <ele>176.9</ele>
        <time>2011-03-06T11:55:03Z</time>
      </trkpt>
      <trkpt lat="43.65155" lon="3.39504">
        <ele>177</ele>
        <time>2011-03-06T11:55:04Z</time>
      </trkpt>
      <trkpt lat="43.65157" lon="3.39496">
        <ele>177</ele>
        <time>2011-03-06T11:55:05Z</time>
      </trkpt>
      <trkpt lat="43.65158" lon="3.39487">
        <ele>176.8</ele>
        <time>2011-03-06T11:55:06Z</time>
      </trkpt>
      <trkpt lat="43.65159" lon="3.39479">
        <ele>176.7</ele>
        <time>2011-03-06T11:55:07Z</time>
      </trkpt>
      <trkpt lat="43.6516" lon="3.3947">
        <ele>176.6</ele>
        <time>2011-03-06T11:55:08Z</time>
      </trkpt>
      <trkpt lat="43.65161" lon="3.39462">
        <ele>176.6</ele>
        <time>2011-03-06T11:55:09Z</time>
      </trkpt>
      <trkpt lat="43.65161" lon="3.39453">
        <ele>176.7</ele>
        <time>2011-03-06T11:55:10Z</time>
      </trkpt>
      <trkpt lat="43.65161" lon="3.39444">
        <ele>177</ele>
        <time>2011-03-06T11:55:11Z</time>
      </trkpt>
      <trkpt lat="43.6516" lon="3.39436">
        <ele>177.4</ele>
        <time>2011-03-06T11:55:12Z</time>
      </trkpt>
      <trkpt lat="43.6516" lon="3.39427">
        <ele>177.7</ele>
        <time>2011-03-06T11:55:13Z</time>
      </trkpt>
      <trkpt lat="43.65159" lon="3.39418">
        <ele>178.1</ele>
        <time>2011-03-06T11:55:14Z</time>
      </trkpt>
      <trkpt lat="43.65158" lon="3.3941">
        <ele>178.2</ele>
        <time>2011-03-06T11:55:15Z</time>
      </trkpt>
      <trkpt lat="43.65158" lon="3.39401">
        <ele>178.2</ele>
        <time>2011-03-06T11:55:16Z</time>
      </trkpt>
      <trkpt lat="43.65157" lon="3.39393">
        <ele>178.3</ele>
        <time>2011-03-06T11:55:17Z</time>
      </trkpt>
      <trkpt lat="43.65156" lon="3.39384">
        <ele>178.4</ele>
        <time>2011-03-06T11:55:18Z</time>
      </trkpt>
      <trkpt lat="43.65155" lon="3.39376">
        <ele>178.4</ele>
        <time>2011-03-06T11:55:19Z</time>
      </trkpt>
      <trkpt lat="43.65155" lon="3.39367">
        <ele>178.5</ele>
        <time>2011-03-06T11:55:20Z</time>
      </trkpt>
      <trkpt lat="43.65154" lon="3.39359">
        <ele>178.6</ele>
        <time>2011-03-06T11:55:21Z</time>
      </trkpt>
      <trkpt lat="43.65153" lon="3.39351">
        <ele>178.6</ele>
        <time>2011-03-06T11:55:22Z</time>
      </trkpt>
      <trkpt lat="43.65152" lon="3.39343">
        <ele>178.7</ele>
        <time>2011-03-06T11:55:23Z</time>
      </trkpt>
      <trkpt lat="43.65151" lon="3.39335">
        <ele>178.8</ele>
        <time>2011-03-06T11:55:24Z</time>
      </trkpt>
      <trkpt lat="43.6515" lon="3.39326">
        <ele>179</ele>
        <time>2011-03-06T11:55:25Z</time>
      </trkpt>
      <trkpt lat="43.65149" lon="3.39318">
        <ele>179.2</ele>
        <time>2011-03-06T11:55:26Z</time>
      </trkpt>
      <trkpt lat="43.65148" lon="3.3931">
        <ele>179.4</ele>
        <time>2011-03-06T11:55:27Z</time>
      </trkpt>
      <trkpt lat="43.65147" lon="3.39302">
        <ele>179.5</ele>
        <time>2011-03-06T11:55:28Z</time>
      </trkpt>
      <trkpt lat="43.65146" lon="3.39293">
        <ele>179.7</ele>
        <time>2011-03-06T11:55:29Z</time>
      </trkpt>
      <trkpt lat="43.65145" lon="3.39285">
        <ele>179.8</ele>
        <time>2011-03-06T11:55:30Z</time>
      </trkpt>
      <trkpt lat="43.65144" lon="3.39277">
        <ele>179.9</ele>
        <time>2011-03-06T11:55:31Z</time>
      </trkpt>
      <trkpt lat="43.65142" lon="3.39268">
        <ele>180</ele>
        <time>2011-03-06T11:55:32Z</time>
      </trkpt>
      <trkpt lat="43.65141" lon="3.3926">
        <ele>180</ele>
        <time>2011-03-06T11:55:33Z</time>
      </trkpt>
      <trkpt lat="43.65139" lon="3.39251">
        <ele>180.1</ele>
        <time>2011-03-06T11:55:34Z</time>
      </trkpt>
      <trkpt lat="43.65136" lon="3.39243">
        <ele>180.6</ele>
        <time>2011-03-06T11:55:35Z</time>
      </trkpt>
      <trkpt lat="43.65134" lon="3.39235">
        <ele>181.2</ele>
        <time>2011-03-06T11:55:36Z</time>
      </trkpt>
      <trkpt lat="43.65132" lon="3.39226">
        <ele>181.7</ele>
        <time>2011-03-06T11:55:37Z</time>
      </trkpt>
      <trkpt lat="43.65129" lon="3.39218">
        <ele>182.2</ele>
        <time>2011-03-06T11:55:38Z</time>
      </trkpt>
      <trkpt lat="43.65126" lon="3.39209">
        <ele>182.7</ele>
        <time>2011-03-06T11:55:39Z</time>
      </trkpt>
      <trkpt lat="43.65124" lon="3.39201">
        <ele>183.1</ele>
        <time>2011-03-06T11:55:40Z</time>
      </trkpt>
      <trkpt lat="43.65121" lon="3.39193">
        <ele>183.4</ele>
        <time>2011-03-06T11:55:41Z</time>
      </trkpt>
      <trkpt lat="43.65118" lon="3.39185">
        <ele>183.7</ele>
        <time>2011-03-06T11:55:42Z</time>
      </trkpt>
      <trkpt lat="43.65115" lon="3.39177">
        <ele>183.8</ele>
        <time>2011-03-06T11:55:43Z</time>
      </trkpt>
      <trkpt lat="43.65113" lon="3.39169">
        <ele>184</ele>
        <time>2011-03-06T11:55:44Z</time>
      </trkpt>
      <trkpt lat="43.65109" lon="3.39162">
        <ele>184.3</ele>
        <time>2011-03-06T11:55:45Z</time>
      </trkpt>
      <trkpt lat="43.65106" lon="3.39155">
        <ele>184.8</ele>
        <time>2011-03-06T11:55:46Z</time>
      </trkpt>
      <trkpt lat="43.65103" lon="3.39148">
        <ele>185.2</ele>
        <time>2011-03-06T11:55:47Z</time>
      </trkpt>
      <trkpt lat="43.65099" lon="3.39141">
        <ele>185.6</ele>
        <time>2011-03-06T11:55:48Z</time>
      </trkpt>
      <trkpt lat="43.65096" lon="3.39135">
        <ele>186</ele>
        <time>2011-03-06T11:55:49Z</time>
      </trkpt>
      <trkpt lat="43.65092" lon="3.39128">
        <ele>186.3</ele>
        <time>2011-03-06T11:55:50Z</time>
      </trkpt>
      <trkpt lat="43.65088" lon="3.39121">
        <ele>186.6</ele>
        <time>2011-03-06T11:55:51Z</time>
      </trkpt>
      <trkpt lat="43.65084" lon="3.39116">
        <ele>186.7</ele>
        <time>2011-03-06T11:55:52Z</time>
      </trkpt>
      <trkpt lat="43.6508" lon="3.39108">
        <ele>186.8</ele>
        <time>2011-03-06T11:55:53Z</time>
      </trkpt>
      <trkpt lat="43.65075" lon="3.39103">
        <ele>186.6</ele>
        <time>2011-03-06T11:55:54Z</time>
      </trkpt>
      <trkpt lat="43.65069" lon="3.39097">
        <ele>186.3</ele>
        <time>2011-03-06T11:55:55Z</time>
      </trkpt>
      <trkpt lat="43.65064" lon="3.39092">
        <ele>185.9</ele>
        <time>2011-03-06T11:55:56Z</time>
      </trkpt>
      <trkpt lat="43.65058" lon="3.39087">
        <ele>185.2</ele>
        <time>2011-03-06T11:55:57Z</time>
      </trkpt>
      <trkpt lat="43.65052" lon="3.39081">
        <ele>184.5</ele>
        <time>2011-03-06T11:55:58Z</time>
      </trkpt>
      <trkpt lat="43.65045" lon="3.39076">
        <ele>183.6</ele>
        <time>2011-03-06T11:55:59Z</time>
      </trkpt>
      <trkpt lat="43.65038" lon="3.39072">
        <ele>182.6</ele>
        <time>2011-03-06T11:56:00Z</time>
      </trkpt>
      <trkpt lat="43.6503" lon="3.39067">
        <ele>181.5</ele>
        <time>2011-03-06T11:56:01Z</time>
      </trkpt>
      <trkpt lat="43.65022" lon="3.39064">
        <ele>180.2</ele>
        <time>2011-03-06T11:56:02Z</time>
      </trkpt>
      <trkpt lat="43.65014" lon="3.39061">
        <ele>178.9</ele>
        <time>2011-03-06T11:56:03Z</time>
      </trkpt>
      <trkpt lat="43.65005" lon="3.39059">
        <ele>177.5</ele>
        <time>2011-03-06T11:56:04Z</time>
      </trkpt>
      <trkpt lat="43.64996" lon="3.39058">
        <ele>176.2</ele>
        <time>2011-03-06T11:56:05Z</time>
      </trkpt>
      <trkpt lat="43.64987" lon="3.39057">
        <ele>175.2</ele>
        <time>2011-03-06T11:56:06Z</time>
      </trkpt>
      <trkpt lat="43.64978" lon="3.39057">
        <ele>174.2</ele>
        <time>2011-03-06T11:56:07Z</time>
      </trkpt>
      <trkpt lat="43.64969" lon="3.39058">
        <ele>173.2</ele>
        <time>2011-03-06T11:56:08Z</time>
      </trkpt>
      <trkpt lat="43.6496" lon="3.3906">
        <ele>172.3</ele>
        <time>2011-03-06T11:56:09Z</time>
      </trkpt>
      <trkpt lat="43.64952" lon="3.39062">
        <ele>171.5</ele>
        <time>2011-03-06T11:56:10Z</time>
      </trkpt>
      <trkpt lat="43.64945" lon="3.39065">
        <ele>170.9</ele>
        <time>2011-03-06T11:56:11Z</time>
      </trkpt>
      <trkpt lat="43.64939" lon="3.39067">
        <ele>170.3</ele>
        <time>2011-03-06T11:56:12Z</time>
      </trkpt>
      <trkpt lat="43.64933" lon="3.39067">
        <ele>169.8</ele>
        <time>2011-03-06T11:56:13Z</time>
      </trkpt>
      <trkpt lat="43.64926" lon="3.39063">
        <ele>168.7</ele>
        <time>2011-03-06T11:56:15Z</time>
      </trkpt>
      <trkpt lat="43.64923" lon="3.39058">
        <ele>168.1</ele>
        <time>2011-03-06T11:56:16Z</time>
      </trkpt>
      <trkpt lat="43.64919" lon="3.39053">
        <ele>167.4</ele>
        <time>2011-03-06T11:56:17Z</time>
      </trkpt>
      <trkpt lat="43.64914" lon="3.39048">
        <ele>166.7</ele>
        <time>2011-03-06T11:56:18Z</time>
      </trkpt>
      <trkpt lat="43.64911" lon="3.39042">
        <ele>166</ele>
        <time>2011-03-06T11:56:19Z</time>
      </trkpt>
      <trkpt lat="43.64909" lon="3.39032">
        <ele>165.2</ele>
        <time>2011-03-06T11:56:21Z</time>
      </trkpt>
      <trkpt lat="43.64909" lon="3.39022">
        <ele>164.6</ele>
        <time>2011-03-06T11:56:23Z</time>
      </trkpt>
      <trkpt lat="43.6491" lon="3.39012">
        <ele>164</ele>
        <time>2011-03-06T11:56:25Z</time>
      </trkpt>
      <trkpt lat="43.64909" lon="3.39005">
        <ele>163.6</ele>
        <time>2011-03-06T11:56:26Z</time>
      </trkpt>
      <trkpt lat="43.64908" lon="3.38998">
        <ele>163.1</ele>
        <time>2011-03-06T11:56:27Z</time>
      </trkpt>
      <trkpt lat="43.64908" lon="3.38991">
        <ele>162.7</ele>
        <time>2011-03-06T11:56:28Z</time>
      </trkpt>
      <trkpt lat="43.6491" lon="3.38984">
        <ele>162.5</ele>
        <time>2011-03-06T11:56:29Z</time>
      </trkpt>
      <trkpt lat="43.64911" lon="3.38975">
        <ele>162.2</ele>
        <time>2011-03-06T11:56:30Z</time>
      </trkpt>
      <trkpt lat="43.64909" lon="3.38968">
        <ele>161.7</ele>
        <time>2011-03-06T11:56:31Z</time>
      </trkpt>
      <trkpt lat="43.64906" lon="3.3896">
        <ele>161</ele>
        <time>2011-03-06T11:56:32Z</time>
      </trkpt>
      <trkpt lat="43.64902" lon="3.38954">
        <ele>160.2</ele>
        <time>2011-03-06T11:56:33Z</time>
      </trkpt>
      <trkpt lat="43.64898" lon="3.38949">
        <ele>159.4</ele>
        <time>2011-03-06T11:56:34Z</time>
      </trkpt>
      <trkpt lat="43.64894" lon="3.38944">
        <ele>158.7</ele>
        <time>2011-03-06T11:56:35Z</time>
      </trkpt>
      <trkpt lat="43.64889" lon="3.38938">
        <ele>157.9</ele>
        <time>2011-03-06T11:56:36Z</time>
      </trkpt>
      <trkpt lat="43.64885" lon="3.38932">
        <ele>157</ele>
        <time>2011-03-06T11:56:37Z</time>
      </trkpt>
      <trkpt lat="43.64881" lon="3.38924">
        <ele>156.1</ele>
        <time>2011-03-06T11:56:38Z</time>
      </trkpt>
      <trkpt lat="43.64876" lon="3.38918">
        <ele>155.2</ele>
        <time>2011-03-06T11:56:39Z</time>
      </trkpt>
      <trkpt lat="43.6487" lon="3.38913">
        <ele>154.3</ele>
        <time>2011-03-06T11:56:40Z</time>
      </trkpt>
      <trkpt lat="43.64862" lon="3.38909">
        <ele>153.3</ele>
        <time>2011-03-06T11:56:41Z</time>
      </trkpt>
      <trkpt lat="43.64855" lon="3.38903">
        <ele>152.2</ele>
        <time>2011-03-06T11:56:42Z</time>
      </trkpt>
      <trkpt lat="43.64847" lon="3.38897">
        <ele>151.2</ele>
        <time>2011-03-06T11:56:43Z</time>
      </trkpt>
      <trkpt lat="43.64839" lon="3.38892">
        <ele>150.1</ele>
        <time>2011-03-06T11:56:44Z</time>
      </trkpt>
      <trkpt lat="43.64831" lon="3.38886">
        <ele>149.1</ele>
        <time>2011-03-06T11:56:45Z</time>
      </trkpt>
      <trkpt lat="43.64823" lon="3.3888">
        <ele>148.5</ele>
        <time>2011-03-06T11:56:46Z</time>
      </trkpt>
      <trkpt lat="43.64816" lon="3.38874">
        <ele>147.9</ele>
        <time>2011-03-06T11:56:47Z</time>
      </trkpt>
      <trkpt lat="43.6481" lon="3.38869">
        <ele>147.5</ele>
        <time>2011-03-06T11:56:48Z</time>
      </trkpt>
      <trkpt lat="43.64805" lon="3.3886">
        <ele>146.9</ele>
        <time>2011-03-06T11:56:50Z</time>
      </trkpt>
      <trkpt lat="43.64797" lon="3.38855">
        <ele>146.3</ele>
        <time>2011-03-06T11:56:53Z</time>
      </trkpt>
      <trkpt lat="43.64791" lon="3.38864">
        <ele>146.2</ele>
        <time>2011-03-06T11:56:56Z</time>
      </trkpt>
      <trkpt lat="43.64785" lon="3.38871">
        <ele>146</ele>
        <time>2011-03-06T11:57:06Z</time>
      </trkpt>
      <trkpt lat="43.64784" lon="3.38873">
        <ele>146</ele>
        <time>2011-03-06T11:57:07Z</time>
      </trkpt>
      <trkpt lat="43.64774" lon="3.38872">
        <ele>145.4</ele>
        <time>2011-03-06T11:57:12Z</time>
      </trkpt>
      <trkpt lat="43.6477" lon="3.38868">
        <ele>145</ele>
        <time>2011-03-06T11:57:13Z</time>
      </trkpt>
      <trkpt lat="43.64766" lon="3.38864">
        <ele>144.7</ele>
        <time>2011-03-06T11:57:14Z</time>
      </trkpt>
      <trkpt lat="43.64762" lon="3.3886">
        <ele>144.4</ele>
        <time>2011-03-06T11:57:15Z</time>
      </trkpt>
      <trkpt lat="43.64758" lon="3.38856">
        <ele>144</ele>
        <time>2011-03-06T11:57:16Z</time>
      </trkpt>
      <trkpt lat="43.64751" lon="3.3885">
        <ele>143.4</ele>
        <time>2011-03-06T11:57:18Z</time>
      </trkpt>
      <trkpt lat="43.64745" lon="3.38843">
        <ele>143.2</ele>
        <time>2011-03-06T11:57:20Z</time>
      </trkpt>
      <trkpt lat="43.6474" lon="3.38837">
        <ele>143.1</ele>
        <time>2011-03-06T11:57:22Z</time>
      </trkpt>
      <trkpt lat="43.64734" lon="3.38832">
        <ele>143</ele>
        <time>2011-03-06T11:57:24Z</time>
      </trkpt>
      <trkpt lat="43.64726" lon="3.38826">
        <ele>142.7</ele>
        <time>2011-03-06T11:57:29Z</time>
      </trkpt>
      <trkpt lat="43.64718" lon="3.38828">
        <ele>142.8</ele>
        <time>2011-03-06T11:57:56Z</time>
      </trkpt>
      <trkpt lat="43.64716" lon="3.38839">
        <ele>143.1</ele>
        <time>2011-03-06T11:58:51Z</time>
      </trkpt>
      <trkpt lat="43.64716" lon="3.38842">
        <ele>143.2</ele>
        <time>2011-03-06T11:58:52Z</time>
      </trkpt>
      <trkpt lat="43.64713" lon="3.3886">
        <ele>143.6</ele>
        <time>2011-03-06T11:58:58Z</time>
      </trkpt>
      <trkpt lat="43.6471" lon="3.38871">
        <ele>143.9</ele>
        <time>2011-03-06T11:59:01Z</time>
      </trkpt>
      <trkpt lat="43.64706" lon="3.38881">
        <ele>144.1</ele>
        <time>2011-03-06T11:59:04Z</time>
      </trkpt>
      <trkpt lat="43.647" lon="3.38887">
        <ele>144.3</ele>
        <time>2011-03-06T11:59:07Z</time>
      </trkpt>
      <trkpt lat="43.64685" lon="3.38888">
        <ele>144.3</ele>
        <time>2011-03-06T11:59:12Z</time>
      </trkpt>
      <trkpt lat="43.64677" lon="3.38887">
        <ele>144.3</ele>
        <time>2011-03-06T11:59:15Z</time>
      </trkpt>
      <trkpt lat="43.64671" lon="3.38891">
        <ele>144.4</ele>
        <time>2011-03-06T11:59:17Z</time>
      </trkpt>
      <trkpt lat="43.64667" lon="3.38897">
        <ele>144.5</ele>
        <time>2011-03-06T11:59:19Z</time>
      </trkpt>
      <trkpt lat="43.6466" lon="3.38904">
        <ele>144.7</ele>
        <time>2011-03-06T11:59:23Z</time>
      </trkpt>
      <trkpt lat="43.64668" lon="3.3891">
        <ele>144.8</ele>
        <time>2011-03-06T12:00:23Z</time>
      </trkpt>
      <trkpt lat="43.64668" lon="3.3891">
        <ele>144.8</ele>
        <time>2011-03-06T12:00:24Z</time>
      </trkpt>
      <trkpt lat="43.64666" lon="3.38901">
        <ele>144.6</ele>
        <time>2011-03-06T12:01:53Z</time>
      </trkpt>
      <trkpt lat="43.64665" lon="3.389">
        <ele>144.6</ele>
        <time>2011-03-06T12:01:54Z</time>
      </trkpt>
      <trkpt lat="43.64649" lon="3.38907">
        <ele>144.8</ele>
        <time>2011-03-06T12:02:05Z</time>
      </trkpt>
      <trkpt lat="43.64642" lon="3.38905">
        <ele>144.7</ele>
        <time>2011-03-06T12:02:08Z</time>
      </trkpt>
      <trkpt lat="43.64635" lon="3.38904">
        <ele>144.7</ele>
        <time>2011-03-06T12:02:11Z</time>
      </trkpt>
      <trkpt lat="43.64626" lon="3.38905">
        <ele>144.7</ele>
        <time>2011-03-06T12:02:14Z</time>
      </trkpt>
      <trkpt lat="43.6462" lon="3.38905">
        <ele>144.7</ele>
        <time>2011-03-06T12:02:16Z</time>
      </trkpt>
      <trkpt lat="43.64613" lon="3.38906">
        <ele>144.7</ele>
        <time>2011-03-06T12:02:18Z</time>
      </trkpt>
      <trkpt lat="43.64606" lon="3.38906">
        <ele>144.7</ele>
        <time>2011-03-06T12:02:20Z</time>
      </trkpt>
      <trkpt lat="43.64599" lon="3.38905">
        <ele>144.7</ele>
        <time>2011-03-06T12:02:25Z</time>
      </trkpt>
      <trkpt lat="43.64592" lon="3.3891">
        <ele>144.8</ele>
        <time>2011-03-06T12:02:28Z</time>
      </trkpt>
      <trkpt lat="43.64587" lon="3.38915">
        <ele>145</ele>
        <time>2011-03-06T12:02:30Z</time>
      </trkpt>
      <trkpt lat="43.6458" lon="3.38919">
        <ele>145</ele>
        <time>2011-03-06T12:02:32Z</time>
      </trkpt>
      <trkpt lat="43.64573" lon="3.38924">
        <ele>145.2</ele>
        <time>2011-03-06T12:02:34Z</time>
      </trkpt>
      <trkpt lat="43.64566" lon="3.38929">
        <ele>145.3</ele>
        <time>2011-03-06T12:02:36Z</time>
      </trkpt>
      <trkpt lat="43.64559" lon="3.38933">
        <ele>145.5</ele>
        <time>2011-03-06T12:02:38Z</time>
      </trkpt>
      <trkpt lat="43.64552" lon="3.38939">
        <ele>145.7</ele>
        <time>2011-03-06T12:02:40Z</time>
      </trkpt>
      <trkpt lat="43.64548" lon="3.38942">
        <ele>145.8</ele>
        <time>2011-03-06T12:02:41Z</time>
      </trkpt>
      <trkpt lat="43.64544" lon="3.38945">
        <ele>146</ele>
        <time>2011-03-06T12:02:42Z</time>
      </trkpt>
      <trkpt lat="43.6454" lon="3.3895">
        <ele>146.1</ele>
        <time>2011-03-06T12:02:43Z</time>
      </trkpt>
      <trkpt lat="43.64536" lon="3.38954">
        <ele>146.3</ele>
        <time>2011-03-06T12:02:44Z</time>
      </trkpt>
      <trkpt lat="43.64532" lon="3.38957">
        <ele>146.5</ele>
        <time>2011-03-06T12:02:45Z</time>
      </trkpt>
      <trkpt lat="43.64527" lon="3.3896">
        <ele>146.7</ele>
        <time>2011-03-06T12:02:46Z</time>
      </trkpt>
      <trkpt lat="43.64523" lon="3.38962">
        <ele>146.9</ele>
        <time>2011-03-06T12:02:47Z</time>
      </trkpt>
      <trkpt lat="43.64518" lon="3.38965">
        <ele>147.1</ele>
        <time>2011-03-06T12:02:48Z</time>
      </trkpt>
      <trkpt lat="43.6451" lon="3.3897">
        <ele>147.6</ele>
        <time>2011-03-06T12:02:50Z</time>
      </trkpt>
      <trkpt lat="43.64502" lon="3.38975">
        <ele>148</ele>
        <time>2011-03-06T12:02:52Z</time>
      </trkpt>
      <trkpt lat="43.64494" lon="3.38978">
        <ele>148</ele>
        <time>2011-03-06T12:02:54Z</time>
      </trkpt>
      <trkpt lat="43.6449" lon="3.38979">
        <ele>147.9</ele>
        <time>2011-03-06T12:02:55Z</time>
      </trkpt>
      <trkpt lat="43.64477" lon="3.38984">
        <ele>147.7</ele>
        <time>2011-03-06T12:02:58Z</time>
      </trkpt>
      <trkpt lat="43.64469" lon="3.38987">
        <ele>147.5</ele>
        <time>2011-03-06T12:03:00Z</time>
      </trkpt>
      <trkpt lat="43.64462" lon="3.38991">
        <ele>147.4</ele>
        <time>2011-03-06T12:03:02Z</time>
      </trkpt>
      <trkpt lat="43.64456" lon="3.38999">
        <ele>147.4</ele>
        <time>2011-03-06T12:03:04Z</time>
      </trkpt>
      <trkpt lat="43.64453" lon="3.39004">
        <ele>147.4</ele>
        <time>2011-03-06T12:03:05Z</time>
      </trkpt>
      <trkpt lat="43.6445" lon="3.39009">
        <ele>147.5</ele>
        <time>2011-03-06T12:03:06Z</time>
      </trkpt>
      <trkpt lat="43.64448" lon="3.39016">
        <ele>147.6</ele>
        <time>2011-03-06T12:03:07Z</time>
      </trkpt>
      <trkpt lat="43.64446" lon="3.39022">
        <ele>147.7</ele>
        <time>2011-03-06T12:03:08Z</time>
      </trkpt>
      <trkpt lat="43.64443" lon="3.39027">
        <ele>147.8</ele>
        <time>2011-03-06T12:03:09Z</time>
      </trkpt>
      <trkpt lat="43.64441" lon="3.39033">
        <ele>148</ele>
        <time>2011-03-06T12:03:10Z</time>
      </trkpt>
      <trkpt lat="43.64438" lon="3.39039">
        <ele>148.2</ele>
        <time>2011-03-06T12:03:11Z</time>
      </trkpt>
      <trkpt lat="43.64436" lon="3.39044">
        <ele>148.3</ele>
        <time>2011-03-06T12:03:12Z</time>
      </trkpt>
      <trkpt lat="43.64431" lon="3.39054">
        <ele>148.6</ele>
        <time>2011-03-06T12:03:14Z</time>
      </trkpt>
      <trkpt lat="43.64426" lon="3.39062">
        <ele>149</ele>
        <time>2011-03-06T12:03:16Z</time>
      </trkpt>
      <trkpt lat="43.64419" lon="3.39064">
        <ele>149.1</ele>
        <time>2011-03-06T12:03:18Z</time>
      </trkpt>
      <trkpt lat="43.64414" lon="3.39059">
        <ele>148.7</ele>
        <time>2011-03-06T12:03:20Z</time>
      </trkpt>
      <trkpt lat="43.64411" lon="3.3905">
        <ele>148.2</ele>
        <time>2011-03-06T12:03:22Z</time>
      </trkpt>
      <trkpt lat="43.64407" lon="3.39041">
        <ele>147.7</ele>
        <time>2011-03-06T12:03:24Z</time>
      </trkpt>
      <trkpt lat="43.64398" lon="3.39038">
        <ele>147.3</ele>
        <time>2011-03-06T12:03:26Z</time>
      </trkpt>
      <trkpt lat="43.64394" lon="3.39038">
        <ele>147.1</ele>
        <time>2011-03-06T12:03:27Z</time>
      </trkpt>
      <trkpt lat="43.64389" lon="3.39037">
        <ele>147</ele>
        <time>2011-03-06T12:03:28Z</time>
      </trkpt>
      <trkpt lat="43.64384" lon="3.39037">
        <ele>146.8</ele>
        <time>2011-03-06T12:03:29Z</time>
      </trkpt>
      <trkpt lat="43.64376" lon="3.39036">
        <ele>146.5</ele>
        <time>2011-03-06T12:03:31Z</time>
      </trkpt>
      <trkpt lat="43.64369" lon="3.39035">
        <ele>146.3</ele>
        <time>2011-03-06T12:03:33Z</time>
      </trkpt>
      <trkpt lat="43.64361" lon="3.3904">
        <ele>146.3</ele>
        <time>2011-03-06T12:04:18Z</time>
      </trkpt>
      <trkpt lat="43.64361" lon="3.3904">
        <ele>146.2</ele>
        <time>2011-03-06T12:04:19Z</time>
      </trkpt>
    </trkseg>
  </trk>
</gpx>